<
# Wetter Temperatur Luftdruck Luftfeuchtigkeit Sichtweite Windgeschwindigkeit Windrichtung Zeit
1 Fog 12 1010 71 10000 6 100 20:41 12.07.2020
2 Fog 12 1010 71 10000 6 100 20:20 12.07.2020
3 Fog 10 1011 81 10000 1 10 19:59 12.07.2020
4 Fog 10 1011 81 10000 1 10 19:39 12.07.2020
5 Fog 10 1011 81 10000 4 100 19:19 12.07.2020
6 Fog 9 1011 81 10000 4 100 18:44 12.07.2020
7 Fog 9 1011 81 10000 4 100 18:21 12.07.2020
8 Fog 10 1011 76 10000 3 100 17:59 12.07.2020
9 Fog 10 1011 76 10000 3 100 17:37 12.07.2020
10 Fog 10 1011 76 10000 3 100 17:19 12.07.2020
11 Fog 12 1011 71 10000 4 120 16:47 12.07.2020
12 Fog 12 1011 71 10000 4 120 16:21 12.07.2020
13 Fog 13 1011 66 10000 5 100 15:48 12.07.2020
14 Fog 13 1011 66 10000 5 100 15:29 12.07.2020
15 Fog 11 1012 76 10000 4 120 14:57 12.07.2020
16 Fog 11 1012 76 10000 4 120 14:38 12.07.2020
17 Fog 11 1012 76 10000 4 120 14:19 12.07.2020
18 Fog 11 1012 76 10000 4 120 14:19 12.07.2020
19 Fog 13 1012 62 10000 4 90 13:39 12.07.2020
20 Fog 13 1012 62 10000 4 90 13:21 12.07.2020
21 Fog 12 1012 71 10000 6 80 12:55 12.07.2020
22 Fog 12 1012 71 10000 6 80 12:36 12.07.2020
23 Fog 12 1012 71 10000 6 80 12:18 12.07.2020
24 Clouds 15 1012 47 10000 1 60 11:44 12.07.2020
25 Clouds 15 1012 47 10000 1 60 11:20 12.07.2020
26 Clouds 15 1012 51 10000 6 110 10:43 12.07.2020
27 Clouds 15 1012 51 10000 6 110 10:23 12.07.2020
28 Clouds 15 1012 51 10000 6 110 09:58 12.07.2020
29 Clouds 16 1013 44 10000 7 110 09:39 12.07.2020
30 Clouds 16 1013 44 10000 7 110 09:19 12.07.2020
31 Clouds 16 1013 48 10000 8 110 08:43 12.07.2020
32 Clouds 17 1013 48 10000 8 110 08:23 12.07.2020
33 Clouds 17 1013 48 10000 7 110 07:58 12.07.2020
34 Clouds 18 1013 45 10000 6 120 07:40 12.07.2020
35 Clouds 18 1013 45 10000 6 120 07:21 12.07.2020
36 Clouds 19 1013 42 10000 7 110 06:49 12.07.2020
37 Clouds 18 1013 48 10000 7 110 06:21 12.07.2020
38 Clouds 17 1013 55 10000 5 110 05:23 12.07.2020
39 Clouds 16 1014 55 10000 4 110 04:44 12.07.2020
40 Clouds 16 1014 55 10000 4 110 04:24 12.07.2020
41 Clouds 17 1014 51 10000 4 200 03:31 12.07.2020
42 Clouds 16 1014 55 10000 2 190 02:47 12.07.2020
43 Clouds 16 1014 55 10000 3 190 01:36 12.07.2020
44 Clouds 18 1014 52 10000 4 100 00:44 12.07.2020
45 Clouds 18 1014 52 10000 4 100 00:23 12.07.2020
46 Clouds 15 1015 62 10000 3 100 23:56 11.07.2020
47 Clouds 15 1015 62 10000 3 100 23:38 11.07.2020
48 Clouds 15 1015 62 10000 3 100 23:19 11.07.2020
49 Clouds 17 1014 48 10000 3 100 22:45 11.07.2020
50 Clouds 17 1014 48 10000 3 100 22:26 11.07.2020
51 Clouds 17 1014 45 10000 4 100 21:59 11.07.2020
52 Clouds 17 1014 45 10000 4 100 21:40 11.07.2020
53 Clouds 17 1014 45 10000 4 100 21:21 11.07.2020
54 Clouds 17 1014 42 10000 2 10 20:56 11.07.2020
55 Clouds 17 1014 42 10000 2 10 20:38 11.07.2020
56 Clouds 17 1014 42 10000 2 10 20:20 11.07.2020
57 Clouds 16 1014 51 10000 1 80 19:56 11.07.2020
58 Clouds 16 1014 51 10000 1 80 19:38 11.07.2020
59 Clouds 16 1014 51 10000 1 80 19:20 11.07.2020
60 Clouds 15 1014 58 10000 1 110 18:55 11.07.2020
61 Clouds 15 1014 58 10000 1 110 18:36 11.07.2020
62 Clouds 15 1014 58 10000 1 110 18:18 11.07.2020
63 Clouds 16 1014 63 10000 2 310 17:41 11.07.2020
64 Rain 16 1014 63 10000 2 310 17:21 11.07.2020
65 Rain 16 1014 63 10000 2 200 16:59 11.07.2020
66 Rain 16 1014 63 10000 2 200 16:38 11.07.2020
67 Rain 16 1014 63 10000 2 200 16:19 11.07.2020
68 Rain 16 1014 63 10000 2 200 16:19 11.07.2020
69 Rain 17 1013 63 10000 1 10 15:57 11.07.2020
70 Rain 17 1013 63 10000 1 10 15:37 11.07.2020
71 Rain 17 1013 63 10000 1 10 15:18 11.07.2020
72 Fog 15 1013 72 10000 2.86 151 14:43 11.07.2020
73 Fog 15 1013 72 10000 3.51 154 14:23 11.07.2020
74 Fog 13 1014 82 10000 2 320 13:44 11.07.2020
75 Fog 13 1014 82 10000 2 320 13:23 11.07.2020
76 Clouds 11 1014 93 10000 2 290 12:59 11.07.2020
77 Clouds 11 1014 93 10000 2 290 12:41 11.07.2020
78 Clouds 11 1014 93 10000 2 290 12:23 11.07.2020
79 Clouds 12 1014 87 10000 3 250 11:58 11.07.2020
80 Clouds 12 1014 87 10000 3 250 11:40 11.07.2020
81 Clouds 12 1014 87 10000 3 250 11:19 11.07.2020
82 Clouds 14 1013 82 10000 2 290 10:46 11.07.2020
83 Clouds 14 1013 82 10000 2 290 10:26 11.07.2020
84 Clouds 14 1013 82 10000 2 320 09:56 11.07.2020
85 Clouds 18 1013 63 10000 5 90 09:37 11.07.2020
86 Clouds 18 1013 63 10000 5 90 09:18 11.07.2020
87 Clouds 19 1013 52 10000 6 100 08:38 11.07.2020
88 Clouds 19 1013 52 10000 6 100 08:19 11.07.2020
89 Clouds 18 1014 59 10000 6 110 07:46 11.07.2020
90 Clouds 18 1014 59 10000 6 110 07:27 11.07.2020
91 Clouds 18 1014 59 10000 6 110 07:27 11.07.2020
92 Clouds 17 1014 72 10000 5 110 06:59 11.07.2020
93 Clouds 17 1014 72 10000 5 110 06:22 11.07.2020
94 Clouds 16 1014 72 10000 3 240 05:42 11.07.2020
95 Clouds 19 1014 72 10000 2 250 04:59 11.07.2020
96 Clouds 19 1014 72 10000 2 250 04:37 11.07.2020
97 Clouds 19 1014 72 10000 2 250 04:18 11.07.2020
98 Clouds 16 1015 77 10000 2 220 02:51 11.07.2020
99 Clouds 15 1015 82 10000 2 210 01:53 11.07.2020
100 Clouds 15 1015 82 10000 2 210 01:20 11.07.2020
101 Clouds 14 1015 82 10000 2 210 00:41 11.07.2020
102 Clouds 14 1015 82 10000 2 210 00:22 11.07.2020
103 Clouds 13 1016 87 10000 1 250 23:58 10.07.2020
104 Clouds 13 1016 87 10000 1 250 23:58 10.07.2020
105 Clouds 13 1016 87 10000 1 250 23:40 10.07.2020
106 Clouds 13 1016 87 10000 1 250 23:21 10.07.2020
107 Clouds 13 1016 87 10000 4.57 152 22:47 10.07.2020
108 Clouds 13 1016 87 10000 4.32 152 22:23 10.07.2020
109 Clouds 13 1016 93 10000 4.32 152 21:59 10.07.2020
110 Clouds 13 1016 93 10000 4.32 152 21:38 10.07.2020
111 Clouds 13 1016 93 10000 3.99 149 21:19 10.07.2020
112 Fog 11 1016 93 10000 4.06 141 20:43 10.07.2020
113 Fog 11 1016 93 10000 4.41 141 20:24 10.07.2020
114 Rain 10 1016 100 10000 1 240 19:59 10.07.2020
115 Rain 10 1016 100 10000 1 240 19:41 10.07.2020
116 Rain 10 1016 100 10000 1 240 19:21 10.07.2020
117 Rain 11 1015 93 10000 1 310 18:54 10.07.2020
118 Rain 11 1015 93 10000 1 310 18:36 10.07.2020
119 Rain 10 1015 100 8000 2 240 18:18 10.07.2020
120 Rain 10 1015 100 8000 2 240 17:41 10.07.2020
121 Rain 10 1015 100 8000 2 240 17:22 10.07.2020
122 Rain 11 1015 93 10000 1 100 16:57 10.07.2020
123 Rain 11 1015 93 10000 1 100 16:38 10.07.2020
124 Rain 11 1015 93 10000 1 100 16:18 10.07.2020
125 Rain 11 1016 93 10000 1 300 15:43 10.07.2020
126 Rain 11 1016 93 10000 1 300 15:21 10.07.2020
127 Rain 12 1016 93 10000 2 350 14:44 10.07.2020
128 Rain 13 1016 87 10000 2 350 14:24 10.07.2020
129 Rain 13 1016 87 10000 2 350 13:58 10.07.2020
130 Rain 13 1016 87 10000 2 350 13:40 10.07.2020
131 Rain 13 1016 87 10000 2 350 13:22 10.07.2020
132 Clouds 13 1016 87 10000 1 300 12:59 10.07.2020
133 Clouds 13 1016 87 10000 1 300 12:41 10.07.2020
134 Clouds 13 1016 87 10000 1 300 12:22 10.07.2020
135 Rain 14 1016 87 10000 1 280 11:57 10.07.2020
136 Rain 14 1016 87 10000 1 280 11:38 10.07.2020
137 Clouds 14 1016 87 10000 1 280 11:18 10.07.2020
138 Clouds 16 1016 77 0 3.74 156 10:41 10.07.2020
139 Clouds 17 1016 72 10000 3 110 10:21 10.07.2020
140 Clouds 18 1016 72 10000 3 110 09:55 10.07.2020
141 Clouds 18 1016 72 10000 3 110 09:36 10.07.2020
142 Clouds 18 1016 72 10000 3 110 09:18 10.07.2020
143 Clouds 16 1017 77 10000 2 140 08:46 10.07.2020
144 Clouds 16 1017 77 10000 2 140 08:28 10.07.2020
145 Clouds 17 1017 72 10000 2 170 07:59 10.07.2020
146 Clouds 17 1017 72 10000 3 160 07:41 10.07.2020
147 Clouds 17 1017 72 10000 3 160 07:20 10.07.2020
148 Clouds 17 1017 68 10000 4 160 06:45 10.07.2020
149 Clouds 20 1017 60 10000 2 190 05:53 10.07.2020
150 Clouds 19 1018 63 10000 2 100 04:31 10.07.2020
151 Rain 15 1018 77 10000 2 150 03:26 10.07.2020
152 Rain 15 1018 77 10000 3 160 02:48 10.07.2020
153 Rain 18 1018 63 10000 6 90 01:39 10.07.2020
154 Clouds 19 1018 59 10000 6 110 00:40 10.07.2020
155 Clouds 19 1018 59 10000 7 110 00:18 10.07.2020
156 Clouds 18 1018 59 10000 7 110 23:43 09.07.2020
157 Rain 17 1018 63 10000 7 100 23:20 09.07.2020
158 Rain 16 1018 67 10000 7 100 22:57 09.07.2020
159 Rain 17 1018 59 10000 7 100 22:39 09.07.2020
160 Rain 17 1018 59 10000 7 100 22:20 09.07.2020
161 Rain 16 1018 63 10000 8 100 21:56 09.07.2020
162 Rain 16 1018 63 10000 8 100 21:37 09.07.2020
163 Rain 16 1018 63 10000 8 100 21:18 09.07.2020
164 Rain 16 1018 59 10000 7 100 20:42 09.07.2020
165 Clouds 16 1018 59 10000 7 100 20:24 09.07.2020
166 Clouds 15 1018 62 10000 11 100 19:56 09.07.2020
167 Clouds 15 1018 62 10000 11 100 19:38 09.07.2020
168 Clouds 15 1018 62 10000 11 100 19:20 09.07.2020
169 Clouds 16 1018 63 10000 11 100 18:42 09.07.2020
170 Clouds 16 1018 59 10000 11 100 18:20 09.07.2020
171 Clouds 17 1018 59 10000 11 100 17:55 09.07.2020
172 Clouds 17 1018 59 10000 11 100 17:37 09.07.2020
173 Clouds 17 1018 59 10000 11 100 17:18 09.07.2020
174 Clouds 19 1018 52 10000 10 100 16:54 09.07.2020
175 Clouds 19 1018 52 10000 10 100 16:36 09.07.2020
176 Clouds 19 1018 52 10000 10 100 16:18 09.07.2020
177 Clouds 17 1018 59 10000 8 90 15:45 09.07.2020
178 Clouds 17 1018 59 10000 8 90 15:27 09.07.2020
179 Clouds 18 1018 55 10000 9 100 14:59 09.07.2020
180 Clouds 18 1018 55 10000 9 100 14:40 09.07.2020
181 Clouds 18 1018 55 10000 9 100 14:40 09.07.2020
182 Clouds 18 1018 55 10000 9 100 14:22 09.07.2020
183 Clouds 18 1018 55 10000 5 100 13:58 09.07.2020
184 Clouds 18 1018 55 10000 5 100 13:39 09.07.2020
185 Clouds 18 1018 55 10000 5 100 13:20 09.07.2020
186 Clouds 19 1018 52 10000 4 120 12:43 09.07.2020
187 Clouds 19 1018 52 10000 4 120 12:24 09.07.2020
188 Clouds 18 1018 59 10000 6 120 11:59 09.07.2020
189 Clouds 18 1018 59 10000 6 120 11:41 09.07.2020
190 Clouds 18 1018 59 10000 6 120 11:23 09.07.2020
191 Clouds 18 1018 59 10000 7 100 10:58 09.07.2020
192 Clouds 18 1018 59 10000 7 100 10:40 09.07.2020
193 Clouds 18 1018 59 10000 7 100 10:40 09.07.2020
194 Clouds 18 1018 59 10000 7 100 10:22 09.07.2020
195 Clouds 18 1018 63 10000 8 110 09:44 09.07.2020
196 Clouds 18 1018 63 10000 8 110 09:24 09.07.2020
197 Clouds 17 1017 67 10000 3 150 08:56 09.07.2020
198 Clouds 17 1017 67 10000 3 150 08:37 09.07.2020
199 Clouds 17 1017 67 10000 3 150 08:18 09.07.2020
200 Clouds 17 1017 67 10000 4 140 07:45 09.07.2020
201 Clouds 20 1017 56 10000 3 130 07:22 09.07.2020
202 Clouds 20 1017 60 10000 5 150 06:40 09.07.2020
203 Clouds 20 1017 60 10000 5 150 06:19 09.07.2020
204 Clouds 20 1017 60 10000 5 160 04:29 09.07.2020
205 Clouds 21 1017 56 10000 3 240 03:24 09.07.2020
206 Clouds 22 1016 49 10000 4 280 02:18 09.07.2020
207 Clouds 21 1016 52 10000 3 280 01:23 09.07.2020
208 Clear 20 1016 52 10000 3 280 00:43 09.07.2020
209 Clear 20 1016 52 10000 3 280 00:23 09.07.2020
210 Clear 19 1016 55 10000 3 300 23:44 08.07.2020
211 Clear 19 1016 55 10000 3 280 23:26 08.07.2020
212 Clear 19 1016 55 10000 3 280 22:57 08.07.2020
213 Clear 18 1016 59 10000 2 290 22:38 08.07.2020
214 Clear 17 1016 59 10000 2 290 22:20 08.07.2020
215 Clear 17 1015 63 10000 1 330 21:57 08.07.2020
216 Clear 17 1015 63 10000 1 330 21:38 08.07.2020
217 Clear 17 1015 63 10000 1 330 21:20 08.07.2020
218 Clear 16 1015 63 10000 1 360 20:43 08.07.2020
219 Clouds 16 1015 63 10000 1 360 20:25 08.07.2020
220 Clouds 14 1014 76 10000 2 340 19:58 08.07.2020
221 Clouds 14 1014 76 10000 2 340 19:39 08.07.2020
222 Clouds 14 1014 76 10000 2 340 19:21 08.07.2020
223 Clouds 11 1014 81 10000 2 70 18:42 08.07.2020
224 Clouds 11 1014 81 10000 2 70 18:21 08.07.2020
225 Clouds 9 1014 87 10000 2 130 17:59 08.07.2020
226 Clouds 9 1014 87 10000 2 130 17:40 08.07.2020
227 Clouds 9 1014 87 10000 2 130 17:21 08.07.2020
228 Clouds 12 1013 76 10000 1 170 16:58 08.07.2020
229 Clouds 12 1013 76 10000 1 170 16:38 08.07.2020
230 Clouds 12 1013 76 10000 1 170 16:19 08.07.2020
231 Clouds 12 1013 76 10000 1 270 15:58 08.07.2020
232 Clouds 12 1013 76 10000 1 270 15:38 08.07.2020
233 Clouds 12 1013 76 10000 1 270 15:19 08.07.2020
234 Clouds 13 1013 71 10000 1 240 14:44 08.07.2020
235 Clouds 13 1013 71 10000 1 240 14:25 08.07.2020
236 Clouds 14 1012 71 10000 1 190 13:58 08.07.2020
237 Clouds 14 1012 71 10000 1 190 13:40 08.07.2020
238 Clouds 14 1012 71 10000 1 190 13:40 08.07.2020
239 Clouds 14 1012 71 10000 1 190 13:18 08.07.2020
240 Clouds 14 1012 76 10000 1 160 12:41 08.07.2020
241 Clouds 14 1012 76 10000 1 160 12:20 08.07.2020
242 Clouds 14 1012 76 10000 2 160 11:56 08.07.2020
243 Clouds 14 1012 76 10000 2 160 11:37 08.07.2020
244 Clouds 14 1012 76 10000 2 160 11:19 08.07.2020
245 Clouds 14 1011 82 10000 3 170 10:43 08.07.2020
246 Clouds 15 1011 72 10000 3 210 10:24 08.07.2020
247 Clouds 17 1011 63 10000 4 230 09:46 08.07.2020
248 Clouds 18 1011 59 10000 3 240 09:25 08.07.2020
249 Clouds 18 1011 59 10000 4 250 08:56 08.07.2020
250 Clouds 18 1010 55 10000 4 260 08:38 08.07.2020
251 Clouds 18 1010 55 10000 4 260 08:19 08.07.2020
252 Clouds 18 1010 55 10000 4 250 07:42 08.07.2020
253 Clouds 18 1010 55 10000 4 250 07:19 08.07.2020
254 Clouds 18 1011 55 10000 4 270 06:45 08.07.2020
255 Clouds 18 1011 59 10000 4 270 06:25 08.07.2020
256 Clouds 17 1011 59 10000 4 260 05:45 08.07.2020
257 Clouds 17 1011 59 10000 5 270 04:50 08.07.2020
258 Clouds 16 1011 67 10000 5 290 03:39 08.07.2020
259 Clouds 15 1011 77 10000 4 280 02:19 08.07.2020
260 Clouds 13 1011 87 10000 1 180 01:38 08.07.2020
261 Clouds 12 1011 93 10000 2 190 00:51 08.07.2020
262 Clouds 11 1011 93 10000 3 190 00:20 08.07.2020
263 Clouds 11 1011 93 10000 3 180 23:44 07.07.2020
264 Rain 10 1011 93 9000 3 190 23:22 07.07.2020
265 Rain 10 1011 93 9000 3 200 22:57 07.07.2020
266 Rain 10 1011 93 10000 3 200 22:38 07.07.2020
267 Rain 10 1011 93 10000 3 200 22:20 07.07.2020
268 Rain 9 1011 100 10000 2 190 21:56 07.07.2020
269 Rain 9 1011 100 10000 2 190 21:38 07.07.2020
270 Rain 9 1011 100 10000 2 190 21:19 07.07.2020
271 Rain 9 1011 93 10000 2 210 20:43 07.07.2020
272 Rain 9 1011 93 10000 2 210 20:23 07.07.2020
273 Rain 8 1011 100 10000 1 220 19:59 07.07.2020
274 Rain 8 1011 100 10000 1 220 19:39 07.07.2020
275 Clouds 8 1011 100 0 1.45 213 19:20 07.07.2020
276 Clouds 8 1011 100 0 1.45 213 18:55 07.07.2020
277 Rain 8 1011 100 900 1 160 18:37 07.07.2020
278 Fog 8 1011 100 900 1 160 18:19 07.07.2020
279 Rain 8 1011 100 900 1 160 17:55 07.07.2020
280 Rain 8 1011 100 900 1 160 17:36 07.07.2020
281 Fog 8 1011 100 900 1 160 17:18 07.07.2020
282 Rain 7 1011 100 2300 0.63 186 16:42 07.07.2020
283 Rain 7 1011 100 2300 0.72 211 16:22 07.07.2020
284 Rain 7 1011 100 9000 0.72 211 15:55 07.07.2020
285 Rain 7 1011 100 9000 0.72 211 15:37 07.07.2020
286 Rain 7 1011 100 9000 0.8 194 15:18 07.07.2020
287 Rain 8 1011 93 9000 0.8 194 14:43 07.07.2020
288 Rain 8 1011 93 9000 0.73 185 14:24 07.07.2020
289 Rain 8 1011 100 10000 1.63 161 13:43 07.07.2020
290 Rain 8 1011 100 10000 1.64 159 13:21 07.07.2020
291 Rain 8 1011 93 10000 1.64 159 12:57 07.07.2020
292 Rain 8 1011 93 10000 1.64 159 12:37 07.07.2020
293 Rain 8 1011 100 10000 1.9 153 12:18 07.07.2020
294 Rain 8 1011 100 10000 1.9 153 11:43 07.07.2020
295 Rain 8 1011 100 10000 2.28 163 11:22 07.07.2020
296 Rain 8 1011 93 10000 2.28 163 10:58 07.07.2020
297 Rain 8 1011 93 10000 2.28 163 10:40 07.07.2020
298 Rain 8 1011 93 10000 2.19 165 10:21 07.07.2020
299 Rain 9 1011 87 10000 1 230 09:43 07.07.2020
300 Rain 9 1011 87 10000 1 230 09:22 07.07.2020
301 Clouds 9 1011 87 10000 1 240 08:58 07.07.2020
302 Clouds 9 1011 87 10000 1 240 08:39 07.07.2020
303 Clouds 9 1011 87 10000 1 240 08:19 07.07.2020
304 Clouds 9 1011 87 10000 1 260 07:38 07.07.2020
305 Clouds 9 1011 87 10000 1 260 07:19 07.07.2020
306 Clouds 9 1011 93 10000 0.92 143 06:46 07.07.2020
307 Clouds 9 1011 93 10000 0.78 137 06:26 07.07.2020
308 Clouds 8 1011 93 10000 1 230 05:43 07.07.2020
309 Drizzle 8 1011 93 7000 2 210 04:53 07.07.2020
310 Rain 8 1012 93 2300 1 80 03:50 07.07.2020
311 Rain 8 1012 93 2800 1 0 03:30 07.07.2020
312 Rain 8 1012 93 2800 1 0 03:30 07.07.2020
313 Clouds 9 1012 87 10000 2 30 01:55 07.07.2020
314 Clouds 9 1012 87 10000 2 30 01:18 07.07.2020
315 Clouds 9 1012 87 10000 2 110 00:41 07.07.2020
316 Clouds 9 1012 87 10000 2 110 00:21 07.07.2020
317 Clouds 8 1012 87 10000 2 70 23:44 06.07.2020
318 Clouds 9 1012 81 10000 3 110 23:25 06.07.2020
319 Clouds 8 1012 93 10000 4 100 22:59 06.07.2020
320 Clouds 8 1012 87 10000 4 90 22:39 06.07.2020
321 Clouds 8 1012 87 10000 4 90 22:19 06.07.2020
322 Fog 8 1012 87 10000 3 120 21:56 06.07.2020
323 Fog 8 1012 87 10000 3 120 21:37 06.07.2020
324 Fog 8 1012 87 10000 3 120 21:18 06.07.2020
325 Fog 7 1012 93 10000 3.3 132 20:41 06.07.2020
326 Fog 7 1012 93 10000 3.3 127 20:22 06.07.2020
327 Rain 7 1012 93 10000 5 100 19:59 06.07.2020
328 Rain 7 1012 93 10000 5 100 19:41 06.07.2020
329 Rain 7 1012 93 10000 5 100 19:23 06.07.2020
330 Clouds 7 1012 93 10000 5 90 18:58 06.07.2020
331 Clouds 7 1012 93 10000 5 90 18:40 06.07.2020
332 Clouds 7 1012 93 10000 5 90 18:22 06.07.2020
333 Clouds 7 1012 87 10000 5 90 17:56 06.07.2020
334 Clouds 7 1012 87 10000 5 90 17:37 06.07.2020
335 Clouds 7 1012 87 10000 5 90 17:19 06.07.2020
336 Clouds 7 1012 93 10000 8 110 16:43 06.07.2020
337 Clouds 7 1012 93 10000 8 110 16:23 06.07.2020
338 Clouds 7 1012 93 10000 8 110 15:55 06.07.2020
339 Clouds 7 1012 93 10000 8 110 15:37 06.07.2020
340 Clouds 7 1012 93 10000 8 110 15:37 06.07.2020
341 Clouds 7 1012 93 10000 8 110 15:18 06.07.2020
342 Clouds 7 1012 93 10000 8 110 14:41 06.07.2020
343 Clouds 7 1012 93 10000 8 110 14:23 06.07.2020
344 Clouds 7 1012 93 10000 7 110 13:59 06.07.2020
345 Clouds 7 1012 93 10000 7 110 13:40 06.07.2020
346 Clouds 7 1012 93 10000 7 110 13:21 06.07.2020
347 Clouds 8 1012 87 10000 7 110 12:44 06.07.2020
348 Clouds 8 1012 87 10000 7 110 12:20 06.07.2020
349 Clouds 8 1012 87 10000 6 120 11:59 06.07.2020
350 Clouds 8 1012 87 10000 6 120 11:40 06.07.2020
351 Clouds 8 1012 87 10000 6 120 11:22 06.07.2020
352 Clouds 9 1011 81 10000 8 100 10:58 06.07.2020
353 Clouds 9 1011 81 10000 8 100 10:58 06.07.2020
354 Clouds 9 1011 81 10000 8 100 10:40 06.07.2020
355 Clouds 9 1011 81 10000 8 100 10:19 06.07.2020
356 Clouds 10 1011 81 10000 8 100 09:46 06.07.2020
357 Clouds 10 1011 81 10000 8 100 09:22 06.07.2020
358 Clouds 10 1011 81 10000 8 110 08:59 06.07.2020
359 Clouds 10 1011 81 10000 8 110 08:40 06.07.2020
360 Clouds 10 1011 81 10000 8 110 08:21 06.07.2020
361 Clouds 10 1011 81 10000 8 110 07:48 06.07.2020
362 Clouds 10 1011 81 10000 7 100 07:29 06.07.2020
363 Clouds 11 1011 76 10000 8 100 06:55 06.07.2020
364 Fog 10 1011 81 10000 8 110 06:36 06.07.2020
365 Clouds 11 1011 76 10000 9 110 05:47 06.07.2020
366 Clouds 11 1011 76 10000 8 120 05:26 06.07.2020
367 Clouds 9 1011 81 10000 8 120 03:53 06.07.2020
368 Fog 8 1011 87 10000 9 120 02:32 06.07.2020
369 Clouds 8 1011 87 9000 8 120 01:54 06.07.2020
370 Clouds 9 1010 87 10000 9 120 00:49 06.07.2020
371 Clouds 8 1010 87 10000 9 120 00:23 06.07.2020
372 Clouds 9 1010 81 10000 8 120 23:56 05.07.2020
373 Clouds 9 1010 81 10000 8 120 23:38 05.07.2020
374 Clouds 9 1010 81 10000 8 120 23:19 05.07.2020
375 Clouds 8 1009 87 10000 7 130 22:41 05.07.2020
376 Clouds 8 1009 87 10000 7 130 22:21 05.07.2020
377 Clouds 7 1009 93 10000 6 120 21:58 05.07.2020
378 Clouds 7 1009 93 10000 6 120 21:40 05.07.2020
379 Clouds 7 1009 93 10000 6 120 21:19 05.07.2020
380 Rain 7 1008 93 8000 7 120 20:58 05.07.2020
381 Rain 7 1008 93 8000 7 120 20:40 05.07.2020
382 Rain 7 1008 93 8000 7 120 20:21 05.07.2020
383 Clouds 7 1008 93 10000 8 100 19:55 05.07.2020
384 Clouds 7 1008 93 10000 8 100 19:37 05.07.2020
385 Clouds 7 1008 93 10000 8 100 19:19 05.07.2020
386 Clouds 7 1008 93 10000 5 80 18:42 05.07.2020
387 Clouds 7 1008 93 10000 5 80 18:22 05.07.2020
388 Rain 7 1007 93 3300 6 100 17:56 05.07.2020
389 Rain 7 1007 93 3300 6 100 17:38 05.07.2020
390 Rain 7 1007 93 3300 6 100 17:19 05.07.2020
391 Rain 7 1007 93 2900 6 90 16:44 05.07.2020
392 Rain 7 1007 93 2900 6 90 16:25 05.07.2020
393 Mist 7 1007 93 5000 7 100 15:56 05.07.2020
394 Rain 7 1007 93 5000 7 100 15:37 05.07.2020
395 Mist 7 1007 93 5000 7 100 15:18 05.07.2020
396 Rain 7 1007 93 9000 10 100 14:41 05.07.2020
397 Rain 7 1007 93 9000 10 100 14:22 05.07.2020
398 Rain 7 1007 93 7000 10 100 13:43 05.07.2020
399 Rain 7 1007 93 7000 10 100 13:24 05.07.2020
400 Rain 7 1007 93 3200 9 100 12:56 05.07.2020
401 Rain 7 1007 93 3200 9 100 12:38 05.07.2020
402 Rain 7 1007 93 3200 9 100 12:20 05.07.2020
403 Rain 7 1006 93 9000 12 100 11:54 05.07.2020
404 Rain 7 1006 93 9000 12 100 11:36 05.07.2020
405 Rain 7 1006 93 9000 12 100 11:18 05.07.2020
406 Rain 7 1006 93 4400 12 110 10:42 05.07.2020
407 Rain 7 1006 93 4400 12 110 10:19 05.07.2020
408 Rain 7 1005 93 2700 13 110 09:58 05.07.2020
409 Rain 7 1005 93 2700 13 110 09:40 05.07.2020
410 Rain 7 1005 93 2700 13 110 09:20 05.07.2020
411 Rain 7 1006 93 3500 14 100 08:47 05.07.2020
412 Rain 7 1006 93 3500 14 100 08:29 05.07.2020
413 Rain 8 1006 87 3800 15 110 07:48 05.07.2020
414 Rain 8 1006 87 3800 15 110 07:29 05.07.2020
415 Rain 8 1006 93 2600 15 110 06:53 05.07.2020
416 Rain 8 1007 93 1900 16 100 05:48 05.07.2020
417 Mist 8 1007 93 2800 15 100 03:35 05.07.2020
418 Rain 8 1008 93 3600 16 100 02:43 05.07.2020
419 Rain 8 1008 93 3600 16 100 02:25 05.07.2020
420 Rain 8 1008 93 2800 15 100 01:41 05.07.2020
421 Rain 8 1008 93 2800 15 100 01:18 05.07.2020
422 Mist 8 1008 93 2900 16 100 00:40 05.07.2020
423 Rain 8 1008 93 2900 16 100 00:21 05.07.2020
424 Rain 8 1009 87 2800 14 100 23:47 04.07.2020
425 Mist 8 1009 87 2800 14 100 23:28 04.07.2020
426 Rain 7 1009 93 3700 9 100 22:57 04.07.2020
427 Rain 7 1009 93 3700 9 100 22:38 04.07.2020
428 Rain 7 1009 93 3700 9 100 22:20 04.07.2020
429 Rain 7 1010 93 2300 10 100 21:43 04.07.2020
430 Rain 7 1010 93 2300 10 100 21:23 04.07.2020
431 Rain 6 1010 93 1800 10 100 20:59 04.07.2020
432 Rain 6 1010 93 1800 10 100 20:41 04.07.2020
433 Rain 6 1010 93 1800 10 100 20:20 04.07.2020
434 Fog 6 1010 93 10000 11 100 19:45 04.07.2020
435 Clouds 6 1010 93 7000 12 110 19:22 04.07.2020
436 Clouds 6 1010 93 7000 12 110 18:59 04.07.2020
437 Clouds 6 1010 93 7000 12 110 18:41 04.07.2020
438 Mist 6 1009 93 5000 15 110 18:21 04.07.2020
439 Mist 6 1009 93 5000 15 110 17:44 04.07.2020
440 Mist 6 1009 93 5000 15 110 17:26 04.07.2020
441 Mist 6 1009 93 3600 18 110 16:58 04.07.2020
442 Mist 6 1009 93 3600 18 110 16:38 04.07.2020
443 Mist 6 1009 93 3600 18 110 16:20 04.07.2020
444 Fog 6 1010 93 10000 10 100 15:56 04.07.2020
445 Fog 6 1010 93 10000 10 100 15:37 04.07.2020
446 Fog 6 1010 93 10000 10 100 15:19 04.07.2020
447 Mist 6 1011 93 8000 6 100 14:38 04.07.2020
448 Mist 6 1011 93 8000 6 100 14:20 04.07.2020
449 Rain 6 1012 93 10000 4 120 13:59 04.07.2020
450 Rain 6 1012 93 10000 4 120 13:41 04.07.2020
451 Rain 6 1012 93 10000 4 120 13:18 04.07.2020
452 Mist 6 1011 93 1900 9 110 12:43 04.07.2020
453 Drizzle 6 1011 93 1900 9 110 12:22 04.07.2020
454 Drizzle 6 1012 93 9000 7 100 11:57 04.07.2020
455 Mist 6 1012 93 9000 7 100 11:38 04.07.2020
456 Drizzle 6 1012 93 9000 7 100 11:19 04.07.2020
457 Fog 6 1012 93 10000 8 100 10:42 04.07.2020
458 Fog 6 1012 93 10000 8 100 10:22 04.07.2020
459 Drizzle 6 1012 93 5000 8 110 09:59 04.07.2020
460 Drizzle 6 1012 93 5000 8 110 09:40 04.07.2020
461 Mist 6 1012 93 5000 8 110 09:20 04.07.2020
462 Rain 6 1012 93 10000 9 100 08:50 04.07.2020
463 Rain 6 1012 93 10000 9 100 08:32 04.07.2020
464 Rain 6 1012 93 8000 9 100 07:54 04.07.2020
465 Rain 6 1012 93 8000 9 100 07:35 04.07.2020
466 Clouds 7 1012 87 10000 8 100 06:57 04.07.2020
467 Clouds 7 1012 87 10000 8 100 06:23 04.07.2020
468 Clouds 7 1012 87 10000 8 110 05:41 04.07.2020
469 Clouds 7 1012 87 10000 10 120 04:57 04.07.2020
470 Clouds 8 1012 81 10000 11 120 03:34 04.07.2020
471 Clouds 8 1012 81 10000 11 120 02:35 04.07.2020
472 Clouds 8 1012 81 10000 10 130 01:38 04.07.2020
473 Clouds 8 1012 81 10000 11 130 00:47 04.07.2020
474 Clouds 8 1012 81 10000 11 130 00:29 04.07.2020
475 Clouds 9 1013 70 10000 12 130 23:54 03.07.2020
476 Clouds 9 1013 70 10000 12 130 23:36 03.07.2020
477 Clouds 9 1013 70 10000 12 130 23:18 03.07.2020
478 Clouds 11 1012 57 10000 9 120 22:41 03.07.2020
479 Clouds 11 1012 57 10000 9 120 22:23 03.07.2020
480 Clouds 10 1013 57 10000 7 110 21:56 03.07.2020
481 Clouds 10 1013 57 10000 7 110 21:37 03.07.2020
482 Clouds 10 1013 57 10000 7 110 21:18 03.07.2020
483 Clouds 10 1013 57 10000 7 110 21:18 03.07.2020
484 Clouds 9 1013 61 10000 7 110 20:42 03.07.2020
485 Clouds 9 1013 61 10000 7 110 20:24 03.07.2020
486 Clouds 9 1013 61 0 7.6 120 19:42 03.07.2020
487 Clouds 9 1013 70 10000 6 110 19:21 03.07.2020
488 Clouds 8 1013 70 10000 6 110 18:58 03.07.2020
489 Clouds 8 1013 70 10000 6 110 18:40 03.07.2020
490 Clouds 8 1012 70 10000 7 120 18:22 03.07.2020
491 Clouds 8 1012 70 10000 7 120 17:45 03.07.2020
492 Clouds 8 1012 70 10000 7 120 17:23 03.07.2020
493 Clouds 9 1012 61 10000 8 110 16:58 03.07.2020
494 Clouds 9 1012 61 10000 7 130 16:39 03.07.2020
495 Clouds 9 1012 61 10000 7 130 16:19 03.07.2020
496 Clouds 9 1012 61 10000 6 120 15:39 03.07.2020
497 Clouds 9 1012 61 10000 6 120 15:20 03.07.2020
498 Clouds 10 1012 57 10000 5 130 14:55 03.07.2020
499 Clouds 10 1012 61 10000 5 120 14:36 03.07.2020
500 Clouds 10 1012 61 10000 5 120 14:18 03.07.2020
501 Clouds 11 1011 62 10000 6 150 13:41 03.07.2020
502 Clouds 11 1011 62 10000 6 150 13:22 03.07.2020
503 Clouds 11 1011 62 10000 5 150 12:44 03.07.2020
504 Clouds 11 1011 62 10000 5 150 12:23 03.07.2020
505 Clouds 12 1011 62 10000 5 160 11:56 03.07.2020
506 Clouds 12 1010 62 10000 6 160 11:38 03.07.2020
507 Clouds 12 1010 62 10000 6 160 11:19 03.07.2020
508 Clouds 13 1010 62 10000 5 150 10:54 03.07.2020
509 Clouds 13 1010 62 10000 7 150 10:36 03.07.2020
510 Clouds 13 1010 62 10000 7 150 10:18 03.07.2020
511 Clouds 14 1009 58 10000 7 140 09:40 03.07.2020
512 Clear 14 1009 58 10000 7 140 09:22 03.07.2020
513 Clear 14 1009 58 10000 7 150 08:57 03.07.2020
514 Clear 15 1009 54 10000 7 130 08:38 03.07.2020
515 Clouds 15 1009 54 10000 7 130 08:18 03.07.2020
516 Clouds 15 1009 54 10000 7 130 08:18 03.07.2020
517 Clouds 15 1009 54 10000 7 130 07:47 03.07.2020
518 Clouds 15 1008 54 10000 7 130 07:22 03.07.2020
519 Clouds 15 1008 51 10000 8 130 06:38 03.07.2020
520 Clouds 14 1009 54 10000 9 130 05:55 03.07.2020
521 Clouds 14 1009 54 10000 9 130 05:55 03.07.2020
522 Clouds 14 1009 54 10000 9 130 05:55 03.07.2020
523 Clouds 14 1008 58 10000 8 120 04:28 03.07.2020
524 Clouds 16 1008 51 10000 8 120 02:57 03.07.2020
525 Clouds 15 1008 58 10000 7 120 02:32 03.07.2020
526 Clouds 15 1008 54 10000 7 140 01:51 03.07.2020
527 Clear 14 1008 54 10000 7 130 01:22 03.07.2020
528 Clear 12 1008 62 10000 7 150 00:42 03.07.2020
529 Clear 12 1008 62 10000 7 150 00:18 03.07.2020
530 Clear 11 1007 66 10000 6 150 23:43 02.07.2020
531 Clear 10 1007 66 10000 6 150 23:20 02.07.2020
532 Clear 9 1007 70 10000 7 180 22:57 02.07.2020
533 Clear 9 1007 76 10000 6 180 22:38 02.07.2020
534 Clear 9 1007 76 10000 6 180 22:20 02.07.2020
535 Clear 8 1006 81 10000 5 160 21:54 02.07.2020
536 Clear 8 1006 81 10000 5 160 21:36 02.07.2020
537 Clear 8 1006 81 10000 5 160 21:18 02.07.2020
538 Clear 7 1006 87 10000 6 180 20:41 02.07.2020
539 Clouds 7 1006 87 10000 6 180 20:20 02.07.2020
540 Clouds 7 1005 87 10000 3 160 19:56 02.07.2020
541 Clouds 7 1005 87 10000 3 160 19:38 02.07.2020
542 Clouds 6 1004 93 10000 3 150 19:19 02.07.2020
543 Clouds 5 1004 93 10000 3 150 18:55 02.07.2020
544 Clouds 5 1004 93 10000 3 150 18:37 02.07.2020
545 Clouds 5 1004 93 10000 3 150 18:18 02.07.2020
546 Clouds 4 1003 93 10000 3 150 17:39 02.07.2020
547 Clouds 4 1003 93 10000 3 150 17:20 02.07.2020
548 Fog 5 1002 93 10000 1 150 16:56 02.07.2020
549 Fog 5 1002 93 10000 1 150 16:37 02.07.2020
550 Fog 5 1002 93 10000 1 150 16:19 02.07.2020
551 Fog 5 1002 100 10000 1 160 15:39 02.07.2020
552 Fog 5 1002 100 10000 1 160 15:21 02.07.2020
553 Clouds 6 1001 93 10000 1 210 14:46 02.07.2020
554 Clouds 6 1001 93 10000 1 210 14:28 02.07.2020
555 Clouds 6 1000 93 10000 2 260 13:58 02.07.2020
556 Clouds 6 1000 93 10000 2 260 13:58 02.07.2020
557 Clouds 6 1000 93 10000 2 260 13:40 02.07.2020
558 Clouds 6 1000 93 10000 2 260 13:20 02.07.2020
559 Rain 6 999 93 8000 1 190 12:58 02.07.2020
560 Rain 6 999 93 8000 1 190 12:39 02.07.2020
561 Rain 6 999 93 8000 1 190 12:21 02.07.2020
562 Rain 6 999 93 10000 3 120 11:44 02.07.2020
563 Rain 6 999 93 10000 3 120 11:25 02.07.2020
564 Rain 6 998 93 10000 4 110 10:48 02.07.2020
565 Fog 6 998 93 10000 4 110 10:28 02.07.2020
566 Fog 6 998 93 10000 4 110 10:28 02.07.2020
567 Fog 6 998 93 10000 4 110 10:28 02.07.2020
568 Rain 6 998 93 9000 5 120 09:59 02.07.2020
569 Rain 6 998 93 9000 5 120 09:40 02.07.2020
570 Rain 6 998 93 9000 5 120 09:20 02.07.2020
571 Rain 6 998 93 9000 7 110 08:55 02.07.2020
572 Rain 6 998 93 9000 7 110 08:37 02.07.2020
573 Rain 6 998 93 9000 7 110 08:18 02.07.2020
574 Rain 6 998 93 10000 7 110 07:40 02.07.2020
575 Fog 6 998 93 10000 7 110 07:19 02.07.2020
576 Rain 6 998 100 5000 8 110 06:40 02.07.2020
577 Rain 6 998 100 5000 8 110 06:20 02.07.2020
578 Rain 6 998 93 9000 8 110 05:44 02.07.2020
579 Rain 6 998 100 7000 11 120 03:57 02.07.2020
580 Mist 6 998 100 3500 11 110 03:31 02.07.2020
581 Rain 6 999 100 6000 11 110 01:23 02.07.2020
582 Rain 6 999 100 3600 11 110 00:25 02.07.2020
583 Rain 6 999 100 2200 10 110 23:51 01.07.2020
584 Rain 6 999 100 2400 11 110 23:30 01.07.2020
585 Rain 6 1000 93 2800 12 100 22:57 01.07.2020
586 Rain 6 1000 93 2700 12 100 22:38 01.07.2020
587 Rain 6 1000 93 2700 12 100 22:38 01.07.2020
588 Rain 6 1000 93 2700 12 100 22:19 01.07.2020
589 Rain 6 1000 93 2700 12 100 22:19 01.07.2020
590 Rain 6 1001 93 3800 12 100 21:59 01.07.2020
591 Rain 6 1001 93 3800 12 100 21:40 01.07.2020
592 Rain 6 1001 93 3800 12 100 21:22 01.07.2020
593 Rain 6 1002 93 3700 11 100 20:58 01.07.2020
594 Rain 6 1002 93 3700 11 100 20:40 01.07.2020
595 Rain 6 1002 93 3700 11 100 20:21 01.07.2020
596 Rain 6 1003 93 3000 9 90 19:55 01.07.2020
597 Rain 6 1003 93 3000 9 90 19:37 01.07.2020
598 Rain 6 1003 93 3000 9 90 19:18 01.07.2020
599 Rain 5 1004 93 8000 11 90 18:42 01.07.2020
600 Rain 5 1004 93 8000 11 90 18:21 01.07.2020
601 Rain 5 1004 93 8000 11 90 18:21 01.07.2020
602 Rain 5 1004 93 8000 11 90 18:21 01.07.2020
603 Rain 5 1005 100 10000 10 100 17:58 01.07.2020
604 Rain 5 1005 100 10000 10 100 17:38 01.07.2020
605 Rain 5 1005 100 10000 10 100 17:19 01.07.2020
606 Rain 5 1005 100 10000 10 100 17:19 01.07.2020
607 Rain 6 1005 93 10000 9 100 16:46 01.07.2020
608 Rain 6 1005 93 10000 9 100 16:27 01.07.2020
609 Rain 6 1006 93 10000 8 100 15:55 01.07.2020
610 Rain 6 1006 93 10000 8 100 15:37 01.07.2020
611 Rain 6 1006 93 10000 8 100 15:19 01.07.2020
612 Rain 6 1007 93 10000 7 110 14:44 01.07.2020
613 Rain 6 1007 93 10000 7 110 14:21 01.07.2020
614 Rain 6 1007 93 10000 6 100 13:57 01.07.2020
615 Rain 6 1007 93 10000 6 100 13:38 01.07.2020
616 Rain 6 1007 93 10000 6 100 13:20 01.07.2020
617 Rain 6 1008 93 8000 7 100 12:57 01.07.2020
618 Rain 6 1008 93 8000 7 100 12:38 01.07.2020
619 Rain 6 1008 93 8000 7 100 12:20 01.07.2020
620 Rain 6 1008 93 8000 7 100 12:20 01.07.2020
621 Rain 6 1008 93 9000 6 100 11:40 01.07.2020
622 Rain 6 1008 93 9000 6 100 11:22 01.07.2020
623 Rain 6 1008 93 10000 4 100 10:58 01.07.2020
624 Fog 6 1008 93 10000 4 100 10:39 01.07.2020
625 Rain 6 1008 93 10000 4 100 10:21 01.07.2020
626 Rain 6 1009 93 10000 6 110 09:40 01.07.2020
627 Rain 6 1009 93 10000 6 110 09:20 01.07.2020
628 Rain 6 1009 100 10000 5 110 08:59 01.07.2020
629 Rain 6 1009 100 10000 5 110 08:40 01.07.2020
630 Rain 6 1009 100 10000 5 110 08:21 01.07.2020
631 Rain 7 1009 93 10000 5 100 07:44 01.07.2020
632 Rain 7 1009 93 10000 5 100 07:25 01.07.2020
633 Rain 8 1009 87 10000 4 100 06:59 01.07.2020
634 Rain 8 1009 87 10000 3 100 06:41 01.07.2020
635 Rain 8 1009 87 10000 3 100 06:21 01.07.2020
636 Rain 7 1009 93 10000 2 180 04:30 01.07.2020
637 Rain 7 1010 100 10000 2 190 03:44 01.07.2020
638 Rain 7 1009 93 10000 2 220 03:26 01.07.2020
639 Rain 8 1010 87 10000 4.22 348 02:33 01.07.2020
640 Clouds 8 1010 81 10000 2 260 01:25 01.07.2020
641 Clouds 8 1009 81 10000 2 290 00:38 01.07.2020
642 Clouds 8 1009 81 10000 2 290 00:20 01.07.2020
643 Clouds 8 1009 81 10000 1 310 23:40 30.06.2020
644 Clouds 8 1009 81 10000 1 310 23:40 30.06.2020
645 Clouds 8 1009 81 10000 1 310 23:20 30.06.2020
646 Clouds 7 1009 87 10000 1 260 22:42 30.06.2020
647 Clouds 7 1009 87 10000 1 260 22:19 30.06.2020
648 Clouds 7 1009 81 10000 1 220 21:55 30.06.2020
649 Clouds 7 1009 81 10000 1 220 21:37 30.06.2020
650 Clouds 7 1009 81 10000 1 220 21:18 30.06.2020
651 Clouds 7 1009 87 10000 2 360 20:42 30.06.2020
652 Clouds 7 1009 87 10000 2 360 20:21 30.06.2020
653 Clouds 6 1009 87 10000 2 10 19:44 30.06.2020
654 Clouds 6 1009 87 10000 2 10 19:22 30.06.2020
655 Clouds 6 1009 87 10000 2 350 18:58 30.06.2020
656 Clouds 6 1009 87 10000 2 350 18:40 30.06.2020
657 Clouds 6 1009 87 10000 2 350 18:20 30.06.2020
658 Clouds 6 1009 87 10000 2 20 17:40 30.06.2020
659 Clouds 6 1009 87 10000 2 20 17:21 30.06.2020
660 Clouds 6 1009 87 10000 2 20 16:58 30.06.2020
661 Clouds 6 1009 87 10000 2 20 16:58 30.06.2020
662 Clouds 6 1009 87 10000 2 20 16:40 30.06.2020
663 Clouds 6 1009 87 10000 2 20 16:21 30.06.2020
664 Clouds 6 1009 87 10000 4 40 15:56 30.06.2020
665 Clouds 6 1009 87 10000 4 40 15:38 30.06.2020
666 Clouds 6 1009 87 10000 4 40 15:19 30.06.2020
667 Clouds 6 1009 87 10000 3 30 14:43 30.06.2020
668 Clouds 6 1009 87 10000 3 30 14:21 30.06.2020
669 Clouds 6 1009 87 10000 5 80 13:57 30.06.2020
670 Clouds 6 1009 87 10000 5 80 13:37 30.06.2020
671 Clouds 6 1009 87 10000 5 80 13:37 30.06.2020
672 Clouds 6 1009 87 10000 5 80 13:19 30.06.2020
673 Clouds 6 1009 81 10000 2.97 70 12:55 30.06.2020
674 Clouds 6 1009 81 10000 2.97 70 12:37 30.06.2020
675 Clouds 6 1009 81 10000 2.99 108 12:18 30.06.2020
676 Clouds 6 1009 81 10000 2.99 108 12:18 30.06.2020
677 Clouds 7 1009 75 10000 2.99 108 11:56 30.06.2020
678 Clouds 7 1009 75 10000 2.99 108 11:37 30.06.2020
679 Clouds 7 1009 75 10000 3.43 131 11:18 30.06.2020
680 Clouds 2 999 80 10000 1 80 16:47 28.06.2020
681 Clouds 2 999 80 10000 1 80 16:28 28.06.2020
682 Rain 0 1000 70 10000 3 30 15:59 28.06.2020
683 Rain 0 1000 70 10000 3 30 15:59 28.06.2020
684 Rain 0 1000 70 10000 3 30 15:40 28.06.2020
685 Rain 0 1000 70 10000 3 30 15:20 28.06.2020
686 Clouds 2 1000 80 10000 2 330 14:58 28.06.2020
687 Clouds 2 1000 80 10000 2 330 14:39 28.06.2020
688 Clouds 2 1000 80 10000 2 330 14:21 28.06.2020
689 Rain 2 1000 80 10000 4 350 13:40 28.06.2020
690 Rain 2 1000 80 10000 4 350 13:21 28.06.2020
691 Clouds 3 1000 71 10000 3 330 12:58 28.06.2020
692 Clouds 3 1000 71 10000 3 330 12:38 28.06.2020
693 Clouds 3 1000 69 10000 3 330 12:19 28.06.2020
694 Rain 4 1000 80 10000 4 360 11:58 28.06.2020
695 Rain 4 1000 80 10000 4 360 11:40 28.06.2020
696 Rain 4 1000 80 10000 4 360 11:20 28.06.2020
697 Clouds 5 999 80 10000 8 340 10:58 28.06.2020
698 Clouds 5 999 80 10000 8 340 10:39 28.06.2020
699 Clouds 5 999 80 10000 8 340 10:21 28.06.2020
700 Rain 6 998 81 10000 9 300 09:41 28.06.2020
701 Rain 6 998 81 10000 9 300 09:22 28.06.2020
702 Rain 5 998 80 10000 9 290 08:55 28.06.2020
703 Rain 5 998 80 10000 9 290 08:35 28.06.2020
704 Clouds 6 998 67 10000 10 290 07:55 28.06.2020
705 Clouds 6 998 67 10000 10 290 07:31 28.06.2020
706 Rain 6 998 66 10000 9 290 06:55 28.06.2020
707 Rain 6 998 66 10000 9 290 06:32 28.06.2020
708 Rain 5 998 65 10000 9 290 05:30 28.06.2020
709 Rain 6 998 56 10000 9 300 03:52 28.06.2020
710 Clouds 5 998 60 10000 8 280 02:56 28.06.2020
711 Clouds 5 998 60 10000 8 280 02:19 28.06.2020
712 Rain 4 998 64 10000 8 290 01:27 28.06.2020
713 Clouds 4 998 60 10000 8 290 00:53 28.06.2020
714 Clouds 4 998 60 10000 8 290 00:29 28.06.2020
715 Clouds 3 998 64 10000 9 290 23:45 27.06.2020
716 Clouds 3 998 64 10000 9 290 23:24 27.06.2020
717 Clouds 3 998 64 10000 10 290 22:59 27.06.2020
718 Clouds 3 998 64 10000 10 290 22:59 27.06.2020
719 Clouds 3 998 64 10000 10 290 22:41 27.06.2020
720 Clouds 3 998 64 10000 10 290 22:23 27.06.2020
721 Clouds 3 998 64 10000 11 290 21:57 27.06.2020
722 Clouds 3 998 64 10000 11 290 21:38 27.06.2020
723 Clouds 3 998 64 10000 11 290 21:20 27.06.2020
724 Clouds 3 998 64 10000 11 290 21:20 27.06.2020
725 Clouds 3 998 64 10000 11 290 20:45 27.06.2020
726 Clouds 3 998 64 10000 11 290 20:45 27.06.2020
727 Clouds 3 998 64 10000 11 290 20:19 27.06.2020
728 Clouds 3 998 64 10000 11 290 20:19 27.06.2020
729 Clouds 3 998 69 10000 10 290 19:56 27.06.2020
730 Clouds 3 998 69 10000 10 290 19:37 27.06.2020
731 Clouds 3 998 69 10000 10 290 19:18 27.06.2020
732 Clouds 2 999 74 10000 8 290 18:47 27.06.2020
733 Clouds 2 999 74 10000 8 290 18:28 27.06.2020
734 Clouds 2 999 74 10000 7 290 17:59 27.06.2020
735 Clouds 2 999 74 10000 7 290 17:59 27.06.2020
736 Clouds 2 999 74 10000 7 290 17:39 27.06.2020
737 Clouds 2 999 74 10000 7 290 17:19 27.06.2020
738 Clouds 3 999 69 10000 9 290 16:48 27.06.2020
739 Clouds 3 999 69 10000 9 290 16:30 27.06.2020
740 Clouds 3 999 69 10000 8 290 15:59 27.06.2020
741 Clouds 3 999 69 10000 8 290 15:41 27.06.2020
742 Clear 3 999 69 10000 8 290 15:21 27.06.2020
743 Clouds 3 1000 69 10000 8 300 14:43 27.06.2020
744 Clouds 3 1000 69 10000 8 300 14:25 27.06.2020
745 Clouds 4 1000 60 10000 8 290 13:59 27.06.2020
746 Clouds 4 1000 60 10000 8 290 13:38 27.06.2020
747 Rain 4 1000 55 10000 9 300 13:20 27.06.2020
748 Rain 4 1000 55 10000 9 300 12:58 27.06.2020
749 Rain 4 1000 55 10000 9 300 12:39 27.06.2020
750 Rain 4 1000 55 10000 9 300 12:21 27.06.2020
751 Rain 5 1000 52 10000 9 300 11:55 27.06.2020
752 Rain 5 1000 52 10000 9 300 11:37 27.06.2020
753 Rain 5 1000 52 10000 9 300 11:18 27.06.2020
754 Rain 5 1000 52 10000 9 300 11:18 27.06.2020
755 Rain 5 1000 52 10000 9 300 11:18 27.06.2020
756 Rain 5 1000 60 10000 9 290 10:39 27.06.2020
757 Rain 5 1000 60 10000 9 290 10:19 27.06.2020
758 Rain 6 1000 48 10000 10 300 09:41 27.06.2020
759 Rain 6 1000 48 10000 10 300 09:23 27.06.2020
760 Clouds 7 999 45 10000 8 320 08:59 27.06.2020
761 Clouds 7 999 45 10000 8 320 08:39 27.06.2020
762 Clouds 7 999 45 10000 8 320 08:21 27.06.2020
763 Clouds 7 999 45 10000 10 300 07:45 27.06.2020
764 Clouds 7 999 45 10000 10 300 07:24 27.06.2020
765 Clouds 7 999 48 10000 9 330 06:46 27.06.2020
766 Clouds 7 999 48 10000 9 330 06:27 27.06.2020
767 Clouds 8 999 49 10000 9 300 04:23 27.06.2020
768 Clouds 7 999 52 10000 9 320 03:52 27.06.2020
769 Clouds 7 998 52 10000 10 310 02:56 27.06.2020
770 Clouds 7 998 52 10000 10 310 02:34 27.06.2020
771 Clouds 7 998 52 10000 12 300 01:43 27.06.2020
772 Clouds 7 998 52 10000 12 300 01:22 27.06.2020
773 Clouds 7 997 56 10000 12 300 00:36 27.06.2020
774 Clouds 6 997 65 10000 11 320 23:45 26.06.2020
775 Clouds 6 997 66 10000 11 320 23:25 26.06.2020
776 Clouds 6 996 70 10000 12 310 22:56 26.06.2020
777 Clouds 6 996 70 10000 12 310 22:38 26.06.2020
778 Clouds 6 996 70 10000 12 310 22:19 26.06.2020
779 Clouds 5 995 68 10000 13 320 21:57 26.06.2020
780 Clouds 5 995 68 10000 13 320 21:37 26.06.2020
781 Clouds 5 995 69 10000 13 320 21:19 26.06.2020
782 Clouds 5 994 69 10000 13 320 20:43 26.06.2020
783 Clouds 5 994 71 10000 13 320 20:21 26.06.2020
784 Clouds 5 993 75 10000 13 320 19:47 26.06.2020
785 Clouds 5 993 75 10000 13 320 19:23 26.06.2020
786 Clouds 5 993 80 10000 15 300 18:57 26.06.2020
787 Clouds 5 993 80 10000 15 300 18:37 26.06.2020
788 Clouds 5 993 80 10000 15 300 18:19 26.06.2020
789 Clouds 5 992 86 10000 14 300 17:44 26.06.2020
790 Clouds 5 992 86 10000 14 300 17:24 26.06.2020
791 Clouds 7 990 87 10000 14 300 16:49 26.06.2020
792 Clouds 7 990 87 10000 14 300 16:26 26.06.2020
793 Rain 7 989 93 10000 13 310 15:55 26.06.2020
794 Rain 7 989 93 10000 13 310 15:37 26.06.2020
795 Rain 7 989 93 10000 13 310 15:19 26.06.2020
796 Mist 9 987 93 3900 12 320 14:56 26.06.2020
797 Rain 9 987 93 3900 12 320 14:38 26.06.2020
798 Rain 9 987 93 3900 12 320 14:19 26.06.2020
799 Rain 9 988 93 6000 5 120 13:43 26.06.2020
800 Rain 9 988 93 6000 5 120 13:19 26.06.2020
801 Clouds 10 989 87 10000 6 160 12:42 26.06.2020
802 Clouds 10 989 87 10000 6 160 12:24 26.06.2020
803 Clouds 10 991 93 10000 6 160 11:59 26.06.2020
804 Clouds 10 991 93 10000 6 160 11:41 26.06.2020
805 Clouds 10 991 93 10000 6 160 11:22 26.06.2020
806 Rain 10 992 93 10000 7 160 10:59 26.06.2020
807 Rain 10 992 93 10000 7 160 10:40 26.06.2020
808 Rain 10 992 93 10000 7 160 10:19 26.06.2020
809 Rain 10 993 93 10000 6 150 09:54 26.06.2020
810 Rain 10 993 93 10000 6 150 09:36 26.06.2020
811 Rain 10 993 93 10000 6 150 09:18 26.06.2020
812 Rain 10 993 93 10000 6 150 08:43 26.06.2020
813 Rain 10 994 93 9000 5 150 08:25 26.06.2020
814 Rain 10 995 87 10000 4 170 07:45 26.06.2020
815 Rain 10 995 87 10000 4 170 07:23 26.06.2020
816 Rain 10 995 87 10000 4 160 06:48 26.06.2020
817 Rain 10 995 87 10000 5 170 06:29 26.06.2020
818 Rain 10 996 87 10000 7 160 05:51 26.06.2020
819 Rain 10 996 81 10000 7 160 04:44 26.06.2020
820 Rain 10 999 76 10000 6 190 02:27 26.06.2020
821 Clouds 11 999 66 10000 7 190 01:26 26.06.2020
822 Clouds 10 1000 76 10000 6 190 00:42 26.06.2020
823 Clouds 10 1000 76 10000 6 190 00:22 26.06.2020
824 Clouds 10 1000 76 10000 4 170 23:46 25.06.2020
825 Clouds 9 1001 81 10000 5 170 23:22 25.06.2020
826 Clouds 9 1001 81 10000 4 160 22:57 25.06.2020
827 Clouds 9 1002 87 10000 5 180 22:38 25.06.2020
828 Clouds 9 1002 87 10000 5 180 22:20 25.06.2020
829 Clouds 8 1003 87 10000 7 170 21:57 25.06.2020
830 Clouds 8 1003 87 10000 7 170 21:39 25.06.2020
831 Clouds 8 1003 87 10000 7 170 21:20 25.06.2020
832 Clouds 8 1004 87 10000 6 180 20:55 25.06.2020
833 Clouds 8 1004 87 10000 6 180 20:37 25.06.2020
834 Clouds 8 1004 87 10000 6 180 20:19 25.06.2020
835 Clouds 7 1005 87 10000 4 180 19:41 25.06.2020
836 Clouds 7 1005 87 10000 4 200 19:19 25.06.2020
837 Clouds 7 1005 87 10000 4 200 18:58 25.06.2020
838 Clouds 7 1005 87 10000 4 200 18:38 25.06.2020
839 Clouds 7 1005 87 10000 4 200 18:19 25.06.2020
840 Clouds 7 1006 87 10000 4 210 17:44 25.06.2020
841 Clouds 7 1006 87 10000 4 210 17:20 25.06.2020
842 Clouds 7 1006 87 10000 4 190 16:58 25.06.2020
843 Clouds 7 1006 87 10000 4 190 16:37 25.06.2020
844 Clouds 7 1006 87 10000 4 190 16:19 25.06.2020
845 Clouds 7 1006 87 10000 4 190 16:19 25.06.2020
846 Clouds 7 1007 87 10000 4 170 15:41 25.06.2020
847 Clouds 7 1007 87 10000 4 170 15:22 25.06.2020
848 Clouds 7 1007 81 10000 4 190 14:45 25.06.2020
849 Clouds 7 1007 81 10000 4 190 14:25 25.06.2020
850 Clouds 8 1008 75 10000 3 160 13:59 25.06.2020
851 Clouds 8 1008 75 10000 3 160 13:59 25.06.2020
852 Clouds 8 1008 75 10000 3 160 13:41 25.06.2020
853 Clouds 8 1008 75 10000 3 160 13:19 25.06.2020
854 Clouds 8 1008 75 10000 3 160 13:19 25.06.2020
855 Clouds 7 1008 81 10000 3 160 12:55 25.06.2020
856 Clouds 7 1008 81 10000 3 160 12:37 25.06.2020
857 Clouds 7 1009 75 10000 4 170 12:18 25.06.2020
858 Clouds 7 1009 75 10000 4 170 11:42 25.06.2020
859 Clouds 7 1009 75 10000 4 170 11:21 25.06.2020
860 Clouds 8 1009 70 10000 4 160 10:44 25.06.2020
861 Clouds 8 1009 70 10000 4 160 10:25 25.06.2020
862 Clouds 8 1009 70 10000 3 150 09:55 25.06.2020
863 Clouds 8 1009 75 10000 4 160 09:37 25.06.2020
864 Clouds 8 1009 75 10000 4 160 09:18 25.06.2020
865 Clouds 8 1009 70 10000 5 170 08:42 25.06.2020
866 Clouds 8 1009 70 10000 5 170 08:18 25.06.2020
867 Clouds 8 1009 70 10000 5 170 08:18 25.06.2020
868 Clouds 8 1009 70 10000 5 170 08:18 25.06.2020
869 Clouds 8 1009 75 10000 4 140 07:43 25.06.2020
870 Clouds 8 1009 75 10000 4 140 07:25 25.06.2020
871 Clouds 8 1009 70 10000 4 140 06:45 25.06.2020
872 Clouds 8 1009 75 10000 4 140 06:25 25.06.2020
873 Clouds 7 1009 81 10000 5 120 05:39 25.06.2020
874 Clouds 7 1009 81 10000 5 120 03:51 25.06.2020
875 Rain 7 1009 87 10000 5 120 02:59 25.06.2020
876 Clouds 7 1009 81 10000 5 110 02:41 25.06.2020
877 Rain 6 1009 87 10000 6 110 01:43 25.06.2020
878 Clouds 6 1009 87 10000 7 110 00:52 25.06.2020
879 Clouds 6 1009 87 10000 7 110 00:26 25.06.2020
880 Rain 5 1009 93 10000 7 100 23:59 24.06.2020
881 Rain 5 1009 86 6000 7 100 23:39 24.06.2020
882 Rain 5 1009 86 6000 7 100 23:21 24.06.2020
883 Rain 5 1009 86 10000 7 100 22:54 24.06.2020
884 Rain 5 1008 93 10000 8 110 22:36 24.06.2020
885 Rain 5 1008 93 10000 8 110 22:18 24.06.2020
886 Rain 5 1008 93 10000 7 110 21:54 24.06.2020
887 Rain 5 1008 93 10000 7 110 21:36 24.06.2020
888 Rain 5 1008 93 10000 7 110 21:18 24.06.2020
889 Clouds 5 1008 86 10000 6 100 20:55 24.06.2020
890 Clouds 5 1008 86 10000 6 100 20:37 24.06.2020
891 Clouds 5 1008 86 10000 6 100 20:18 24.06.2020
892 Rain 6 1008 87 10000 8 100 19:39 24.06.2020
893 Rain 6 1008 87 10000 8 100 19:21 24.06.2020
894 Clouds 6 1008 87 10000 6 70 18:59 24.06.2020
895 Clouds 6 1008 87 10000 6 70 18:41 24.06.2020
896 Clouds 6 1008 87 10000 6 70 18:23 24.06.2020
897 Clouds 5 1008 93 10000 7 100 17:58 24.06.2020
898 Clouds 5 1008 93 10000 7 100 17:40 24.06.2020
899 Clouds 5 1008 93 10000 7 100 17:19 24.06.2020
900 Rain 6 1009 87 10000 6 100 16:56 24.06.2020
901 Rain 6 1009 87 10000 6 100 16:56 24.06.2020
902 Rain 6 1009 87 10000 6 100 16:38 24.06.2020
903 Rain 6 1009 87 10000 6 100 16:38 24.06.2020
904 Rain 6 1009 87 10000 6 100 16:20 24.06.2020
905 Rain 5 1009 93 10000 6 110 15:56 24.06.2020
906 Rain 5 1009 93 10000 6 110 15:38 24.06.2020
907 Rain 5 1009 93 10000 6 110 15:19 24.06.2020
908 Rain 6 1010 87 10000 6 110 14:43 24.06.2020
909 Rain 6 1010 87 10000 6 110 14:24 24.06.2020
910 Rain 6 1010 87 10000 6 110 13:43 24.06.2020
911 Rain 6 1010 87 10000 6 110 13:22 24.06.2020
912 Clouds 6 1010 87 10000 4 80 12:57 24.06.2020
913 Clouds 6 1010 87 10000 4 80 12:38 24.06.2020
914 Clouds 6 1010 87 10000 4 80 12:20 24.06.2020
915 Clouds 6 1010 87 10000 9 100 11:55 24.06.2020
916 Clouds 6 1010 87 10000 9 100 11:37 24.06.2020
917 Clouds 6 1010 87 10000 9 100 11:18 24.06.2020
918 Rain 6 1011 87 10000 9 110 10:41 24.06.2020
919 Rain 6 1011 87 10000 9 110 10:19 24.06.2020
920 Rain 6 1011 87 10000 8 100 09:43 24.06.2020
921 Rain 6 1011 87 10000 8 100 09:22 24.06.2020
922 Clouds 7 1011 81 10000 3 130 08:43 24.06.2020
923 Clouds 7 1011 81 10000 3 130 08:21 24.06.2020
924 Clouds 7 1011 75 10000 6 110 07:51 24.06.2020
925 Clouds 8 1011 75 10000 6 110 07:31 24.06.2020
926 Clouds 8 1011 70 10000 6 120 06:51 24.06.2020
927 Clouds 9 1011 70 10000 6 120 06:26 24.06.2020
928 Clouds 10 1012 71 10000 6 130 05:58 24.06.2020
929 Clouds 11 1012 66 10000 5 110 05:20 24.06.2020
930 Clouds 10 1012 76 10000 6 110 04:35 24.06.2020
931 Clouds 10 1012 81 10000 6 130 03:35 24.06.2020
932 Clouds 11 1012 81 10000 5 120 02:51 24.06.2020
933 Clouds 11 1012 81 10000 5 120 01:45 24.06.2020
934 Clouds 12 1012 76 10000 3 160 00:47 24.06.2020
935 Clouds 12 1012 76 10000 3 160 00:27 24.06.2020
936 Clouds 11 1012 81 10000 4 120 23:46 23.06.2020
937 Clouds 11 1012 81 10000 4 120 23:20 23.06.2020
938 Clouds 10 1012 87 10000 4 140 22:54 23.06.2020
939 Clouds 10 1012 87 10000 3 170 22:36 23.06.2020
940 Clouds 10 1012 87 10000 3 170 22:18 23.06.2020
941 Clouds 10 1013 81 10000 3 200 21:41 23.06.2020
942 Clouds 10 1013 81 10000 3 200 21:20 23.06.2020
943 Fog 10 1013 87 10000 4 170 20:56 23.06.2020
944 Fog 10 1013 87 10000 4 170 20:37 23.06.2020
945 Clouds 10 1013 93 10000 4 170 20:18 23.06.2020
946 Clouds 9 1013 93 10000 4 170 19:45 23.06.2020
947 Clouds 9 1013 93 10000 4 170 19:27 23.06.2020
948 Clouds 8 1013 100 10000 4 170 18:42 23.06.2020
949 Clouds 8 1013 100 10000 3 150 18:19 23.06.2020
950 Clouds 8 1013 100 10000 3 150 17:58 23.06.2020
951 Clouds 8 1013 100 10000 3 150 17:39 23.06.2020
952 Clouds 8 1013 100 10000 3 150 17:20 23.06.2020
953 Fog 8 1014 93 1200 2 120 16:55 23.06.2020
954 Fog 8 1014 93 1200 2 120 16:37 23.06.2020
955 Fog 8 1014 93 1200 2 120 16:37 23.06.2020
956 Fog 8 1014 93 1200 2 120 16:18 23.06.2020
957 Fog 8 1014 93 500 2 200 15:45 23.06.2020
958 Fog 8 1014 93 500 2 200 15:25 23.06.2020
959 Fog 8 1014 93 10000 2 210 14:58 23.06.2020
960 Fog 8 1014 93 10000 2 210 14:40 23.06.2020
961 Clouds 8 1014 93 10000 1 180 14:18 23.06.2020
962 Clouds 8 1014 93 10000 1 180 13:55 23.06.2020
963 Clouds 8 1014 93 10000 1 180 13:37 23.06.2020
964 Clouds 8 1014 87 10000 2 210 13:18 23.06.2020
965 Clouds 9 1014 87 10000 2 210 12:40 23.06.2020
966 Clouds 9 1014 87 10000 2 210 12:22 23.06.2020
967 Clouds 10 1014 81 10000 3 180 11:44 23.06.2020
968 Clouds 10 1014 81 10000 3 180 11:23 23.06.2020
969 Clouds 10 1014 81 10000 3 190 10:59 23.06.2020
970 Clouds 10 1014 81 10000 3 190 10:41 23.06.2020
971 Clouds 10 1014 81 10000 3 190 10:22 23.06.2020
972 Clouds 10 1014 76 10000 3 200 09:58 23.06.2020
973 Clouds 10 1014 76 10000 3 200 09:39 23.06.2020
974 Clouds 10 1014 76 10000 3 200 09:20 23.06.2020
975 Clouds 10 1014 76 10000 3 200 09:20 23.06.2020
976 Clouds 10 1014 76 10000 3 20 08:47 23.06.2020
977 Clouds 10 1014 76 10000 3 20 08:27 23.06.2020
978 Clouds 10 1014 76 10000 5 10 07:56 23.06.2020
979 Clouds 11 1014 76 10000 4 20 07:38 23.06.2020
980 Clouds 10 1014 76 10000 5 10 07:19 23.06.2020
981 Clouds 10 1014 81 10000 3 350 06:43 23.06.2020
982 Clouds 10 1014 81 10000 3 350 06:25 23.06.2020
983 Clouds 9 1013 87 10000 2 330 05:29 23.06.2020
984 Rain 9 1012 93 10000 3 360 03:23 23.06.2020
985 Rain 9 1011 93 10000 2 340 02:53 23.06.2020
986 Rain 10 1011 93 9000 1 240 02:34 23.06.2020
987 Rain 10 1011 87 10000 2 330 01:46 23.06.2020
988 Rain 11 1011 87 10000 2 330 01:25 23.06.2020
989 Clouds 15 1010 67 10000 2 310 00:49 23.06.2020
990 Clouds 16 1010 59 10000 6 100 00:21 23.06.2020
991 Clouds 17 1010 59 10000 6 100 23:55 22.06.2020
992 Clouds 17 1009 59 10000 8 110 23:36 22.06.2020
993 Clouds 17 1009 59 10000 8 110 23:18 22.06.2020
994 Clouds 16 1008 63 10000 10 100 22:55 22.06.2020
995 Clouds 16 1008 63 10000 9 100 22:36 22.06.2020
996 Clouds 16 1008 63 10000 9 100 22:18 22.06.2020
997 Clouds 18 1007 59 10000 4 70 21:54 22.06.2020
998 Clouds 18 1007 59 10000 4 70 21:36 22.06.2020
999 Clouds 18 1007 59 10000 4 70 21:18 22.06.2020
1000 Rain 18 1007 72 10000 2 280 20:41 22.06.2020
1001 Clouds 18 1007 72 10000 2 280 20:21 22.06.2020
1002 Clouds 17 1007 82 10000 3 350 19:44 22.06.2020
1003 Rain 17 1007 82 10000 3 350 19:20 22.06.2020
1004 Rain 16 1007 82 10000 2 350 18:59 22.06.2020
1005 Rain 16 1007 82 10000 2 350 18:39 22.06.2020
1006 Rain 16 1007 82 10000 2 350 18:21 22.06.2020
1007 Rain 15 1007 82 10000 1 330 17:56 22.06.2020
1008 Rain 15 1007 82 10000 1 330 17:37 22.06.2020
1009 Rain 15 1007 82 10000 1 330 17:19 22.06.2020
1010 Rain 17 1007 77 10000 3 300 16:43 22.06.2020
1011 Rain 17 1007 77 10000 3 300 16:24 22.06.2020
1012 Rain 16 1007 77 10000 3 10 15:59 22.06.2020
1013 Rain 16 1007 77 10000 3 10 15:40 22.06.2020
1014 Rain 16 1007 77 10000 3 10 15:22 22.06.2020
1015 Clouds 15 1007 77 10000 3 80 14:41 22.06.2020
1016 Clouds 15 1007 77 10000 3 80 14:22 22.06.2020
1017 Rain 19 1007 63 10000 2 280 13:59 22.06.2020
1018 Rain 19 1007 63 10000 2 280 13:39 22.06.2020
1019 Rain 19 1007 63 10000 2 280 13:21 22.06.2020
1020 Rain 21 1008 46 10000 2 200 12:44 22.06.2020
1021 Rain 21 1008 46 10000 2 200 12:25 22.06.2020
1022 Rain 23 1008 40 10000 3 160 11:59 22.06.2020
1023 Rain 23 1008 40 10000 3 160 11:37 22.06.2020
1024 Rain 23 1008 40 10000 3 160 11:19 22.06.2020
1025 Rain 23 1007 40 10000 4 170 10:55 22.06.2020
1026 Rain 22 1008 43 10000 5 170 10:37 22.06.2020
1027 Rain 22 1008 40 10000 5 170 10:18 22.06.2020
1028 Rain 23 1008 40 10000 5 170 09:56 22.06.2020
1029 Clouds 23 1008 38 10000 6 170 09:37 22.06.2020
1030 Clouds 23 1008 36 10000 5 170 09:18 22.06.2020
1031 Clouds 24 1008 36 10000 5 160 08:40 22.06.2020
1032 Clouds 24 1008 36 10000 5 160 08:21 22.06.2020
1033 Clouds 24 1008 36 10000 5 160 07:54 22.06.2020
1034 Clouds 25 1008 33 10000 5 160 07:34 22.06.2020
1035 Clouds 24 1009 36 10000 5 160 06:56 22.06.2020
1036 Clear 24 1009 36 10000 5 160 06:37 22.06.2020
1037 Clear 24 1009 38 10000 5 150 06:19 22.06.2020
1038 Clear 24 1010 36 10000 5 150 05:41 22.06.2020
1039 Clear 25 1011 33 10000 3 170 02:59 22.06.2020
1040 Clear 25 1011 33 10000 3 170 02:59 22.06.2020
1041 Clouds 24 1011 38 10000 3 270 01:38 22.06.2020
1042 Clouds 23 1011 38 10000 3 270 00:41 22.06.2020
1043 Clouds 23 1011 38 10000 3 270 00:19 22.06.2020
1044 Clouds 23 1011 38 10000 2 260 23:55 21.06.2020
1045 Clouds 23 1012 38 10000 2 280 23:36 21.06.2020
1046 Clouds 22 1012 40 10000 1 270 23:18 21.06.2020
1047 Clouds 22 1012 40 10000 1 270 22:54 21.06.2020
1048 Clouds 21 1012 40 10000 1 240 22:36 21.06.2020
1049 Clouds 21 1012 40 10000 1 240 22:36 21.06.2020
1050 Clouds 21 1012 40 10000 1 240 22:36 21.06.2020
1051 Clouds 20 1012 45 10000 1.67 211 22:18 21.06.2020
1052 Clouds 19 1012 45 10000 1.67 211 21:54 21.06.2020
1053 Clouds 19 1012 45 10000 1.67 211 21:36 21.06.2020
1054 Clouds 18 1012 51 10000 1 150 21:18 21.06.2020
1055 Clouds 17 1012 51 10000 1 150 20:39 21.06.2020
1056 Clouds 17 1012 51 10000 1 150 20:19 21.06.2020
1057 Clouds 16 1012 51 10000 2 150 19:57 21.06.2020
1058 Clouds 16 1012 51 10000 2 150 19:39 21.06.2020
1059 Clouds 16 1012 51 10000 2 150 19:20 21.06.2020
1060 Clouds 13 1012 58 10000 2 120 18:55 21.06.2020
1061 Clouds 13 1012 58 10000 2 120 18:37 21.06.2020
1062 Clear 12 1012 71 10000 1 120 18:19 21.06.2020
1063 Clear 12 1012 71 10000 1 120 18:19 21.06.2020
1064 Clear 12 1012 71 10000 1 120 18:19 21.06.2020
1065 Clear 10 1012 71 10000 1 120 17:41 21.06.2020
1066 Clear 10 1012 71 10000 1 120 17:21 21.06.2020
1067 Clear 9 1012 70 10000 3 100 16:57 21.06.2020
1068 Clear 9 1012 70 10000 3 100 16:39 21.06.2020
1069 Clear 9 1012 70 10000 3 100 16:20 21.06.2020
1070 Clear 11 1012 71 10000 2 120 15:40 21.06.2020
1071 Clear 11 1012 71 10000 2 120 15:21 21.06.2020
1072 Clear 14 1012 62 10000 2 130 14:58 21.06.2020
1073 Clear 14 1012 62 10000 2 130 14:37 21.06.2020
1074 Clear 14 1012 54 10000 2 130 14:18 21.06.2020
1075 Clear 14 1012 54 10000 2 130 13:43 21.06.2020
1076 Clear 14 1012 54 10000 2 130 13:25 21.06.2020
1077 Clear 15 1012 44 10000 3 150 12:59 21.06.2020
1078 Clear 15 1012 44 10000 3 150 12:41 21.06.2020
1079 Clear 15 1012 44 10000 3 150 12:23 21.06.2020
1080 Clear 15 1012 44 10000 3 160 11:43 21.06.2020
1081 Clear 15 1012 44 10000 3 160 11:24 21.06.2020
1082 Clear 16 1012 41 10000 4 170 10:59 21.06.2020
1083 Clear 16 1012 41 10000 4 170 10:40 21.06.2020
1084 Clear 16 1012 41 10000 4 170 10:22 21.06.2020
1085 Clear 16 1012 41 10000 5 180 09:44 21.06.2020
1086 Clear 16 1012 41 10000 5 180 09:25 21.06.2020
1087 Clear 16 1012 44 10000 5 180 08:59 21.06.2020
1088 Clear 16 1012 44 10000 5 180 08:41 21.06.2020
1089 Clouds 16 1012 44 10000 5 180 08:20 21.06.2020
1090 Clouds 17 1012 42 10000 6 180 07:59 21.06.2020
1091 Clouds 17 1012 42 10000 6 180 07:39 21.06.2020
1092 Clouds 17 1013 45 10000 5 180 07:19 21.06.2020
1093 Clouds 17 1013 45 10000 5 180 06:46 21.06.2020
1094 Clouds 17 1013 48 10000 4 180 05:57 21.06.2020
1095 Clouds 16 1013 63 10000 4 170 04:48 21.06.2020
1096 Clouds 17 1013 48 10000 4 200 03:20 21.06.2020
1097 Clouds 17 1014 48 10000 4 190 02:46 21.06.2020
1098 Clouds 17 1014 45 10000 5 200 01:48 21.06.2020
1099 Clouds 17 1014 45 10000 5 200 01:20 21.06.2020
1100 Clouds 17 1014 48 10000 2 250 00:46 21.06.2020
1101 Clouds 17 1014 48 10000 2 250 00:27 21.06.2020
1102 Clouds 16 1014 51 10000 3 250 23:57 20.06.2020
1103 Clouds 16 1014 51 10000 3 250 23:37 20.06.2020
1104 Clouds 16 1014 51 10000 2 320 23:18 20.06.2020
1105 Clouds 16 1014 51 10000 2 320 22:54 20.06.2020
1106 Clouds 16 1014 51 10000 2 320 22:36 20.06.2020
1107 Clear 15 1014 58 10000 6.07 152 22:18 20.06.2020
1108 Clear 15 1014 58 10000 6.07 152 21:54 20.06.2020
1109 Clear 15 1014 58 10000 6.54 146 21:36 20.06.2020
1110 Clear 15 1014 58 10000 1 300 21:18 20.06.2020
1111 Clear 14 1014 58 10000 1 300 20:54 20.06.2020
1112 Clear 14 1014 58 10000 1 300 20:36 20.06.2020
1113 Clouds 14 1014 58 10000 5.09 146 20:18 20.06.2020
1114 Clouds 13 1014 58 10000 5.09 146 19:41 20.06.2020
1115 Clouds 13 1014 58 10000 4.67 145 19:21 20.06.2020
1116 Clouds 10 1014 66 10000 2 40 18:43 20.06.2020
1117 Clouds 10 1014 66 10000 2 40 18:21 20.06.2020
1118 Clouds 7 1014 75 10000 1 40 17:58 20.06.2020
1119 Clouds 7 1014 75 10000 1 40 17:40 20.06.2020
1120 Clouds 7 1014 75 10000 1 40 17:40 20.06.2020
1121 Clouds 7 1014 75 10000 1 40 17:20 20.06.2020
1122 Clouds 12 1014 62 10000 4.38 153 16:56 20.06.2020
1123 Clouds 12 1014 62 10000 4.38 153 16:37 20.06.2020
1124 Rain 11 1014 71 10000 2 120 16:18 20.06.2020
1125 Rain 11 1014 71 10000 2 120 15:42 20.06.2020
1126 Rain 12 1014 66 10000 1 240 15:18 20.06.2020
1127 Rain 13 1014 66 10000 1 240 14:43 20.06.2020
1128 Rain 13 1014 66 10000 1 240 14:22 20.06.2020
1129 Clouds 16 1013 44 10000 3 100 13:55 20.06.2020
1130 Clouds 16 1013 44 10000 3 100 13:37 20.06.2020
1131 Clouds 15 1013 54 10000 1 210 13:19 20.06.2020
1132 Clouds 15 1013 54 10000 1 210 12:42 20.06.2020
1133 Clouds 15 1013 54 10000 1 210 12:21 20.06.2020
1134 Clouds 16 1013 51 10000 2 190 11:57 20.06.2020
1135 Clouds 18 1013 36 10000 5 90 11:38 20.06.2020
1136 Clouds 18 1013 36 10000 5 90 11:20 20.06.2020
1137 Clouds 18 1013 36 10000 5 90 11:20 20.06.2020
1138 Rain 18 1013 36 10000 6 90 10:50 20.06.2020
1139 Rain 19 1012 34 10000 7 100 10:23 20.06.2020
1140 Rain 18 1013 48 10000 5 100 09:57 20.06.2020
1141 Clouds 19 1013 52 10000 6 100 09:39 20.06.2020
1142 Clouds 19 1013 52 10000 6 100 09:21 20.06.2020
1143 Clouds 20 1012 46 10000 7 100 08:48 20.06.2020
1144 Clouds 21 1012 46 10000 7 100 08:30 20.06.2020
1145 Clouds 22 1012 40 10000 7 100 07:53 20.06.2020
1146 Clouds 22 1012 43 10000 7 100 07:28 20.06.2020
1147 Clouds 25 1012 31 10000 7 20 06:58 20.06.2020
1148 Clouds 25 1012 31 10000 7 20 06:24 20.06.2020
1149 Clouds 25 1012 38 10000 4 290 05:54 20.06.2020
1150 Clouds 25 1012 38 10000 4 290 05:30 20.06.2020
1151 Clouds 12 1013 65 0 2.47 255 02:56 20.06.2020
1152 Clouds 11 1013 69 0 2.08 220 01:50 20.06.2020
1153 Clouds 11 1014 71 0 1.55 224 01:27 20.06.2020
1154 Clouds 19 1015 45 10000 2 180 00:22 20.06.2020
1155 Clouds 19 1015 45 10000 2 180 23:58 19.06.2020
1156 Clouds 19 1015 45 10000 2 180 23:39 19.06.2020
1157 Clouds 19 1015 45 10000 1 190 23:18 19.06.2020
1158 Clouds 19 1015 45 10000 1 190 23:18 19.06.2020
1159 Clouds 19 1015 45 10000 1 190 22:42 19.06.2020
1160 Clouds 19 1015 45 10000 1 190 22:23 19.06.2020
1161 Clouds 18 1015 52 10000 1 240 21:59 19.06.2020
1162 Clouds 18 1015 52 10000 1 240 21:39 19.06.2020
1163 Clouds 17 1015 55 10000 1.36 239 21:18 19.06.2020
1164 Clouds 17 1015 55 10000 1.36 239 20:59 19.06.2020
1165 Clouds 17 1015 55 10000 1.36 239 20:40 19.06.2020
1166 Clouds 17 1015 55 10000 0.8 238 20:21 19.06.2020
1167 Clouds 14 1015 71 10000 2 40 19:58 19.06.2020
1168 Clouds 14 1015 71 10000 2 40 19:40 19.06.2020
1169 Clouds 14 1015 71 10000 2 40 19:21 19.06.2020
1170 Clouds 10 1015 81 10000 2 70 18:56 19.06.2020
1171 Clouds 10 1015 81 10000 2 70 18:38 19.06.2020
1172 Clouds 10 1015 81 10000 2 70 18:20 19.06.2020
1173 Clouds 8 1015 81 10000 2 80 17:41 19.06.2020
1174 Clouds 8 1015 81 10000 2 80 17:23 19.06.2020
1175 Clouds 10 1015 71 10000 2 90 16:57 19.06.2020
1176 Clouds 10 1015 71 10000 2 90 16:38 19.06.2020
1177 Clouds 10 1015 71 10000 2 90 16:20 19.06.2020
1178 Clouds 12 1015 62 10000 3 80 15:44 19.06.2020
1179 Clear 12 1015 62 10000 3 80 15:25 19.06.2020
1180 Clear 9 1015 76 10000 3 80 14:57 19.06.2020
1181 Clear 9 1015 76 10000 3 80 14:38 19.06.2020
1182 Clouds 9 1015 76 10000 3 80 14:20 19.06.2020
1183 Clouds 11 1015 81 10000 3 90 13:55 19.06.2020
1184 Clouds 11 1015 81 10000 3 90 13:37 19.06.2020
1185 Clouds 12 1015 82 10000 3.19 168 13:18 19.06.2020
1186 Clouds 13 1015 82 10000 3.19 168 12:40 19.06.2020
1187 Clouds 14 1014 72 10000 1 270 12:18 19.06.2020
1188 Clouds 15 1014 72 10000 1 270 11:40 19.06.2020
1189 Clouds 15 1014 72 10000 1 270 11:19 19.06.2020
1190 Clouds 19 1014 45 10000 3 180 10:59 19.06.2020
1191 Clouds 19 1014 45 10000 3 180 10:41 19.06.2020
1192 Clouds 19 1014 45 10000 3 180 10:41 19.06.2020
1193 Clouds 19 1014 45 10000 3 180 10:19 19.06.2020
1194 Clouds 19 1013 45 10000 2 180 09:44 19.06.2020
1195 Clouds 19 1013 45 10000 2 180 09:25 19.06.2020
1196 Clouds 19 1013 48 10000 4 160 08:58 19.06.2020
1197 Clouds 19 1013 48 10000 4 160 08:38 19.06.2020
1198 Clouds 19 1013 48 10000 4 160 08:20 19.06.2020
1199 Clouds 19 1013 45 10000 5 150 07:40 19.06.2020
1200 Clouds 19 1013 45 10000 5 150 07:21 19.06.2020
1201 Clouds 20 1013 37 10000 5 150 06:44 19.06.2020
1202 Clouds 21 1013 37 10000 5 150 06:20 19.06.2020
1203 Clouds 20 1013 30 10000 5 160 04:59 19.06.2020
1204 Clouds 21 1013 28 10000 5 170 03:31 19.06.2020
1205 Clouds 19 1013 45 10000 4 180 01:45 19.06.2020
1206 Clouds 20 1013 45 10000 5 180 00:43 19.06.2020
1207 Clouds 20 1013 45 10000 5 180 00:22 19.06.2020
1208 Clouds 20 1013 49 10000 4 190 23:56 18.06.2020
1209 Clouds 21 1012 46 10000 3 180 23:37 18.06.2020
1210 Clouds 20 1012 49 10000 3 250 23:19 18.06.2020
1211 Clouds 19 1012 52 10000 2 200 22:39 18.06.2020
1212 Clouds 19 1012 52 10000 2 200 22:20 18.06.2020
1213 Clouds 19 1012 55 10000 1 350 21:56 18.06.2020
1214 Clouds 19 1012 55 10000 2 10 21:36 18.06.2020
1215 Clouds 18 1012 55 10000 2 350 21:18 18.06.2020
1216 Clouds 17 1012 55 10000 2 350 20:40 18.06.2020
1217 Clouds 17 1012 55 10000 2 350 20:20 18.06.2020
1218 Clouds 14 1012 67 10000 0.82 222 19:56 18.06.2020
1219 Clouds 14 1012 67 10000 0.82 222 19:38 18.06.2020
1220 Clouds 11 1011 76 10000 1 100 19:19 18.06.2020
1221 Clouds 11 1011 76 10000 1 100 18:38 18.06.2020
1222 Clouds 11 1011 76 10000 1 100 18:19 18.06.2020
1223 Clouds 11 1012 71 10000 1.53 194 17:46 18.06.2020
1224 Clouds 11 1012 71 10000 1.83 194 17:26 18.06.2020
1225 Clouds 10 1012 71 10000 2 120 16:57 18.06.2020
1226 Clouds 10 1012 71 10000 2 120 16:39 18.06.2020
1227 Clear 10 1012 71 10000 2 120 16:20 18.06.2020
1228 Clear 7 1012 75 10000 2 110 15:57 18.06.2020
1229 Clear 7 1012 75 10000 2 110 15:39 18.06.2020
1230 Clear 10 1012 66 10000 1 110 15:19 18.06.2020
1231 Clear 10 1012 66 10000 1 110 14:56 18.06.2020
1232 Clear 10 1012 70 10000 2 110 14:37 18.06.2020
1233 Clear 9 1012 70 10000 2 110 14:19 18.06.2020
1234 Clear 9 1012 70 10000 2 110 13:47 18.06.2020
1235 Clear 9 1012 70 10000 2 110 13:28 18.06.2020
1236 Clear 16 1012 44 10000 1 100 12:57 18.06.2020
1237 Clear 16 1012 44 10000 1 100 12:39 18.06.2020
1238 Clear 16 1012 44 10000 1 100 12:19 18.06.2020
1239 Clear 17 1012 42 10000 3 160 11:48 18.06.2020
1240 Clear 17 1012 42 10000 3 160 11:21 18.06.2020
1241 Clear 18 1011 39 10000 2 180 10:59 18.06.2020
1242 Clear 18 1011 39 10000 2 180 10:39 18.06.2020
1243 Clear 18 1011 39 10000 2 140 10:18 18.06.2020
1244 Clear 19 1011 40 10000 4 110 09:44 18.06.2020
1245 Clear 20 1011 40 10000 4 110 09:26 18.06.2020
1246 Clouds 20 1011 40 10000 5 100 08:54 18.06.2020
1247 Clouds 20 1011 37 10000 5 150 08:36 18.06.2020
1248 Clouds 20 1011 37 10000 5 140 08:18 18.06.2020
1249 Clouds 21 1011 40 10000 5 150 07:43 18.06.2020
1250 Clouds 21 1011 40 10000 5 150 07:23 18.06.2020
1251 Clouds 21 1011 40 10000 6 150 06:37 18.06.2020
1252 Clouds 21 1011 43 10000 4 170 04:27 18.06.2020
1253 Clouds 19 1011 48 10000 4 160 03:31 18.06.2020
1254 Clouds 21 1011 49 10000 1 360 01:43 18.06.2020
1255 Clouds 21 1011 49 10000 1 360 01:20 18.06.2020
1256 Clouds 22 1011 40 10000 2 310 00:49 18.06.2020
1257 Clouds 21 1011 43 10000 3 330 00:26 18.06.2020
1258 Clouds 22 1011 37 10000 3 340 23:54 17.06.2020
1259 Clouds 21 1011 46 10000 3 350 23:36 17.06.2020
1260 Clouds 20 1011 45 10000 3 330 23:18 17.06.2020
1261 Clouds 20 1011 45 10000 3 330 22:54 17.06.2020
1262 Clear 19 1012 48 10000 2 340 22:36 17.06.2020
1263 Clear 19 1012 55 10000 1 10 22:18 17.06.2020
1264 Clear 18 1012 55 10000 1 10 21:39 17.06.2020
1265 Clear 18 1012 55 10000 1 10 21:39 17.06.2020
1266 Clouds 18 1012 55 10000 1 10 21:20 17.06.2020
1267 Clouds 15 1011 62 10000 1 90 20:55 17.06.2020
1268 Clouds 15 1011 62 10000 1 90 20:37 17.06.2020
1269 Rain 15 1011 62 10000 2 350 20:18 17.06.2020
1270 Rain 15 1011 62 10000 2 350 19:42 17.06.2020
1271 Rain 15 1011 62 10000 2 350 19:21 17.06.2020
1272 Rain 15 1011 62 10000 2 350 19:21 17.06.2020
1273 Clouds 11 1011 71 10000 2 50 18:56 17.06.2020
1274 Clouds 11 1011 71 10000 2 50 18:37 17.06.2020
1275 Clouds 10 1011 71 10000 2 340 18:19 17.06.2020
1276 Clouds 10 1011 71 10000 2 340 17:40 17.06.2020
1277 Clouds 10 1011 71 10000 2 340 17:21 17.06.2020
1278 Clouds 6 1011 81 10000 2 50 16:56 17.06.2020
1279 Clouds 6 1011 81 10000 2 50 16:38 17.06.2020
1280 Clouds 6 1011 81 10000 2 50 16:19 17.06.2020
1281 Clouds 7 1011 75 10000 2 110 15:40 17.06.2020
1282 Clear 7 1011 75 10000 2 110 15:21 17.06.2020
1283 Clear 7 1011 75 10000 1 100 14:58 17.06.2020
1284 Clear 7 1011 75 10000 1 100 14:40 17.06.2020
1285 Clouds 7 1011 75 10000 1 100 14:20 17.06.2020
1286 Clouds 11 1011 62 10000 1.19 124 13:58 17.06.2020
1287 Clouds 11 1011 62 10000 1.19 124 13:40 17.06.2020
1288 Clouds 11 1011 62 10000 0.58 146 13:21 17.06.2020
1289 Clouds 12 1011 62 10000 2 90 12:55 17.06.2020
1290 Clouds 12 1011 62 10000 2 90 12:36 17.06.2020
1291 Clear 14 1011 45 10000 2 40 12:18 17.06.2020
1292 Clear 17 1011 45 10000 2 40 11:44 17.06.2020
1293 Clear 17 1011 45 10000 2 40 11:24 17.06.2020
1294 Clear 19 1010 52 10000 2 160 10:39 17.06.2020
1295 Clear 19 1010 52 10000 2 160 10:19 17.06.2020
1296 Clear 20 1010 52 10000 2 170 09:59 17.06.2020
1297 Clear 20 1010 52 10000 2 170 09:41 17.06.2020
1298 Clear 20 1010 54 10000 2 170 09:21 17.06.2020
1299 Clear 20 1010 54 10000 3 170 08:56 17.06.2020
1300 Clear 20 1010 24 10000 3 180 08:38 17.06.2020
1301 Clear 20 1010 55 10000 4 190 08:18 17.06.2020
1302 Clear 20 1010 30 10000 4 180 07:43 17.06.2020
1303 Clear 20 1010 30 10000 4 180 07:21 17.06.2020
1304 Clear 21 1010 28 10000 4 190 06:56 17.06.2020
1305 Clear 21 1010 28 10000 4 180 06:37 17.06.2020
1306 Clear 21 1010 28 10000 4 180 06:19 17.06.2020
1307 Clear 20 1011 34 10000 4 180 05:18 17.06.2020
1308 Clear 21 1011 35 10000 3 210 03:28 17.06.2020
1309 Clear 19 1011 39 10000 5 250 01:52 17.06.2020
1310 Clear 20 1011 40 10000 2 350 00:46 17.06.2020
1311 Clear 20 1011 40 10000 2 350 00:23 17.06.2020
1312 Clear 19 1011 39 10000 3 10 23:56 16.06.2020
1313 Clear 19 1011 39 10000 3 350 23:37 16.06.2020
1314 Clear 19 1011 39 10000 3 350 23:19 16.06.2020
1315 Clear 19 1011 42 10000 4 340 22:55 16.06.2020
1316 Clear 18 1011 42 10000 4 330 22:37 16.06.2020
1317 Clear 17 1011 44 10000 4 360 22:18 16.06.2020
1318 Clear 16 1011 44 10000 4 360 21:47 16.06.2020
1319 Clear 16 1011 44 10000 4 360 21:24 16.06.2020
1320 Clear 12 1011 62 10000 3 330 20:57 16.06.2020
1321 Clear 12 1011 62 10000 3 330 20:39 16.06.2020
1322 Clouds 11 1011 71 10000 2 340 20:19 16.06.2020
1323 Clouds 11 1011 71 10000 2 340 20:19 16.06.2020
1324 Clouds 10 1011 71 10000 2 340 19:57 16.06.2020
1325 Clouds 10 1011 71 10000 2 340 19:39 16.06.2020
1326 Clouds 10 1011 71 10000 2 340 19:21 16.06.2020
1327 Clouds 7 1011 75 10000 0.7 306 18:54 16.06.2020
1328 Clouds 7 1011 75 10000 0.7 306 18:36 16.06.2020
1329 Clouds 5 1011 86 10000 3 90 18:18 16.06.2020
1330 Clouds 3 1011 86 10000 3 90 17:54 16.06.2020
1331 Clouds 3 1011 86 10000 3 90 17:36 16.06.2020
1332 Clouds 2 1011 74 10000 2 80 17:18 16.06.2020
1333 Clouds 2 1011 74 10000 2 80 16:42 16.06.2020
1334 Clouds 2 1011 71 10000 2 80 16:20 16.06.2020
1335 Clouds 3 1011 71 10000 1 90 15:58 16.06.2020
1336 Clouds 3 1011 71 10000 1 90 15:39 16.06.2020
1337 Clouds 3 1011 70 10000 1 90 15:21 16.06.2020
1338 Clouds 5 1011 75 10000 2.77 168 14:57 16.06.2020
1339 Clouds 5 1011 75 10000 2.77 168 14:38 16.06.2020
1340 Clouds 7 1012 66 10000 3.04 159 14:20 16.06.2020
1341 Clouds 9 1012 66 10000 3.04 159 13:46 16.06.2020
1342 Clouds 9 1012 66 10000 3.14 154 13:26 16.06.2020
1343 Clouds 10 1012 61 10000 2 110 12:55 16.06.2020
1344 Clouds 10 1012 66 10000 2 160 12:37 16.06.2020
1345 Clouds 10 1012 57 10000 3 170 12:18 16.06.2020
1346 Clouds 11 1012 57 10000 3 180 11:42 16.06.2020
1347 Clouds 11 1012 57 10000 3 180 11:23 16.06.2020
1348 Clouds 11 1012 57 10000 3 180 10:59 16.06.2020
1349 Clouds 12 1011 54 10000 4 180 10:41 16.06.2020
1350 Clouds 12 1011 54 10000 4 180 10:20 16.06.2020
1351 Clouds 12 1012 54 10000 5 180 09:48 16.06.2020
1352 Clouds 12 1012 54 10000 5 180 09:26 16.06.2020
1353 Clouds 13 1012 54 10000 4 180 08:59 16.06.2020
1354 Clouds 13 1011 58 10000 5 150 08:41 16.06.2020
1355 Clouds 13 1011 58 10000 5 150 08:22 16.06.2020
1356 Clouds 14 1012 50 10000 5 150 07:45 16.06.2020
1357 Clouds 14 1012 50 10000 5 150 07:26 16.06.2020
1358 Clouds 14 1012 47 10000 4 170 06:47 16.06.2020
1359 Clouds 14 1012 47 10000 4 170 06:19 16.06.2020
1360 Clouds 13 1012 54 10000 5 170 05:32 16.06.2020
1361 Clouds 13 1012 54 10000 4 170 04:27 16.06.2020
1362 Clouds 12 1013 62 10000 5 170 02:56 16.06.2020
1363 Clouds 10 1013 76 10000 5 170 01:52 16.06.2020
1364 Clouds 10 1013 76 10000 4 190 01:20 16.06.2020
1365 Fog 9 1013 76 10000 5 170 00:40 16.06.2020
1366 Fog 9 1013 76 10000 6 170 00:19 16.06.2020
1367 Fog 9 1013 76 10000 5 170 23:41 15.06.2020
1368 Fog 9 1013 76 10000 5 170 23:22 15.06.2020
1369 Fog 8 1013 81 10000 2 200 22:55 15.06.2020
1370 Fog 8 1013 75 10000 1 210 22:36 15.06.2020
1371 Fog 7 1013 81 10000 1 210 22:18 15.06.2020
1372 Fog 7 1013 81 10000 1 210 21:55 15.06.2020
1373 Fog 7 1013 81 10000 1 210 21:36 15.06.2020
1374 Fog 6 1013 80 10000 3.25 168 21:18 15.06.2020
1375 Fog 6 1013 80 10000 3.25 168 21:18 15.06.2020
1376 Fog 5 1013 80 10000 3.25 168 20:54 15.06.2020
1377 Fog 5 1013 80 10000 3.25 168 20:36 15.06.2020
1378 Fog 4 1013 93 10000 3.77 161 20:18 15.06.2020
1379 Fog 3 1013 93 10000 3.77 161 19:41 15.06.2020
1380 Fog 3 1013 93 10000 3.62 163 19:22 15.06.2020
1381 Fog 2 1013 96 10000 3.62 163 18:58 15.06.2020
1382 Fog 2 1013 96 10000 3.62 163 18:40 15.06.2020
1383 Fog 2 1013 96 10000 3.9 160 18:21 15.06.2020
1384 Fog 0 1013 96 10000 1 10 17:58 15.06.2020
1385 Fog 0 1013 96 10000 1 10 17:40 15.06.2020
1386 Fog 0 1013 96 10000 1 10 17:20 15.06.2020
1387 Fog 0 1012 96 10000 1 10 16:57 15.06.2020
1388 Fog 0 1012 96 10000 1 10 16:38 15.06.2020
1389 Fog 0 1013 94 10000 4.61 150 16:18 15.06.2020
1390 Fog 0 1013 94 10000 4.61 150 15:41 15.06.2020
1391 Fog 0 1013 94 10000 4.95 151 15:21 15.06.2020
1392 Fog 2 1013 94 10000 1 330 14:59 15.06.2020
1393 Fog 2 1013 94 10000 1 330 14:40 15.06.2020
1394 Fog 3 1012 86 10000 1 120 14:20 15.06.2020
1395 Fog 4 1012 86 10000 1 120 13:57 15.06.2020
1396 Fog 4 1012 86 10000 1 120 13:38 15.06.2020
1397 Mist 4 1012 93 10000 5.56 149 13:18 15.06.2020
1398 Mist 3 1012 93 10000 5.56 149 12:43 15.06.2020
1399 Mist 3 1012 93 10000 6.1 150 12:22 15.06.2020
1400 Fog 4 1012 93 10000 2 190 11:58 15.06.2020
1401 Fog 4 1012 93 10000 2 190 11:58 15.06.2020
1402 Fog 4 1012 93 10000 2 190 11:58 15.06.2020
1403 Fog 4 1012 93 10000 2 190 11:40 15.06.2020
1404 Fog 4 1012 93 10000 2 190 11:22 15.06.2020
1405 Fog 4 1012 93 10000 2 190 11:22 15.06.2020
1406 Clouds 5 1012 86 10000 5 180 10:42 15.06.2020
1407 Clouds 5 1012 86 10000 5 180 10:22 15.06.2020
1408 Clouds 6 1012 87 10000 5 180 09:45 15.06.2020
1409 Clouds 6 1012 87 10000 5 180 09:23 15.06.2020
1410 Clouds 6 1012 87 10000 5 180 08:55 15.06.2020
1411 Clouds 6 1012 87 10000 7 160 08:36 15.06.2020
1412 Clouds 6 1012 81 10000 7 150 08:18 15.06.2020
1413 Clouds 7 1012 81 10000 8 170 07:41 15.06.2020
1414 Clouds 7 1012 81 10000 8 170 07:20 15.06.2020
1415 Clouds 7 1012 81 10000 8 160 06:29 15.06.2020
1416 Clouds 7 1012 81 10000 8 160 05:51 15.06.2020
1417 Clouds 7 1012 81 10000 9 150 05:30 15.06.2020
1418 Clouds 6 1012 81 10000 9 160 04:22 15.06.2020
1419 Clouds 7 1012 75 10000 9 160 03:49 15.06.2020
1420 Clouds 7 1012 75 10000 9 160 03:27 15.06.2020
1421 Clouds 6 1012 81 10000 8 170 02:33 15.06.2020
1422 Clouds 6 1012 81 10000 9 160 01:49 15.06.2020
1423 Clouds 6 1012 81 10000 9 160 01:29 15.06.2020
1424 Clouds 6 1012 81 10000 8 150 00:45 15.06.2020
1425 Clouds 6 1012 81 10000 8 150 00:25 15.06.2020
1426 Clouds 8 1012 70 10000 7 160 23:59 14.06.2020
1427 Fog 7 1012 75 10000 6 160 23:41 14.06.2020
1428 Fog 7 1012 75 10000 6 160 23:23 14.06.2020
1429 Fog 8 1012 70 10000 1 260 22:58 14.06.2020
1430 Fog 6 1012 81 10000 1 250 22:38 14.06.2020
1431 Fog 5 1012 86 10000 1 190 22:18 14.06.2020
1432 Fog 4 1012 86 10000 1 190 21:57 14.06.2020
1433 Fog 4 1012 86 10000 1 190 21:38 14.06.2020
1434 Fog 4 1012 100 6000 2 290 21:19 14.06.2020
1435 Fog 4 1012 100 6000 2 290 21:19 14.06.2020
1436 Fog 3 1012 100 6000 2 290 20:57 14.06.2020
1437 Fog 3 1012 100 6000 2 290 20:38 14.06.2020
1438 Mist 3 1012 93 1200 3 360 20:19 14.06.2020
1439 Mist 3 1012 93 1200 3 360 19:56 14.06.2020
1440 Mist 3 1012 93 1200 3 360 19:37 14.06.2020
1441 Fog 2 1011 90 10000 1 20 19:19 14.06.2020
1442 Fog 2 1011 90 10000 1 20 18:56 14.06.2020
1443 Fog 2 1011 90 10000 1 20 18:37 14.06.2020
1444 Fog 2 1011 90 10000 3 30 18:19 14.06.2020
1445 Fog 2 1011 90 10000 3 30 18:19 14.06.2020
1446 Fog 2 1011 90 10000 3 30 17:55 14.06.2020
1447 Fog 2 1011 90 10000 3 30 17:37 14.06.2020
1448 Fog 2 1011 90 10000 2 130 17:19 14.06.2020
1449 Fog 2 1011 90 10000 2 130 16:40 14.06.2020
1450 Fog 2 1011 88 10000 2 130 16:20 14.06.2020
1451 Fog 3 1011 88 10000 5 80 15:58 14.06.2020
1452 Fog 3 1011 88 10000 5 80 15:58 14.06.2020
1453 Fog 3 1011 88 10000 5 80 15:40 14.06.2020
1454 Fog 4 1011 70 10000 6 110 15:18 14.06.2020
1455 Fog 6 1011 70 10000 6 110 14:57 14.06.2020
1456 Fog 6 1011 70 10000 6 110 14:38 14.06.2020
1457 Fog 7 1010 83 10000 7 110 14:18 14.06.2020
1458 Fog 8 1010 83 10000 7 110 13:42 14.06.2020
1459 Fog 8 1010 82 10000 7 110 13:22 14.06.2020
1460 Fog 9 1010 42 10000 10 110 12:59 14.06.2020
1461 Fog 9 1010 42 10000 10 110 12:41 14.06.2020
1462 Fog 9 1010 42 10000 10 110 12:23 14.06.2020
1463 Fog 8 1010 45 10000 7 100 11:59 14.06.2020
1464 Fog 8 1010 45 10000 7 100 11:40 14.06.2020
1465 Fog 8 1010 45 10000 7 100 11:22 14.06.2020
1466 -273 0 0 0 0 0 10:59 14.06.2020
1467 Fog 10 1010 46 10000 9 100 10:40 14.06.2020
1468 Fog 11 1009 26 10000 8 100 10:18 14.06.2020
1469 Fog 13 1009 26 10000 8 100 09:44 14.06.2020
1470 Fog 13 1009 26 10000 8 100 09:24 14.06.2020
1471 Fog 13 1009 28 10000 9 100 08:43 14.06.2020
1472 Fog 13 1009 28 10000 9 100 08:22 14.06.2020
1473 Fog 12 1009 46 10000 7 90 07:55 14.06.2020
1474 Fog 12 1009 46 10000 7 90 07:35 14.06.2020
1475 Fog 14 1009 41 10000 8 90 06:58 14.06.2020
1476 Clear 14 1008 47 10000 11 90 05:56 14.06.2020
1477 Clear 14 1008 47 10000 11 90 05:34 14.06.2020
1478 Clouds 15 1008 51 10000 12 100 04:41 14.06.2020
1479 Clouds 15 1008 51 10000 10 100 03:55 14.06.2020
1480 Clouds 16 1008 51 10000 9 110 02:43 14.06.2020
1481 Clouds 16 1008 51 10000 9 110 02:23 14.06.2020
1482 Clouds 17 1008 45 10000 11 110 01:30 14.06.2020
1483 Clouds 16 1008 48 10000 9 100 00:49 14.06.2020
1484 Clouds 16 1008 48 10000 9 100 00:29 14.06.2020
1485 Clouds 16 1008 38 10000 8 110 23:49 13.06.2020
1486 Clouds 16 1008 38 10000 8 110 23:31 13.06.2020
1487 Clouds 15 1008 41 10000 9 110 22:59 13.06.2020
1488 Clouds 15 1008 41 10000 9 110 22:38 13.06.2020
1489 Clouds 15 1008 38 10000 9 110 22:19 13.06.2020
1490 Clouds 15 1008 38 10000 9 110 21:58 13.06.2020
1491 Clouds 15 1008 38 10000 9 110 21:40 13.06.2020
1492 Rain 15 1008 38 10000 9 110 21:21 13.06.2020
1493 Rain 14 1008 41 10000 6 100 20:54 13.06.2020
1494 Rain 14 1008 41 10000 6 100 20:54 13.06.2020
1495 Rain 14 1008 41 10000 6 100 20:36 13.06.2020
1496 Rain 14 1008 43 10000 8 110 20:18 13.06.2020
1497 Rain 13 1008 43 10000 8 110 19:39 13.06.2020
1498 Rain 12 1008 50 10000 6 90 19:20 13.06.2020
1499 Rain 12 1008 50 10000 6 90 18:58 13.06.2020
1500 Rain 12 1008 50 10000 6 90 18:39 13.06.2020
1501 Clouds 12 1007 43 10000 4 100 18:20 13.06.2020
1502 Clouds 13 1007 43 10000 4 100 17:56 13.06.2020
1503 Clouds 13 1007 43 10000 4 100 17:37 13.06.2020
1504 Clouds 12 1007 50 10000 7 110 17:19 13.06.2020
1505 Clouds 12 1007 50 10000 7 110 16:54 13.06.2020
1506 Clouds 12 1007 50 10000 7 110 16:36 13.06.2020
1507 Clouds 13 1007 47 10000 8 100 16:18 13.06.2020
1508 Clouds 13 1007 47 10000 8 100 15:41 13.06.2020
1509 Clouds 13 1007 47 10000 8 100 15:21 13.06.2020
1510 Rain 14 1007 44 10000 8 90 14:44 13.06.2020
1511 Rain 14 1007 44 10000 8 90 14:24 13.06.2020
1512 Clouds 14 1008 44 10000 7 100 13:57 13.06.2020
1513 Clouds 14 1008 44 10000 7 100 13:38 13.06.2020
1514 Rain 15 1008 41 10000 8 100 13:19 13.06.2020
1515 Rain 15 1008 41 10000 8 100 12:43 13.06.2020
1516 Rain 15 1008 41 10000 8 100 12:25 13.06.2020
1517 Clouds 16 1007 38 10000 9 100 11:57 13.06.2020
1518 Clouds 16 1007 38 10000 9 100 11:37 13.06.2020
1519 Clouds 16 1007 41 10000 10 100 11:19 13.06.2020
1520 Clouds 16 1007 41 10000 10 100 10:54 13.06.2020
1521 Clouds 16 1007 41 10000 10 100 10:36 13.06.2020
1522 Clouds 16 1007 41 10000 11 100 10:18 13.06.2020
1523 Clouds 16 1007 41 10000 11 100 09:42 13.06.2020
1524 Clouds 16 1007 41 10000 11 100 09:20 13.06.2020
1525 Clouds 18 1007 34 10000 9 100 08:46 13.06.2020
1526 Clouds 18 1007 34 10000 9 100 08:27 13.06.2020
1527 Clouds 17 1008 36 10000 8 100 07:45 13.06.2020
1528 Clouds 17 1008 36 10000 8 100 07:27 13.06.2020
1529 Clouds 16 1008 48 10000 7 90 06:47 13.06.2020
1530 Clouds 16 1008 48 10000 7 90 06:27 13.06.2020
1531 Clouds 17 1008 45 10000 8 100 05:33 13.06.2020
1532 Clouds 19 1008 34 10000 8 110 04:55 13.06.2020
1533 Clouds 18 1009 45 10000 8 110 03:46 13.06.2020
1534 Clouds 14 1009 62 10000 5 110 02:53 13.06.2020
1535 Clouds 14 1009 62 10000 5 110 02:24 13.06.2020
1536 Clouds 13 1009 62 10000 4 130 01:26 13.06.2020
1537 Clouds 15 1009 54 10000 3 40 00:57 13.06.2020
1538 Clouds 15 1009 54 10000 3 40 00:37 13.06.2020
1539 Clouds 17 1009 32 10000 5 100 00:19 13.06.2020
1540 Clouds 20 1009 32 10000 5 100 23:40 12.06.2020
1541 Clouds 17 1009 42 10000 6 100 23:18 12.06.2020
1542 Clouds 17 1009 42 10000 6 100 22:55 12.06.2020
1543 Clouds 17 1009 42 10000 6 100 22:37 12.06.2020
1544 Clouds 17 1009 42 10000 6 100 22:37 12.06.2020
1545 Clouds 15 1009 47 10000 6 110 22:18 12.06.2020
1546 Clouds 13 1009 47 10000 6 110 21:44 12.06.2020
1547 Clouds 13 1009 47 10000 6 110 21:24 12.06.2020
1548 Clouds 18 1009 64 10000 5 120 20:57 12.06.2020
1549 Clouds 18 1009 64 10000 5 120 20:38 12.06.2020
1550 Clouds 16 1009 36 10000 5 130 20:20 12.06.2020
1551 Clouds 16 1009 36 10000 5 130 19:44 12.06.2020
1552 Clouds 16 1009 36 10000 5 130 19:22 12.06.2020
1553 Clouds 15 1008 38 10000 5 120 18:59 12.06.2020
1554 Clouds 15 1008 38 10000 5 120 18:37 12.06.2020
1555 Clouds 15 1008 63 10000 4 110 18:18 12.06.2020
1556 Clouds 15 1008 63 10000 4 110 17:44 12.06.2020
1557 Clouds 15 1008 62 10000 4 110 17:26 12.06.2020
1558 Clouds 16 1008 36 10000 5 110 16:47 12.06.2020
1559 Clouds 16 1008 36 10000 5 110 16:24 12.06.2020
1560 Clouds 16 1008 62 10000 5 110 15:56 12.06.2020
1561 Clouds 16 1008 62 10000 5 110 15:37 12.06.2020
1562 Clouds 16 1008 33 10000 4 110 15:18 12.06.2020
1563 Clouds 17 1008 33 10000 4 110 14:41 12.06.2020
1564 Clouds 17 1008 33 10000 4 110 14:22 12.06.2020
1565 Clouds 17 1008 59 10000 5 100 13:56 12.06.2020
1566 Clouds 17 1008 59 10000 5 100 13:56 12.06.2020
1567 Clouds 17 1008 59 10000 5 100 13:38 12.06.2020
1568 Clouds 18 1008 57 10000 4 120 13:18 12.06.2020
1569 Clouds 18 1008 57 10000 4 120 12:40 12.06.2020
1570 Clouds 18 1008 27 10000 3 100 12:19 12.06.2020
1571 Clouds 18 1008 27 10000 3 100 11:45 12.06.2020
1572 Clouds 18 1008 27 10000 3 100 11:23 12.06.2020
1573 Clouds 18 1008 27 10000 3 100 11:23 12.06.2020
1574 Clouds 19 1008 24 10000 3 90 10:57 12.06.2020
1575 Clouds 19 1008 24 10000 3 90 10:39 12.06.2020
1576 Clouds 19 1008 24 10000 3 90 10:21 12.06.2020
1577 Clouds 19 1008 25 10000 6 90 09:44 12.06.2020
1578 Clouds 19 1008 25 10000 6 90 09:20 12.06.2020
1579 Clouds 20 1007 53 10000 5 110 08:42 12.06.2020
1580 Clouds 20 1007 54 10000 5 110 08:23 12.06.2020
1581 Clouds 20 1007 34 10000 6 110 07:43 12.06.2020
1582 Clouds 20 1007 34 10000 6 110 07:24 12.06.2020
1583 Clouds 19 1007 39 10000 4 140 06:44 12.06.2020
1584 Clouds 19 1007 39 10000 4 140 06:23 12.06.2020
1585 Clouds 20 1007 42 10000 4 180 05:50 12.06.2020
1586 Clouds 20 1007 45 10000 4 180 05:25 12.06.2020
1587 Clouds 20 1007 42 10000 3 190 03:56 12.06.2020
1588 Clouds 21 1007 43 10000 1 300 02:43 12.06.2020
1589 Clouds 20 1008 45 10000 3 260 01:51 12.06.2020
1590 Clouds 21 1008 43 10000 2 270 01:21 12.06.2020
1591 Clouds 19 1008 45 10000 1 250 00:41 12.06.2020
1592 Clouds 19 1008 45 10000 1 250 00:22 12.06.2020
1593 Clouds 19 1008 42 10000 1 280 23:58 11.06.2020
1594 Clouds 19 1008 42 10000 2 270 23:39 11.06.2020
1595 Clouds 19 1008 42 10000 2 270 23:20 11.06.2020
1596 Clouds 18 1008 45 10000 1 290 22:56 11.06.2020
1597 Clouds 15 1008 51 10000 2 230 22:38 11.06.2020
1598 Clouds 15 1008 51 10000 2 230 22:38 11.06.2020
1599 Clouds 15 1008 54 10000 1.37 174 22:19 11.06.2020
1600 Clouds 12 1007 62 10000 3 160 21:43 11.06.2020
1601 Clouds 12 1007 62 10000 3 160 21:21 11.06.2020
1602 Clouds 10 1007 66 10000 4 220 20:59 11.06.2020
1603 Clouds 10 1007 66 10000 4 220 20:41 11.06.2020
1604 Clouds 10 1007 66 10000 4 220 20:21 11.06.2020
1605 Clouds 12 1007 54 10000 1.47 171 19:44 11.06.2020
1606 Clouds 12 1007 54 10000 1.83 168 19:23 11.06.2020
1607 Clouds 12 1007 54 10000 1.83 168 19:23 11.06.2020
1608 Clouds 10 1007 66 10000 1 310 18:57 11.06.2020
1609 Clouds 10 1007 66 10000 1 310 18:57 11.06.2020
1610 Clouds 10 1007 66 10000 1 310 18:39 11.06.2020
1611 Clouds 9 1007 70 10000 1 20 18:20 11.06.2020
1612 Clouds 8 1007 70 10000 1 20 17:56 11.06.2020
1613 Clouds 8 1007 70 10000 1 20 17:37 11.06.2020
1614 Clouds 8 1007 70 10000 1 20 17:19 11.06.2020
1615 Clouds 14 1007 44 10000 2 130 16:45 11.06.2020
1616 Clouds 14 1007 44 10000 2 130 16:27 11.06.2020
1617 Clouds 15 1007 41 10000 2 130 15:59 11.06.2020
1618 Clouds 15 1007 41 10000 2 130 15:40 11.06.2020
1619 Clouds 15 1007 41 10000 2 130 15:22 11.06.2020
1620 Clouds 17 1007 36 10000 3 120 14:46 11.06.2020
1621 Clouds 17 1007 36 10000 3 120 14:21 11.06.2020
1622 Clouds 16 1007 38 10000 2 110 13:58 11.06.2020
1623 Clouds 16 1007 38 10000 2 110 13:39 11.06.2020
1624 Clear 16 1007 39 10000 4 160 13:21 11.06.2020
1625 Clear 17 1007 39 10000 4 160 12:58 11.06.2020
1626 Clear 17 1007 39 10000 4 160 12:39 11.06.2020
1627 Clear 17 1006 39 10000 2 140 12:20 11.06.2020
1628 Clear 18 1006 39 10000 2 140 11:58 11.06.2020
1629 Clear 18 1006 39 10000 2 140 11:40 11.06.2020
1630 Clouds 18 1006 39 10000 2 140 11:21 11.06.2020
1631 Clouds 18 1006 39 10000 2 140 11:21 11.06.2020
1632 Clouds 18 1006 42 10000 2 140 10:57 11.06.2020
1633 Clouds 18 1006 42 10000 2 140 10:38 11.06.2020
1634 Clouds 18 1006 42 10000 2 140 10:18 11.06.2020
1635 Clouds 19 1006 39 10000 5 170 09:42 11.06.2020
1636 Clouds 19 1006 39 10000 5 170 09:23 11.06.2020
1637 Clouds 20 1006 34 10000 6 170 08:44 11.06.2020
1638 Clouds 20 1006 34 10000 6 170 08:20 11.06.2020
1639 Clouds 21 1006 28 10000 5 150 07:57 11.06.2020
1640 Clouds 21 1006 26 10000 5 150 07:39 11.06.2020
1641 Clouds 21 1006 26 10000 5 150 07:20 11.06.2020
1642 Clouds 21 1006 28 10000 5 160 06:28 11.06.2020
1643 Clouds 21 1006 30 10000 5 160 05:36 11.06.2020
1644 Clouds 21 1007 35 10000 3 210 03:50 11.06.2020
1645 Clouds 21 1007 32 10000 3 280 03:23 11.06.2020
1646 Clouds 20 1007 34 10000 3 280 02:32 11.06.2020
1647 Clear 20 1007 37 10000 3 280 01:50 11.06.2020
1648 Clear 20 1008 37 10000 2 250 01:24 11.06.2020
1649 Clear 18 1008 42 10000 2 180 00:50 11.06.2020
1650 Clear 18 1008 42 10000 2 180 00:27 11.06.2020
1651 Clear 16 1008 51 10000 2 210 23:47 10.06.2020
1652 Clear 16 1008 51 10000 2 210 23:27 10.06.2020
1653 Clear 17 1008 45 10000 1.26 168 22:57 10.06.2020
1654 Clear 13 1008 58 10000 2 160 22:38 10.06.2020
1655 Clear 13 1008 58 10000 2 160 22:19 10.06.2020
1656 Clear 10 1008 66 10000 3 180 21:56 10.06.2020
1657 Clear 10 1008 66 10000 3 180 21:38 10.06.2020
1658 Clear 9 1009 70 10000 2 190 21:18 10.06.2020
1659 Clear 9 1009 70 10000 2 190 20:56 10.06.2020
1660 Clear 9 1009 70 10000 2 190 20:38 10.06.2020
1661 Clear 9 1009 66 10000 4 180 20:20 10.06.2020
1662 Clear 9 1009 66 10000 4 180 19:41 10.06.2020
1663 Clear 9 1009 70 10000 4 170 19:20 10.06.2020
1664 Clear 9 1009 70 10000 4 170 18:59 10.06.2020
1665 Clear 9 1009 70 10000 4 170 18:41 10.06.2020
1666 Clear 9 1009 66 10000 4 160 18:20 10.06.2020
1667 Clear 10 1009 66 10000 4 160 17:56 10.06.2020
1668 Clear 10 1009 66 10000 4 160 17:37 10.06.2020
1669 Clear 10 1009 66 10000 4 160 17:19 10.06.2020
1670 Clear 11 1009 62 10000 4 160 16:57 10.06.2020
1671 Clear 11 1009 62 10000 4 160 16:39 10.06.2020
1672 Clear 11 1009 62 10000 4 160 16:20 10.06.2020
1673 Clear 13 1009 54 10000 3 160 15:41 10.06.2020
1674 Clear 13 1009 54 10000 3 160 15:22 10.06.2020
1675 Clear 14 1009 50 10000 4 160 14:59 10.06.2020
1676 Clear 14 1009 50 10000 4 160 14:40 10.06.2020
1677 Clear 14 1009 50 10000 4 160 14:20 10.06.2020
1678 Clear 15 1010 47 10000 3 160 13:41 10.06.2020
1679 Clear 17 1009 42 10000 1 130 13:22 10.06.2020
1680 Clear 17 1009 42 10000 1 130 12:55 10.06.2020
1681 Clear 17 1009 42 10000 1 130 12:37 10.06.2020
1682 Clear 17 1009 39 10000 3 110 12:18 10.06.2020
1683 Clear 18 1009 39 10000 3 110 11:42 10.06.2020
1684 Clouds 18 1010 42 10000 5 110 11:20 10.06.2020
1685 Clouds 18 1010 42 10000 5 110 10:58 10.06.2020
1686 Clouds 18 1010 42 10000 5 110 10:40 10.06.2020
1687 Clouds 18 1010 42 10000 6 150 10:21 10.06.2020
1688 Clouds 18 1010 42 10000 6 150 09:43 10.06.2020
1689 Clouds 18 1010 42 10000 6 150 09:43 10.06.2020
1690 Clouds 18 1010 42 10000 6 150 09:24 10.06.2020
1691 Clear 18 1010 42 10000 7 130 08:57 10.06.2020
1692 Clear 18 1010 42 10000 7 130 08:39 10.06.2020
1693 Clouds 18 1010 42 10000 6 150 08:20 10.06.2020
1694 Clouds 18 1011 45 10000 7 140 07:39 10.06.2020
1695 Clouds 18 1011 45 10000 7 140 07:21 10.06.2020
1696 Clouds 18 1011 42 10000 7 140 06:47 10.06.2020
1697 Clouds 19 1011 42 10000 7 140 06:25 10.06.2020
1698 Clouds 19 1011 42 10000 7 140 05:58 10.06.2020
1699 Clouds 19 1011 45 10000 7 140 05:29 10.06.2020
1700 Clouds 18 1012 45 10000 7 140 04:37 10.06.2020
1701 Clouds 18 1013 45 10000 7 140 03:33 10.06.2020
1702 Clear 17 1013 48 10000 6 150 02:24 10.06.2020
1703 Clear 17 1014 48 10000 5 150 01:39 10.06.2020
1704 Clear 15 1014 51 10000 5 160 00:41 10.06.2020
1705 Clear 15 1014 51 10000 4 160 00:23 10.06.2020
1706 Clear 15 1014 51 10000 4 160 23:58 09.06.2020
1707 Clear 14 1015 50 10000 5 160 23:39 09.06.2020
1708 Clear 14 1015 50 10000 5 160 23:21 09.06.2020
1709 Clear 14 1015 50 10000 4 170 22:56 09.06.2020
1710 Clear 12 1015 54 10000 5 170 22:38 09.06.2020
1711 Clear 12 1015 54 10000 5 170 22:20 09.06.2020
1712 Clear 12 1015 58 10000 4 170 21:56 09.06.2020
1713 Clear 12 1015 58 10000 4 170 21:38 09.06.2020
1714 Clear 12 1015 58 10000 4 170 21:38 09.06.2020
1715 Clear 12 1015 58 10000 4 170 21:20 09.06.2020
1716 Clear 8 1016 65 10000 4 180 20:57 09.06.2020
1717 Clear 8 1016 65 10000 4 180 20:38 09.06.2020
1718 Clouds 10 1016 54 10000 2 160 20:19 09.06.2020
1719 Clouds 12 1016 54 10000 2 160 19:57 09.06.2020
1720 Clouds 12 1016 54 10000 2 160 19:38 09.06.2020
1721 Clouds 11 1016 57 10000 3 150 19:20 09.06.2020
1722 Clouds 11 1016 57 10000 3 150 19:20 09.06.2020
1723 Clouds 11 1016 57 10000 3 150 18:46 09.06.2020
1724 Clouds 11 1016 57 10000 3 150 18:28 09.06.2020
1725 Clouds 9 1017 66 10000 3 170 17:59 09.06.2020
1726 Clouds 9 1017 66 10000 3 170 17:41 09.06.2020
1727 Clouds 9 1017 66 10000 3 170 17:22 09.06.2020
1728 Clouds 10 1017 61 10000 2 150 17:00 09.06.2020
1729 Clouds 10 1017 61 10000 2 150 16:40 09.06.2020
1730 Clouds 10 1017 61 10000 2 150 16:21 09.06.2020
1731 Clouds 10 1017 61 10000 3 170 15:42 09.06.2020
1732 Clouds 10 1017 61 10000 3 170 15:23 09.06.2020
1733 Clouds 11 1017 57 10000 3 140 14:59 09.06.2020
1734 Clouds 11 1017 57 10000 3 140 14:40 09.06.2020
1735 Clouds 11 1017 57 10000 3 140 14:20 09.06.2020
1736 Clouds 11 1017 57 10000 4 130 13:57 09.06.2020
1737 Clouds 11 1017 57 10000 4 130 13:38 09.06.2020
1738 Clear 11 1017 50 10000 4 160 13:20 09.06.2020
1739 Clear 12 1017 50 10000 4 160 12:42 09.06.2020
1740 Clear 12 1017 50 10000 4 160 12:21 09.06.2020
1741 Clear 13 1017 47 10000 4 130 11:58 09.06.2020
1742 Clear 13 1017 47 10000 4 130 11:40 09.06.2020
1743 Clear 13 1017 47 10000 4 130 11:20 09.06.2020
1744 Clear 13 1017 47 10000 4 130 11:20 09.06.2020
1745 Clear 13 1018 47 10000 3 150 10:58 09.06.2020
1746 Clear 13 1018 47 10000 3 150 10:39 09.06.2020
1747 Clear 13 1018 47 10000 3 150 10:19 09.06.2020
1748 Clear 14 1018 41 10000 5 170 09:41 09.06.2020
1749 Clear 14 1018 41 10000 5 170 09:22 09.06.2020
1750 Clear 14 1018 44 10000 6 150 08:56 09.06.2020
1751 Clear 15 1018 41 10000 6 150 08:37 09.06.2020
1752 Clear 15 1018 41 10000 6 150 08:19 09.06.2020
1753 Clear 15 1018 41 10000 7 150 07:38 09.06.2020
1754 Clear 15 1018 44 10000 6 150 07:19 09.06.2020
1755 Clear 15 1018 44 10000 6 150 06:53 09.06.2020
1756 Clear 15 1018 47 10000 6 150 06:33 09.06.2020
1757 Clear 15 1018 51 10000 6 150 05:34 09.06.2020
1758 Clouds 14 1019 54 10000 4 170 03:19 09.06.2020
1759 Clouds 13 1019 58 10000 3 200 01:42 09.06.2020
1760 Clouds 13 1019 58 10000 3 230 01:19 09.06.2020
1761 Clouds 12 1019 62 10000 4 280 00:49 09.06.2020
1762 Clouds 13 1019 54 10000 4 260 00:20 09.06.2020
1763 Clouds 14 1019 54 10000 4 260 23:58 08.06.2020
1764 Clouds 14 1019 58 10000 2 270 23:38 08.06.2020
1765 Clouds 14 1019 58 10000 2 270 23:19 08.06.2020
1766 Clouds 12 1019 66 10000 2 300 22:42 08.06.2020
1767 Clouds 12 1019 66 10000 2 300 22:23 08.06.2020
1768 Clouds 10 1019 71 10000 2 330 21:58 08.06.2020
1769 Clouds 10 1019 71 10000 2 330 21:58 08.06.2020
1770 Clouds 10 1019 71 10000 2 330 21:40 08.06.2020
1771 Clouds 10 1019 71 10000 2 330 21:22 08.06.2020
1772 Clouds 9 1019 76 10000 2 350 20:57 08.06.2020
1773 Clouds 9 1019 76 10000 2 350 20:39 08.06.2020
1774 Clouds 9 1019 76 10000 2 350 20:20 08.06.2020
1775 Clouds 8 1019 75 10000 2.2 196 19:55 08.06.2020
1776 Clouds 8 1019 75 10000 2.2 196 19:37 08.06.2020
1777 Clouds 7 1018 81 10000 1 350 19:19 08.06.2020
1778 Clouds 6 1018 81 10000 1 350 18:41 08.06.2020
1779 Clouds 5 1018 86 10000 2 30 18:18 08.06.2020
1780 Clouds 5 1018 86 10000 2 30 17:56 08.06.2020
1781 Clouds 5 1018 86 10000 2 30 17:38 08.06.2020
1782 Clouds 5 1018 86 10000 2 30 17:19 08.06.2020
1783 Clouds 6 1018 81 10000 3.28 174 16:45 08.06.2020
1784 Clouds 6 1018 81 10000 2.64 168 16:25 08.06.2020
1785 Clouds 7 1018 75 10000 1 90 15:59 08.06.2020
1786 Clouds 7 1018 75 10000 1 90 15:41 08.06.2020
1787 Clouds 7 1018 75 10000 1 90 15:20 08.06.2020
1788 Clouds 7 1017 70 10000 2 80 14:56 08.06.2020
1789 Clouds 7 1017 70 10000 2 80 14:36 08.06.2020
1790 Clouds 6 1016 75 10000 2 90 14:18 08.06.2020
1791 Clouds 6 1016 75 10000 2 90 14:18 08.06.2020
1792 Clouds 5 1016 75 10000 2 90 13:41 08.06.2020
1793 Clouds 7 1016 61 10000 1 350 13:20 08.06.2020
1794 Clouds 10 1016 61 10000 1 350 12:40 08.06.2020
1795 Clouds 12 1015 62 10000 3 360 12:19 08.06.2020
1796 Clouds 14 1015 62 10000 3 360 11:57 08.06.2020
1797 Clouds 14 1015 62 10000 3 360 11:38 08.06.2020
1798 Clouds 14 1015 62 10000 3 360 11:38 08.06.2020
1799 Clouds 14 1015 62 10000 3 360 11:20 08.06.2020
1800 Rain 16 1015 48 10000 4 340 10:56 08.06.2020
1801 Rain 16 1015 48 10000 4 340 10:37 08.06.2020
1802 Rain 16 1015 48 10000 4 340 10:19 08.06.2020
1803 Rain 17 1014 45 10000 6 320 09:43 08.06.2020
1804 Rain 17 1014 45 10000 6 320 09:23 08.06.2020
1805 Clouds 17 1014 45 10000 6 320 08:50 08.06.2020
1806 Clouds 17 1014 42 10000 7 310 08:24 08.06.2020
1807 Clouds 17 1014 45 10000 7 320 07:56 08.06.2020
1808 Clouds 17 1014 45 10000 7 320 07:56 08.06.2020
1809 Clouds 17 1014 48 10000 9 310 07:38 08.06.2020
1810 Clouds 17 1014 42 10000 8 330 07:19 08.06.2020
1811 Clouds 16 1015 51 10000 8 320 06:39 08.06.2020
1812 Clouds 17 1015 45 10000 9 340 05:55 08.06.2020
1813 Clouds 18 1014 45 10000 9 320 04:59 08.06.2020
1814 Clear 18 1014 39 10000 8 320 03:24 08.06.2020
1815 Clear 18 1014 39 10000 8 320 03:24 08.06.2020
1816 Clouds 18 1014 34 10000 9 310 02:26 08.06.2020
1817 Clouds 17 1014 42 10000 8 320 01:42 08.06.2020
1818 Clouds 17 1014 42 10000 8 310 00:57 08.06.2020
1819 Clouds 15 1014 54 10000 3 350 00:24 08.06.2020
1820 Clouds 12 1014 62 10000 4 330 23:38 07.06.2020
1821 Clouds 12 1014 62 10000 4 330 23:19 07.06.2020
1822 Clouds 11 1014 62 10000 2 300 22:57 07.06.2020
1823 Clouds 11 1014 57 10000 3 310 22:37 07.06.2020
1824 Clouds 11 1014 57 10000 3 310 22:18 07.06.2020
1825 Rain 13 1014 50 10000 2 270 21:58 07.06.2020
1826 Rain 13 1014 50 10000 2 270 21:36 07.06.2020
1827 Rain 13 1014 50 10000 2 270 21:18 07.06.2020
1828 Rain 11 1015 66 10000 1.61 245 20:39 07.06.2020
1829 Rain 11 1015 66 10000 2.41 257 20:21 07.06.2020
1830 Clouds 8 1015 70 10000 2 190 19:57 07.06.2020
1831 Clouds 8 1015 70 10000 2 190 19:39 07.06.2020
1832 Clouds 8 1015 70 10000 4 170 19:20 07.06.2020
1833 Clouds 8 1015 70 10000 4 170 18:59 07.06.2020
1834 Clouds 8 1015 70 10000 4 170 18:38 07.06.2020
1835 Clouds 8 1015 70 10000 5 160 18:20 07.06.2020
1836 Clouds 9 1015 70 10000 5 160 17:57 07.06.2020
1837 Clouds 9 1015 70 10000 5 160 17:38 07.06.2020
1838 Clouds 9 1015 70 10000 5 160 17:20 07.06.2020
1839 Clouds 8 1015 70 10000 2 140 16:43 07.06.2020
1840 Clouds 8 1015 70 10000 2 140 16:21 07.06.2020
1841 Clouds 10 1015 61 10000 3.06 164 15:44 07.06.2020
1842 Clouds 10 1015 61 10000 3.06 164 15:44 07.06.2020
1843 Clouds 10 1015 61 10000 3.06 164 15:44 07.06.2020
1844 Clouds 10 1015 61 10000 3.27 151 15:22 07.06.2020
1845 Clouds 8 1015 70 10000 1 110 14:41 07.06.2020
1846 Clouds 8 1015 70 10000 1 110 14:41 07.06.2020
1847 Clear 8 1015 70 10000 1 110 14:22 07.06.2020
1848 Clear 10 1015 61 10000 2 120 13:55 07.06.2020
1849 Clear 10 1015 61 10000 2 120 13:23 07.06.2020
1850 Clear 14 1015 50 10000 2 100 12:59 07.06.2020
1851 Clear 14 1015 50 10000 2 100 12:40 07.06.2020
1852 Clear 14 1015 47 10000 4 130 12:22 07.06.2020
1853 Clear 14 1015 47 10000 4 130 12:22 07.06.2020
1854 Clear 15 1015 47 10000 4 130 11:55 07.06.2020
1855 Clear 15 1015 47 10000 4 130 11:37 07.06.2020
1856 Clear 15 1015 47 10000 4 130 11:19 07.06.2020
1857 Clear 15 1015 47 10000 4 130 11:19 07.06.2020
1858 Clear 15 1016 51 10000 4 150 10:45 07.06.2020
1859 Clear 15 1016 51 10000 4 150 10:22 07.06.2020
1860 Clear 15 1016 51 10000 5 160 09:59 07.06.2020
1861 Clear 15 1016 48 10000 6 160 09:41 07.06.2020
1862 Clear 16 1016 48 10000 6 160 09:21 07.06.2020
1863 Clear 16 1016 48 10000 6 160 08:58 07.06.2020
1864 Clear 16 1016 48 10000 6 160 08:58 07.06.2020
1865 Clear 16 1016 48 10000 6 160 08:40 07.06.2020
1866 Clear 16 1016 48 10000 6 160 08:21 07.06.2020
1867 Clouds 17 1016 45 10000 6 160 07:41 07.06.2020
1868 Clouds 17 1016 45 10000 6 160 07:41 07.06.2020
1869 Clouds 17 1016 45 10000 6 170 06:56 07.06.2020
1870 Clouds 17 1016 45 10000 6 170 05:57 07.06.2020
1871 Clear 17 1017 45 10000 6 170 04:22 07.06.2020
1872 Clear 17 1017 45 10000 6 170 03:48 07.06.2020
1873 Clear 17 1017 45 10000 6 170 03:48 07.06.2020
1874 Clear 16 1018 45 10000 5 190 02:19 07.06.2020
1875 Clear 16 1018 44 10000 4 180 01:26 07.06.2020
1876 Clear 16 1018 44 10000 4 200 00:59 07.06.2020
1877 Clear 16 1018 48 10000 2 180 00:39 07.06.2020
1878 Clear 15 1018 51 10000 2 190 00:18 07.06.2020
1879 Clear 15 1018 47 10000 2 190 23:38 06.06.2020
1880 Clear 15 1018 47 10000 2 190 23:20 06.06.2020
1881 Clear 14 1018 54 10000 2 200 22:58 06.06.2020
1882 Clear 14 1018 50 10000 1 200 22:39 06.06.2020
1883 Clear 14 1018 50 10000 1 200 22:20 06.06.2020
1884 Clear 11 1018 62 10000 2 230 21:56 06.06.2020
1885 Clear 11 1018 62 10000 2 230 21:38 06.06.2020
1886 Clear 11 1018 62 10000 2 230 21:19 06.06.2020
1887 Clear 11 1018 62 10000 1 190 20:40 06.06.2020
1888 Clear 11 1018 62 10000 1 190 20:20 06.06.2020
1889 Clear 10 1018 66 10000 2 140 19:58 06.06.2020
1890 Clear 10 1018 66 10000 2 140 19:40 06.06.2020
1891 Clear 10 1018 66 10000 3 160 19:21 06.06.2020
1892 Clear 9 1018 66 10000 3 160 18:56 06.06.2020
1893 Clear 9 1018 66 10000 3 160 18:37 06.06.2020
1894 Clear 8 1017 75 10000 2 120 18:18 06.06.2020
1895 Clear 6 1017 75 10000 2 120 17:43 06.06.2020
1896 Clear 6 1017 75 10000 2 120 17:20 06.06.2020
1897 Clear 5 1017 80 10000 3 130 16:56 06.06.2020
1898 Clear 5 1017 80 10000 3 130 16:38 06.06.2020
1899 Clear 5 1017 80 10000 3 130 16:20 06.06.2020
1900 Clear 9 1017 61 10000 3 140 15:44 06.06.2020
1901 Clear 9 1017 61 10000 3 140 15:20 06.06.2020
1902 Clear 10 1018 61 10000 3 170 14:58 06.06.2020
1903 Clear 10 1018 61 10000 3 170 14:37 06.06.2020
1904 Clouds 10 1018 61 10000 3 170 14:19 06.06.2020
1905 Clouds 10 1018 61 10000 3 170 14:19 06.06.2020
1906 Clouds 10 1017 61 10000 2 120 13:47 06.06.2020
1907 Clouds 10 1017 57 10000 2 170 13:19 06.06.2020
1908 Clouds 11 1017 57 10000 2 170 12:57 06.06.2020
1909 Clouds 11 1017 57 10000 2 170 12:38 06.06.2020
1910 Clouds 11 1017 58 10000 4 170 12:18 06.06.2020
1911 Clouds 12 1017 58 10000 4 170 11:54 06.06.2020
1912 Clouds 12 1017 58 10000 4 170 11:36 06.06.2020
1913 Clouds 12 1017 58 10000 4 170 11:36 06.06.2020
1914 Clouds 12 1017 58 10000 4 170 11:18 06.06.2020
1915 Clouds 13 1017 54 10000 3 180 10:55 06.06.2020
1916 Clouds 13 1017 54 10000 3 180 10:36 06.06.2020
1917 Clouds 13 1017 54 10000 3 180 10:18 06.06.2020
1918 Clouds 13 1017 50 10000 4 180 09:41 06.06.2020
1919 Clouds 13 1017 50 10000 4 180 09:23 06.06.2020
1920 Clouds 14 1017 50 10000 4 160 08:48 06.06.2020
1921 Clear 14 1017 50 10000 4 150 08:24 06.06.2020
1922 Clear 14 1017 50 10000 4 160 07:56 06.06.2020
1923 Clear 13 1017 50 10000 4 160 07:38 06.06.2020
1924 Clear 13 1017 44 10000 5 160 07:19 06.06.2020
1925 Clear 14 1017 47 10000 5 170 06:43 06.06.2020
1926 Clear 14 1017 47 10000 5 170 06:43 06.06.2020
1927 Clouds 14 1017 47 10000 5 170 06:25 06.06.2020
1928 Clouds 15 1016 47 10000 4 170 05:33 06.06.2020
1929 Clouds 15 1016 47 10000 5 170 04:51 06.06.2020
1930 Clouds 15 1016 47 10000 4 180 03:45 06.06.2020
1931 Clouds 14 1017 47 10000 3 180 02:35 06.06.2020
1932 Clouds 14 1017 50 10000 3 180 01:23 06.06.2020
1933 Clouds 13 1017 54 10000 4 180 00:57 06.06.2020
1934 Clouds 13 1017 54 10000 3 190 00:39 06.06.2020
1935 Clouds 13 1017 50 10000 3 180 00:20 06.06.2020
1936 Clouds 12 1017 62 10000 3 180 23:40 05.06.2020
1937 Clouds 12 1017 62 10000 3 180 23:20 05.06.2020
1938 Clouds 11 1017 66 10000 2 210 22:56 05.06.2020
1939 Clouds 11 1017 66 10000 1.44 182 22:38 05.06.2020
1940 Clouds 11 1017 66 10000 1.78 177 22:20 05.06.2020
1941 Clouds 7 1017 81 10000 1.78 177 21:54 05.06.2020
1942 Clouds 7 1017 81 10000 1.78 177 21:36 05.06.2020
1943 Clouds 7 1017 81 10000 1.29 165 21:18 05.06.2020
1944 Clouds 6 1016 81 10000 1.26 169 20:44 05.06.2020
1945 Clouds 6 1016 81 10000 1.23 158 20:22 05.06.2020
1946 Clouds 5 1016 86 10000 1.23 158 19:44 05.06.2020
1947 Clouds 5 1016 86 10000 1.71 155 19:24 05.06.2020
1948 Clouds 4 1016 86 10000 1.71 155 18:59 05.06.2020
1949 Clouds 4 1016 86 10000 1.71 155 18:39 05.06.2020
1950 Clouds 4 1016 86 10000 1.9 154 18:20 05.06.2020
1951 Clouds 4 1016 86 10000 1.9 154 17:58 05.06.2020
1952 Clouds 4 1016 86 10000 1.9 154 17:58 05.06.2020
1953 Clouds 4 1016 86 10000 1.9 154 17:40 05.06.2020
1954 Clouds 4 1016 86 10000 2.08 154 17:20 05.06.2020
1955 Clouds 4 1016 86 10000 2 340 16:43 05.06.2020
1956 Clouds 4 1016 86 10000 2 340 16:24 05.06.2020
1957 Clouds 5 1016 86 10000 1 330 15:58 05.06.2020
1958 Clouds 5 1016 86 10000 1 330 15:38 05.06.2020
1959 Clouds 5 1016 86 10000 1 330 15:20 05.06.2020
1960 Clouds 5 1016 86 10000 1 120 14:56 05.06.2020
1961 Clouds 5 1016 86 10000 1 120 14:38 05.06.2020
1962 Clouds 5 1016 86 10000 1 120 14:19 05.06.2020
1963 Clouds 8 1016 75 10000 4 120 13:44 05.06.2020
1964 Clouds 8 1016 75 10000 4 120 13:26 05.06.2020
1965 Clouds 9 1016 76 10000 2 100 12:55 05.06.2020
1966 Clouds 8 1016 81 10000 1 60 12:37 05.06.2020
1967 Clouds 8 1016 75 10000 2 50 12:18 05.06.2020
1968 Clouds 8 1015 70 10000 2 90 11:42 05.06.2020
1969 Clouds 9 1015 70 10000 2 90 11:23 05.06.2020
1970 Clouds 9 1015 76 10000 4 100 10:56 05.06.2020
1971 Clouds 10 1015 71 10000 2 110 10:38 05.06.2020
1972 Clouds 10 1015 71 10000 2 110 10:19 05.06.2020
1973 Clouds 11 1015 66 10000 3 150 09:55 05.06.2020
1974 Clouds 11 1015 71 10000 5 140 09:37 05.06.2020
1975 Clouds 11 1015 71 10000 5 140 09:18 05.06.2020
1976 Clouds 10 1015 71 10000 4 140 08:55 05.06.2020
1977 Clouds 10 1015 71 10000 6 140 08:36 05.06.2020
1978 Clouds 10 1015 71 10000 6 140 08:18 05.06.2020
1979 Clouds 11 1014 62 10000 6 150 07:43 05.06.2020
1980 Clouds 12 1014 54 10000 4 140 07:23 05.06.2020
1981 Clouds 12 1015 66 10000 5 150 06:20 05.06.2020
1982 Clouds 12 1014 62 10000 5 160 05:21 05.06.2020
1983 Clouds 13 1014 58 10000 4 160 04:26 05.06.2020
1984 Clouds 13 1014 58 10000 4 190 02:56 05.06.2020
1985 Clouds 13 1014 58 10000 3 180 02:25 05.06.2020
1986 Clouds 12 1014 58 10000 4 180 01:56 05.06.2020
1987 Clouds 11 1014 62 10000 4 180 01:27 05.06.2020
1988 Clouds 12 1014 58 10000 4 180 00:42 05.06.2020
1989 Clouds 12 1014 58 10000 2 180 00:21 05.06.2020
1990 Clouds 12 1014 62 10000 2 200 23:46 04.06.2020
1991 Clouds 12 1014 62 10000 2 200 23:28 04.06.2020
1992 Clouds 11 1014 66 10000 2 200 22:56 04.06.2020
1993 Clouds 10 1014 71 10000 2 210 22:37 04.06.2020
1994 Clouds 11 1014 66 10000 2 200 22:18 04.06.2020
1995 Clouds 11 1014 66 10000 2 200 21:56 04.06.2020
1996 Clouds 11 1014 66 10000 2 200 21:37 04.06.2020
1997 Clouds 11 1014 66 10000 2 200 21:19 04.06.2020
1998 Clouds 10 1013 71 10000 3 170 20:54 04.06.2020
1999 Clouds 10 1013 71 10000 3 170 20:36 04.06.2020
2000 Clouds 10 1013 76 10000 2 150 20:18 04.06.2020
2001 Clouds 9 1013 76 10000 2 150 19:39 04.06.2020
2002 Clouds 9 1013 76 10000 2 150 19:39 04.06.2020
2003 Clouds 9 1013 76 10000 3 140 19:21 04.06.2020
2004 Clouds 9 1013 76 10000 3 140 18:56 04.06.2020
2005 Clouds 9 1013 76 10000 3 140 18:38 04.06.2020
2006 Clouds 9 1013 81 10000 2 150 18:19 04.06.2020
2007 Clouds 8 1013 81 10000 2 150 17:42 04.06.2020
2008 Clouds 8 1013 81 10000 2 150 17:21 04.06.2020
2009 Clouds 8 1013 81 10000 2 140 16:56 04.06.2020
2010 Clouds 8 1013 81 10000 2 140 16:38 04.06.2020
2011 Clouds 8 1013 81 10000 2 140 16:18 04.06.2020
2012 Clouds 5 1012 86 10000 1.45 329 15:42 04.06.2020
2013 Clouds 5 1012 86 10000 1.66 320 15:24 04.06.2020
2014 Clouds 7 1012 81 10000 1.66 320 14:40 04.06.2020
2015 Clouds 7 1012 81 10000 1.46 275 14:21 04.06.2020
2016 Clouds 8 1012 81 10000 1 110 13:56 04.06.2020
2017 Clouds 8 1012 81 10000 1 110 13:38 04.06.2020
2018 Clouds 8 1012 76 10000 1 110 13:20 04.06.2020
2019 Clouds 9 1012 76 10000 1 110 12:55 04.06.2020
2020 Clouds 9 1012 76 10000 1 110 12:37 04.06.2020
2021 Clouds 9 1012 76 10000 1 110 12:37 04.06.2020
2022 Clouds 9 1012 71 10000 0.23 308 12:18 04.06.2020
2023 Clouds 10 1012 71 10000 0.23 308 11:41 04.06.2020
2024 Clouds 10 1012 71 10000 0.56 297 11:20 04.06.2020
2025 Clouds 10 1011 71 10000 3 200 10:59 04.06.2020
2026 Clouds 10 1011 71 10000 3 200 10:39 04.06.2020
2027 Clouds 10 1011 71 10000 3 200 10:20 04.06.2020
2028 Clouds 11 1011 66 10000 3 190 09:46 04.06.2020
2029 Clouds 11 1011 66 10000 3 190 09:28 04.06.2020
2030 Clouds 13 1010 58 10000 4 180 08:51 04.06.2020
2031 Clouds 13 1010 58 10000 4 180 08:31 04.06.2020
2032 Clouds 13 1010 58 10000 4 160 07:59 04.06.2020
2033 Clouds 13 1010 58 10000 5 170 07:31 04.06.2020
2034 Clouds 13 1010 58 10000 5 180 06:45 04.06.2020
2035 Clouds 13 1010 54 10000 4 180 06:27 04.06.2020
2036 Clouds 14 1010 54 10000 5 180 05:52 04.06.2020
2037 Clouds 14 1010 54 10000 5 180 05:31 04.06.2020
2038 Clouds 14 1010 54 10000 5 180 05:31 04.06.2020
2039 Clouds 14 1010 58 10000 4 190 03:34 04.06.2020
2040 Clouds 13 1010 62 10000 3 180 02:19 04.06.2020
2041 Clouds 13 1010 58 10000 3 280 01:20 04.06.2020
2042 Clouds 13 1010 58 10000 3 280 00:59 04.06.2020
2043 Clouds 12 1009 62 10000 2 280 23:58 03.06.2020
2044 Clouds 11 1009 66 10000 3 260 23:36 03.06.2020
2045 Clouds 11 1009 66 10000 3 260 23:18 03.06.2020
2046 Clouds 12 1009 62 10000 2 280 22:40 03.06.2020
2047 Clouds 12 1009 62 10000 2 280 22:19 03.06.2020
2048 Clouds 11 1009 66 10000 1 340 21:59 03.06.2020
2049 Clouds 10 1009 66 10000 1 290 21:41 03.06.2020
2050 Clouds 10 1009 66 10000 1 290 21:22 03.06.2020
2051 Clouds 9 1009 70 10000 1 220 20:58 03.06.2020
2052 Clouds 8 1009 65 10000 1 150 20:40 03.06.2020
2053 Clouds 8 1009 65 10000 1 150 20:20 03.06.2020
2054 Clouds 6 1009 75 10000 2 200 19:57 03.06.2020
2055 Clouds 5 1009 75 10000 2 200 19:38 03.06.2020
2056 Clouds 5 1008 75 10000 2.16 166 19:19 03.06.2020
2057 Clouds 6 1008 75 10000 2.16 166 18:57 03.06.2020
2058 Clouds 4 1008 80 10000 2 50 18:38 03.06.2020
2059 Clouds 4 1008 70 10000 1 40 18:18 03.06.2020
2060 Clouds 2 1008 86 10000 1 50 17:44 03.06.2020
2061 Clouds 1 1008 86 10000 1 50 17:22 03.06.2020
2062 Clouds 2 1008 73 10000 1 220 16:58 03.06.2020
2063 Clouds 3 1008 73 10000 1 90 16:39 03.06.2020
2064 Clouds 3 1008 69 10000 1 90 16:19 03.06.2020
2065 Clouds 4 1008 80 10000 1 50 15:54 03.06.2020
2066 Clouds 5 1008 75 10000 2.57 144 15:36 03.06.2020
2067 Clouds 5 1008 75 10000 3.52 152 15:18 03.06.2020
2068 Clouds 12 1008 50 10000 3 140 14:42 03.06.2020
2069 Clouds 12 1008 50 10000 3 140 14:22 03.06.2020
2070 Clouds 12 1008 50 10000 2 130 13:40 03.06.2020
2071 Clouds 13 1008 47 10000 3 140 13:20 03.06.2020
2072 Clouds 13 1008 47 10000 3 140 13:20 03.06.2020
2073 Clouds 13 1008 47 10000 3 140 12:54 03.06.2020
2074 Clouds 13 1008 47 10000 3 140 12:36 03.06.2020
2075 Clouds 13 1008 43 10000 4 180 12:18 03.06.2020
2076 Clouds 13 1008 43 10000 4 180 11:41 03.06.2020
2077 Clouds 13 1008 43 10000 4 180 11:23 03.06.2020
2078 Clouds 15 1007 41 10000 1 160 10:43 03.06.2020
2079 Clouds 15 1007 41 10000 1 160 10:24 03.06.2020
2080 Clouds 15 1007 38 10000 1 190 09:47 03.06.2020
2081 Clouds 15 1007 41 10000 2 210 09:23 03.06.2020
2082 Clouds 16 1007 38 10000 2 180 08:59 03.06.2020
2083 Clouds 15 1007 44 10000 2 200 08:41 03.06.2020
2084 Clouds 15 1007 44 10000 2 200 08:21 03.06.2020
2085 Clouds 15 1007 41 10000 2 210 07:44 03.06.2020
2086 Clouds 16 1007 44 10000 3 200 07:23 03.06.2020
2087 Clouds 16 1007 44 10000 3 200 06:54 03.06.2020
2088 Clouds 16 1007 44 10000 3 210 06:33 03.06.2020
2089 Clouds 17 1007 42 10000 3 200 05:49 03.06.2020
2090 Clouds 17 1007 42 10000 3 200 05:23 03.06.2020
2091 Clouds 18 1007 36 10000 4 270 03:52 03.06.2020
2092 Clouds 18 1008 39 10000 4 280 03:24 03.06.2020
2093 Clouds 17 1008 42 10000 5 300 02:24 03.06.2020
2094 Clouds 17 1008 36 10000 5 330 00:56 03.06.2020
2095 Clouds 16 1008 41 10000 5 330 00:37 03.06.2020
2096 Clouds 16 1008 41 10000 3 290 00:18 03.06.2020
2097 Clouds 15 1008 41 10000 2 300 23:38 02.06.2020
2098 Clouds 15 1008 41 10000 2 300 23:20 02.06.2020
2099 Clouds 14 1008 47 10000 1 340 22:39 02.06.2020
2100 Clouds 14 1008 47 10000 1 340 22:19 02.06.2020
2101 Clouds 12 1008 54 10000 1 360 21:57 02.06.2020
2102 Clouds 12 1008 54 10000 1 360 21:39 02.06.2020
2103 Clouds 12 1008 54 10000 1 360 21:20 02.06.2020
2104 Clouds 10 1008 57 10000 1 330 20:58 02.06.2020
2105 Clouds 10 1008 57 10000 1 330 20:40 02.06.2020
2106 Clouds 10 1008 57 10000 1 330 20:21 02.06.2020
2107 Clouds 8 1008 65 10000 1 320 19:44 02.06.2020
2108 Clouds 8 1008 65 10000 1 320 19:26 02.06.2020
2109 Clouds 8 1008 65 10000 1 320 19:26 02.06.2020
2110 Clouds 8 1008 65 10000 1 320 19:26 02.06.2020
2111 Clouds 6 1008 75 10000 1 310 18:58 02.06.2020
2112 Clouds 6 1008 75 10000 1 310 18:58 02.06.2020
2113 Clouds 6 1008 75 10000 1 310 18:40 02.06.2020
2114 Clouds 6 1008 75 10000 1 310 18:20 02.06.2020
2115 Clouds 3 1008 74 10000 2.28 302 17:57 02.06.2020
2116 Clouds 3 1008 74 10000 2.28 302 17:39 02.06.2020
2117 Clouds 3 1008 73 10000 2.46 307 17:20 02.06.2020
2118 Clouds 2 1008 80 10000 2.46 307 16:55 02.06.2020
2119 Clouds 2 1008 80 10000 2.46 307 16:37 02.06.2020
2120 Clouds 2 1008 80 10000 2.72 311 16:19 02.06.2020
2121 Clouds 2 1008 80 10000 2.72 311 16:19 02.06.2020
2122 Clouds 3 1008 71 10000 1 50 15:40 02.06.2020
2123 Clouds 3 1008 69 10000 1 50 15:20 02.06.2020
2124 Clouds 2 1008 80 10000 2 90 14:47 02.06.2020
2125 Clouds 2 1008 80 10000 2 90 14:28 02.06.2020
2126 Clouds 3 1008 74 10000 2 90 13:57 02.06.2020
2127 Clouds 3 1008 74 10000 2 90 13:37 02.06.2020
2128 Clouds 3 1008 74 10000 2 90 13:18 02.06.2020
2129 Clouds 9 1008 61 10000 1 90 12:56 02.06.2020
2130 Clouds 9 1008 61 10000 1 90 12:38 02.06.2020
2131 Clouds 9 1008 61 10000 1 90 12:19 02.06.2020
2132 Clouds 11 1007 62 10000 2 340 11:41 02.06.2020
2133 Clouds 11 1007 60 10000 2 340 11:23 02.06.2020
2134 Clouds 14 1007 41 10000 2 350 10:59 02.06.2020
2135 Clouds 15 1007 60 10000 3 320 10:41 02.06.2020
2136 Clouds 15 1007 58 10000 3 320 10:21 02.06.2020
2137 Clouds 16 1007 58 10000 5 320 09:43 02.06.2020
2138 Clouds 16 1007 54 10000 5 320 09:21 02.06.2020
2139 Clouds 16 1007 54 10000 6 310 08:55 02.06.2020
2140 Clouds 16 1007 36 10000 5 310 08:29 02.06.2020
2141 Clouds 16 1007 33 10000 4 290 07:58 02.06.2020
2142 Clouds 17 1007 33 10000 4 290 07:38 02.06.2020
2143 Clouds 17 1007 36 10000 4 270 07:18 02.06.2020
2144 Clouds 17 1007 36 10000 5 280 06:39 02.06.2020
2145 Clouds 16 1007 44 10000 5 270 05:38 02.06.2020
2146 Clouds 16 1007 44 10000 4 270 04:41 02.06.2020
2147 Clouds 14 1008 47 10000 4 290 02:37 02.06.2020
2148 Clouds 14 1008 47 10000 4 290 02:18 02.06.2020
2149 Clouds 14 1008 50 10000 5 280 00:51 02.06.2020
2150 Clouds 13 1008 50 10000 3 330 00:22 02.06.2020
2151 Clouds 13 1008 50 10000 3 340 23:39 01.06.2020
2152 Clouds 13 1008 50 10000 3 340 23:20 01.06.2020
2153 Clouds 12 1008 54 10000 4 340 22:58 01.06.2020
2154 Clouds 11 1008 53 10000 3 340 22:39 01.06.2020
2155 Clouds 11 1008 53 10000 3 340 22:19 01.06.2020
2156 Clouds 9 1008 61 10000 3 350 21:54 01.06.2020
2157 Clouds 9 1008 61 10000 3 350 21:36 01.06.2020
2158 Clouds 9 1008 61 10000 3 350 21:18 01.06.2020
2159 Clouds 5 1008 75 0 1.79 350 20:42 01.06.2020
2160 Clouds 5 1008 80 10000 2 330 20:21 01.06.2020
2161 Clouds 4 1008 80 10000 2 330 19:59 01.06.2020
2162 Clouds 4 1008 80 10000 2 330 19:41 01.06.2020
2163 Clouds 4 1008 75 10000 1 340 19:20 01.06.2020
2164 Clouds 5 1008 75 10000 1 340 18:58 01.06.2020
2165 Clouds 5 1008 75 10000 1 340 18:39 01.06.2020
2166 Clouds 5 1008 75 10000 1 300 18:19 01.06.2020
2167 Clouds 5 1008 75 10000 1 300 17:54 01.06.2020
2168 Clouds 5 1008 75 10000 1 300 17:36 01.06.2020
2169 Clouds 5 1008 75 10000 1 300 17:18 01.06.2020
2170 Clouds 6 1008 70 10000 4.29 328 16:39 01.06.2020
2171 Clouds 6 1008 70 10000 4.65 323 16:20 01.06.2020
2172 Clouds 6 1008 70 10000 4.65 323 15:55 01.06.2020
2173 Clouds 6 1008 70 10000 4.65 323 15:36 01.06.2020
2174 Clouds 6 1008 70 10000 4.75 317 15:18 01.06.2020
2175 Clouds 3 1009 68 10000 3 30 14:55 01.06.2020
2176 Clouds 3 1009 68 10000 3 30 14:36 01.06.2020
2177 Clouds 5 1009 75 10000 3 50 14:18 01.06.2020
2178 Clouds 5 1009 75 10000 3 50 13:41 01.06.2020
2179 Clouds 5 1009 75 10000 3 50 13:21 01.06.2020
2180 Clouds 7 1008 70 10000 1 10 12:58 01.06.2020
2181 Clouds 7 1008 70 10000 1 10 12:39 01.06.2020
2182 Clouds 7 1008 70 10000 1 10 12:21 01.06.2020
2183 Clouds 9 1008 61 10000 1 350 11:56 01.06.2020
2184 Clouds 9 1008 61 10000 1 350 11:36 01.06.2020
2185 Clouds 10 1008 57 10000 3 300 11:18 01.06.2020
2186 Clouds 11 1008 57 10000 3 300 10:39 01.06.2020
2187 Clouds 11 1008 57 10000 3 300 10:20 01.06.2020
2188 Clouds 11 1008 57 10000 2 320 09:57 01.06.2020
2189 Clouds 12 1008 54 10000 4 290 09:39 01.06.2020
2190 Clouds 12 1008 54 10000 4 290 09:20 01.06.2020
2191 Clouds 12 1008 54 10000 5 300 08:51 01.06.2020
2192 Clouds 12 1008 54 10000 6 300 08:28 01.06.2020
2193 Clouds 12 1008 54 10000 6 310 07:46 01.06.2020
2194 Clear 12 1008 54 10000 6 310 07:28 01.06.2020
2195 Clear 13 1008 50 10000 7 300 06:59 01.06.2020
2196 Clear 15 1008 47 10000 6 300 06:33 01.06.2020
2197 Clear 14 1008 50 10000 7 300 05:53 01.06.2020
2198 Clear 14 1008 50 10000 6 300 04:31 01.06.2020
2199 Clear 14 1008 50 10000 6 330 03:48 01.06.2020
2200 Clear 15 1009 47 10000 5 340 03:24 01.06.2020
2201 Clear 14 1009 54 10000 6 340 02:19 01.06.2020
2202 Clear 14 1009 54 10000 6 340 01:34 01.06.2020
2203 Clear 13 1009 54 10000 5 330 00:58 01.06.2020
2204 Clear 12 1009 58 10000 6 340 00:39 01.06.2020
2205 Clear 12 1009 58 10000 6 340 00:21 01.06.2020
2206 Clear 12 1009 58 10000 6 340 00:21 01.06.2020
2207 Clear 11 1010 66 10000 5 330 23:56 31.05.2020
2208 Clear 11 1010 62 10000 5 340 23:38 31.05.2020
2209 Clear 11 1010 62 10000 5 340 23:20 31.05.2020
2210 Clear 10 1010 70 10000 5 330 22:44 31.05.2020
2211 Clear 9 1010 70 10000 5 330 22:26 31.05.2020
2212 Clear 6 1010 81 10000 5 330 21:58 31.05.2020
2213 Clear 6 1010 81 10000 5 330 21:40 31.05.2020
2214 Clear 6 1010 81 10000 5 330 21:22 31.05.2020
2215 Clear 5 1010 86 10000 4 350 20:57 31.05.2020
2216 Clear 5 1010 86 10000 4 350 20:38 31.05.2020
2217 Clear 5 1010 86 10000 4 350 20:19 31.05.2020
2218 Clear 3 1010 86 10000 3 330 19:54 31.05.2020
2219 Clear 3 1010 86 10000 3 330 19:36 31.05.2020
2220 Clear 2 1010 81 10000 3 360 19:18 31.05.2020
2221 Clear 1 1010 81 10000 3 360 18:43 31.05.2020
2222 Clear 1 1010 82 10000 3 360 18:24 31.05.2020
2223 Clear 2 1010 93 10000 4 340 17:45 31.05.2020
2224 Clear 2 1010 93 10000 4 340 17:25 31.05.2020
2225 Clear 2 1010 93 10000 3 10 16:58 31.05.2020
2226 Clear 2 1010 93 10000 3 10 16:58 31.05.2020
2227 Clear 2 1010 93 10000 3 10 16:38 31.05.2020
2228 Clear 2 1010 93 10000 3 10 16:18 31.05.2020
2229 Clear 0 1010 83 10000 3 30 15:39 31.05.2020
2230 Clear 0 1010 83 10000 3 30 15:21 31.05.2020
2231 Clear 2 1011 93 10000 4 30 14:47 31.05.2020
2232 Clear 2 1011 93 10000 4 30 14:22 31.05.2020
2233 Clear 1 1011 86 10000 3 40 13:56 31.05.2020
2234 Clear 1 1011 86 10000 3 40 13:38 31.05.2020
2235 Clear 1 1011 86 10000 3 40 13:20 31.05.2020
2236 Clear 2 1011 83 10000 2 90 12:57 31.05.2020
2237 Clear 2 1011 83 10000 2 90 12:37 31.05.2020
2238 Clear 2 1011 81 10000 2 90 12:19 31.05.2020
2239 Clear 7 1011 70 10000 1 20 11:47 31.05.2020
2240 Clear 7 1011 70 10000 1 20 11:23 31.05.2020
2241 Clear 8 1011 70 10000 2 290 10:56 31.05.2020
2242 Clear 8 1011 70 10000 2 290 10:38 31.05.2020
2243 Clear 8 1011 70 10000 2 290 10:18 31.05.2020
2244 Clear 9 1011 61 10000 2 280 09:42 31.05.2020
2245 Clear 9 1011 61 10000 2 280 09:22 31.05.2020
2246 Clear 9 1011 61 10000 2 270 08:57 31.05.2020
2247 Clear 9 1011 61 10000 2 270 08:37 31.05.2020
2248 Clear 9 1011 61 10000 2 270 08:19 31.05.2020
2249 Clear 9 1011 66 10000 3 220 07:42 31.05.2020
2250 Clear 9 1011 66 10000 3 220 07:20 31.05.2020
2251 Clear 8 1012 70 10000 3 220 06:53 31.05.2020
2252 Clouds 9 1012 66 10000 3 200 06:31 31.05.2020
2253 Clouds 9 1012 66 10000 3 180 05:43 31.05.2020
2254 Clouds 8 1013 65 10000 4 220 04:27 31.05.2020
2255 Clouds 9 1013 66 10000 2 250 03:48 31.05.2020
2256 Clouds 8 1013 81 10000 3 240 02:59 31.05.2020
2257 Fog 8 1014 70 10000 4 110 01:48 31.05.2020
2258 Fog 8 1014 70 10000 6 120 01:19 31.05.2020
2259 Fog 8 1014 70 10000 8 100 00:30 31.05.2020
2260 Fog 8 1013 70 10000 10 110 23:56 30.05.2020
2261 Fog 7 1014 70 10000 9 110 23:38 30.05.2020
2262 Fog 7 1014 70 10000 9 110 23:19 30.05.2020
2263 Clouds 7 1014 75 10000 9 110 22:41 30.05.2020
2264 Clouds 7 1014 75 10000 9 110 22:22 30.05.2020
2265 Clouds 6 1014 75 10000 6 100 21:56 30.05.2020
2266 Clouds 6 1014 75 10000 6 100 21:56 30.05.2020
2267 Clouds 6 1014 75 10000 6 100 21:37 30.05.2020
2268 Clear 6 1014 75 10000 6 100 21:19 30.05.2020
2269 Clear 4 1014 80 10000 6 90 20:56 30.05.2020
2270 Clear 4 1014 80 10000 6 90 20:37 30.05.2020
2271 Clouds 4 1014 80 10000 6 90 20:19 30.05.2020
2272 Clouds 3 1014 86 10000 9 110 19:42 30.05.2020
2273 Clouds 3 1014 86 10000 9 110 19:21 30.05.2020
2274 Clouds 2 1015 89 10000 7 110 18:46 30.05.2020
2275 Clouds 2 1015 93 10000 7 110 18:24 30.05.2020
2276 Clouds 1 1015 93 10000 8 110 17:55 30.05.2020
2277 Clouds 1 1015 93 10000 8 110 17:37 30.05.2020
2278 Clouds 1 1015 95 10000 8 110 17:18 30.05.2020
2279 Mist 0 1015 95 4200 8 100 16:42 30.05.2020
2280 Mist 0 1015 94 4200 8 100 16:22 30.05.2020
2281 Mist -1 1015 100 1400 7 130 15:49 30.05.2020
2282 Mist -1 1015 100 1400 7 130 15:29 30.05.2020
2283 Clouds 1 1015 93 10000 6 80 14:59 30.05.2020
2284 Clouds 1 1015 93 10000 6 80 14:41 30.05.2020
2285 Clouds 1 1015 92 10000 6 80 14:18 30.05.2020
2286 Fog 2 1014 93 10000 6 90 13:41 30.05.2020
2287 Fog 2 1014 93 10000 6 90 13:18 30.05.2020
2288 Clouds 3 1014 86 10000 11 100 12:39 30.05.2020
2289 Clouds 3 1014 86 10000 11 100 12:20 30.05.2020
2290 Fog 2 1014 93 10000 13 100 11:55 30.05.2020
2291 Fog 2 1014 93 10000 13 110 11:37 30.05.2020
2292 Fog 2 1014 93 10000 13 110 11:19 30.05.2020
2293 Clouds 3 1013 86 10000 14 110 10:39 30.05.2020
2294 Clouds 3 1013 86 10000 14 110 10:20 30.05.2020
2295 Clouds 3 1013 86 10000 14 110 09:46 30.05.2020
2296 Clouds 3 1013 86 10000 14 110 09:28 30.05.2020
2297 Clouds 3 1013 93 10000 14 110 08:46 30.05.2020
2298 Clouds 3 1013 93 10000 14 110 08:27 30.05.2020
2299 Fog 4 1013 86 10000 14 110 07:44 30.05.2020
2300 Fog 5 1013 86 10000 14 110 07:20 30.05.2020
2301 Fog 4 1013 93 10000 12 110 06:33 30.05.2020
2302 Fog 4 1013 93 10000 13 120 05:52 30.05.2020
2303 Mist 4 1013 93 9000 15 110 05:34 30.05.2020
2304 Rain 3 1013 93 3300 12 110 03:39 30.05.2020
2305 Rain 3 1012 93 9000 14 110 02:30 30.05.2020
2306 Rain 2 1012 93 10000 14 110 01:45 30.05.2020
2307 Rain 3 1012 93 8000 14 110 00:38 30.05.2020
2308 Rain 3 1012 93 8000 14 110 00:18 30.05.2020
2309 Mist 3 1012 100 4800 13 110 23:42 29.05.2020
2310 Fog 3 1012 100 4800 13 110 23:21 29.05.2020
2311 Rain 4 1012 93 10000 13 110 22:58 29.05.2020
2312 Rain 4 1011 93 10000 13 110 22:40 29.05.2020
2313 Rain 4 1011 93 10000 13 110 22:19 29.05.2020
2314 Rain 3 1011 93 10000 13 110 21:55 29.05.2020
2315 Rain 3 1011 93 10000 13 110 21:36 29.05.2020
2316 Mist 3 1011 93 10000 11 120 21:18 29.05.2020
2317 Mist 3 1011 93 10000 11 120 20:44 29.05.2020
2318 Rain 3 1011 93 10000 11 120 20:20 29.05.2020
2319 Mist 2 1010 100 4000 11 130 19:58 29.05.2020
2320 Rain 2 1010 100 4000 11 130 19:38 29.05.2020
2321 Rain 2 1010 100 4000 11 130 19:19 29.05.2020
2322 Rain 2 1010 100 9000 13 120 18:46 29.05.2020
2323 Rain 2 1010 100 9000 13 120 18:19 29.05.2020
2324 Mist 2 1010 100 9000 12 120 17:56 29.05.2020
2325 Mist 2 1010 100 9000 12 120 17:56 29.05.2020
2326 Mist 2 1010 100 9000 12 120 17:37 29.05.2020
2327 Mist 2 1010 100 9000 12 120 17:19 29.05.2020
2328 Mist 3 1010 93 10000 14 110 16:42 29.05.2020
2329 Mist 3 1010 93 10000 14 110 16:23 29.05.2020
2330 Fog 3 1010 93 10000 10 120 15:55 29.05.2020
2331 Fog 3 1010 93 10000 10 120 15:37 29.05.2020
2332 Fog 3 1010 93 10000 10 120 15:18 29.05.2020
2333 Fog 2 1010 100 10000 12 120 14:40 29.05.2020
2334 Fog 2 1010 100 10000 12 120 14:21 29.05.2020
2335 Fog 3 1010 93 10000 10 120 13:43 29.05.2020
2336 Fog 3 1010 93 10000 10 120 13:24 29.05.2020
2337 Clouds 3 1010 93 9000 11 120 12:58 29.05.2020
2338 Clouds 3 1010 93 9000 11 120 12:40 29.05.2020
2339 Clouds 3 1010 93 9000 11 120 12:21 29.05.2020
2340 Fog 3 1010 93 10000 9 120 11:45 29.05.2020
2341 Fog 3 1010 93 10000 9 120 11:26 29.05.2020
2342 Fog 3 1009 93 10000 10 120 10:57 29.05.2020
2343 Fog 3 1009 93 10000 10 120 10:36 29.05.2020
2344 Fog 3 1009 93 10000 10 120 10:18 29.05.2020
2345 Fog 3 1009 93 10000 10 120 09:43 29.05.2020
2346 Fog 3 1009 93 10000 10 120 09:20 29.05.2020
2347 Fog 3 1009 93 10000 10 120 09:20 29.05.2020
2348 Fog 4 1009 86 10000 10 120 08:48 29.05.2020
2349 Fog 4 1009 86 10000 10 120 08:26 29.05.2020
2350 Fog 4 1009 86 10000 8 110 07:59 29.05.2020
2351 Fog 4 1009 86 10000 9 120 07:39 29.05.2020
2352 Fog 4 1009 86 10000 9 120 07:21 29.05.2020
2353 Fog 4 1008 93 10000 10 110 06:46 29.05.2020
2354 Fog 4 1008 93 10000 10 110 06:27 29.05.2020
2355 Fog 4 1008 93 10000 11 120 05:46 29.05.2020
2356 Mist 3 1008 93 1400 12 110 02:36 29.05.2020
2357 Rain 2 1008 93 10000 13 110 01:29 29.05.2020
2358 Clouds 2 1008 100 10000 13 110 00:54 29.05.2020
2359 Clouds 2 1009 93 8000 12 110 00:34 29.05.2020
2360 Rain 2 1009 93 4900 13 100 23:59 28.05.2020
2361 Mist 2 1009 93 5000 13 100 23:39 28.05.2020
2362 Snow 2 1009 93 5000 13 100 23:18 28.05.2020
2363 Snow 1 1010 96 1800 11 100 22:42 28.05.2020
2364 Snow 1 1010 96 1800 11 100 22:24 28.05.2020
2365 Snow 1 1011 96 3000 13 100 21:57 28.05.2020
2366 Mist 1 1011 96 3000 13 100 21:38 28.05.2020
2367 Snow 1 1011 96 3000 13 100 21:20 28.05.2020
2368 Mist 1 1011 96 4300 8 100 20:57 28.05.2020
2369 Mist 1 1011 96 4300 8 100 20:57 28.05.2020
2370 Snow 1 1011 96 4300 8 100 20:38 28.05.2020
2371 Snow 1 1011 96 4300 8 100 20:18 28.05.2020
2372 Rain 1 1013 96 9000 8 90 19:54 28.05.2020
2373 Rain 1 1013 96 9000 8 90 19:54 28.05.2020
2374 Rain 1 1013 96 9000 8 90 19:36 28.05.2020
2375 Rain 1 1014 96 10000 10 90 19:18 28.05.2020
2376 Rain 1 1014 96 10000 10 90 18:41 28.05.2020
2377 Rain 1 1014 96 10000 10 90 18:22 28.05.2020
2378 Clouds 2 1015 80 0 6.71 90 17:43 28.05.2020
2379 Clouds 2 1015 80 10000 8 100 17:22 28.05.2020
2380 Clouds 2 1015 80 10000 8 100 16:58 28.05.2020
2381 Clouds 2 1015 80 10000 8 100 16:58 28.05.2020
2382 Clouds 2 1015 80 10000 8 100 16:38 28.05.2020
2383 Clouds 2 1015 80 10000 8 100 16:20 28.05.2020
2384 Clouds 2 1015 80 10000 10 120 15:42 28.05.2020
2385 Clouds 2 1015 80 10000 10 120 15:24 28.05.2020
2386 Clouds 1 1015 86 10000 7 130 14:57 28.05.2020
2387 Clouds 1 1015 86 10000 7 130 14:38 28.05.2020
2388 Clouds 1 1015 86 10000 7 130 14:20 28.05.2020
2389 Clouds 2 1016 96 10000 8 120 13:40 28.05.2020
2390 Clouds 2 1016 94 10000 8 120 13:21 28.05.2020
2391 Clouds 1 1015 94 10000 9 100 12:42 28.05.2020
2392 Clouds 1 1015 95 10000 9 100 12:19 28.05.2020
2393 Clouds 2 1015 95 10000 7 100 11:44 28.05.2020
2394 Clouds 2 1015 94 10000 7 100 11:26 28.05.2020
2395 Clouds 2 1015 94 10000 5 110 10:57 28.05.2020
2396 Clouds 2 1015 94 10000 5 110 10:39 28.05.2020
2397 Clouds 2 1015 94 10000 5 110 10:20 28.05.2020
2398 Clouds 3 1014 94 10000 6 90 09:39 28.05.2020
2399 Clouds 3 1014 94 10000 6 90 09:21 28.05.2020
2400 Clouds 2 1014 94 10000 5 130 08:50 28.05.2020
2401 Clouds 2 1014 94 10000 5 130 08:27 28.05.2020
2402 Fog 2 1014 94 10000 6 130 07:46 28.05.2020
2403 Fog 2 1014 94 10000 6 130 07:26 28.05.2020
2404 Fog 3 1014 94 10000 5 120 06:59 28.05.2020
2405 Fog 3 1013 86 10000 6 130 06:38 28.05.2020
2406 Fog 3 1013 86 10000 6 130 06:19 28.05.2020
2407 Clouds 3 1013 86 10000 5 140 05:36 28.05.2020
2408 Clouds 3 1013 86 10000 5 150 04:32 28.05.2020
2409 Clouds 2 1013 93 10000 4 140 03:46 28.05.2020
2410 Fog 2 1013 100 10000 4 160 02:45 28.05.2020
2411 Fog 2 1013 100 10000 4 160 02:45 28.05.2020
2412 Fog 3 1012 93 10000 3 160 01:53 28.05.2020
2413 Rain 3 1012 93 10000 3 200 00:55 28.05.2020
2414 Rain 3 1012 93 10000 2 200 00:37 28.05.2020
2415 Rain 3 1012 93 10000 2 200 00:18 28.05.2020
2416 Rain 4 1012 86 10000 0.9 146 23:39 27.05.2020
2417 Rain 4 1012 86 10000 1.06 60 23:21 27.05.2020
2418 Rain 4 1012 86 10000 1.06 60 23:21 27.05.2020
2419 Rain 3 1012 93 10000 1.06 60 22:58 27.05.2020
2420 Rain 3 1012 93 10000 1.06 60 22:40 27.05.2020
2421 Rain 3 1012 93 10000 2.17 31 22:21 27.05.2020
2422 Rain 3 1012 93 10000 3 20 21:42 27.05.2020
2423 Rain 3 1012 93 10000 3 20 21:24 27.05.2020
2424 Rain 3 1012 86 10000 5 350 20:59 27.05.2020
2425 Rain 3 1012 86 10000 5 350 20:41 27.05.2020
2426 Rain 3 1012 86 10000 5 350 20:21 27.05.2020
2427 Clouds 3 1012 93 10000 5 350 19:57 27.05.2020
2428 Clouds 3 1012 93 10000 5 350 19:39 27.05.2020
2429 Clouds 3 1012 92 10000 5 350 19:19 27.05.2020
2430 Clouds 2 1012 92 10000 6 10 18:40 27.05.2020
2431 Clouds 2 1012 94 10000 6 10 18:19 27.05.2020
2432 Rain 3 1012 94 10000 5 10 17:56 27.05.2020
2433 Rain 3 1012 94 10000 5 10 17:37 27.05.2020
2434 Rain 3 1012 93 10000 5 10 17:18 27.05.2020
2435 Clouds 3 1012 93 10000 6 20 16:54 27.05.2020
2436 Clouds 3 1012 93 10000 6 20 16:36 27.05.2020
2437 Clouds 2 1013 95 10000 6 20 16:18 27.05.2020
2438 Clouds 2 1013 95 10000 6 20 15:40 27.05.2020
2439 Clouds 2 1013 96 10000 6 20 15:21 27.05.2020
2440 Clouds 1 1013 86 10000 2 360 14:44 27.05.2020
2441 Clouds 1 1013 86 10000 2 360 14:22 27.05.2020
2442 Clouds 3 1013 96 10000 3.3 2 13:55 27.05.2020
2443 Clouds 3 1013 96 10000 3.3 2 13:36 27.05.2020
2444 Clouds 3 1014 97 10000 1 330 13:18 27.05.2020
2445 Clouds 4 1014 97 10000 1 330 12:40 27.05.2020
2446 Clouds 4 1014 98 10000 1 330 12:22 27.05.2020
2447 Clouds 3 1014 98 10000 1.57 5 11:40 27.05.2020
2448 Clouds 3 1014 98 10000 0.73 330 11:22 27.05.2020
2449 Clouds 5 1014 65 10000 2 80 10:58 27.05.2020
2450 Clouds 5 1014 65 10000 2 80 10:39 27.05.2020
2451 Clouds 5 1014 65 10000 2 80 10:39 27.05.2020
2452 Clouds 5 1014 65 10000 2 80 10:20 27.05.2020
2453 Clouds 6 1014 60 10000 5 90 09:41 27.05.2020
2454 Clouds 6 1014 60 10000 5 90 09:22 27.05.2020
2455 Fog 4 1014 91 10000 3 160 08:58 27.05.2020
2456 Fog 4 1014 91 10000 3 160 08:38 27.05.2020
2457 Fog 4 1014 90 10000 3 160 08:19 27.05.2020
2458 Clouds 4 1014 90 10000 4 110 07:50 27.05.2020
2459 Clouds 6 1014 90 10000 4 100 07:32 27.05.2020
2460 Fog 6 1014 92 10000 4 110 06:52 27.05.2020
2461 Clouds 6 1014 93 10000 6 100 06:24 27.05.2020
2462 Clouds 5 1014 75 10000 8 110 05:49 27.05.2020
2463 Clouds 5 1014 75 10000 8 100 05:22 27.05.2020
2464 Rain 4 1014 80 10000 8 130 02:36 27.05.2020
2465 Clouds 4 1013 80 10000 9 110 01:55 27.05.2020
2466 Clouds 4 1013 80 10000 8 110 01:30 27.05.2020
2467 Clouds 4 1013 80 10000 8 110 00:47 27.05.2020
2468 Clouds 4 1013 80 10000 8 110 00:20 27.05.2020
2469 Clouds 4 1013 80 10000 7 100 23:57 26.05.2020
2470 Fog 3 1013 86 10000 8 110 23:38 26.05.2020
2471 Fog 3 1013 86 10000 8 110 23:20 26.05.2020
2472 Rain 3 1012 97 10000 6 110 22:41 26.05.2020
2473 Fog 3 1012 98 10000 6 110 22:22 26.05.2020
2474 Fog 1 1012 98 10000 9 110 21:59 26.05.2020
2475 Fog 1 1012 98 10000 9 110 21:40 26.05.2020
2476 Fog 1 1012 98 10000 9 110 21:40 26.05.2020
2477 Fog 1 1012 98 10000 9 110 21:21 26.05.2020
2478 Clouds 1 1012 98 9000 6 110 20:57 26.05.2020
2479 Clouds 1 1012 98 9000 6 110 20:39 26.05.2020
2480 Clouds 1 1012 98 9000 6 110 20:19 26.05.2020
2481 Fog 1 1012 98 10000 4 120 19:40 26.05.2020
2482 Fog 1 1012 98 10000 4 120 19:20 26.05.2020
2483 Fog 1 1011 86 10000 2 140 18:57 26.05.2020
2484 Fog 1 1011 86 10000 2 140 18:39 26.05.2020
2485 Fog 1 1011 86 10000 2 140 18:20 26.05.2020
2486 Clouds 1 1011 86 10000 2 10 17:39 26.05.2020
2487 Clouds 1 1011 86 10000 2 10 17:21 26.05.2020
2488 Snow 1 1010 86 10000 5 100 16:48 26.05.2020
2489 Snow 1 1010 86 10000 5 100 16:22 26.05.2020
2490 Snow 1 1010 98 10000 5 110 15:58 26.05.2020
2491 Snow 1 1010 98 10000 5 110 15:39 26.05.2020
2492 Snow 1 1010 98 10000 5 110 15:19 26.05.2020
2493 Clouds 1 1010 98 10000 5 110 14:44 26.05.2020
2494 Clouds 1 1010 98 10000 5 110 14:25 26.05.2020
2495 Snow 2 1010 98 10000 6 100 13:57 26.05.2020
2496 Snow 2 1010 98 10000 6 100 13:39 26.05.2020
2497 Snow 2 1010 98 10000 6 100 13:21 26.05.2020
2498 Clouds 1 1010 98 10000 3 80 12:44 26.05.2020
2499 Clouds 1 1010 97 10000 3 80 12:22 26.05.2020
2500 Rain 1 1009 97 10000 5 110 11:59 26.05.2020
2501 Rain 1 1009 97 10000 5 110 11:40 26.05.2020
2502 Rain 1 1009 93 10000 5 110 11:19 26.05.2020
2503 Fog 1 1009 93 10000 5 110 10:44 26.05.2020
2504 Fog 1 1009 90 10000 5 110 10:19 26.05.2020
2505 Rain 1 1009 90 10000 3 120 09:54 26.05.2020
2506 Rain 1 1009 90 10000 3 120 09:36 26.05.2020
2507 Rain 1 1008 85 10000 5 150 09:18 26.05.2020
2508 Rain 2 1008 85 10000 5 150 08:39 26.05.2020
2509 Rain 2 1008 84 10000 5 150 08:21 26.05.2020
2510 Rain 2 1008 93 10000 5 170 07:41 26.05.2020
2511 Rain 2 1008 93 10000 5 170 07:22 26.05.2020
2512 Rain 2 1008 85 10000 5 160 06:49 26.05.2020
2513 Clouds 3 1008 83 10000 6 160 06:23 26.05.2020
2514 Clouds 3 1007 83 10000 6 150 05:41 26.05.2020
2515 Clouds 3 1007 74 10000 6 140 04:59 26.05.2020
2516 Clouds 4 1007 64 10000 7 150 04:41 26.05.2020
2517 Clouds 4 1007 64 10000 7 150 04:22 26.05.2020
2518 Clouds 4 1007 69 10000 7 150 03:28 26.05.2020
2519 Clouds 6 1006 82 10000 1 350 02:32 26.05.2020
2520 Clouds 8 1006 84 10000 3 30 01:41 26.05.2020
2521 Clouds 7 1006 56 10000 3 30 00:39 26.05.2020
2522 Clouds 7 1006 56 10000 3 30 00:20 26.05.2020
2523 Clouds 6 1006 88 10000 3 350 23:58 25.05.2020
2524 Clouds 6 1006 60 10000 3 340 23:38 25.05.2020
2525 Clouds 6 1006 60 10000 3 340 23:19 25.05.2020
2526 Clouds 5 1006 65 10000 3 340 22:56 25.05.2020
2527 Clouds 4 1006 90 10000 2 330 22:37 25.05.2020
2528 Clouds 3 1006 91 10000 2 330 22:19 25.05.2020
2529 Clouds 3 1006 91 10000 2 330 22:19 25.05.2020
2530 Clouds 2 1006 91 10000 1 300 21:58 25.05.2020
2531 Clouds 2 1006 91 10000 1 300 21:37 25.05.2020
2532 Clouds 2 1006 92 10000 1 300 21:18 25.05.2020
2533 Clouds 2 1006 80 10000 2.11 345 20:57 25.05.2020
2534 Clouds 2 1006 80 10000 2.11 345 20:38 25.05.2020
2535 Clouds 1 1006 80 10000 2.24 353 20:19 25.05.2020
2536 Clouds 0 1006 93 10000 1 340 19:42 25.05.2020
2537 Clouds 0 1006 94 10000 1 340 19:20 25.05.2020
2538 Clouds -2 1006 92 10000 2 60 18:58 25.05.2020
2539 Clouds -2 1006 92 10000 2 60 18:40 25.05.2020
2540 Clouds -3 1006 92 10000 2 60 18:21 25.05.2020
2541 Clouds -4 1006 92 10000 1 50 17:44 25.05.2020
2542 Clouds -4 1006 92 10000 1 50 17:25 25.05.2020
2543 Clouds -3 1006 92 10000 1 50 16:58 25.05.2020
2544 Clouds -3 1006 92 10000 1 50 16:58 25.05.2020
2545 Clouds -3 1006 92 10000 1 50 16:40 25.05.2020
2546 Clear -3 1006 92 10000 1 50 16:21 25.05.2020
2547 Clear -2 1006 92 10000 2.01 326 15:45 25.05.2020
2548 Clear -2 1006 92 10000 2.01 326 15:45 25.05.2020
2549 Clear -2 1006 92 10000 2.41 310 15:21 25.05.2020
2550 Clear -1 1006 86 10000 1 350 14:59 25.05.2020
2551 Clear -2 1006 86 10000 1 60 14:41 25.05.2020
2552 Clear -2 1006 86 10000 1 60 14:23 25.05.2020
2553 Clouds -1 1007 92 10000 1 40 13:56 25.05.2020
2554 Clouds 1 1007 80 10000 1 20 13:37 25.05.2020
2555 Clouds 1 1007 80 10000 1 20 13:37 25.05.2020
2556 Clouds 1 1007 80 10000 1 20 13:19 25.05.2020
2557 Clouds 0 1007 96 10000 2 330 12:40 25.05.2020
2558 Clouds 0 1007 96 10000 2 330 12:21 25.05.2020
2559 Clouds 0 1007 96 10000 2 330 12:21 25.05.2020
2560 Clouds 2 1007 80 10000 2.68 288 11:57 25.05.2020
2561 Clouds 3 1007 96 10000 2.68 288 11:37 25.05.2020
2562 Clouds 3 1007 92 10000 2.75 281 11:18 25.05.2020
2563 Clouds 3 1007 92 10000 1 280 10:41 25.05.2020
2564 Clouds 3 1007 88 10000 1 280 10:21 25.05.2020
2565 Clouds 4 1007 88 10000 3 260 09:57 25.05.2020
2566 Clouds 4 1007 69 10000 3 250 09:38 25.05.2020
2567 Clouds 4 1007 69 10000 3 250 09:19 25.05.2020
2568 Clouds 4 1006 69 10000 3 280 08:44 25.05.2020
2569 Clouds 4 1006 69 10000 3 280 08:25 25.05.2020
2570 Clouds 4 1006 85 10000 3 250 07:59 25.05.2020
2571 Clouds 4 1007 69 10000 1 200 07:41 25.05.2020
2572 Clouds 4 1007 69 10000 1 200 07:20 25.05.2020
2573 Clouds 4 1007 69 10000 2 210 06:46 25.05.2020
2574 Clouds 4 1007 69 10000 2 210 06:27 25.05.2020
2575 Clouds 3 1007 69 10000 4 200 03:47 25.05.2020
2576 Clouds 3 1007 69 10000 4 200 03:22 25.05.2020
2577 Clouds 3 1007 64 10000 3 220 02:45 25.05.2020
2578 Clouds 3 1008 69 10000 3 210 01:46 25.05.2020
2579 Clouds 3 1008 69 10000 3 210 01:28 25.05.2020
2580 Clouds 3 1008 69 10000 3 230 00:36 25.05.2020
2581 Clouds 3 1008 69 10000 2 210 00:18 25.05.2020
2582 Clouds 3 1008 69 10000 3 170 23:43 24.05.2020
2583 Clouds 3 1008 69 10000 3 170 23:23 24.05.2020
2584 Clouds 2 1008 69 10000 2 210 22:58 24.05.2020
2585 Clouds 3 1008 74 10000 2 200 22:40 24.05.2020
2586 Clouds 3 1008 74 10000 2 200 22:19 24.05.2020
2587 Clouds 3 1008 74 10000 1 220 21:55 24.05.2020
2588 Clouds 3 1008 74 10000 1 220 21:37 24.05.2020
2589 Clouds 3 1008 74 10000 1 220 21:19 24.05.2020
2590 Clouds 2 1008 80 10000 1 310 20:43 24.05.2020
2591 Clouds 2 1008 80 10000 1 310 20:43 24.05.2020
2592 Clouds 2 1008 80 10000 1 310 20:22 24.05.2020
2593 Clouds 1 1008 86 10000 1 280 19:59 24.05.2020
2594 Clouds 1 1008 86 10000 1 280 19:41 24.05.2020
2595 Clouds 1 1008 86 10000 1 280 19:19 24.05.2020
2596 Clouds 1 1008 86 10000 3 90 18:56 24.05.2020
2597 Clouds 1 1008 86 10000 3 90 18:37 24.05.2020
2598 Clouds 1 1008 86 10000 3 90 18:19 24.05.2020
2599 Clouds 1 1008 86 10000 1 130 17:41 24.05.2020
2600 Clouds 1 1008 86 10000 1 130 17:21 24.05.2020
2601 Clouds 1 1008 86 10000 2 70 16:57 24.05.2020
2602 Clouds 1 1008 86 10000 2 70 16:38 24.05.2020
2603 Clouds 1 1008 86 10000 2 70 16:20 24.05.2020
2604 Clouds 1 1008 86 10000 2 120 15:57 24.05.2020
2605 Clouds 1 1008 86 10000 2 120 15:38 24.05.2020
2606 Clouds 1 1008 86 10000 2 120 15:19 24.05.2020
2607 Clouds 1 1008 86 10000 1 130 14:46 24.05.2020
2608 Clouds 1 1008 86 10000 1 130 14:24 24.05.2020
2609 Clouds 2 1008 80 10000 1 200 13:59 24.05.2020
2610 Clouds 2 1008 80 10000 1 200 13:41 24.05.2020
2611 Clouds 2 1008 80 10000 1 200 13:21 24.05.2020
2612 Clouds 2 1008 80 10000 1 190 12:59 24.05.2020
2613 Clouds 2 1008 80 10000 1 190 12:40 24.05.2020
2614 Clouds 2 1008 80 10000 1 190 12:22 24.05.2020
2615 Clouds 2 1008 80 10000 2 190 11:59 24.05.2020
2616 Clouds 2 1008 80 10000 2 190 11:59 24.05.2020
2617 Clouds 2 1008 80 10000 2 190 11:41 24.05.2020
2618 Clouds 2 1008 80 10000 2 190 11:41 24.05.2020
2619 Clouds 2 1008 80 10000 2 190 11:41 24.05.2020
2620 Clouds 2 1008 80 10000 2 190 11:22 24.05.2020
2621 Clouds 2 1008 80 10000 3 180 10:57 24.05.2020
2622 Clouds 2 1008 80 10000 3 180 10:39 24.05.2020
2623 Clouds 2 1008 80 10000 3 180 10:21 24.05.2020
2624 Clouds 2 1008 80 10000 3 180 10:21 24.05.2020
2625 Clouds 3 1008 74 10000 3 210 09:41 24.05.2020
2626 Clouds 3 1008 74 10000 3 210 09:19 24.05.2020
2627 Clouds 4 1009 69 10000 4 280 08:57 24.05.2020
2628 Clouds 4 1009 69 10000 4 280 08:39 24.05.2020
2629 Clouds 4 1009 69 10000 4 280 08:20 24.05.2020
2630 Clouds 5 1008 90 10000 6 280 07:49 24.05.2020
2631 Clouds 5 1008 89 10000 6 280 07:25 24.05.2020
2632 Clouds 5 1009 89 10000 7 280 06:57 24.05.2020
2633 Clouds 5 1009 89 10000 7 280 06:36 24.05.2020
2634 Clouds 6 1009 70 10000 6 280 05:20 24.05.2020
2635 Clouds 6 1009 90 10000 3 340 03:42 24.05.2020
2636 Clouds 5 1009 65 10000 2 350 02:46 24.05.2020
2637 Clouds 5 1010 91 10000 2 340 01:50 24.05.2020
2638 Clouds 3 1010 93 10000 3 330 00:41 24.05.2020
2639 Clouds 3 1010 95 10000 3 330 00:22 24.05.2020
2640 Clouds 3 1010 95 10000 3 330 00:22 24.05.2020
2641 Clouds 3 1010 95 10000 4 360 23:46 23.05.2020
2642 Clouds 3 1010 96 10000 4 360 23:25 23.05.2020
2643 Clouds 2 1010 96 10000 4 10 22:59 23.05.2020
2644 Clouds 2 1010 96 10000 4 10 22:39 23.05.2020
2645 Clouds 2 1010 97 10000 4 10 22:20 23.05.2020
2646 Clouds 2 1010 97 10000 3 30 21:58 23.05.2020
2647 Clouds 2 1010 97 10000 3 30 21:40 23.05.2020
2648 Clouds 2 1010 98 10000 3 30 21:20 23.05.2020
2649 Clouds 1 1010 96 10000 4 10 20:59 23.05.2020
2650 Clouds 1 1010 96 10000 4 10 20:59 23.05.2020
2651 Clouds 1 1010 96 10000 4 10 20:38 23.05.2020
2652 Clouds 1 1010 98 10000 4 10 20:19 23.05.2020
2653 Clouds 1 1010 86 10000 6 10 19:54 23.05.2020
2654 Clouds 1 1010 86 10000 6 10 19:36 23.05.2020
2655 Clouds 0 1010 99 10000 4 350 19:18 23.05.2020
2656 Clouds 0 1010 99 10000 4 350 18:40 23.05.2020
2657 Clouds 0 1010 99 10000 4 350 18:22 23.05.2020
2658 Clouds 1 1010 86 10000 3 10 17:57 23.05.2020
2659 Clouds 1 1010 86 10000 3 10 17:39 23.05.2020
2660 Clouds 1 1010 86 10000 3 10 17:19 23.05.2020
2661 Clouds 1 1010 86 10000 2 350 16:57 23.05.2020
2662 Clouds 1 1010 86 10000 2 350 16:39 23.05.2020
2663 Clouds 1 1010 86 10000 2 350 16:20 23.05.2020
2664 Clouds 0 1010 99 10000 2 320 15:43 23.05.2020
2665 Clouds 0 1010 99 10000 2 320 15:24 23.05.2020
2666 Clouds 0 1010 99 10000 2 320 15:24 23.05.2020
2667 Clouds 1 1010 99 10000 2 350 14:59 23.05.2020
2668 Clouds 1 1010 99 10000 2 350 14:41 23.05.2020
2669 Clouds 1 1010 99 10000 2 350 14:22 23.05.2020
2670 Rain 1 1010 99 10000 2 170 13:42 23.05.2020
2671 Rain 1 1010 99 10000 2 170 13:19 23.05.2020
2672 Rain 1 1010 99 10000 2 170 13:19 23.05.2020
2673 Clouds 1 1010 99 10000 4 20 12:57 23.05.2020
2674 Clouds 1 1010 99 10000 4 20 12:57 23.05.2020
2675 Clouds 1 1010 99 10000 4 20 12:39 23.05.2020
2676 Clouds 1 1010 99 10000 4 20 12:19 23.05.2020
2677 Rain 2 1010 99 10000 2 340 11:43 23.05.2020
2678 Rain 2 1010 97 10000 2 340 11:22 23.05.2020
2679 Rain 2 1010 97 10000 2 330 10:58 23.05.2020
2680 Rain 2 1010 97 10000 2 330 10:39 23.05.2020
2681 Rain 2 1010 95 10000 2 330 10:20 23.05.2020
2682 Rain 2 1010 93 10000 1 290 09:59 23.05.2020
2683 Rain 2 1010 93 10000 1 290 09:41 23.05.2020
2684 Rain 2 1010 93 10000 1 290 09:22 23.05.2020
2685 Rain 3 1009 89 10000 2 360 08:44 23.05.2020
2686 Rain 3 1009 87 10000 2 360 08:20 23.05.2020
2687 Rain 3 1009 86 10000 3 60 07:59 23.05.2020
2688 Rain 3 1009 86 10000 3 60 07:39 23.05.2020
2689 Rain 3 1009 86 10000 3 60 07:21 23.05.2020
2690 Snow 3 1009 88 10000 2 30 06:40 23.05.2020
2691 Clouds 3 1009 86 10000 3 30 05:51 23.05.2020
2692 Snow 3 1009 90 10000 3 20 03:51 23.05.2020
2693 Snow 3 1009 86 10000 3 20 03:21 23.05.2020
2694 Clouds 3 1009 74 10000 3 10 02:28 23.05.2020
2695 Clouds 3 1009 69 10000 4 360 01:28 23.05.2020
2696 Clouds 2 1009 80 10000 4 10 00:49 23.05.2020
2697 Clouds 2 1009 80 10000 4 10 00:30 23.05.2020
2698 Clouds 1 1009 80 10000 4 350 23:59 22.05.2020
2699 Clouds 1 1009 80 10000 4 350 23:40 22.05.2020
2700 Clouds 1 1009 80 10000 4 350 23:20 22.05.2020
2701 Clouds 1 1009 80 10000 3 10 22:57 22.05.2020
2702 Clouds 1 1009 80 10000 3 10 22:38 22.05.2020
2703 Clouds 1 1009 80 10000 3 10 22:18 22.05.2020
2704 Clouds 1 1009 80 10000 4 30 21:45 22.05.2020
2705 Clouds 1 1009 80 10000 4 30 21:22 22.05.2020
2706 Clouds 0 1009 95 10000 7 40 20:55 22.05.2020
2707 Clouds 0 1009 95 10000 7 40 20:36 22.05.2020
2708 Clouds -1 1009 86 10000 5.83 4 20:18 22.05.2020
2709 Clouds -2 1009 86 10000 5.83 4 19:43 22.05.2020
2710 Clouds -2 1009 86 10000 5.16 2 19:24 22.05.2020
2711 Clouds -3 1009 86 10000 1 100 18:40 22.05.2020
2712 Clouds -3 1009 86 10000 1 100 18:21 22.05.2020
2713 Clouds -1 1008 74 10000 1 110 17:59 22.05.2020
2714 Clouds -1 1008 74 10000 1 110 17:39 22.05.2020
2715 Clouds -1 1008 74 10000 1 110 17:19 22.05.2020
2716 Clouds -2 1008 86 10000 7 30 16:55 22.05.2020
2717 Clouds -2 1008 86 10000 7 30 16:37 22.05.2020
2718 Clouds -2 1008 86 10000 7 30 16:18 22.05.2020
2719 Clouds -3 1008 86 10000 3 40 15:41 22.05.2020
2720 Clouds -3 1008 86 10000 3 40 15:21 22.05.2020
2721 Clouds -2 1008 79 10000 1 360 14:44 22.05.2020
2722 Clouds -2 1008 79 10000 1 360 14:25 22.05.2020
2723 Clouds -1 1008 74 10000 3 340 13:50 22.05.2020
2724 Clouds -1 1008 74 10000 3 340 13:22 22.05.2020
2725 Clouds 1 1008 64 10000 2 40 12:59 22.05.2020
2726 Clouds 1 1008 64 10000 2 40 12:39 22.05.2020
2727 Clouds 1 1008 64 10000 2 40 12:20 22.05.2020
2728 Clouds 0 1008 97 10000 4 40 11:44 22.05.2020
2729 Clouds 0 1008 96 10000 4 40 11:22 22.05.2020
2730 Clouds 2 1008 64 10000 4 40 10:57 22.05.2020
2731 Clouds 2 1008 64 10000 4 40 10:38 22.05.2020
2732 Clouds 2 1008 64 10000 4 40 10:19 22.05.2020
2733 Clouds 3 1008 55 10000 5 30 09:47 22.05.2020
2734 Clouds 3 1008 55 10000 5 30 09:21 22.05.2020
2735 Clouds 4 1008 55 10000 6 30 08:58 22.05.2020
2736 Clouds 4 1008 55 10000 6 30 08:39 22.05.2020
2737 Clouds 4 1008 55 10000 6 30 08:18 22.05.2020
2738 Clouds 4 1008 51 10000 6 30 07:52 22.05.2020
2739 Clouds 3 1008 59 10000 5 40 07:23 22.05.2020
2740 Clouds 4 1008 48 10000 5 60 06:48 22.05.2020
2741 Clouds 4 1008 48 10000 5 60 06:29 22.05.2020
2742 Clouds 4 1008 51 10000 5 40 05:37 22.05.2020
2743 Clouds 4 1008 51 10000 4 40 04:49 22.05.2020
2744 Clouds 3 1008 55 10000 4 40 03:51 22.05.2020
2745 Clouds 3 1008 55 10000 5 60 03:32 22.05.2020
2746 Clouds 2 1008 59 10000 4 30 02:23 22.05.2020
2747 Clouds 1 1009 59 10000 5 20 01:42 22.05.2020
2748 Clouds 1 1009 59 10000 5 20 01:20 22.05.2020
2749 Clouds 0 1009 89 10000 5 20 00:33 22.05.2020
2750 Clouds 0 1009 92 10000 5 10 23:57 21.05.2020
2751 Clouds 0 1009 92 10000 5 360 23:39 21.05.2020
2752 Clouds 0 1009 93 10000 5 360 23:20 21.05.2020
2753 Clouds 0 1009 93 10000 5 360 22:57 21.05.2020
2754 Clouds -1 1009 74 10000 5 10 22:37 21.05.2020
2755 Clouds -1 1009 74 10000 5 10 22:18 21.05.2020
2756 Clouds -1 1009 74 10000 4 360 21:47 21.05.2020
2757 Clouds -1 1009 74 10000 4 360 21:27 21.05.2020
2758 Clear -2 1009 74 10000 3 350 20:57 21.05.2020
2759 Clear -2 1009 74 10000 3 350 20:38 21.05.2020
2760 Clouds -2 1009 74 10000 3 350 20:20 21.05.2020
2761 Clouds -3 1009 79 10000 4.57 356 19:39 21.05.2020
2762 Clouds -3 1009 79 10000 4.25 355 19:19 21.05.2020
2763 Clouds -5 1009 85 10000 1 220 18:55 21.05.2020
2764 Clouds -5 1009 85 10000 1 220 18:36 21.05.2020
2765 Clouds -5 1009 85 10000 2 220 18:18 21.05.2020
2766 Clouds -6 1009 85 10000 2 220 17:43 21.05.2020
2767 Clouds -6 1009 85 10000 2 220 17:25 21.05.2020
2768 Clouds -5 1010 85 10000 2 130 16:48 21.05.2020
2769 Clouds -5 1010 85 10000 2 130 16:27 21.05.2020
2770 Clear -5 1010 85 10000 1 100 15:58 21.05.2020
2771 Clear -5 1010 85 10000 1 100 15:39 21.05.2020
2772 Clear -5 1010 85 10000 1 100 15:20 21.05.2020
2773 Clear -4 1010 85 10000 3.33 20 14:41 21.05.2020
2774 Clear -4 1010 85 10000 3.54 10 14:21 21.05.2020
2775 Clear -2 1010 79 10000 2 150 13:43 21.05.2020
2776 Clear -2 1010 79 10000 2 150 13:23 21.05.2020
2777 Clear -2 1010 79 10000 2 160 12:59 21.05.2020
2778 Clear -2 1010 79 10000 2 160 12:38 21.05.2020
2779 Clear -2 1010 79 10000 2 160 12:19 21.05.2020
2780 Clear -2 1010 79 10000 2 160 12:19 21.05.2020
2781 Clear 0 1010 95 10000 6 90 11:55 21.05.2020
2782 Clear 0 1010 95 10000 6 90 11:37 21.05.2020
2783 Clear 0 1010 94 10000 6 90 11:19 21.05.2020
2784 Clear 1 1010 64 10000 6 50 10:39 21.05.2020
2785 Clear 1 1010 64 10000 6 50 10:21 21.05.2020
2786 Clear 1 1011 59 10000 5 30 09:56 21.05.2020
2787 Clear 2 1011 59 10000 5 110 09:38 21.05.2020
2788 Clouds 2 1011 59 10000 5 110 09:20 21.05.2020
2789 Clouds 2 1011 55 10000 5 60 08:48 21.05.2020
2790 Clouds 3 1011 55 10000 5 60 08:29 21.05.2020
2791 Clouds 2 1011 55 10000 6 40 07:49 21.05.2020
2792 Clouds 2 1011 59 10000 5 50 07:27 21.05.2020
2793 Clouds 2 1011 55 10000 8 30 06:55 21.05.2020
2794 Clouds 2 1011 59 10000 7 20 06:25 21.05.2020
2795 Clouds 2 1011 64 10000 8 40 05:47 21.05.2020
2796 Clouds 2 1012 59 10000 6 40 03:22 21.05.2020
2797 Clouds 2 1012 55 10000 8 50 02:54 21.05.2020
2798 Clouds 1 1012 59 10000 7 40 02:30 21.05.2020
2799 Clouds 1 1013 59 10000 7 30 01:47 21.05.2020
2800 Clouds 2 1013 59 10000 7 30 01:23 21.05.2020
2801 Clouds 1 1013 64 10000 3 180 00:53 21.05.2020
2802 Clouds 0 1013 89 10000 6 30 00:25 21.05.2020
2803 Clouds -1 1014 74 10000 2 230 23:47 20.05.2020
2804 Clouds -1 1014 74 10000 2 230 23:21 20.05.2020
2805 Clouds -1 1014 74 10000 1 130 22:59 20.05.2020
2806 Clouds -2 1014 79 10000 1 220 22:41 20.05.2020
2807 Clouds -2 1014 79 10000 1 220 22:23 20.05.2020
2808 Clouds -2 1014 79 10000 2 240 21:42 20.05.2020
2809 Clouds -2 1014 79 10000 2 240 21:23 20.05.2020
2810 Clear -3 1015 86 10000 2 200 20:57 20.05.2020
2811 Clear -3 1015 86 10000 2 200 20:38 20.05.2020
2812 Clear -3 1015 86 10000 2 200 20:20 20.05.2020
2813 Clear -4 1015 85 10000 1 200 19:41 20.05.2020
2814 Clear -4 1015 85 10000 1 200 19:23 20.05.2020
2815 Clear -4 1015 85 10000 2.94 358 18:57 20.05.2020
2816 Clear -4 1015 85 10000 2.94 358 18:38 20.05.2020
2817 Clear -4 1015 85 10000 2.87 3 18:20 20.05.2020
2818 Clear -5 1015 85 10000 1 240 17:38 20.05.2020
2819 Clear -5 1015 85 10000 1 240 17:19 20.05.2020
2820 Clear -4 1016 85 10000 2 290 16:42 20.05.2020
2821 Clear -4 1016 85 10000 2 290 16:23 20.05.2020
2822 Clear -4 1016 85 10000 2 260 15:57 20.05.2020
2823 Clear -4 1016 85 10000 2 260 15:39 20.05.2020
2824 Clear -4 1016 85 10000 2 260 15:21 20.05.2020
2825 Clear -3 1016 79 10000 1 170 14:42 20.05.2020
2826 Clear -3 1016 79 10000 1 170 14:20 20.05.2020
2827 Clear -2 1016 74 10000 3 110 13:41 20.05.2020
2828 Clear -2 1016 74 10000 3 110 13:20 20.05.2020
2829 Clear -2 1016 74 10000 3 130 12:57 20.05.2020
2830 Clear -2 1016 74 10000 3 130 12:37 20.05.2020
2831 Clear -2 1016 74 10000 3 130 12:19 20.05.2020
2832 Clear 0 1017 94 10000 2 80 11:36 20.05.2020
2833 Clear 0 1017 69 10000 5 60 11:18 20.05.2020
2834 Clear 0 1017 69 10000 5 60 11:18 20.05.2020
2835 Clear 1 1017 69 10000 5 60 10:43 20.05.2020
2836 Clear 1 1017 69 10000 5 60 10:20 20.05.2020
2837 Clear 2 1017 59 10000 5 50 09:45 20.05.2020
2838 Clear 2 1017 59 10000 5 50 09:21 20.05.2020
2839 Clear 3 1017 51 10000 5 50 08:57 20.05.2020
2840 Clear 3 1017 51 10000 5 50 08:39 20.05.2020
2841 Clear 3 1017 51 10000 5 50 08:18 20.05.2020
2842 Clouds 2 1017 64 10000 3 210 07:46 20.05.2020
2843 Clouds 2 1017 64 10000 3 210 07:21 20.05.2020
2844 Clouds 2 1016 64 10000 2 160 06:42 20.05.2020
2845 Clouds 2 1017 69 10000 4 180 05:24 20.05.2020
2846 Clouds 2 1017 69 10000 4 180 05:24 20.05.2020
2847 Clouds 2 1017 64 10000 4 180 04:33 20.05.2020
2848 Clouds 1 1017 69 10000 4 170 03:51 20.05.2020
2849 Clouds 2 1018 64 10000 4 160 02:30 20.05.2020
2850 Clouds 1 1018 69 10000 2 30 01:29 20.05.2020
2851 Clouds 2 1018 64 10000 3 10 00:44 20.05.2020
2852 Clouds 2 1018 64 10000 3 10 00:24 20.05.2020
2853 Clouds 2 1018 64 10000 4 10 23:42 19.05.2020
2854 Clouds 2 1018 64 10000 4 10 23:19 19.05.2020
2855 Clear 1 1018 69 10000 4 10 22:56 19.05.2020
2856 Clear 1 1018 69 10000 4 20 22:38 19.05.2020
2857 Clear 1 1018 69 10000 4 20 22:19 19.05.2020
2858 Clear -1 1018 74 10000 4 360 21:58 19.05.2020
2859 Clear -1 1018 74 10000 4 360 21:38 19.05.2020
2860 Clear -1 1018 74 10000 4 360 21:38 19.05.2020
2861 Clear -1 1018 74 10000 4 360 21:19 19.05.2020
2862 Clear -2 1018 79 10000 4 350 20:57 19.05.2020
2863 Clear -2 1018 79 10000 4 350 20:39 19.05.2020
2864 Clear -2 1018 79 10000 4 350 20:20 19.05.2020
2865 Clear -2 1018 74 10000 2 40 19:55 19.05.2020
2866 Clear -2 1018 74 10000 2 40 19:36 19.05.2020
2867 Clear -3 1018 85 10000 2 30 19:18 19.05.2020
2868 Clear -5 1018 85 10000 2 30 18:40 19.05.2020
2869 Clear -5 1018 85 10000 2 30 18:20 19.05.2020
2870 Clear -5 1018 85 10000 2 30 18:20 19.05.2020
2871 Clear -4 1018 79 10000 2 340 17:43 19.05.2020
2872 Clear -4 1018 79 10000 2 340 17:21 19.05.2020
2873 Clear -3 1018 79 10000 2 120 16:59 19.05.2020
2874 Clear -3 1018 79 10000 2 120 16:59 19.05.2020
2875 Clear -3 1018 79 10000 2 120 16:38 19.05.2020
2876 Clear -3 1018 79 10000 2 120 16:19 19.05.2020
2877 Clear -2 1018 79 10000 2 260 15:47 19.05.2020
2878 Clear -2 1018 79 10000 2 260 15:22 19.05.2020
2879 Clear -2 1018 79 10000 2 300 14:57 19.05.2020
2880 Clear -2 1018 79 10000 2 300 14:39 19.05.2020
2881 Clear -2 1018 79 10000 2 300 14:20 19.05.2020
2882 Clear -3 1018 86 10000 2 220 13:57 19.05.2020
2883 Clear -3 1018 86 10000 2 220 13:39 19.05.2020
2884 Clear -3 1018 86 10000 2 220 13:20 19.05.2020
2885 Clear -1 1017 74 10000 2 230 12:56 19.05.2020
2886 Clear -1 1017 74 10000 2 230 12:37 19.05.2020
2887 Clear -1 1017 74 10000 2 230 12:19 19.05.2020
2888 Clear 0 1017 95 10000 7 40 11:43 19.05.2020
2889 Clear 0 1017 95 10000 7 40 11:23 19.05.2020
2890 Clear 2 1017 69 10000 3 10 10:59 19.05.2020
2891 Clear 2 1017 69 10000 3 10 10:40 19.05.2020
2892 Clear 2 1017 69 10000 3 10 10:22 19.05.2020
2893 Clear 3 1016 64 10000 4 30 09:47 19.05.2020
2894 Clear 3 1016 64 10000 4 30 09:25 19.05.2020
2895 Clear 4 1016 55 10000 1 150 08:48 19.05.2020
2896 Clouds 4 1016 55 10000 6 110 08:26 19.05.2020
2897 Clouds 4 1016 55 10000 2 90 07:59 19.05.2020
2898 Clouds 4 1016 60 10000 3 110 07:41 19.05.2020
2899 Clouds 4 1016 60 10000 3 110 07:23 19.05.2020
2900 Clouds 4 1016 60 10000 3 230 06:41 19.05.2020
2901 Clouds 4 1016 60 10000 3 230 06:41 19.05.2020
2902 Clouds 4 1016 60 10000 3 230 06:19 19.05.2020
2903 Clouds 4 1015 55 10000 2 200 05:39 19.05.2020
2904 Clouds 3 1015 64 10000 2 240 04:54 19.05.2020
2905 Clouds 4 1015 64 10000 9 20 02:59 19.05.2020
2906 Clouds 3 1015 55 10000 4 90 01:21 19.05.2020
2907 Clouds 1 1015 64 10000 10 30 00:41 19.05.2020
2908 Clouds 1 1015 64 10000 10 30 00:19 19.05.2020
2909 Clouds 1 1015 64 10000 10 30 23:40 18.05.2020
2910 Clouds 1 1015 64 10000 10 30 23:20 18.05.2020
2911 Clouds 0 1016 92 10000 5 50 22:59 18.05.2020
2912 Clouds -1 1016 68 10000 3 160 22:39 18.05.2020
2913 Clouds -1 1016 68 10000 3 160 22:20 18.05.2020
2914 Clear -1 1016 68 10000 10 40 21:43 18.05.2020
2915 Clouds -1 1016 68 10000 10 40 21:22 18.05.2020
2916 Clear -2 1015 74 10000 8 20 20:58 18.05.2020
2917 Clear -2 1015 74 10000 8 20 20:38 18.05.2020
2918 Clear -2 1016 74 10000 11 40 20:20 18.05.2020
2919 Clear -2 1016 74 10000 11 40 19:56 18.05.2020
2920 Clear -2 1016 74 10000 11 40 19:38 18.05.2020
2921 Clear -3 1016 79 10000 8 30 19:18 18.05.2020
2922 Clear -3 1016 79 10000 8 30 18:44 18.05.2020
2923 Clear -3 1016 79 10000 8 30 18:22 18.05.2020
2924 Clear -2 1016 74 10000 9 20 17:39 18.05.2020
2925 Clear -2 1016 74 10000 9 20 17:18 18.05.2020
2926 Clouds -2 1016 74 10000 4 50 16:56 18.05.2020
2927 Clouds -2 1016 74 10000 4 50 16:38 18.05.2020
2928 Clouds -3 1017 79 10000 3 40 16:18 18.05.2020
2929 Clouds -3 1017 79 10000 3 40 15:55 18.05.2020
2930 Clouds -3 1017 79 10000 3 40 15:37 18.05.2020
2931 Clouds -3 1017 79 10000 3 40 15:18 18.05.2020
2932 Clouds -3 1017 79 10000 5 40 14:42 18.05.2020
2933 Clouds -3 1017 79 10000 5 40 14:23 18.05.2020
2934 Clouds -2 1017 74 10000 4 80 13:57 18.05.2020
2935 Clouds -2 1017 74 10000 4 80 13:39 18.05.2020
2936 Clouds -2 1017 74 10000 4 80 13:19 18.05.2020
2937 Clouds -2 1018 74 10000 6 40 12:56 18.05.2020
2938 Clouds -2 1018 74 10000 5 40 12:37 18.05.2020
2939 Clouds -2 1018 74 10000 5 40 12:37 18.05.2020
2940 Clouds -2 1018 74 10000 5 40 12:18 18.05.2020
2941 Clouds -2 1018 74 10000 8 50 11:46 18.05.2020
2942 Clouds -1 1018 74 10000 8 50 11:27 18.05.2020
2943 Clouds 0 1018 95 10000 7 50 10:57 18.05.2020
2944 Clouds 0 1018 95 10000 9 50 10:38 18.05.2020
2945 Clouds 0 1018 94 10000 9 50 10:20 18.05.2020
2946 Clouds 0 1018 94 10000 7 60 09:42 18.05.2020
2947 Clouds 0 1018 91 10000 7 60 09:24 18.05.2020
2948 Clouds 0 1018 64 10000 7 60 08:43 18.05.2020
2949 Clouds 1 1018 64 10000 7 60 08:25 18.05.2020
2950 Clouds 1 1018 64 10000 10 50 07:51 18.05.2020
2951 Clouds 1 1018 69 10000 10 50 07:26 18.05.2020
2952 Clouds 1 1018 64 10000 10 40 06:50 18.05.2020
2953 Clouds 2 1018 64 10000 10 50 06:32 18.05.2020
2954 Clouds 1 1019 64 10000 9 50 05:49 18.05.2020
2955 Clouds 1 1019 64 10000 8 60 04:42 18.05.2020
2956 Clouds 1 1019 64 10000 9 50 03:30 18.05.2020
2957 Clouds 0 1020 91 10000 7 40 02:19 18.05.2020
2958 Clouds 0 1020 91 10000 6 30 00:55 18.05.2020
2959 Clouds 0 1021 92 10000 6 40 00:23 18.05.2020
2960 Clouds -1 1021 68 10000 6 40 23:56 17.05.2020
2961 Clouds 1 1021 64 10000 7 30 23:38 17.05.2020
2962 Clouds 1 1021 64 10000 7 30 23:19 17.05.2020
2963 Clouds 1 1021 64 10000 7 40 22:55 17.05.2020
2964 Clouds -1 1021 74 10000 2 200 22:37 17.05.2020
2965 Clouds -1 1021 74 10000 2 230 22:18 17.05.2020
2966 Clouds -1 1021 74 10000 2 230 21:42 17.05.2020
2967 Clouds -1 1021 74 10000 2 230 21:20 17.05.2020
2968 Clouds -2 1021 74 10000 2 230 20:59 17.05.2020
2969 Clouds -2 1021 74 10000 2 230 20:40 17.05.2020
2970 Clouds -2 1021 74 10000 2 230 20:19 17.05.2020
2971 Clouds -2 1022 74 10000 1 10 19:55 17.05.2020
2972 Clouds -2 1022 74 10000 1 10 19:37 17.05.2020
2973 Clouds -3 1022 86 10000 4 90 19:18 17.05.2020
2974 Clouds -3 1022 86 10000 4 90 18:39 17.05.2020
2975 Clouds -3 1022 86 10000 4 90 18:21 17.05.2020
2976 Clouds -3 1022 86 10000 5 140 17:56 17.05.2020
2977 Clouds -3 1022 86 10000 5 140 17:36 17.05.2020
2978 Clouds -3 1022 86 10000 3 170 17:18 17.05.2020
2979 Clouds -3 1022 86 10000 3 170 16:39 17.05.2020
2980 Clouds -3 1022 86 10000 3 170 16:20 17.05.2020
2981 Clouds -2 1022 79 10000 1 80 15:56 17.05.2020
2982 Clouds -2 1022 79 10000 1 80 15:37 17.05.2020
2983 Clouds -2 1022 79 10000 1 80 15:18 17.05.2020
2984 Clouds -1 1022 80 10000 1 140 14:42 17.05.2020
2985 Clouds -1 1022 80 10000 1 140 14:24 17.05.2020
2986 Clouds 0 1023 96 10000 1 240 13:57 17.05.2020
2987 Clouds 0 1023 96 10000 1 240 13:37 17.05.2020
2988 Clouds 0 1023 96 10000 1 260 13:18 17.05.2020
2989 Clouds 5 1023 65 10000 4 240 04:21 17.05.2020
2990 Clouds 4 1024 64 10000 3 240 02:29 17.05.2020
2991 Clear 4 1024 64 10000 2 220 01:56 17.05.2020
2992 Clear 3 1024 69 10000 3 240 00:58 17.05.2020
2993 Clear 3 1024 69 10000 3 240 00:39 17.05.2020
2994 Clear 3 1024 69 10000 3 250 23:57 16.05.2020
2995 Clear 3 1024 69 10000 3 250 23:39 16.05.2020
2996 Clear 3 1024 69 10000 3 250 23:20 16.05.2020
2997 Clear 2 1024 69 10000 3.89 22 22:58 16.05.2020
2998 Clear 2 1024 69 10000 3.89 22 22:39 16.05.2020
2999 Clear 2 1024 69 10000 3.96 27 22:19 16.05.2020
3000 Clouds 2 1024 69 10000 5 20 21:45 16.05.2020
3001 Clouds 2 1024 69 10000 5 20 21:25 16.05.2020
3002 Clouds 1 1024 74 10000 6 40 20:57 16.05.2020
3003 Clouds 1 1024 74 10000 6 40 20:39 16.05.2020
3004 Clouds 1 1024 74 10000 6 40 20:20 16.05.2020
3005 Clouds 0 1024 94 10000 2 20 19:57 16.05.2020
3006 Clouds 0 1024 94 10000 2 20 19:39 16.05.2020
3007 Clouds 0 1024 95 10000 2 20 19:21 16.05.2020
3008 Clouds 0 1024 95 10000 2 20 19:21 16.05.2020
3009 Clouds 0 1024 95 10000 3 50 18:42 16.05.2020
3010 Clouds 0 1024 95 10000 3 50 18:22 16.05.2020
3011 Clouds 0 1024 95 10000 4 40 17:56 16.05.2020
3012 Clouds 0 1024 95 10000 4 40 17:38 16.05.2020
3013 Clouds 0 1024 95 10000 4 40 17:19 16.05.2020
3014 Clouds 0 1024 95 10000 4 40 17:19 16.05.2020
3015 Clouds 0 1025 95 10000 2 70 16:39 16.05.2020
3016 Clouds 0 1025 95 10000 2 70 16:20 16.05.2020
3017 Clouds -1 1025 86 10000 1 80 15:57 16.05.2020
3018 Clouds -1 1025 86 10000 1 80 15:38 16.05.2020
3019 Clouds -1 1025 86 10000 1 80 15:38 16.05.2020
3020 Clouds -1 1025 86 10000 1 80 15:19 16.05.2020
3021 Clouds -1 1025 80 10000 4.47 13 14:43 16.05.2020
3022 Clouds -1 1025 80 10000 3.56 32 14:20 16.05.2020
3023 Clouds -1 1025 74 10000 2 60 13:57 16.05.2020
3024 Clouds -1 1025 74 10000 2 60 13:38 16.05.2020
3025 Clouds -1 1025 74 10000 2 60 13:38 16.05.2020
3026 Clouds -1 1025 74 10000 2 60 13:20 16.05.2020
3027 Clouds -1 1025 80 10000 2 180 12:44 16.05.2020
3028 Clear -1 1025 80 10000 2 180 12:20 16.05.2020
3029 Clear 0 1025 94 10000 2 240 11:56 16.05.2020
3030 Clear 0 1025 94 10000 2 240 11:38 16.05.2020
3031 Clear 0 1025 94 10000 2 240 11:19 16.05.2020
3032 Clear 2 1025 69 10000 2 260 10:55 16.05.2020
3033 Clear 2 1025 69 10000 2 260 10:36 16.05.2020
3034 Clear 3 1025 55 10000 3 30 10:18 16.05.2020
3035 Clear 4 1025 55 10000 3 30 09:40 16.05.2020
3036 Clear 4 1025 55 10000 3 30 09:19 16.05.2020
3037 Clear 5 1025 52 10000 4 40 08:43 16.05.2020
3038 Clear 5 1025 52 10000 4 40 08:21 16.05.2020
3039 Clear 5 1025 56 10000 3 30 07:46 16.05.2020
3040 Clear 5 1025 56 10000 3 30 07:27 16.05.2020
3041 Clear 6 1025 52 10000 3 30 06:58 16.05.2020
3042 Clear 6 1025 52 10000 3 30 06:39 16.05.2020
3043 Clear 5 1025 52 10000 3 30 06:18 16.05.2020
3044 Clear 5 1025 52 10000 3 30 05:33 16.05.2020
3045 Clouds 5 1024 60 10000 6 70 03:37 16.05.2020
3046 Clouds 4 1024 64 10000 3 230 02:59 16.05.2020
3047 Clouds 4 1024 64 10000 3 230 02:21 16.05.2020
3048 Clouds 4 1024 64 10000 2 100 01:53 16.05.2020
3049 Clouds 4 1024 64 10000 2 100 01:23 16.05.2020
3050 Clouds 4 1024 64 10000 4.14 11 00:49 16.05.2020
3051 Clouds 4 1024 64 10000 4.49 14 00:22 16.05.2020
3052 Clouds 3 1024 69 10000 4.49 14 23:41 15.05.2020
3053 Clouds 3 1024 69 10000 4.36 15 23:20 15.05.2020
3054 Clouds 2 1023 69 10000 1 150 22:59 15.05.2020
3055 Clouds 2 1023 69 10000 1 150 22:40 15.05.2020
3056 Clouds 2 1023 69 10000 1 150 22:19 15.05.2020
3057 Clouds 1 1023 80 10000 1 90 21:40 15.05.2020
3058 Clouds 1 1023 80 10000 1 90 21:22 15.05.2020
3059 Clouds -1 1023 86 10000 1 10 20:59 15.05.2020
3060 Clouds -1 1023 86 10000 1 10 20:41 15.05.2020
3061 Clouds -1 1023 86 10000 1 10 20:22 15.05.2020
3062 Clouds -1 1022 86 10000 2 140 19:58 15.05.2020
3063 Clouds -1 1022 86 10000 2 140 19:40 15.05.2020
3064 Clouds -1 1022 86 10000 2 140 19:22 15.05.2020
3065 Clouds -1 1022 86 10000 1 110 18:46 15.05.2020
3066 Clouds -1 1022 86 10000 1 110 18:27 15.05.2020
3067 Clouds -1 1022 86 10000 1 100 17:41 15.05.2020
3068 Clouds -1 1022 86 10000 1 100 17:20 15.05.2020
3069 Clouds -1 1022 86 10000 2 160 16:58 15.05.2020
3070 Clouds -1 1022 86 10000 2 160 16:58 15.05.2020
3071 Clouds -1 1022 86 10000 2 160 16:39 15.05.2020
3072 Clouds -1 1022 86 10000 2 160 16:20 15.05.2020
3073 Clouds -1 1021 86 10000 2 10 15:59 15.05.2020
3074 Clouds -1 1021 86 10000 2 10 15:39 15.05.2020
3075 Clouds -1 1021 86 10000 2 10 15:20 15.05.2020
3076 Clouds -1 1021 86 10000 2 10 15:20 15.05.2020
3077 Clouds 0 1021 95 10000 1 330 14:55 15.05.2020
3078 Clouds 0 1021 95 10000 1 330 14:36 15.05.2020
3079 Clouds 0 1021 96 10000 1 330 14:18 15.05.2020
3080 Clouds 0 1021 96 10000 1 330 14:18 15.05.2020
3081 Clouds 0 1021 96 10000 3 20 13:41 15.05.2020
3082 Clouds 0 1021 96 10000 3 20 13:20 15.05.2020
3083 Fog 0 1021 96 10000 4.09 20 12:41 15.05.2020
3084 Fog 0 1021 95 10000 4.12 24 12:21 15.05.2020
3085 -273 0 0 0 0 0 11:59 15.05.2020
3086 Snow 0 1022 95 5000 3 30 11:40 15.05.2020
3087 Snow 0 1022 95 5000 3 30 11:21 15.05.2020
3088 Snow 0 1021 95 5000 3 360 10:59 15.05.2020
3089 Snow 0 1021 95 4400 4 30 10:40 15.05.2020
3090 Snow 0 1021 95 4400 4 30 10:22 15.05.2020
3091 Snow 1 1021 86 10000 6 20 09:59 15.05.2020
3092 Clouds 2 1021 74 10000 6 30 09:38 15.05.2020
3093 Clouds 2 1021 74 10000 6 30 09:19 15.05.2020
3094 Clouds 2 1021 69 10000 6 30 08:57 15.05.2020
3095 Clouds 3 1021 64 10000 6 40 08:37 15.05.2020
3096 Clouds 3 1021 64 10000 7 40 08:18 15.05.2020
3097 Clouds 3 1021 64 10000 2 70 07:44 15.05.2020
3098 Clouds 3 1021 64 10000 2 70 07:24 15.05.2020
3099 Clouds 2 1021 74 10000 3 240 06:47 15.05.2020
3100 Clouds 2 1021 74 10000 3 240 05:49 15.05.2020
3101 Clouds 2 1021 74 10000 3 240 04:27 15.05.2020
3102 Clouds 2 1021 74 10000 2 250 03:46 15.05.2020
3103 Clouds 2 1021 74 10000 2 210 02:30 15.05.2020
3104 Clouds 2 1021 74 10000 3 240 01:21 15.05.2020
3105 Clouds 2 1021 74 10000 4 270 00:50 15.05.2020
3106 Clouds 2 1021 74 10000 5 260 00:30 15.05.2020
3107 Clouds 2 1021 74 10000 4 260 23:45 14.05.2020
3108 Clouds 2 1021 74 10000 4 260 23:24 14.05.2020
3109 Clouds 2 1021 74 10000 3 270 22:59 14.05.2020
3110 Clouds 2 1021 80 10000 4 270 22:40 14.05.2020
3111 Clouds 2 1021 80 10000 4 270 22:19 14.05.2020
3112 Clouds 2 1021 80 10000 2 310 21:57 14.05.2020
3113 Clouds 2 1021 80 10000 2 310 21:39 14.05.2020
3114 Clouds 1 1021 86 10000 3 250 21:19 14.05.2020
3115 Clouds 1 1021 86 10000 3 250 20:55 14.05.2020
3116 Clouds 1 1021 86 10000 3 250 20:36 14.05.2020
3117 Clouds 1 1021 86 10000 3 240 20:18 14.05.2020
3118 Clouds 1 1021 86 10000 3 240 19:40 14.05.2020
3119 Clouds 1 1021 86 10000 3 240 19:21 14.05.2020
3120 Clouds 1 1021 86 10000 1 220 18:58 14.05.2020
3121 Clouds 1 1021 86 10000 1 220 18:38 14.05.2020
3122 Clouds 1 1021 86 10000 1 220 18:20 14.05.2020
3123 Clouds 2 1021 80 10000 2 360 17:59 14.05.2020
3124 Clouds 2 1021 80 10000 2 360 17:59 14.05.2020
3125 Clouds 2 1021 80 10000 2 360 17:37 14.05.2020
3126 Clouds 2 1021 80 10000 2 360 17:19 14.05.2020
3127 Clouds 2 1021 80 10000 2 40 16:58 14.05.2020
3128 Clouds 2 1021 80 10000 2 40 16:38 14.05.2020
3129 Clouds 2 1021 80 10000 2 40 16:19 14.05.2020
3130 Clouds 2 1021 80 10000 3 360 15:56 14.05.2020
3131 Clouds 2 1021 80 10000 3 360 15:38 14.05.2020
3132 Clouds 2 1021 80 10000 3 360 15:18 14.05.2020
3133 Clouds 2 1021 80 10000 3 340 14:55 14.05.2020
3134 Clouds 2 1021 80 10000 3 340 14:36 14.05.2020
3135 Clouds 2 1021 80 10000 3 10 14:18 14.05.2020
3136 Clouds 2 1021 80 10000 3 10 13:42 14.05.2020
3137 Clouds 2 1021 80 10000 3 10 13:20 14.05.2020
3138 Clouds 3 1021 74 10000 3 40 12:59 14.05.2020
3139 Clouds 3 1021 74 10000 3 40 12:39 14.05.2020
3140 Clouds 3 1021 74 10000 3 40 12:20 14.05.2020
3141 Clouds 3 1021 74 10000 2 10 11:58 14.05.2020
3142 Clouds 3 1021 74 10000 2 10 11:39 14.05.2020
3143 Clouds 3 1021 74 10000 2 10 11:21 14.05.2020
3144 Clouds 4 1020 69 10000 2 100 10:56 14.05.2020
3145 Clouds 4 1020 69 10000 2 100 10:38 14.05.2020
3146 Clouds 4 1020 69 10000 2 100 10:20 14.05.2020
3147 Clouds 4 1020 69 10000 1 280 09:42 14.05.2020
3148 Clouds 4 1020 69 10000 1 280 09:23 14.05.2020
3149 Clouds 5 1020 65 10000 1 180 08:42 14.05.2020
3150 Clouds 5 1020 65 10000 1 180 08:21 14.05.2020
3151 Clouds 4 1020 69 10000 1 160 07:47 14.05.2020
3152 Clouds 4 1020 69 10000 1 160 07:25 14.05.2020
3153 Clouds 4 1020 64 10000 2 50 06:55 14.05.2020
3154 Clouds 4 1020 69 10000 3 360 06:31 14.05.2020
3155 Clouds 4 1020 64 10000 3 360 05:57 14.05.2020
3156 Clouds 4 1020 64 10000 2.98 30 05:35 14.05.2020
3157 Clouds 3 1020 69 10000 2 70 04:34 14.05.2020
3158 Clouds 3 1019 69 10000 3 20 03:30 14.05.2020
3159 Clouds 3 1019 69 10000 7 30 02:43 14.05.2020
3160 Clouds 3 1019 69 10000 7 30 02:18 14.05.2020
3161 Clouds 3 1018 69 10000 11 40 01:35 14.05.2020
3162 Clouds 4 1019 64 10000 7 50 00:50 14.05.2020
3163 Clouds 4 1019 69 10000 7 40 00:25 14.05.2020
3164 Clouds 2 1019 80 10000 4 350 23:45 13.05.2020
3165 Clouds 2 1019 80 10000 4 350 23:22 13.05.2020
3166 Clouds 1 1018 86 10000 2 320 22:56 13.05.2020
3167 Clouds 1 1018 97 10000 2 300 22:38 13.05.2020
3168 Clouds 1 1018 97 10000 2 300 22:19 13.05.2020
3169 Fog 1 1018 86 10000 1 330 21:57 13.05.2020
3170 Fog 1 1018 86 10000 1 330 21:38 13.05.2020
3171 Fog 1 1018 86 10000 1 330 21:18 13.05.2020
3172 Fog 0 1018 97 10000 3.42 344 20:41 13.05.2020
3173 Fog 0 1018 98 10000 3.42 325 20:23 13.05.2020
3174 Fog -1 1017 100 10000 1 40 19:44 13.05.2020
3175 Fog -1 1017 100 10000 1 40 19:25 13.05.2020
3176 Fog -1 1017 100 10000 1 40 19:25 13.05.2020
3177 Fog -1 1017 92 10000 1 20 18:58 13.05.2020
3178 Fog -1 1017 92 10000 1 20 18:40 13.05.2020
3179 Fog -1 1017 92 10000 1 20 18:21 13.05.2020
3180 Fog -1 1016 92 900 3.24 327 17:39 13.05.2020
3181 Fog -1 1016 92 900 3.08 335 17:20 13.05.2020
3182 Clouds -1 1016 92 10000 2 360 16:56 13.05.2020
3183 Clouds -1 1016 92 10000 2 360 16:38 13.05.2020
3184 Clouds -1 1016 92 10000 2 360 16:19 13.05.2020
3185 Clouds -2 1016 100 10000 2 10 15:42 13.05.2020
3186 Clouds -2 1016 100 10000 2 10 15:20 13.05.2020
3187 Clouds -1 1016 92 10000 2 20 14:58 13.05.2020
3188 Clouds -1 1016 92 10000 2 20 14:40 13.05.2020
3189 Clouds -1 1016 92 10000 2 20 14:22 13.05.2020
3190 Clouds -1 1016 92 10000 3 360 13:57 13.05.2020
3191 Clouds -1 1016 92 10000 3 360 13:39 13.05.2020
3192 Clouds -1 1016 92 10000 3 360 13:20 13.05.2020
3193 Clouds -1 1016 92 10000 2 20 12:54 13.05.2020
3194 Clouds -1 1016 92 10000 2 20 12:36 13.05.2020
3195 Clouds 0 1015 86 10000 3 30 12:18 13.05.2020
3196 Clouds 1 1015 86 10000 3 30 11:54 13.05.2020
3197 Clouds 1 1015 86 10000 3 30 11:36 13.05.2020
3198 Clouds 1 1015 98 10000 2 20 11:18 13.05.2020
3199 Clouds 2 1015 98 10000 2 20 10:54 13.05.2020
3200 Clouds 2 1015 98 10000 2 20 10:36 13.05.2020
3201 Clouds 2 1015 86 10000 3 20 10:18 13.05.2020
3202 Clouds 3 1015 86 10000 3 20 09:40 13.05.2020
3203 Clouds 3 1015 86 10000 3 20 09:22 13.05.2020
3204 Clouds 3 1015 86 10000 3 360 08:43 13.05.2020
3205 Clouds 3 1015 86 10000 3 360 08:22 13.05.2020
3206 Clouds 3 1015 86 10000 3 360 07:59 13.05.2020
3207 Clouds 2 1015 93 10000 3 360 07:37 13.05.2020
3208 Clouds 2 1015 93 10000 4 360 06:59 13.05.2020
3209 Fog 2 1015 93 10000 4 360 06:41 13.05.2020
3210 Fog 2 1015 93 10000 4 350 05:51 13.05.2020
3211 Fog 2 1015 93 10000 4 340 04:41 13.05.2020
3212 Mist 2 1014 100 4200 5 350 02:59 13.05.2020
3213 Clouds 2 1014 93 8000 5 330 02:26 13.05.2020
3214 Fog 2 1014 100 10000 4 340 01:26 13.05.2020
3215 Mist 2 1015 100 5000 5 350 00:41 13.05.2020
3216 Mist 2 1015 100 5000 5 350 00:19 13.05.2020
3217 Mist 2 1014 93 4800 4 360 23:40 12.05.2020
3218 Mist 2 1014 93 4800 4 360 23:21 12.05.2020
3219 Fog 1 1015 100 800 4 350 22:57 12.05.2020
3220 Fog 1 1015 94 450 4 350 22:39 12.05.2020
3221 Fog 1 1015 94 450 4 350 22:20 12.05.2020
3222 Fog 0 1015 94 300 4 350 21:55 12.05.2020
3223 Fog 0 1015 94 300 4 350 21:37 12.05.2020
3224 Fog 0 1015 95 400 4 360 21:18 12.05.2020
3225 Fog 0 1015 95 400 4 360 20:56 12.05.2020
3226 Fog 0 1015 95 400 4 360 20:38 12.05.2020
3227 Fog 0 1015 95 400 4 360 20:19 12.05.2020
3228 Fog 0 1015 95 450 3 10 19:55 12.05.2020
3229 Fog 0 1015 95 450 3 10 19:37 12.05.2020
3230 Drizzle 0 1015 95 250 2 10 19:18 12.05.2020
3231 Drizzle 0 1015 95 250 2 10 18:41 12.05.2020
3232 Drizzle 0 1015 96 250 2 10 18:23 12.05.2020
3233 Fog 0 1015 96 150 2 350 17:54 12.05.2020
3234 Fog 0 1015 96 150 2 350 17:36 12.05.2020
3235 Fog 0 1015 97 150 1 360 17:18 12.05.2020
3236 Fog 0 1015 97 150 1 360 16:42 12.05.2020
3237 Fog 0 1015 97 150 1 360 16:21 12.05.2020
3238 Fog 0 1015 97 450 1 330 15:55 12.05.2020
3239 Fog 0 1015 97 450 1 330 15:55 12.05.2020
3240 Fog 0 1015 97 450 1 330 15:36 12.05.2020
3241 Fog 0 1015 97 450 1 330 15:36 12.05.2020
3242 Fog 0 1015 97 8000 1 260 15:18 12.05.2020
3243 Fog 0 1015 97 8000 1 260 14:55 12.05.2020
3244 Fog 0 1015 97 8000 1 260 14:36 12.05.2020
3245 Mist 0 1015 100 10000 3 100 14:18 12.05.2020
3246 Mist 1 1015 100 10000 3 100 13:55 12.05.2020
3247 Rain 2 1015 93 0 1.79 100 13:36 12.05.2020
3248 Rain 2 1015 93 0 1.79 100 13:18 12.05.2020
3249 Rain 2 1015 93 0 1.79 100 12:55 12.05.2020
3250 Fog 2 1015 93 10000 5 100 12:37 12.05.2020
3251 Fog 2 1015 93 10000 5 100 12:37 12.05.2020
3252 Fog 2 1015 93 10000 5 100 12:18 12.05.2020
3253 Fog 2 1015 93 10000 5 100 11:56 12.05.2020
3254 Fog 2 1015 93 10000 5 100 11:37 12.05.2020
3255 Fog 2 1015 93 10000 5 100 11:19 12.05.2020
3256 Fog 2 1015 93 10000 1 290 10:54 12.05.2020
3257 Fog 2 1015 93 10000 1 290 10:36 12.05.2020
3258 Clouds 2 1015 86 10000 1 300 10:18 12.05.2020
3259 Clouds 2 1015 86 10000 1 300 10:18 12.05.2020
3260 Clouds 3 1015 86 10000 1 300 09:54 12.05.2020
3261 Clouds 3 1015 86 10000 1 300 09:36 12.05.2020
3262 Clouds 2 1015 93 10000 1 210 09:18 12.05.2020
3263 Clouds 2 1015 93 10000 1 210 08:39 12.05.2020
3264 Clouds 2 1015 93 10000 1 210 08:19 12.05.2020
3265 Clouds 2 1015 86 10000 1 210 07:44 12.05.2020
3266 Clouds 3 1015 86 10000 1 210 07:25 12.05.2020
3267 Clouds 3 1015 86 10000 1 220 06:50 12.05.2020
3268 Clouds 2 1016 96 10000 3 180 06:29 12.05.2020
3269 Clouds 3 1015 86 10000 2 310 05:59 12.05.2020
3270 Clouds 3 1015 86 10000 3 300 05:41 12.05.2020
3271 Clouds 3 1016 86 10000 1 330 03:43 12.05.2020
3272 Fog 4 1016 80 10000 1 340 02:53 12.05.2020
3273 Fog 4 1017 93 10000 2 340 02:25 12.05.2020
3274 Fog 3 1017 93 10000 5 100 01:29 12.05.2020
3275 Fog 3 1017 94 10000 8 110 00:37 12.05.2020
3276 Fog 2 1017 94 10000 8 110 00:18 12.05.2020
3277 Fog 2 1017 94 10000 6 110 23:42 11.05.2020
3278 Fog 2 1017 95 10000 6 110 23:22 11.05.2020
3279 Fog 2 1017 95 10000 6 110 22:59 11.05.2020
3280 Fog 2 1017 80 10000 7 100 22:41 11.05.2020
3281 Fog 2 1017 80 10000 7 100 22:21 11.05.2020
3282 Fog 2 1017 74 10000 6 110 21:59 11.05.2020
3283 Fog 2 1017 74 10000 6 110 21:40 11.05.2020
3284 Fog 2 1017 74 10000 6 110 21:20 11.05.2020
3285 Fog 2 1016 74 10000 7 100 20:59 11.05.2020
3286 Fog 2 1016 74 10000 7 100 20:59 11.05.2020
3287 Fog 2 1016 74 10000 7 100 20:40 11.05.2020
3288 Fog 2 1016 74 10000 7 100 20:21 11.05.2020
3289 Fog 2 1016 74 10000 8 100 19:58 11.05.2020
3290 Fog 2 1016 74 10000 8 100 19:40 11.05.2020
3291 Fog 2 1016 74 10000 8 100 19:21 11.05.2020
3292 Clouds 1 1016 74 10000 6 100 18:56 11.05.2020
3293 Clouds 1 1016 74 10000 6 100 18:37 11.05.2020
3294 Clouds 1 1016 74 10000 6 100 18:18 11.05.2020
3295 Clouds 1 1016 74 10000 6 100 17:55 11.05.2020
3296 Clouds 1 1016 74 10000 6 100 17:36 11.05.2020
3297 Fog 1 1015 74 10000 7 110 17:18 11.05.2020
3298 Fog 2 1015 74 10000 7 110 16:42 11.05.2020
3299 Fog 2 1015 74 10000 7 110 16:22 11.05.2020
3300 Fog 2 1015 74 10000 7 110 16:22 11.05.2020
3301 Fog 1 1015 80 10000 8 110 15:58 11.05.2020
3302 Fog 1 1015 80 10000 8 110 15:39 11.05.2020
3303 Fog 1 1015 80 10000 8 110 15:19 11.05.2020
3304 Fog 1 1014 80 10000 10 110 14:55 11.05.2020
3305 Fog 1 1014 80 10000 10 110 14:37 11.05.2020
3306 Fog 1 1014 80 10000 10 110 14:19 11.05.2020
3307 Fog 1 1014 86 10000 10 110 13:42 11.05.2020
3308 Fog 1 1014 86 10000 10 110 13:22 11.05.2020
3309 Fog 1 1014 86 10000 9 110 12:58 11.05.2020
3310 Fog 1 1014 86 10000 9 110 12:40 11.05.2020
3311 Fog 1 1014 86 10000 9 110 12:22 11.05.2020
3312 Fog 1 1014 98 10000 9 100 11:57 11.05.2020
3313 Fog 1 1014 98 10000 9 100 11:38 11.05.2020
3314 Fog 1 1014 97 10000 9 100 11:20 11.05.2020
3315 Fog 1 1014 97 10000 8 100 10:55 11.05.2020
3316 Fog 1 1014 97 10000 8 100 10:37 11.05.2020
3317 Clouds 1 1012 95 10000 12 110 10:18 11.05.2020
3318 Clouds 1 1012 95 10000 12 110 09:55 11.05.2020
3319 Clouds 1 1012 95 10000 12 110 09:37 11.05.2020
3320 Clouds 1 1012 95 10000 12 110 09:37 11.05.2020
3321 Clouds 1 1012 94 10000 11 110 09:18 11.05.2020
3322 Clouds 1 1012 94 10000 11 110 08:40 11.05.2020
3323 Clouds 1 1012 93 10000 11 110 08:21 11.05.2020
3324 Clouds 1 1012 93 10000 12 110 07:54 11.05.2020
3325 Clouds 1 1012 93 10000 12 110 07:36 11.05.2020
3326 Clouds 1 1012 93 10000 12 110 07:18 11.05.2020
3327 Clouds 2 1012 93 10000 12 110 06:32 11.05.2020
3328 Clouds 2 1012 92 10000 10 110 05:44 11.05.2020
3329 Clouds 2 1012 92 10000 10 110 05:19 11.05.2020
3330 Fog 2 1011 92 10000 11 100 03:51 11.05.2020
3331 Fog 2 1010 92 10000 12 110 02:36 11.05.2020
3332 Fog 2 1010 91 10000 13 110 01:55 11.05.2020
3333 Fog 1 1009 91 10000 14 110 00:55 11.05.2020
3334 Fog 1 1009 91 10000 14 110 00:28 11.05.2020
3335 Fog 1 1008 91 10000 14 110 23:59 10.05.2020
3336 Fog 1 1008 91 10000 14 110 23:39 10.05.2020
3337 Fog 1 1008 91 10000 14 110 23:19 10.05.2020
3338 Clouds 1 1008 91 10000 15 110 22:54 10.05.2020
3339 Clouds 1 1008 91 10000 15 110 22:36 10.05.2020
3340 Clouds 1 1007 91 10000 14 110 22:18 10.05.2020
3341 Clouds 1 1007 91 10000 14 110 21:41 10.05.2020
3342 Clouds 1 1005 91 10000 17 110 21:18 10.05.2020
3343 Clouds 1 1005 91 10000 17 110 20:42 10.05.2020
3344 Clouds 1 1005 91 10000 17 110 20:24 10.05.2020
3345 Clouds 1 1004 91 10000 18 110 19:57 10.05.2020
3346 Clouds 1 1004 91 10000 18 110 19:38 10.05.2020
3347 Clouds 1 1004 90 10000 18 110 19:20 10.05.2020
3348 Clouds 1 1003 90 10000 19 120 18:56 10.05.2020
3349 Clouds 1 1003 90 10000 19 120 18:36 10.05.2020
3350 Clouds 0 1002 91 9000 22 120 18:18 10.05.2020
3351 Clouds 0 1002 91 9000 22 120 18:18 10.05.2020
3352 Clouds 0 1002 91 9000 22 120 17:57 10.05.2020
3353 Clouds 0 1002 91 9000 22 120 17:39 10.05.2020
3354 Clouds 0 1002 90 9000 22 120 17:20 10.05.2020
3355 Snow 0 1002 90 9000 21 120 16:43 10.05.2020
3356 Snow 0 1002 91 9000 21 120 16:21 10.05.2020
3357 Snow 1 1001 91 9000 21 120 15:58 10.05.2020
3358 Snow 1 1001 91 9000 21 120 15:39 10.05.2020
3359 Snow 1 1001 91 9000 21 120 15:21 10.05.2020
3360 Clouds 1 1001 91 9000 20 110 14:56 10.05.2020
3361 Clouds 1 1001 91 9000 20 110 14:37 10.05.2020
3362 Clouds 1 1001 90 9000 20 110 14:19 10.05.2020
3363 Mist 0 1000 90 5000 20 120 13:57 10.05.2020
3364 Mist 0 1000 90 5000 20 120 13:37 10.05.2020
3365 Mist 0 999 89 2700 21 120 13:18 10.05.2020
3366 Mist 0 999 89 2700 21 120 12:42 10.05.2020
3367 Mist 0 999 89 2700 21 120 12:23 10.05.2020
3368 Mist 1 998 89 5000 21 120 11:59 10.05.2020
3369 Mist 1 998 89 5000 21 120 11:40 10.05.2020
3370 Mist 1 998 89 5000 21 120 11:21 10.05.2020
3371 Mist 1 998 89 3000 21 120 10:58 10.05.2020
3372 Mist 1 998 89 3000 21 120 10:40 10.05.2020
3373 Mist 1 998 89 3000 21 120 10:22 10.05.2020
3374 Mist 1 997 89 5000 22 120 09:42 10.05.2020
3375 Mist 1 997 92 5000 22 120 09:23 10.05.2020
3376 Mist 1 996 92 4000 21 120 08:59 10.05.2020
3377 Mist 1 996 92 4000 21 120 08:40 10.05.2020
3378 Mist 1 996 95 4000 21 120 08:22 10.05.2020
3379 Rain 1 995 95 8000 22 120 07:42 10.05.2020
3380 Rain 1 995 95 8000 22 120 07:19 10.05.2020
3381 Clouds 1 994 95 8000 23 120 06:50 10.05.2020
3382 Clouds 1 994 95 8000 23 120 06:26 10.05.2020
3383 Mist 1 994 95 8000 23 120 05:46 10.05.2020
3384 Rain 1 993 95 9000 26 120 04:48 10.05.2020
3385 Rain 1 993 95 9000 26 120 04:29 10.05.2020
3386 Rain 1 992 95 1800 27 110 03:51 10.05.2020
3387 Rain 1 992 95 2900 29 110 02:59 10.05.2020
3388 Mist 1 992 95 2900 29 110 02:25 10.05.2020
3389 Snow 1 991 95 900 28 110 01:59 10.05.2020
3390 Snow 1 991 95 900 28 110 01:39 10.05.2020
3391 Snow 1 991 95 1900 27 110 01:18 10.05.2020
3392 Snow 1 991 95 1900 27 110 00:52 10.05.2020
3393 Snow 1 991 95 1900 27 110 00:22 10.05.2020
3394 Snow 1 992 95 1300 27 100 23:40 09.05.2020
3395 Snow 1 992 95 1300 27 100 23:22 09.05.2020
3396 Rain 1 994 100 4900 28 90 22:59 09.05.2020
3397 Rain 1 994 100 4900 28 90 22:41 09.05.2020
3398 Rain 1 994 100 4900 28 90 22:22 09.05.2020
3399 Rain 2 996 93 4300 25 90 21:57 09.05.2020
3400 Rain 2 996 93 4300 25 90 21:39 09.05.2020
3401 Rain 2 996 93 4300 25 90 21:20 09.05.2020
3402 Rain 2 997 93 5000 24 90 20:56 09.05.2020
3403 Mist 2 997 93 5000 24 90 20:38 09.05.2020
3404 Rain 2 997 93 5000 24 90 20:19 09.05.2020
3405 Rain 3 999 85 10000 20 90 19:54 09.05.2020
3406 Rain 3 999 85 10000 20 90 19:36 09.05.2020
3407 Clouds 2 1001 87 10000 19 90 19:18 09.05.2020
3408 Clouds 2 1001 87 10000 19 90 18:41 09.05.2020
3409 Clouds 2 1001 89 10000 19 90 18:21 09.05.2020
3410 Clouds 2 1002 80 10000 18 90 17:44 09.05.2020
3411 Clouds 2 1002 80 10000 18 90 17:23 09.05.2020
3412 Clouds 2 1002 80 10000 17 80 16:56 09.05.2020
3413 Clouds 2 1002 80 10000 17 80 16:37 09.05.2020
3414 Clouds 2 1003 80 10000 18 90 16:18 09.05.2020
3415 Clouds 2 1003 80 10000 18 90 15:42 09.05.2020
3416 Clouds 2 1003 80 10000 18 90 15:22 09.05.2020
3417 Clouds 3 1004 74 10000 21 90 14:55 09.05.2020
3418 Clouds 3 1004 74 10000 21 90 14:37 09.05.2020
3419 Clouds 3 1005 69 10000 20 90 14:18 09.05.2020
3420 Clouds 4 1005 69 10000 20 90 13:43 09.05.2020
3421 Clouds 4 1005 69 10000 20 90 13:22 09.05.2020
3422 Clouds 3 1005 74 10000 17 90 12:59 09.05.2020
3423 Clouds 3 1005 74 10000 17 90 12:39 09.05.2020
3424 Clouds 3 1005 74 10000 17 90 12:21 09.05.2020
3425 Clouds 3 1007 74 10000 19 90 11:45 09.05.2020
3426 Clouds 3 1007 74 10000 19 90 11:20 09.05.2020
3427 Clouds 3 1008 74 10000 18 90 10:55 09.05.2020
3428 Clouds 3 1008 74 10000 18 90 10:37 09.05.2020
3429 Clouds 3 1008 74 10000 18 90 10:19 09.05.2020
3430 Clouds 3 1008 74 10000 18 90 09:44 09.05.2020
3431 Clouds 3 1008 74 10000 18 90 09:20 09.05.2020
3432 Clouds 2 1008 80 10000 18 100 08:57 09.05.2020
3433 Clouds 2 1008 80 10000 18 100 08:38 09.05.2020
3434 Clouds 2 1008 80 10000 18 100 08:20 09.05.2020
3435 Clouds 2 1009 80 10000 16 100 07:44 09.05.2020
3436 Clouds 2 1009 80 10000 16 100 07:25 09.05.2020
3437 Clouds 3 1010 74 10000 17 90 06:40 09.05.2020
3438 Clouds 3 1010 74 10000 17 90 06:18 09.05.2020
3439 Clouds 3 1010 74 10000 17 90 05:39 09.05.2020
3440 Clear 3 1012 69 10000 16 90 03:40 09.05.2020
3441 Clear 3 1012 69 10000 16 90 02:54 09.05.2020
3442 Clouds 3 1013 74 10000 15 100 02:30 09.05.2020
3443 Clouds 3 1013 69 10000 16 100 01:50 09.05.2020
3444 Clouds 3 1013 69 10000 17 100 01:22 09.05.2020
3445 Clouds 3 1013 69 10000 16 100 00:43 09.05.2020
3446 Clouds 3 1013 69 10000 16 100 00:19 09.05.2020
3447 Clouds 3 1014 69 10000 19 100 23:44 08.05.2020
3448 Clouds 3 1014 69 10000 19 100 23:25 08.05.2020
3449 Clouds 3 1014 69 10000 19 90 22:56 08.05.2020
3450 Clouds 3 1014 69 10000 20 100 22:37 08.05.2020
3451 Clouds 3 1014 69 10000 20 100 22:19 08.05.2020
3452 Clouds 3 1015 69 10000 18 100 21:54 08.05.2020
3453 Clouds 3 1015 69 10000 18 100 21:36 08.05.2020
3454 Clouds 3 1016 74 10000 18 90 21:18 08.05.2020
3455 Clouds 3 1016 74 10000 18 90 20:55 08.05.2020
3456 Clouds 3 1016 74 10000 18 90 20:37 08.05.2020
3457 Clouds 4 1016 87 10000 12 90 20:19 08.05.2020
3458 Clouds 5 1016 87 10000 12 90 19:42 08.05.2020
3459 Clouds 5 1016 91 10000 12 90 19:21 08.05.2020
3460 Clouds 5 1017 91 10000 12 80 18:50 08.05.2020
3461 Clouds 5 1017 91 10000 12 80 18:31 08.05.2020
3462 Clouds 4 1017 94 10000 10 70 17:43 08.05.2020
3463 Clouds 4 1017 92 10000 10 70 17:20 08.05.2020
3464 Clouds 4 1018 64 10000 12 100 16:58 08.05.2020
3465 Clouds 4 1018 64 10000 12 100 16:39 08.05.2020
3466 Clouds 4 1018 64 10000 12 100 16:21 08.05.2020
3467 Clouds 4 1018 64 10000 8 70 15:44 08.05.2020
3468 Rain 4 1018 64 10000 8 70 15:22 08.05.2020
3469 Rain 4 1019 60 10000 7 110 14:58 08.05.2020
3470 Rain 4 1019 60 10000 7 110 14:40 08.05.2020
3471 Clouds 4 1019 60 10000 7 110 14:20 08.05.2020
3472 Clouds 3 1019 64 10000 14 100 13:56 08.05.2020
3473 Clouds 3 1019 64 10000 14 100 13:38 08.05.2020
3474 Rain 2 1019 64 10000 13 110 13:18 08.05.2020
3475 Rain 2 1019 64 10000 13 110 12:44 08.05.2020
3476 Clouds 2 1019 64 10000 13 110 12:23 08.05.2020
3477 Snow 1 1020 80 8000 11 100 11:55 08.05.2020
3478 Snow 1 1020 80 8000 11 100 11:36 08.05.2020
3479 Clouds 1 1020 86 10000 6 50 11:18 08.05.2020
3480 Clouds 1 1020 86 10000 6 50 10:43 08.05.2020
3481 Clouds 0 1020 96 10000 3 80 10:21 08.05.2020
3482 Clouds 0 1020 96 10000 3 80 10:21 08.05.2020
3483 Clouds 0 1020 96 10000 3 80 09:59 08.05.2020
3484 Clouds 0 1020 96 10000 3 80 09:40 08.05.2020
3485 Clouds 0 1020 96 10000 3 10 09:18 08.05.2020
3486 Clouds 0 1020 96 10000 3 10 08:45 08.05.2020
3487 Clouds 0 1020 94 10000 3 10 08:23 08.05.2020
3488 Clouds 0 1019 94 10000 9 100 07:44 08.05.2020
3489 Clouds 0 1019 93 10000 9 100 07:25 08.05.2020
3490 Clouds 0 1019 93 10000 7 110 06:51 08.05.2020
3491 Clouds -1 1019 86 10000 12 110 06:24 08.05.2020
3492 Clouds -1 1019 86 10000 15 110 05:58 08.05.2020
3493 Clouds 0 1019 93 10000 16 110 04:50 08.05.2020
3494 Clear 2 1018 64 10000 7 80 02:54 08.05.2020
3495 Clouds 1 1018 69 10000 6 80 02:21 08.05.2020
3496 Clouds 0 1019 94 10000 2 290 01:31 08.05.2020
3497 Clouds -1 1019 86 10000 3 320 00:58 08.05.2020
3498 Clouds -1 1019 86 10000 4 330 00:40 08.05.2020
3499 Clouds -1 1019 86 10000 4 330 00:21 08.05.2020
3500 Clouds -1 1019 96 10000 3 310 23:43 07.05.2020
3501 Clouds 0 1019 96 10000 3 310 23:23 07.05.2020
3502 Clouds 0 1019 96 10000 2 270 22:57 07.05.2020
3503 Clouds 0 1019 96 10000 2 270 22:57 07.05.2020
3504 Clouds -1 1019 80 10000 2 290 22:39 07.05.2020
3505 Clouds -1 1019 80 10000 2 290 22:19 07.05.2020
3506 Clouds -1 1019 80 10000 1 320 21:56 07.05.2020
3507 Clouds -1 1019 80 10000 1 320 21:37 07.05.2020
3508 Clouds -1 1019 80 10000 1 320 21:19 07.05.2020
3509 Fog -2 1018 86 10000 1 240 20:43 07.05.2020
3510 Fog -2 1018 86 10000 1 240 20:24 07.05.2020
3511 Snow -2 1019 86 3300 4 70 19:59 07.05.2020
3512 Mist -2 1019 86 3300 4 70 19:40 07.05.2020
3513 Snow -2 1019 86 3300 4 70 19:21 07.05.2020
3514 Mist -3 1018 92 3400 4 90 18:46 07.05.2020
3515 Mist -3 1018 92 3400 4 90 18:28 07.05.2020
3516 Clouds -2 1018 86 10000 8 100 17:57 07.05.2020
3517 Clouds -2 1018 86 10000 8 100 17:37 07.05.2020
3518 Clouds -2 1018 86 10000 8 100 17:19 07.05.2020
3519 Snow -2 1018 86 10000 7 100 16:40 07.05.2020
3520 Snow -2 1018 86 10000 7 100 16:19 07.05.2020
3521 Snow -2 1018 86 10000 5 110 15:56 07.05.2020
3522 Snow -2 1018 86 10000 5 110 15:37 07.05.2020
3523 Snow -2 1018 86 10000 5 110 15:37 07.05.2020
3524 Snow -2 1018 86 10000 5 90 15:18 07.05.2020
3525 Snow -2 1018 86 10000 5 90 15:18 07.05.2020
3526 Snow -2 1018 86 10000 5 90 14:45 07.05.2020
3527 Snow -2 1018 86 10000 5 90 14:22 07.05.2020
3528 Snow -2 1018 86 7000 3 60 13:54 07.05.2020
3529 Snow -2 1018 86 7000 3 60 13:36 07.05.2020
3530 Mist -3 1018 92 2600 4 50 13:18 07.05.2020
3531 Mist -3 1018 92 2600 4 50 12:39 07.05.2020
3532 Mist -3 1018 92 2600 4 50 12:19 07.05.2020
3533 Clouds -3 1018 92 7000 5 60 11:39 07.05.2020
3534 Clouds -3 1018 92 7000 5 60 11:21 07.05.2020
3535 Mist -3 1016 86 10000 12 100 10:55 07.05.2020
3536 Mist -3 1016 86 10000 12 100 10:37 07.05.2020
3537 Mist -3 1014 86 8000 16 100 10:18 07.05.2020
3538 Mist -3 1014 86 8000 16 100 09:39 07.05.2020
3539 Mist -3 1014 86 8000 16 100 09:19 07.05.2020
3540 Mist -2 1014 79 10000 16 100 08:45 07.05.2020
3541 Mist -2 1014 79 10000 16 100 08:23 07.05.2020
3542 Clouds -2 1014 79 10000 16 100 07:58 07.05.2020
3543 Clear -1 1014 74 10000 17 100 07:40 07.05.2020
3544 Clear -1 1014 74 10000 17 100 07:20 07.05.2020
3545 Mist -1 1014 74 10000 16 110 06:37 07.05.2020
3546 Clear -1 1014 95 10000 16 110 06:18 07.05.2020
3547 Clear 0 1015 94 10000 16 110 04:28 07.05.2020
3548 Clear 0 1016 94 10000 17 110 03:38 07.05.2020
3549 Clear 0 1016 94 10000 18 110 03:18 07.05.2020
3550 Clear 0 1016 93 9000 17 110 02:26 07.05.2020
3551 Clear -1 1016 63 9000 17 100 01:37 07.05.2020
3552 Clear -1 1016 63 9000 17 100 01:19 07.05.2020
3553 Clear -1 1016 63 10000 17 100 00:42 07.05.2020
3554 Clear -1 1016 63 10000 17 100 00:21 07.05.2020
3555 Clear -1 1016 63 10000 16 100 23:44 06.05.2020
3556 Clear -1 1016 63 10000 16 100 23:22 06.05.2020
3557 Clear -1 1016 58 10000 16 100 22:55 06.05.2020
3558 Clear -2 1016 63 10000 15 100 22:37 06.05.2020
3559 Clear -2 1016 63 10000 15 100 22:18 06.05.2020
3560 Clear -2 1016 63 10000 15 100 21:55 06.05.2020
3561 Clear -2 1016 63 10000 15 100 21:36 06.05.2020
3562 Clear -2 1016 58 10000 13 110 21:18 06.05.2020
3563 Clear -2 1016 58 10000 13 110 20:40 06.05.2020
3564 Clouds -2 1016 58 10000 13 110 20:21 06.05.2020
3565 Clouds -2 1016 58 10000 13 110 19:56 06.05.2020
3566 Clouds -2 1016 58 10000 13 110 19:38 06.05.2020
3567 Clouds -2 1017 54 10000 12 110 19:19 06.05.2020
3568 Clouds -2 1017 54 10000 12 110 18:58 06.05.2020
3569 Clouds -2 1017 54 10000 12 110 18:38 06.05.2020
3570 Clouds -2 1017 54 10000 12 110 18:38 06.05.2020
3571 Clouds -2 1017 54 10000 12 110 18:20 06.05.2020
3572 Clouds -1 1017 50 10000 12 110 17:55 06.05.2020
3573 Clouds -1 1017 50 10000 12 110 17:37 06.05.2020
3574 Clouds -2 1017 63 10000 9 100 17:18 06.05.2020
3575 Clouds -2 1017 63 10000 9 100 16:58 06.05.2020
3576 Clouds -2 1017 63 10000 9 100 16:40 06.05.2020
3577 Clouds -2 1017 63 10000 9 100 16:20 06.05.2020
3578 Clouds -2 1018 63 10000 12 100 15:56 06.05.2020
3579 Clouds -2 1018 63 10000 12 100 15:38 06.05.2020
3580 Clouds -2 1018 68 10000 11 90 15:18 06.05.2020
3581 Clouds -2 1018 68 10000 11 90 14:40 06.05.2020
3582 Clouds -2 1018 68 10000 11 90 14:19 06.05.2020
3583 Clouds -2 1018 68 10000 11 90 14:19 06.05.2020
3584 Clouds -4 1018 79 10000 10 100 13:59 06.05.2020
3585 Clouds -4 1018 79 10000 10 100 13:39 06.05.2020
3586 Clouds -4 1018 79 10000 10 100 13:19 06.05.2020
3587 Clouds -4 1018 79 10000 10 100 13:19 06.05.2020
3588 Clouds -3 1018 79 10000 10 100 12:43 06.05.2020
3589 Clouds -3 1018 79 10000 10 100 12:25 06.05.2020
3590 Fog -3 1019 79 10000 9 100 11:55 06.05.2020
3591 Fog -3 1019 79 10000 9 100 11:36 06.05.2020
3592 Fog -3 1019 74 10000 3 50 11:18 06.05.2020
3593 Fog -2 1019 74 10000 3 50 10:55 06.05.2020
3594 Fog -2 1019 74 10000 3 50 10:36 06.05.2020
3595 Fog -2 1019 74 10000 6 100 10:18 06.05.2020
3596 Fog -2 1019 74 10000 6 100 09:39 06.05.2020
3597 Fog -2 1019 74 10000 6 100 09:20 06.05.2020
3598 Fog 0 1019 95 10000 7 110 08:44 06.05.2020
3599 Fog 0 1019 95 10000 7 110 08:21 06.05.2020
3600 Fog -2 1020 79 10000 7 110 07:57 06.05.2020
3601 Fog -1 1020 80 10000 7 100 07:38 06.05.2020
3602 Fog -1 1020 80 10000 7 100 07:19 06.05.2020
3603 Fog -1 1020 80 10000 6 100 06:49 06.05.2020
3604 Clouds -1 1020 80 10000 4 90 06:21 06.05.2020
3605 Clouds -2 1020 86 10000 5 140 05:50 06.05.2020
3606 Clouds -1 1021 80 10000 4 130 05:31 06.05.2020
3607 Clear -3 1021 79 10000 1 220 03:54 06.05.2020
3608 Clear -4 1021 79 10000 2 230 03:31 06.05.2020
3609 Clear -3 1021 73 10000 2 200 02:55 06.05.2020
3610 Clear -3 1021 73 10000 2 180 02:27 06.05.2020
3611 Clear -4 1022 79 10000 1 350 01:43 06.05.2020
3612 Clear -6 1022 79 10000 1 350 01:25 06.05.2020
3613 Fog -6 1022 79 10000 3 360 00:44 06.05.2020
3614 Fog -6 1022 79 10000 3 360 00:19 06.05.2020
3615 Fog -9 1022 85 10000 2 330 23:42 05.05.2020
3616 Fog -9 1022 85 10000 2 330 23:20 05.05.2020
3617 Fog -10 1022 85 10000 2 340 22:55 05.05.2020
3618 Fog -10 1022 92 10000 2 360 22:37 05.05.2020
3619 Fog -11 1022 84 10000 2 20 22:18 05.05.2020
3620 Fog -13 1022 84 10000 2 20 21:41 05.05.2020
3621 Fog -13 1022 84 10000 2 20 21:22 05.05.2020
3622 Fog -13 1022 92 10000 2 350 20:59 05.05.2020
3623 Fog -13 1022 92 10000 2 350 20:40 05.05.2020
3624 Fog -13 1022 92 10000 2 350 20:20 05.05.2020
3625 Fog -14 1022 84 10000 2 340 19:59 05.05.2020
3626 Fog -14 1022 84 10000 2 340 19:40 05.05.2020
3627 Fog -14 1022 84 10000 2 340 19:40 05.05.2020
3628 Fog -14 1022 84 10000 2 340 19:21 05.05.2020
3629 Fog -14 1021 92 10000 2 10 18:57 05.05.2020
3630 Fog -14 1021 92 10000 2 10 18:57 05.05.2020
3631 Fog -14 1021 92 10000 2 10 18:38 05.05.2020
3632 Fog -14 1021 92 10000 2 10 18:19 05.05.2020
3633 Fog -15 1021 84 10000 3 20 17:54 05.05.2020
3634 Fog -15 1021 84 10000 3 20 17:36 05.05.2020
3635 Fog -15 1022 84 10000 3 40 17:18 05.05.2020
3636 Fog -14 1022 84 10000 3 40 16:38 05.05.2020
3637 Fog -14 1022 84 10000 3 40 16:20 05.05.2020
3638 Fog -13 1022 78 10000 3 30 15:58 05.05.2020
3639 Fog -13 1022 78 10000 3 30 15:39 05.05.2020
3640 Fog -13 1022 78 10000 3 30 15:20 05.05.2020
3641 Fog -11 1021 78 10000 1 30 14:55 05.05.2020
3642 Fog -11 1021 78 10000 1 30 14:37 05.05.2020
3643 Fog -11 1021 78 10000 1 30 14:37 05.05.2020
3644 Fog -12 1021 78 10000 2 50 14:18 05.05.2020
3645 Fog -12 1021 78 10000 2 50 13:54 05.05.2020
3646 Fog -12 1021 78 10000 2 50 13:36 05.05.2020
3647 Fog -12 1021 78 10000 2 50 13:36 05.05.2020
3648 Clouds -12 1021 85 10000 2 60 13:18 05.05.2020
3649 Clouds -11 1021 85 10000 3 80 12:41 05.05.2020
3650 Clouds -11 1021 85 10000 3 80 12:22 05.05.2020
3651 Clouds -10 1021 85 10000 2 80 11:59 05.05.2020
3652 Clouds -11 1021 92 10000 2 60 11:40 05.05.2020
3653 Clouds -11 1021 92 10000 2 60 11:19 05.05.2020
3654 Clouds -10 1021 85 10000 4 40 10:55 05.05.2020
3655 Clouds -8 1021 85 10000 4 30 10:36 05.05.2020
3656 Clouds -8 1021 85 10000 4 10 10:18 05.05.2020
3657 Clouds -7 1021 85 10000 4 10 09:44 05.05.2020
3658 Clouds -6 1021 85 10000 4 10 09:26 05.05.2020
3659 Clouds -5 1020 79 10000 4 360 08:58 05.05.2020
3660 Clouds -5 1020 85 10000 4 340 08:39 05.05.2020
3661 Clouds -5 1020 85 10000 5 340 08:18 05.05.2020
3662 Clouds -5 1020 85 10000 5 340 07:43 05.05.2020
3663 Clouds -5 1020 85 10000 5 340 07:21 05.05.2020
3664 Clouds -5 1020 85 10000 5 340 06:54 05.05.2020
3665 Clouds -5 1020 85 10000 5 330 06:31 05.05.2020
3666 Clouds -5 1020 85 10000 6 350 05:53 05.05.2020
3667 Clouds -5 1020 85 10000 5 360 04:58 05.05.2020
3668 Clouds -6 1020 85 10000 5 340 02:37 05.05.2020
3669 Clouds -6 1020 85 10000 5 330 00:56 05.05.2020
3670 Clouds -6 1020 85 10000 5 330 00:56 05.05.2020
3671 Clouds -6 1020 85 10000 5 330 00:31 05.05.2020
3672 Clouds -6 1020 79 10000 4 360 23:48 04.05.2020
3673 Clouds -6 1020 79 10000 4 360 23:26 04.05.2020
3674 Clouds -6 1020 79 10000 7 350 22:59 04.05.2020
3675 Clouds -6 1020 79 10000 7 350 22:41 04.05.2020
3676 Clouds -7 1020 79 10000 7 350 22:22 04.05.2020
3677 Clouds -7 1020 79 10000 7 350 22:22 04.05.2020
3678 Fog -7 1020 85 10000 6 360 21:57 04.05.2020
3679 Fog -7 1020 85 10000 6 360 21:37 04.05.2020
3680 Fog -7 1020 85 10000 6 360 21:37 04.05.2020
3681 Fog -7 1020 85 10000 6 360 21:19 04.05.2020
3682 Fog -7 1020 85 10000 7 350 20:41 04.05.2020
3683 Fog -7 1020 85 10000 7 350 20:41 04.05.2020
3684 Fog -7 1020 85 10000 7 350 20:41 04.05.2020
3685 Fog -7 1020 85 10000 7 350 20:21 04.05.2020
3686 Fog -7 1020 85 10000 7 350 20:21 04.05.2020
3687 Clouds -7 1020 85 10000 7 360 19:56 04.05.2020
3688 Clouds -7 1020 85 10000 7 360 19:37 04.05.2020
3689 Clouds -7 1020 85 10000 6 360 19:18 04.05.2020
3690 Clouds -7 1020 85 10000 6 360 18:39 04.05.2020
3691 Clouds -7 1020 85 10000 6 360 18:20 04.05.2020
3692 Clouds -7 1020 85 10000 6 360 18:20 04.05.2020
3693 Clouds -7 1020 92 10000 6 360 17:56 04.05.2020
3694 Clouds -7 1020 92 10000 6 360 17:38 04.05.2020
3695 Clouds -7 1020 92 10000 6 360 17:20 04.05.2020
3696 Clouds -7 1020 85 10000 6 360 16:56 04.05.2020
3697 Clouds -7 1020 85 10000 6 360 16:37 04.05.2020
3698 Clouds -7 1020 85 10000 6 360 16:19 04.05.2020
3699 Clouds -7 1020 79 10000 5 360 16:19 04.05.2020
3700 Clouds -6 1020 79 10000 5 360 15:40 04.05.2020
3701 Clouds -6 1020 79 10000 5 360 15:22 04.05.2020
3702 Clouds -6 1021 85 10000 5 350 14:49 04.05.2020
3703 Clouds -6 1021 85 10000 5 350 14:22 04.05.2020
3704 Clouds -6 1021 85 10000 5 350 14:22 04.05.2020
3705 Clouds -6 1021 85 10000 5 350 14:22 04.05.2020
3706 Clouds -6 1021 85 10000 4 360 13:22 04.05.2020
3707 Clouds -6 1021 85 10000 4 360 13:22 04.05.2020
3708 Clouds -6 1021 85 10000 4 360 13:22 04.05.2020
3709 Clouds -6 1021 85 10000 4 360 13:22 04.05.2020
3710 Clouds -6 1021 85 10000 4 360 13:22 04.05.2020
3711 Clouds -6 1021 85 10000 4 360 12:44 04.05.2020
3712 Clouds -6 1021 85 10000 4 360 12:44 04.05.2020
3713 Clouds -6 1021 85 10000 4 360 12:44 04.05.2020
3714 Clouds -6 1021 85 10000 4 360 12:44 04.05.2020
3715 Clouds -5 1021 85 10000 4 10 11:27 04.05.2020
3716 Clouds -5 1021 85 10000 4 10 11:27 04.05.2020
3717 Clouds -5 1021 85 10000 4 10 11:27 04.05.2020
3718 Clouds -5 1021 85 10000 4 10 11:27 04.05.2020
3719 Clouds -5 1021 85 10000 4 10 11:27 04.05.2020
3720 Clouds -5 1022 79 10000 3 310 09:28 04.05.2020
3721 Clouds -4 1022 79 10000 2 330 07:54 04.05.2020
3722 Clouds -4 1022 79 10000 2 330 07:34 04.05.2020
3723 Clouds -4 1023 79 10000 1 310 05:52 04.05.2020
3724 Clouds -5 1023 85 10000 2 310 04:52 04.05.2020
3725 Clouds -5 1023 92 10000 1 210 02:56 04.05.2020
3726 Clouds -5 1024 92 10000 1 290 01:45 04.05.2020
3727 Clouds -5 1024 92 10000 1 290 01:44 04.05.2020
3728 Snow -6 1024 92 10000 1 350 00:18 04.05.2020
3729 Snow -6 1024 92 10000 2 360 23:44 03.05.2020
3730 Snow -6 1024 92 10000 2 360 23:23 03.05.2020
3731 Snow -6 1024 92 10000 2 10 22:44 03.05.2020
3732 Snow -6 1024 92 10000 2 10 22:25 03.05.2020
3733 Snow -7 1024 92 9000 2 10 21:56 03.05.2020
3734 Snow -7 1024 92 9000 2 10 21:38 03.05.2020
3735 Snow -7 1024 92 9000 2 10 21:19 03.05.2020
3736 Snow -7 1024 92 9000 2 10 21:19 03.05.2020
3737 Snow -7 1024 92 9000 2 10 21:19 03.05.2020
3738 Snow -7 1024 92 9000 2 10 21:19 03.05.2020
3739 Snow -7 1024 92 10000 2 360 20:42 03.05.2020
3740 Snow -7 1024 92 10000 2 360 20:20 03.05.2020
3741 Fog -7 1024 92 10000 2 340 19:49 03.05.2020
3742 Fog -7 1024 92 10000 2 340 19:30 03.05.2020
3743 Fog -6 1024 92 10000 1 90 18:56 03.05.2020
3744 Fog -6 1024 92 10000 1 90 18:56 03.05.2020
3745 Fog -6 1024 92 10000 1 90 18:38 03.05.2020
3746 Fog -6 1024 92 10000 1 90 18:38 03.05.2020
3747 Fog -6 1024 92 10000 1 90 18:38 03.05.2020
3748 Fog -6 1024 92 10000 1 90 18:38 03.05.2020
3749 Fog -6 1024 92 10000 1 90 18:38 03.05.2020
3750 Fog -6 1024 92 10000 1 90 18:19 03.05.2020
3751 Fog -6 1024 92 10000 1 90 18:19 03.05.2020
3752 Fog -6 1024 92 10000 1 90 18:19 03.05.2020
3753 Fog -6 1024 92 10000 1 90 18:19 03.05.2020
3754 Mist -6 1024 92 4900 1 160 17:41 03.05.2020
3755 Mist -6 1024 92 4900 1 160 17:41 03.05.2020
3756 Mist -6 1024 92 4900 1 160 17:21 03.05.2020
3757 Mist -6 1024 92 4400 2 150 16:45 03.05.2020
3758 Mist -6 1024 92 4400 2 150 16:20 03.05.2020
3759 Mist -6 1024 92 5000 3 170 15:59 03.05.2020
3760 Mist -6 1024 92 5000 3 170 15:59 03.05.2020
3761 Mist -6 1024 92 5000 3 170 15:40 03.05.2020
3762 Mist -6 1024 92 5000 3 170 15:20 03.05.2020
3763 Clouds -6 1024 100 9000 2 160 14:58 03.05.2020
3764 Clouds -6 1024 100 9000 2 160 14:40 03.05.2020
3765 Clouds -6 1024 100 9000 2 160 14:40 03.05.2020
3766 Clouds -6 1024 100 9000 2 160 14:21 03.05.2020
3767 Mist -5 1024 92 10000 2 140 13:53 03.05.2020
3768 Mist -5 1024 92 10000 2 140 13:53 03.05.2020
3769 Mist -5 1024 92 10000 2 140 13:53 03.05.2020
3770 Mist -5 1024 92 10000 2 140 13:19 03.05.2020
3771 Mist -5 1024 92 10000 2 140 13:19 03.05.2020
3772 Fog -5 1024 92 10000 1.01 83 12:44 03.05.2020
3773 Fog -5 1024 100 10000 1 70 12:18 03.05.2020
3774 Fog -6 1024 100 10000 1 70 11:55 03.05.2020
3775 Fog -6 1024 100 10000 1 70 11:55 03.05.2020
3776 Fog -6 1024 100 10000 1 70 11:37 03.05.2020
3777 Fog -6 1024 100 10000 1 110 11:18 03.05.2020
3778 Fog -6 1024 100 10000 1 110 10:46 03.05.2020
3779 Fog -6 1024 100 10000 1 110 10:46 03.05.2020
3780 Fog -6 1024 100 10000 1 110 10:46 03.05.2020
3781 Fog -6 1024 100 10000 1 110 10:46 03.05.2020
3782 Fog -6 1024 100 10000 1 110 10:46 03.05.2020
3783 Fog -5 1024 92 10000 1 250 09:57 03.05.2020
3784 Fog -5 1024 92 10000 1 250 09:57 03.05.2020
3785 Fog -5 1024 92 10000 1 250 09:57 03.05.2020
3786 Fog -5 1024 92 10000 1 250 09:57 03.05.2020
3787 Fog -5 1024 92 10000 1 250 09:57 03.05.2020
3788 Fog -5 1024 92 10000 1 250 09:33 03.05.2020
3789 Fog -5 1024 92 10000 1 250 09:33 03.05.2020
3790 Fog -5 1024 92 10000 1 250 09:33 03.05.2020
3791 Fog -5 1024 92 10000 1 250 09:33 03.05.2020
3792 Mist -5 1024 92 9000 1 220 08:55 03.05.2020
3793 Mist -5 1024 92 9000 1 220 08:55 03.05.2020
3794 Mist -5 1024 92 9000 1 220 08:55 03.05.2020
3795 Mist -5 1024 92 9000 1 220 08:55 03.05.2020
3796 Mist -5 1024 92 9000 1 220 08:55 03.05.2020
3797 Mist -5 1024 92 9000 1 220 08:26 03.05.2020
3798 Mist -5 1024 92 9000 1 220 08:26 03.05.2020
3799 Mist -5 1024 92 9000 1 220 08:26 03.05.2020
3800 Mist -5 1024 92 9000 1 220 08:26 03.05.2020
3801 Mist -5 1024 92 9000 1 220 08:26 03.05.2020
3802 Fog -5 1023 92 900 2 220 07:39 03.05.2020
3803 Fog -6 1023 92 300 1 220 06:19 03.05.2020
3804 Fog -6 1023 92 1500 1 220 05:47 03.05.2020
3805 Fog -5 1023 85 4100 1 210 04:46 03.05.2020
3806 Fog -5 1023 85 4100 1 210 04:23 03.05.2020
3807 Mist -6 1023 92 10000 0.8 127 02:58 03.05.2020
3808 Mist -6 1023 92 10000 1.06 146 02:24 03.05.2020
3809 Fog -7 1023 92 10000 1 150 01:44 03.05.2020
3810 Fog -7 1023 92 10000 1 150 01:24 03.05.2020
3811 Fog -8 1023 92 10000 2 230 00:42 03.05.2020
3812 Fog -8 1023 92 10000 2 230 00:21 03.05.2020
3813 Fog -9 1022 92 10000 2 240 23:59 02.05.2020
3814 Fog -9 1022 92 10000 2 240 23:41 02.05.2020
3815 Fog -9 1022 92 10000 2 240 23:21 02.05.2020
3816 Fog -10 1022 92 1000 1 310 22:43 02.05.2020
3817 Fog -10 1022 92 1000 1 310 22:23 02.05.2020
3818 Clouds -12 1021 85 10000 1 280 21:56 02.05.2020
3819 Clouds -12 1021 85 10000 1 280 21:38 02.05.2020
3820 Mist -13 1021 84 5000 0.62 199 21:18 02.05.2020
3821 Mist -13 1021 84 5000 0.62 199 21:18 02.05.2020
3822 Mist -13 1021 84 5000 0.62 199 20:56 02.05.2020
3823 Mist -13 1021 84 5000 0.62 199 20:37 02.05.2020
3824 Mist -13 1021 84 5000 0.6 191 20:19 02.05.2020
3825 Fog -13 1020 84 100 1 230 19:55 02.05.2020
3826 Fog -13 1020 84 100 1 230 19:37 02.05.2020
3827 Fog -12 1020 92 10000 2 180 19:18 02.05.2020
3828 Fog -10 1020 92 10000 2 180 18:41 02.05.2020
3829 Fog -10 1020 92 10000 2 180 18:22 02.05.2020
3830 Clouds -11 1019 92 10000 1 120 17:58 02.05.2020
3831 Clouds -11 1019 92 10000 1 120 17:39 02.05.2020
3832 Clouds -11 1019 92 10000 1 120 17:20 02.05.2020
3833 Clouds -11 1019 92 10000 1 120 16:58 02.05.2020
3834 Clouds -11 1019 92 10000 1 120 16:39 02.05.2020
3835 Clouds -11 1019 92 10000 1 120 16:21 02.05.2020
3836 Clouds -13 1018 84 10000 1 110 15:42 02.05.2020
3837 Clouds -13 1018 84 10000 1 110 15:20 02.05.2020
3838 Clouds -10 1018 85 10000 1 100 14:57 02.05.2020
3839 Clouds -10 1018 85 10000 1 100 14:39 02.05.2020
3840 Clouds -10 1018 85 10000 1 100 14:20 02.05.2020
3841 Clouds -10 1018 85 10000 1 100 14:20 02.05.2020
3842 Clouds -11 1018 85 10000 3 100 13:40 02.05.2020
3843 Clouds -11 1018 85 10000 3 100 13:22 02.05.2020
3844 Clouds -10 1017 85 10000 2 90 12:44 02.05.2020
3845 Clouds -10 1017 85 10000 2 90 12:25 02.05.2020
3846 Clouds -9 1017 85 10000 1 90 11:59 02.05.2020
3847 Clouds -9 1017 85 10000 1 90 11:41 02.05.2020
3848 Clouds -9 1017 85 10000 1 90 11:22 02.05.2020
3849 Clouds -9 1017 85 10000 1 90 11:22 02.05.2020
3850 Clouds -7 1016 92 10000 2 20 10:58 02.05.2020
3851 Clouds -7 1016 92 10000 2 20 10:38 02.05.2020
3852 Clouds -7 1016 92 10000 2 20 10:20 02.05.2020
3853 Clouds -6 1016 85 10000 2.1 334 09:56 02.05.2020
3854 Clouds -6 1016 85 10000 2.1 334 09:37 02.05.2020
3855 Clouds -6 1016 85 10000 2.08 333 09:19 02.05.2020
3856 Clouds -5 1015 85 10000 4 340 08:46 02.05.2020
3857 Clouds -5 1015 85 10000 4 340 08:26 02.05.2020
3858 Clouds -4 1015 79 10000 4 330 07:47 02.05.2020
3859 Clouds -4 1015 79 10000 4 330 07:28 02.05.2020
3860 Clouds -4 1015 79 10000 5 350 06:51 02.05.2020
3861 Clouds -5 1014 85 10000 4 350 05:29 02.05.2020
3862 Clouds -5 1014 85 10000 3 340 04:48 02.05.2020
3863 Clouds -5 1014 85 10000 3 340 04:24 02.05.2020
3864 Clouds -6 1014 85 10000 4 340 02:44 02.05.2020
3865 Clouds -6 1014 85 10000 4 340 02:24 02.05.2020
3866 Clouds -6 1014 85 10000 4 330 01:49 02.05.2020
3867 Clouds -6 1013 85 10000 3 330 00:48 02.05.2020
3868 Clouds -6 1013 85 10000 3 330 00:28 02.05.2020
3869 Clouds -7 1013 92 10000 3 340 23:58 01.05.2020
3870 Clouds -7 1013 92 10000 3 340 23:39 01.05.2020
3871 Clouds -7 1013 92 10000 3 340 23:20 01.05.2020
3872 Clouds -8 1013 92 10000 2 330 22:55 01.05.2020
3873 Clouds -8 1013 92 10000 2 330 22:55 01.05.2020
3874 Clouds -8 1013 92 10000 2 330 22:37 01.05.2020
3875 Clouds -8 1013 92 10000 3 340 22:18 01.05.2020
3876 Clouds -7 1013 92 10000 3 340 21:55 01.05.2020
3877 Clouds -7 1013 92 10000 3 340 21:36 01.05.2020
3878 Clouds -7 1013 92 10000 4 340 21:18 01.05.2020
3879 Clouds -7 1013 92 10000 4 340 20:54 01.05.2020
3880 Clouds -7 1013 92 10000 4 340 20:36 01.05.2020
3881 Clouds -8 1012 92 10000 3 350 20:18 01.05.2020
3882 Clouds -8 1012 92 10000 3 350 19:41 01.05.2020
3883 Clouds -8 1012 92 10000 3 350 19:22 01.05.2020
3884 Fog -9 1012 92 10000 1 350 18:57 01.05.2020
3885 Fog -9 1012 92 10000 1 350 18:38 01.05.2020
3886 Fog -9 1012 92 10000 1 350 18:19 01.05.2020
3887 Fog -10 1012 92 600 1 30 17:56 01.05.2020
3888 Fog -10 1012 92 600 1 30 17:37 01.05.2020
3889 Fog -10 1012 92 600 1 30 17:37 01.05.2020
3890 Fog -10 1012 92 600 1 30 17:19 01.05.2020
3891 Clouds -9 1012 92 10000 2 40 16:55 01.05.2020
3892 Clouds -9 1012 92 10000 2 40 16:37 01.05.2020
3893 Clouds -8 1012 85 10000 2 320 16:18 01.05.2020
3894 Clouds -7 1012 85 10000 2 320 15:42 01.05.2020
3895 Clouds -7 1012 85 10000 2 320 15:42 01.05.2020
3896 Clouds -7 1012 85 10000 2 320 15:23 01.05.2020
3897 Clouds -7 1012 79 10000 1 110 14:58 01.05.2020
3898 Clouds -7 1012 79 10000 1 110 14:39 01.05.2020
3899 Clouds -7 1012 79 10000 1 110 14:20 01.05.2020
3900 Clouds -9 1012 78 10000 2 40 13:40 01.05.2020
3901 Clouds -9 1012 78 10000 2 40 13:22 01.05.2020
3902 Clouds -7 1012 79 10000 1 90 12:57 01.05.2020
3903 Clouds -7 1012 79 10000 1 90 12:39 01.05.2020
3904 Clouds -7 1012 79 10000 1 90 12:19 01.05.2020
3905 Clouds -4 1012 79 10000 2 340 11:57 01.05.2020
3906 Clouds -4 1012 79 10000 2 340 11:39 01.05.2020
3907 Clouds -4 1012 85 10000 1 20 11:19 01.05.2020
3908 Clouds -4 1012 85 10000 1 20 10:40 01.05.2020
3909 Clouds -4 1012 85 10000 1 20 10:20 01.05.2020
3910 Clouds -2 1011 74 10000 2 10 09:54 01.05.2020
3911 Clouds -2 1011 74 10000 2 10 09:36 01.05.2020
3912 Clouds -2 1011 79 10000 2 310 09:18 01.05.2020
3913 Clouds -2 1011 79 10000 2 310 08:42 01.05.2020
3914 Clouds -2 1011 79 10000 2 310 08:23 01.05.2020
3915 Clouds -2 1011 79 10000 3 300 07:46 01.05.2020
3916 Clouds -2 1011 79 10000 3 300 07:23 01.05.2020
3917 Clouds -1 1011 68 10000 3 300 06:54 01.05.2020
3918 Clouds -1 1011 68 10000 1 350 05:38 01.05.2020
3919 Clouds -2 1011 74 10000 1 50 04:49 01.05.2020
3920 Clouds -2 1011 74 10000 1 360 03:34 01.05.2020
3921 Clouds -2 1011 68 10000 1 250 02:48 01.05.2020
3922 Clouds -2 1011 68 10000 1 250 02:29 01.05.2020
3923 Clouds -3 1011 73 10000 2 240 01:36 01.05.2020
3924 Clouds -3 1011 73 10000 1 230 01:18 01.05.2020
3925 Clouds -3 1011 73 10000 1 230 00:38 01.05.2020
3926 Clouds -3 1011 73 10000 1 230 00:38 01.05.2020
3927 Clouds -3 1011 73 10000 1 230 00:20 01.05.2020
3928 Clouds -3 1011 73 10000 1.75 336 23:56 30.04.2020
3929 Clouds -3 1011 73 10000 1.75 336 23:38 30.04.2020
3930 Clouds -3 1011 73 10000 1.68 317 23:19 30.04.2020
3931 Clouds -3 1011 73 10000 1 190 22:41 30.04.2020
3932 Clouds -3 1011 73 10000 1 190 22:21 30.04.2020
3933 Clouds -4 1011 79 10000 1 180 21:58 30.04.2020
3934 Clouds -4 1011 79 10000 1 180 21:39 30.04.2020
3935 Clouds -4 1011 79 10000 1 180 21:20 30.04.2020
3936 Clouds -4 1010 79 10000 2 150 20:55 30.04.2020
3937 Clouds -4 1010 79 10000 2 150 20:37 30.04.2020
3938 Clouds -4 1010 79 10000 2 150 20:18 30.04.2020
3939 Clouds -4 1010 79 10000 2 150 19:44 30.04.2020
3940 Clouds -4 1010 79 10000 2 150 19:25 30.04.2020
3941 Clouds -4 1010 85 10000 2 180 18:56 30.04.2020
3942 Clouds -4 1010 85 10000 2 180 18:38 30.04.2020
3943 Clouds -4 1010 85 10000 2 180 18:20 30.04.2020
3944 Clouds -4 1010 85 10000 1 170 17:57 30.04.2020
3945 Clouds -4 1010 85 10000 1 170 17:39 30.04.2020
3946 Clouds -4 1010 85 10000 1 170 17:20 30.04.2020
3947 Clouds -4 1010 85 10000 2 160 16:54 30.04.2020
3948 Clouds -4 1010 85 10000 2 160 16:36 30.04.2020
3949 Clouds -4 1010 79 10000 2 150 16:18 30.04.2020
3950 Clouds -3 1010 79 10000 2 150 15:44 30.04.2020
3951 Clouds -3 1010 79 10000 2 150 15:23 30.04.2020
3952 Clouds -3 1010 86 10000 3 170 14:42 30.04.2020
3953 Clouds -3 1010 86 10000 3 170 14:22 30.04.2020
3954 Clouds -3 1010 86 10000 3 160 13:59 30.04.2020
3955 Clouds -3 1010 86 10000 3 160 13:41 30.04.2020
3956 Clouds -3 1010 86 10000 3 160 13:22 30.04.2020
3957 Clouds -3 1010 92 10000 4 160 12:59 30.04.2020
3958 Clouds -3 1010 92 10000 4 160 12:41 30.04.2020
3959 Clouds -3 1010 92 10000 4 160 12:19 30.04.2020
3960 Clouds -3 1010 86 10000 3 150 11:38 30.04.2020
3961 Clouds -3 1010 86 10000 3 150 11:19 30.04.2020
3962 Clouds -2 1010 86 10000 4 150 10:58 30.04.2020
3963 Clouds -2 1010 86 10000 4 150 10:39 30.04.2020
3964 Clouds -2 1010 86 10000 4 150 10:21 30.04.2020
3965 Clouds -2 1009 86 10000 3 150 09:56 30.04.2020
3966 Clouds -2 1009 86 10000 3 150 09:37 30.04.2020
3967 Clouds -2 1009 86 10000 3 140 09:18 30.04.2020
3968 Clouds -2 1009 86 10000 3 140 08:44 30.04.2020
3969 Clouds -2 1009 86 10000 3 140 08:24 30.04.2020
3970 Clouds -2 1009 79 10000 4 140 07:44 30.04.2020
3971 Clouds -2 1009 79 10000 4 140 07:44 30.04.2020
3972 Clouds -2 1009 79 10000 4 140 07:25 30.04.2020
3973 Clouds -2 1009 79 10000 4 130 06:52 30.04.2020
3974 Clouds -2 1009 79 10000 4 140 06:18 30.04.2020
3975 Clouds -2 1009 74 10000 4 150 05:44 30.04.2020
3976 Clouds -1 1009 74 10000 4 150 04:39 30.04.2020
3977 Clouds -1 1009 74 10000 4 160 03:58 30.04.2020
3978 Clouds -2 1009 80 10000 4 130 02:47 30.04.2020
3979 Clouds -1 1009 80 10000 4 130 02:25 30.04.2020
3980 Clouds -1 1009 74 10000 4 100 01:36 30.04.2020
3981 Clouds -1 1009 68 10000 6 100 00:42 30.04.2020
3982 Clouds -1 1009 68 10000 6 100 00:19 30.04.2020
3983 Clouds -1 1009 74 10000 5 100 23:57 29.04.2020
3984 Clouds -1 1009 68 10000 4 110 23:37 29.04.2020
3985 Clouds -1 1009 68 10000 4 110 23:19 29.04.2020
3986 Clouds -2 1009 74 10000 6 110 22:40 29.04.2020
3987 Clouds -2 1009 74 10000 6 110 22:21 29.04.2020
3988 Clouds -2 1009 74 10000 6 110 22:21 29.04.2020
3989 Snow -3 1009 79 10000 3 120 21:59 29.04.2020
3990 Snow -3 1009 79 10000 3 120 21:37 29.04.2020
3991 Snow -5 1009 85 10000 1 120 21:18 29.04.2020
3992 Snow -5 1009 85 10000 1 120 20:55 29.04.2020
3993 Snow -5 1009 85 10000 1 120 20:36 29.04.2020
3994 Clouds -5 1009 92 10000 1 120 20:18 29.04.2020
3995 Clouds -5 1009 92 10000 1 120 20:18 29.04.2020
3996 Clouds -6 1009 92 10000 1 120 19:42 29.04.2020
3997 Clouds -6 1009 92 10000 1 120 19:20 29.04.2020
3998 Clouds -7 1009 92 10000 1 110 18:43 29.04.2020
3999 Clouds -7 1009 92 10000 1 110 18:25 29.04.2020
4000 Clouds -7 1009 92 10000 1 280 17:59 29.04.2020
4001 Clouds -7 1009 92 10000 1 280 17:41 29.04.2020
4002 Clouds -7 1009 92 10000 1 280 17:21 29.04.2020
4003 Snow -7 1009 92 10000 2.01 94 16:40 29.04.2020
4004 Snow -7 1009 92 10000 2.01 94 16:40 29.04.2020
4005 Snow -7 1009 92 10000 1.73 76 16:20 29.04.2020
4006 Snow -7 1009 92 10000 2 160 15:58 29.04.2020
4007 Snow -7 1009 92 10000 2 160 15:58 29.04.2020
4008 Snow -7 1009 92 10000 2 160 15:40 29.04.2020
4009 Snow -7 1009 92 10000 2 160 15:21 29.04.2020
4010 Snow -7 1009 92 10000 2 160 15:21 29.04.2020
4011 Clouds -7 1009 92 10000 2 30 14:59 29.04.2020
4012 Clouds -7 1009 92 10000 2 30 14:41 29.04.2020
4013 Clouds -7 1009 92 10000 2 30 14:22 29.04.2020
4014 Clouds -6 1009 85 10000 3 30 13:55 29.04.2020
4015 Clouds -6 1009 85 10000 3 30 13:37 29.04.2020
4016 Clouds -7 1009 92 10000 4 30 13:18 29.04.2020
4017 Clouds -7 1009 92 10000 4 30 12:40 29.04.2020
4018 Clouds -7 1009 92 10000 4 30 12:19 29.04.2020
4019 Clouds -7 1009 85 10000 3 40 11:58 29.04.2020
4020 Clouds -7 1009 85 10000 3 40 11:58 29.04.2020
4021 Clouds -7 1009 85 10000 3 40 11:36 29.04.2020
4022 Clouds -8 1008 85 10000 2 10 11:18 29.04.2020
4023 Clouds -9 1008 85 10000 2 10 10:38 29.04.2020
4024 Clouds -10 1008 85 10000 2 360 10:20 29.04.2020
4025 Clouds -10 1008 85 10000 2 360 09:58 29.04.2020
4026 Clouds -10 1008 85 10000 2 360 09:40 29.04.2020
4027 Clouds -8 1008 85 10000 3 20 09:18 29.04.2020
4028 Clouds -8 1008 85 10000 3 20 08:43 29.04.2020
4029 Clouds -8 1008 85 10000 3 20 08:24 29.04.2020
4030 Clouds -7 1008 85 10000 3 360 07:50 29.04.2020
4031 Clouds -6 1008 85 10000 3 360 07:27 29.04.2020
4032 Clouds -6 1007 85 10000 3 20 06:52 29.04.2020
4033 Clouds -6 1007 85 10000 3 20 06:31 29.04.2020
4034 Clouds -7 1007 92 10000 4 10 05:38 29.04.2020
4035 Clouds -7 1007 85 10000 4 10 05:18 29.04.2020
4036 Clouds -6 1007 85 10000 3 20 04:19 29.04.2020
4037 Clouds -8 1007 85 10000 4 10 02:50 29.04.2020
4038 Fog -11 1007 92 10000 3 20 01:47 29.04.2020
4039 Fog -11 1007 92 10000 3 20 01:27 29.04.2020
4040 Clouds -11 1007 85 7000 3 10 00:51 29.04.2020
4041 Snow -10 1007 85 3800 3 20 00:21 29.04.2020
4042 Snow -10 1007 85 3800 3 20 00:21 29.04.2020
4043 Mist -10 1006 85 6000 3 20 23:56 28.04.2020
4044 Clouds -10 1006 85 7000 2 10 23:37 28.04.2020
4045 Mist -10 1006 92 9000 2 350 23:18 28.04.2020
4046 Mist -12 1006 85 3800 2 320 22:38 28.04.2020
4047 Mist -12 1006 85 3800 2 320 22:20 28.04.2020
4048 Mist -11 1006 85 9000 3 80 21:58 28.04.2020
4049 Mist -11 1006 85 9000 3 80 21:40 28.04.2020
4050 Mist -11 1006 85 9000 3 80 21:21 28.04.2020
4051 Fog -14 1005 84 10000 4 110 20:56 28.04.2020
4052 Fog -14 1005 84 10000 4 110 20:38 28.04.2020
4053 Fog -14 1005 84 10000 4 110 20:20 28.04.2020
4054 Fog -15 1005 84 2200 1 350 19:43 28.04.2020
4055 Mist -15 1005 84 2200 1 350 19:23 28.04.2020
4056 Fog -19 1005 91 300 1 20 19:00 28.04.2020
4057 Fog -19 1005 91 300 1 20 18:41 28.04.2020
4058 Fog -19 1005 91 300 1 20 18:20 28.04.2020
4059 Fog -17 1005 84 800 2.06 129 17:59 28.04.2020
4060 Fog -17 1005 84 800 2.06 129 17:37 28.04.2020
4061 Fog -15 1005 92 150 2 10 17:19 28.04.2020
4062 Fog -15 1005 92 150 2 10 16:56 28.04.2020
4063 Fog -15 1005 92 150 2 10 16:37 28.04.2020
4064 Fog -15 1005 84 150 2 340 16:18 28.04.2020
4065 Fog -14 1005 84 150 2 340 15:54 28.04.2020
4066 Fog -14 1005 84 150 2 340 15:36 28.04.2020
4067 Fog -14 1004 84 10000 1 50 15:18 28.04.2020
4068 Fog -14 1004 84 10000 1 50 14:43 28.04.2020
4069 Fog -14 1004 84 10000 1 50 14:22 28.04.2020
4070 Fog -10 1004 85 10000 2 30 13:59 28.04.2020
4071 Fog -10 1004 85 10000 2 30 13:59 28.04.2020
4072 Fog -10 1004 85 10000 2 30 13:40 28.04.2020
4073 Fog -10 1004 85 10000 2 30 13:21 28.04.2020
4074 Clouds -7 1005 85 10000 2.06 141 12:57 28.04.2020
4075 Clouds -7 1005 85 10000 2.06 141 12:37 28.04.2020
4076 Clouds -7 1005 85 10000 2.16 146 12:19 28.04.2020
4077 Fog -7 1005 85 10000 5 170 11:41 28.04.2020
4078 Fog -7 1005 85 10000 5 170 11:21 28.04.2020
4079 Fog -8 1004 85 10000 5 180 10:56 28.04.2020
4080 Fog -8 1004 85 10000 5 180 10:37 28.04.2020
4081 Fog -8 1004 79 10000 2 170 10:18 28.04.2020
4082 Fog -7 1004 79 10000 2 170 09:42 28.04.2020
4083 Fog -7 1004 79 10000 2 170 09:42 28.04.2020
4084 Fog -7 1004 79 10000 2 170 09:24 28.04.2020
4085 Clear -7 1004 85 10000 1 160 08:54 28.04.2020
4086 Clear -7 1004 85 10000 1 160 08:36 28.04.2020
4087 Clouds -7 1004 85 10000 2 180 08:18 28.04.2020
4088 Clouds -7 1005 85 10000 3 160 07:41 28.04.2020
4089 Clouds -7 1005 85 10000 3 170 07:18 28.04.2020
4090 Clouds -7 1005 85 10000 3 150 06:39 28.04.2020
4091 Clouds -8 1005 85 10000 4 160 05:48 28.04.2020
4092 Clouds -8 1005 85 10000 4 160 05:30 28.04.2020
4093 Clouds -9 1005 92 10000 4 160 04:33 28.04.2020
4094 Fog -10 1005 85 10000 3 170 02:38 28.04.2020
4095 Fog -11 1006 85 10000 4 170 01:37 28.04.2020
4096 Fog -11 1006 85 10000 4 170 01:18 28.04.2020
4097 Clouds -12 1006 85 10000 4 190 00:31 28.04.2020
4098 Fog -13 1006 84 10000 3 180 23:56 27.04.2020
4099 Mist -13 1006 84 5000 3 170 23:38 27.04.2020
4100 Mist -13 1006 84 5000 3 170 23:20 27.04.2020
4101 Fog -14 1006 84 300 2 190 22:43 27.04.2020
4102 Fog -14 1006 84 300 2 190 22:23 27.04.2020
4103 Fog -15 1007 92 250 1.71 177 21:57 27.04.2020
4104 Fog -15 1007 92 250 1.71 177 21:39 27.04.2020
4105 Fog -15 1007 92 250 1.33 178 21:19 27.04.2020
4106 Fog -15 1007 84 150 1.33 178 20:56 27.04.2020
4107 Fog -15 1007 84 150 1.33 178 20:38 27.04.2020
4108 Fog -15 1007 84 150 1.19 178 20:19 27.04.2020
4109 Fog -15 1007 84 250 1.19 178 19:55 27.04.2020
4110 Fog -15 1007 84 250 1.19 178 19:36 27.04.2020
4111 Fog -15 1007 92 200 0.89 187 19:18 27.04.2020
4112 Fog -15 1007 92 200 0.89 187 18:40 27.04.2020
4113 Fog -15 1007 92 200 0.51 206 18:20 27.04.2020
4114 Fog -14 1007 84 150 0.51 206 17:59 27.04.2020
4115 Fog -14 1007 84 150 0.51 206 17:40 27.04.2020
4116 Fog -14 1007 84 150 0.6 248 17:19 27.04.2020
4117 Snow -13 1008 84 150 0.6 248 16:41 27.04.2020
4118 Fog -13 1008 84 150 0.84 275 16:22 27.04.2020
4119 Snow -13 1008 84 450 0.84 275 15:57 27.04.2020
4120 Snow -13 1008 84 450 0.84 275 15:38 27.04.2020
4121 Snow -13 1008 84 450 0.92 261 15:20 27.04.2020
4122 Fog -14 1009 92 300 1 220 14:58 27.04.2020
4123 Fog -14 1009 92 300 1 220 14:58 27.04.2020
4124 Fog -14 1009 92 300 1 220 14:40 27.04.2020
4125 Fog -14 1009 92 300 1 220 14:19 27.04.2020
4126 Mist -12 1009 85 4800 1.03 265 13:57 27.04.2020
4127 Mist -12 1009 85 4800 1.03 265 13:36 27.04.2020
4128 Fog -12 1009 85 10000 1.03 265 13:18 27.04.2020
4129 Fog -12 1009 85 10000 1.03 265 12:43 27.04.2020
4130 Fog -12 1009 85 10000 0.95 277 12:21 27.04.2020
4131 Fog -16 1009 84 200 1 60 11:43 27.04.2020
4132 Fog -16 1009 84 200 1 60 11:22 27.04.2020
4133 Fog -14 1010 92 50 2 360 10:59 27.04.2020
4134 Fog -14 1010 92 50 2 360 10:41 27.04.2020
4135 Fog -14 1010 92 50 2 360 10:23 27.04.2020
4136 Fog -11 1009 85 100 2 340 09:56 27.04.2020
4137 Fog -11 1009 85 100 2 340 09:36 27.04.2020
4138 Fog -11 1009 92 200 3 340 09:18 27.04.2020
4139 Fog -11 1009 92 10000 2 340 08:45 27.04.2020
4140 Fog -10 1009 92 10000 2 340 08:27 27.04.2020
4141 Fog -10 1010 92 10000 2 360 07:45 27.04.2020
4142 Fog -10 1010 92 10000 2 360 07:23 27.04.2020
4143 Clouds -9 1010 85 10000 3 340 06:57 27.04.2020
4144 Clouds -9 1010 85 10000 2 350 06:28 27.04.2020
4145 Clouds -9 1010 85 10000 2 10 05:55 27.04.2020
4146 Clouds -9 1010 85 10000 3 10 04:55 27.04.2020
4147 Clouds -9 1010 85 10000 3 10 04:36 27.04.2020
4148 Clouds -10 1010 92 10000 3 360 03:45 27.04.2020
4149 Clouds -10 1010 92 9000 3 10 01:51 27.04.2020
4150 Snow -10 1011 92 10000 3 10 01:19 27.04.2020
4151 Clouds -10 1011 85 9000 3 10 00:21 27.04.2020
4152 Fog -10 1011 85 10000 3 360 23:59 26.04.2020
4153 Snow -10 1011 85 9000 4 360 23:41 26.04.2020
4154 Snow -10 1011 85 9000 4 360 23:22 26.04.2020
4155 Snow -10 1011 85 9000 2 10 22:59 26.04.2020
4156 Snow -10 1011 85 2200 2 10 22:40 26.04.2020
4157 Snow -10 1011 85 2200 2 10 22:21 26.04.2020
4158 Snow -11 1011 92 3600 2 10 21:58 26.04.2020
4159 Snow -11 1011 92 3600 2 10 21:39 26.04.2020
4160 Snow -11 1010 92 3600 2 10 21:19 26.04.2020
4161 Snow -11 1010 92 3600 2 10 21:19 26.04.2020
4162 Snow -11 1010 92 3600 2 10 20:55 26.04.2020
4163 Snow -11 1010 92 3600 2 10 20:37 26.04.2020
4164 Mist -11 1010 92 3600 2 10 20:37 26.04.2020
4165 Mist -11 1010 92 3600 2 10 20:19 26.04.2020
4166 Snow -11 1011 92 400 2 340 19:57 26.04.2020
4167 Snow -11 1011 92 400 2 340 19:36 26.04.2020
4168 Fog -11 1011 92 250 2 360 19:18 26.04.2020
4169 Fog -11 1011 92 250 2 360 18:43 26.04.2020
4170 Fog -11 1011 92 250 2 360 18:24 26.04.2020
4171 Fog -11 1011 85 250 2 10 17:44 26.04.2020
4172 Fog -11 1011 85 250 2 10 17:23 26.04.2020
4173 Fog -12 1011 92 150 2 340 16:58 26.04.2020
4174 Fog -12 1011 92 150 2 340 16:39 26.04.2020
4175 Fog -12 1011 92 150 2 340 16:20 26.04.2020
4176 Fog -15 1011 84 350 3 20 15:57 26.04.2020
4177 Fog -15 1011 84 350 3 20 15:37 26.04.2020
4178 Clouds -14 1011 92 10000 2 330 15:18 26.04.2020
4179 Clouds -13 1011 92 10000 2 330 14:41 26.04.2020
4180 Clouds -13 1011 92 10000 2 330 14:19 26.04.2020
4181 Clouds -12 1012 92 10000 2 10 13:59 26.04.2020
4182 Clouds -12 1012 92 10000 2 10 13:40 26.04.2020
4183 Clouds -12 1012 92 10000 2 10 13:22 26.04.2020
4184 Clouds -10 1012 85 10000 4 340 12:57 26.04.2020
4185 Clouds -10 1012 85 10000 4 340 12:39 26.04.2020
4186 Clouds -10 1012 85 10000 4 340 12:39 26.04.2020
4187 Clouds -10 1012 85 10000 4 340 12:20 26.04.2020
4188 Clouds -10 1012 92 10000 3 10 11:55 26.04.2020
4189 Clouds -10 1012 92 10000 3 10 11:36 26.04.2020
4190 Clouds -9 1012 92 10000 5 10 11:18 26.04.2020
4191 Clouds -8 1012 92 10000 5 10 10:43 26.04.2020
4192 Clouds -8 1012 92 10000 5 10 10:24 26.04.2020
4193 Snow -8 1012 92 10000 5 340 09:58 26.04.2020
4194 Snow -8 1012 92 10000 5 340 09:39 26.04.2020
4195 Snow -8 1012 92 10000 5 340 09:20 26.04.2020
4196 Snow -7 1013 85 10000 6 340 08:41 26.04.2020
4197 Snow -7 1013 85 10000 6 340 08:23 26.04.2020
4198 Snow -7 1013 85 10000 5 350 07:50 26.04.2020
4199 Snow -7 1013 85 10000 5 350 07:25 26.04.2020
4200 Snow -7 1013 85 10000 5 330 06:55 26.04.2020
4201 Snow -7 1013 85 10000 5 330 06:32 26.04.2020
4202 Snow -7 1013 85 10000 5 340 05:54 26.04.2020
4203 Snow -7 1013 85 10000 5 340 05:34 26.04.2020
4204 Snow -7 1014 85 10000 6 350 04:42 26.04.2020
4205 Snow -7 1014 85 10000 5 350 03:46 26.04.2020
4206 Snow -8 1014 85 10000 5 340 02:40 26.04.2020
4207 Snow -8 1014 85 10000 5 340 02:19 26.04.2020
4208 Snow -8 1015 92 10000 6 330 01:37 26.04.2020
4209 Snow -8 1015 92 10000 5 350 01:18 26.04.2020
4210 Snow -8 1015 92 10000 5 350 00:37 26.04.2020
4211 Snow -8 1015 92 10000 5 340 00:18 26.04.2020
4212 Snow -8 1015 92 10000 5 340 23:38 25.04.2020
4213 Snow -8 1015 92 10000 5 340 23:19 25.04.2020
4214 Snow -8 1015 92 10000 4 340 22:43 25.04.2020
4215 Snow -8 1015 92 10000 4 340 22:21 25.04.2020
4216 Snow -8 1016 92 10000 5 350 21:59 25.04.2020
4217 Snow -8 1016 92 10000 5 350 21:39 25.04.2020
4218 Snow -8 1016 92 10000 5 350 21:20 25.04.2020
4219 Snow -8 1015 92 10000 5 360 20:55 25.04.2020
4220 Snow -8 1015 92 10000 5 360 20:37 25.04.2020
4221 Clouds -8 1016 92 10000 6 350 20:19 25.04.2020
4222 Clouds -8 1016 92 10000 6 350 19:41 25.04.2020
4223 Clouds -8 1016 92 10000 6 350 19:22 25.04.2020
4224 Clouds -8 1016 92 10000 5 350 18:57 25.04.2020
4225 Clouds -8 1016 92 10000 5 350 18:39 25.04.2020
4226 Clouds -8 1016 92 10000 5 350 18:20 25.04.2020
4227 Clouds -8 1016 92 10000 5 350 17:56 25.04.2020
4228 Clouds -8 1016 92 10000 5 350 17:37 25.04.2020
4229 Clouds -8 1017 92 10000 4 340 17:19 25.04.2020
4230 Clouds -7 1017 92 10000 4 340 16:48 25.04.2020
4231 Clouds -7 1017 92 10000 4 340 16:29 25.04.2020
4232 Clouds -7 1017 92 10000 4 350 15:59 25.04.2020
4233 Clouds -7 1017 92 10000 4 350 15:39 25.04.2020
4234 Clouds -7 1017 92 10000 4 350 15:19 25.04.2020
4235 Clouds -6 1018 85 10000 3 340 14:58 25.04.2020
4236 Clouds -6 1018 85 10000 3 340 14:38 25.04.2020
4237 Clouds -6 1018 85 10000 3 340 14:19 25.04.2020
4238 Clouds -6 1018 85 10000 3 340 13:43 25.04.2020
4239 Clouds -6 1018 85 10000 3 340 13:19 25.04.2020
4240 Snow -6 1018 85 10000 3 340 12:58 25.04.2020
4241 Snow -6 1018 85 10000 3 340 12:39 25.04.2020
4242 Snow -6 1018 85 10000 3 340 12:20 25.04.2020
4243 Clouds -5 1018 79 10000 3 350 11:55 25.04.2020
4244 Clouds -5 1018 79 10000 3 350 11:37 25.04.2020
4245 Clouds -5 1018 79 10000 2 340 11:19 25.04.2020
4246 Clouds -5 1018 79 10000 2 340 10:42 25.04.2020
4247 Clouds -5 1018 79 10000 2 340 10:22 25.04.2020
4248 Clouds -5 1018 79 10000 2 350 09:47 25.04.2020
4249 Clouds -5 1018 79 10000 2 350 09:28 25.04.2020
4250 Clouds -5 1018 85 10000 2 360 08:58 25.04.2020
4251 Clouds -5 1018 85 10000 3 20 08:38 25.04.2020
4252 Clouds -5 1018 85 10000 3 20 08:20 25.04.2020
4253 Clouds -5 1018 85 10000 3 10 07:50 25.04.2020
4254 Clouds -5 1019 85 10000 4 10 07:28 25.04.2020
4255 Clouds -5 1019 79 10000 4 20 06:47 25.04.2020
4256 Clouds -5 1019 85 10000 4 20 06:18 25.04.2020
4257 Clouds -5 1019 85 10000 5 10 05:39 25.04.2020
4258 Clouds -4 1019 79 10000 5 10 04:57 25.04.2020
4259 Clouds -5 1020 85 10000 4 20 02:59 25.04.2020
4260 Clouds -5 1020 85 10000 3 10 02:20 25.04.2020
4261 Clouds -6 1021 85 10000 3 340 01:53 25.04.2020
4262 Clouds -6 1021 85 10000 3 340 01:34 25.04.2020
4263 Clouds -7 1021 85 10000 2 360 00:55 25.04.2020
4264 Clouds -7 1021 85 10000 2 360 00:32 25.04.2020
4265 Snow -7 1022 85 10000 2 350 23:45 24.04.2020
4266 Snow -7 1022 85 10000 2 350 23:24 24.04.2020
4267 Clouds -7 1022 85 10000 1 240 22:59 24.04.2020
4268 Clouds -7 1022 85 10000 1 240 22:39 24.04.2020
4269 Clouds -7 1022 85 10000 1 240 22:19 24.04.2020
4270 Clouds -8 1022 85 10000 1 170 21:55 24.04.2020
4271 Clouds -8 1022 85 10000 2 290 21:37 24.04.2020
4272 Snow -8 1022 85 10000 3 340 21:19 24.04.2020
4273 Snow -8 1022 85 10000 3 340 20:56 24.04.2020
4274 Snow -8 1022 85 10000 3 340 20:37 24.04.2020
4275 Clouds -8 1022 85 10000 4 10 20:18 24.04.2020
4276 Clouds -8 1022 85 10000 4 10 19:40 24.04.2020
4277 Clouds -8 1022 85 10000 4 10 19:21 24.04.2020
4278 Clouds -9 1023 85 10000 2 350 18:45 24.04.2020
4279 Clouds -9 1023 85 10000 2 350 18:27 24.04.2020
4280 Snow -9 1023 85 10000 1 350 17:58 24.04.2020
4281 Snow -9 1023 85 10000 1 350 17:58 24.04.2020
4282 Snow -9 1023 85 10000 1 350 17:38 24.04.2020
4283 Snow -9 1023 85 10000 1 350 17:19 24.04.2020
4284 Clouds -9 1024 85 10000 3 10 16:58 24.04.2020
4285 Clouds -9 1024 85 10000 3 10 16:40 24.04.2020
4286 Clouds -9 1024 85 10000 3 10 16:21 24.04.2020
4287 Clouds -10 1024 85 10000 1 340 15:42 24.04.2020
4288 Clouds -10 1024 85 10000 1 340 15:42 24.04.2020
4289 Clouds -10 1024 85 10000 1 340 15:21 24.04.2020
4290 Clouds -9 1024 85 10000 3 330 14:57 24.04.2020
4291 Clouds -9 1024 85 10000 3 330 14:38 24.04.2020
4292 Clouds -9 1024 85 10000 3 330 14:19 24.04.2020
4293 Clouds -9 1025 85 10000 4 360 13:41 24.04.2020
4294 Clouds -9 1025 85 10000 4 360 13:41 24.04.2020
4295 Clouds -9 1025 85 10000 4 360 13:21 24.04.2020
4296 Clouds -9 1025 85 10000 3 360 12:58 24.04.2020
4297 Clouds -9 1025 85 10000 3 360 12:40 24.04.2020
4298 Clouds -9 1025 85 10000 3 360 12:20 24.04.2020
4299 Clouds -9 1025 85 10000 3 360 11:44 24.04.2020
4300 Clouds -9 1025 85 10000 3 360 11:23 24.04.2020
4301 -273 0 0 0 0 0 10:59 24.04.2020
4302 Clouds -10 1025 85 10000 2 320 10:38 24.04.2020
4303 Clouds -10 1025 85 10000 2 320 10:20 24.04.2020
4304 Clouds -10 1025 85 10000 2 350 09:57 24.04.2020
4305 Clouds -10 1025 85 10000 2 350 09:38 24.04.2020
4306 Clouds -10 1025 85 10000 3 330 09:19 24.04.2020
4307 Clouds -10 1025 85 10000 2 350 08:42 24.04.2020
4308 Clouds -10 1025 85 10000 2 350 08:21 24.04.2020
4309 Clouds -10 1025 85 10000 3 360 07:58 24.04.2020
4310 Clouds -10 1025 85 10000 3 360 07:40 24.04.2020
4311 Clouds -10 1025 85 10000 3 360 07:21 24.04.2020
4312 Clouds -10 1025 85 10000 2 360 06:44 24.04.2020
4313 Clouds -10 1025 78 10000 3 350 05:51 24.04.2020
4314 Clouds -11 1026 85 10000 3 360 05:23 24.04.2020
4315 Clouds -10 1026 78 10000 3 350 03:39 24.04.2020
4316 Clouds -11 1026 92 10000 3 360 02:50 24.04.2020
4317 Clouds -11 1026 85 10000 3 350 02:30 24.04.2020
4318 Clear -13 1026 84 10000 3 340 01:46 24.04.2020
4319 Clear -13 1026 92 10000 3 330 00:54 24.04.2020
4320 Clear -13 1026 84 10000 1 340 00:19 24.04.2020
4321 Clear -14 1026 84 10000 2 20 23:47 23.04.2020
4322 Clear -15 1026 84 10000 2 20 23:27 23.04.2020
4323 Fog -15 1026 92 10000 2 40 22:58 23.04.2020
4324 Clear -16 1026 84 10000 4 350 22:39 23.04.2020
4325 Clear -16 1026 84 10000 4 350 22:20 23.04.2020
4326 Clear -16 1026 91 10000 4 330 21:57 23.04.2020
4327 Clear -16 1026 91 10000 4 330 21:39 23.04.2020
4328 Clear -16 1026 91 10000 4 330 21:20 23.04.2020
4329 Clear -15 1026 84 10000 3 30 20:57 23.04.2020
4330 Clear -15 1026 84 10000 3 30 20:39 23.04.2020
4331 Clear -15 1026 84 10000 3 30 20:20 23.04.2020
4332 Clear -17 1026 84 10000 3 50 19:56 23.04.2020
4333 Clear -17 1026 84 10000 3 50 19:38 23.04.2020
4334 Clear -17 1026 84 10000 3 50 19:20 23.04.2020
4335 Clear -17 1026 84 10000 1 30 18:43 23.04.2020
4336 Clear -17 1026 84 10000 1 30 18:23 23.04.2020
4337 Clear -18 1026 84 10000 3 50 17:58 23.04.2020
4338 Clear -18 1026 84 10000 3 50 17:39 23.04.2020
4339 Clear -18 1026 84 10000 3 50 17:21 23.04.2020
4340 Clear -16 1025 84 10000 2 10 16:57 23.04.2020
4341 Clear -16 1025 84 10000 2 10 16:38 23.04.2020
4342 Clear -16 1026 84 10000 2 10 16:18 23.04.2020
4343 Clear -16 1026 84 10000 2 10 15:42 23.04.2020
4344 Clear -16 1026 84 10000 2 10 15:22 23.04.2020
4345 Clear -16 1026 84 10000 3 10 14:56 23.04.2020
4346 Clouds -16 1026 84 10000 3 10 14:37 23.04.2020
4347 Clouds -16 1026 84 10000 3 10 14:19 23.04.2020
4348 Clouds -15 1025 84 10000 4 350 13:55 23.04.2020
4349 Clouds -15 1025 84 10000 4 350 13:36 23.04.2020
4350 Clouds -15 1025 84 10000 5 360 13:18 23.04.2020
4351 Clouds -15 1025 84 10000 5 360 12:42 23.04.2020
4352 Clouds -15 1025 84 10000 5 360 12:24 23.04.2020
4353 Clouds -15 1025 84 10000 5 350 11:56 23.04.2020
4354 Clouds -15 1025 84 10000 5 350 11:38 23.04.2020
4355 Clouds -14 1025 84 10000 5 330 11:18 23.04.2020
4356 Clouds -13 1025 84 10000 5 330 10:41 23.04.2020
4357 Clouds -13 1025 84 10000 5 330 10:21 23.04.2020
4358 Clouds -14 1025 84 10000 6 360 09:41 23.04.2020
4359 Clouds -14 1025 84 10000 6 360 09:20 23.04.2020
4360 Clouds -14 1025 84 10000 5 350 08:57 23.04.2020
4361 Clouds -13 1025 84 10000 4 360 08:39 23.04.2020
4362 Clouds -13 1025 84 10000 4 360 08:21 23.04.2020
4363 Clouds -13 1025 84 10000 6 340 07:42 23.04.2020
4364 Clouds -13 1025 84 10000 6 340 07:23 23.04.2020
4365 Clouds -13 1025 85 10000 5 340 06:47 23.04.2020
4366 Clouds -13 1025 84 10000 6 330 05:58 23.04.2020
4367 Clouds -13 1025 84 10000 4 350 05:22 23.04.2020
4368 Clouds -13 1025 84 10000 4 350 04:50 23.04.2020
4369 Clouds -13 1026 84 10000 3 330 02:24 23.04.2020
4370 Clouds -14 1025 92 10000 2 10 01:41 23.04.2020
4371 Clouds -14 1026 84 10000 2 20 01:18 23.04.2020
4372 Clouds -15 1026 84 10000 3 60 00:36 23.04.2020
4373 Clear -15 1026 84 10000 3 30 00:18 23.04.2020
4374 Clear -16 1026 84 10000 3 10 23:42 22.04.2020
4375 Clear -16 1026 84 10000 3 10 23:22 22.04.2020
4376 Clear -17 1026 84 10000 2 10 22:55 22.04.2020
4377 Clear -17 1026 84 10000 2 360 22:36 22.04.2020
4378 Clear -18 1026 84 10000 2 350 22:18 22.04.2020
4379 Clear -18 1026 84 10000 2 350 21:55 22.04.2020
4380 Clear -18 1026 84 10000 2 350 21:36 22.04.2020
4381 Clear -18 1026 84 10000 2 20 21:18 22.04.2020
4382 Clear -19 1026 84 10000 2 20 20:43 22.04.2020
4383 Clear -19 1026 76 10000 3 360 20:19 22.04.2020
4384 Clear -20 1026 76 10000 3 360 19:57 22.04.2020
4385 Clear -20 1026 76 10000 3 360 19:38 22.04.2020
4386 Clear -20 1026 76 10000 3 360 19:38 22.04.2020
4387 Clear -20 1026 84 10000 2 20 19:18 22.04.2020
4388 Clear -19 1026 84 10000 2 20 18:58 22.04.2020
4389 Clear -19 1026 84 10000 2 20 18:40 22.04.2020
4390 Clear -19 1026 84 10000 2 20 18:21 22.04.2020
4391 Clear -20 1026 83 10000 3 50 17:44 22.04.2020
4392 Clear -20 1026 83 10000 3 50 17:26 22.04.2020
4393 Clear -20 1026 83 10000 3 20 16:58 22.04.2020
4394 Clear -20 1026 83 10000 3 20 16:40 22.04.2020
4395 Clear -20 1026 83 10000 3 20 16:22 22.04.2020
4396 Clear -17 1026 84 10000 4 360 15:42 22.04.2020
4397 Clear -17 1026 84 10000 4 360 15:23 22.04.2020
4398 Clear -17 1027 84 10000 3 10 14:58 22.04.2020
4399 Clear -17 1027 84 10000 3 10 14:38 22.04.2020
4400 Clear -17 1027 84 10000 3 10 14:20 22.04.2020
4401 Clear -17 1027 84 10000 3 360 13:55 22.04.2020
4402 Clear -17 1027 84 10000 3 360 13:37 22.04.2020
4403 Clear -18 1027 83 10000 3 30 13:19 22.04.2020
4404 Clear -20 1027 83 10000 3 30 12:40 22.04.2020
4405 Clear -20 1027 83 10000 3 30 12:22 22.04.2020
4406 Clear -15 1027 84 10000 2 10 11:41 22.04.2020
4407 Clear -15 1027 84 10000 2 10 11:22 22.04.2020
4408 Clear -16 1027 84 10000 3 20 10:59 22.04.2020
4409 Clear -16 1027 84 10000 3 20 10:39 22.04.2020
4410 Clear -16 1027 84 10000 3 20 10:20 22.04.2020
4411 Clear -14 1026 84 10000 4 360 09:39 22.04.2020
4412 Clouds -14 1026 84 10000 4 360 09:21 22.04.2020
4413 Clouds -13 1026 84 10000 5 340 08:58 22.04.2020
4414 Clouds -13 1026 84 10000 5 340 08:40 22.04.2020
4415 Clouds -13 1026 84 10000 5 340 08:21 22.04.2020
4416 Clouds -12 1026 85 10000 6 350 07:53 22.04.2020
4417 Clouds -12 1026 85 10000 6 10 07:28 22.04.2020
4418 Clouds -12 1026 85 10000 6 350 06:53 22.04.2020
4419 Clouds -12 1026 85 10000 6 350 06:53 22.04.2020
4420 Clouds -12 1026 85 10000 5 330 06:18 22.04.2020
4421 Clouds -12 1026 85 10000 5 330 05:37 22.04.2020
4422 Clouds -13 1026 84 10000 3 340 04:20 22.04.2020
4423 Clouds -13 1026 84 10000 3 340 04:20 22.04.2020
4424 Clouds -14 1026 84 7000 4 340 02:50 22.04.2020
4425 Clouds -13 1026 84 10000 3 340 01:52 22.04.2020
4426 Clouds -14 1026 84 9000 3 330 01:25 22.04.2020
4427 Clouds -14 1026 84 10000 2 360 00:54 22.04.2020
4428 Clouds -14 1026 84 10000 4 340 00:36 22.04.2020
4429 Clouds -15 1026 84 10000 4 330 00:18 22.04.2020
4430 Clouds -16 1026 84 10000 4 320 23:41 21.04.2020
4431 Clouds -16 1026 84 10000 4 320 23:41 21.04.2020
4432 Clouds -16 1026 84 10000 4 320 23:19 21.04.2020
4433 Clouds -16 1026 84 10000 1 350 22:40 21.04.2020
4434 Clouds -16 1026 84 10000 1 350 22:22 21.04.2020
4435 Clouds -15 1026 84 8000 2 330 21:59 21.04.2020
4436 Clouds -15 1026 84 8000 2 330 21:41 21.04.2020
4437 Clear -15 1026 84 8000 2 330 21:22 21.04.2020
4438 Clear -19 1026 84 10000 2 40 20:56 21.04.2020
4439 Clear -19 1026 84 10000 2 40 20:38 21.04.2020
4440 Clear -19 1026 84 10000 2 40 20:20 21.04.2020
4441 Clear -20 1025 83 10000 2 50 19:41 21.04.2020
4442 Clear -20 1025 83 10000 2 50 19:20 21.04.2020
4443 Mist -17 1025 84 9000 2 330 18:58 21.04.2020
4444 Mist -17 1025 84 9000 2 330 18:39 21.04.2020
4445 Clear -17 1025 84 10000 3 30 18:19 21.04.2020
4446 Clear -16 1025 84 10000 3 30 17:56 21.04.2020
4447 Clear -16 1025 84 10000 3 30 17:37 21.04.2020
4448 Clear -16 1025 84 10000 2 30 17:18 21.04.2020
4449 Clear -15 1025 84 10000 2 30 16:39 21.04.2020
4450 Clear -15 1025 84 10000 2 30 16:19 21.04.2020
4451 Clear -15 1025 84 10000 2 30 16:19 21.04.2020
4452 Clear -15 1025 84 10000 2 30 16:19 21.04.2020
4453 Clear -15 1025 84 10000 2 330 15:57 21.04.2020
4454 Clear -15 1025 84 10000 2 330 15:39 21.04.2020
4455 Clear -15 1025 84 10000 2 330 15:21 21.04.2020
4456 Clear -17 1025 91 10000 2 340 14:57 21.04.2020
4457 Clear -17 1025 91 10000 2 340 14:39 21.04.2020
4458 Clear -17 1025 91 10000 2 340 14:21 21.04.2020
4459 Clear -16 1025 84 10000 2 20 13:42 21.04.2020
4460 Clear -16 1025 84 10000 2 20 13:42 21.04.2020
4461 Clear -16 1025 84 10000 2 20 13:23 21.04.2020
4462 Clear -18 1025 84 10000 2 360 12:57 21.04.2020
4463 Clear -18 1025 84 10000 2 360 12:37 21.04.2020
4464 Clear -15 1024 85 10000 2 320 12:18 21.04.2020
4465 Clear -12 1024 85 10000 2 320 11:55 21.04.2020
4466 Clear -12 1024 85 10000 2 320 11:36 21.04.2020
4467 Clear -13 1024 77 10000 4 20 11:18 21.04.2020
4468 Clear -15 1024 77 10000 4 20 10:56 21.04.2020
4469 Clear -15 1024 77 10000 4 20 10:38 21.04.2020
4470 Clear -14 1024 78 10000 3 20 10:19 21.04.2020
4471 Clear -13 1024 78 10000 3 20 09:37 21.04.2020
4472 Clear -13 1024 78 10000 3 20 09:19 21.04.2020
4473 Clear -10 1024 78 10000 4 10 08:57 21.04.2020
4474 Clear -10 1024 78 10000 4 10 08:38 21.04.2020
4475 Clear -10 1024 78 10000 3 20 08:19 21.04.2020
4476 Clear -10 1024 85 10000 4 20 07:43 21.04.2020
4477 Clear -11 1024 85 10000 4 20 07:22 21.04.2020
4478 Clear -10 1023 85 10000 3 360 06:47 21.04.2020
4479 Clear -10 1023 85 10000 3 360 06:20 21.04.2020
4480 Clear -10 1023 85 10000 3 360 05:48 21.04.2020
4481 Clear -10 1023 78 10000 3 330 04:19 21.04.2020
4482 Clear -10 1023 78 10000 2 340 03:42 21.04.2020
4483 Clear -10 1023 78 10000 2 350 01:46 21.04.2020
4484 Clear -11 1023 85 10000 2 340 00:58 21.04.2020
4485 Clear -9 1022 78 10000 2 360 00:33 21.04.2020
4486 Clouds -10 1022 78 10000 2 60 23:44 20.04.2020
4487 Clouds -11 1022 78 10000 2 60 23:25 20.04.2020
4488 Clouds -12 1022 78 10000 1 70 22:57 20.04.2020
4489 Clouds -13 1022 84 10000 2 50 22:38 20.04.2020
4490 Clouds -13 1022 84 10000 2 50 22:19 20.04.2020
4491 Clouds -16 1021 84 10000 2 50 21:57 20.04.2020
4492 Clouds -16 1021 84 10000 2 50 21:38 20.04.2020
4493 Clouds -16 1021 84 10000 1 60 21:19 20.04.2020
4494 Clouds -15 1021 84 10000 1 60 20:57 20.04.2020
4495 Clouds -15 1021 84 10000 1 60 20:38 20.04.2020
4496 Clouds -15 1020 77 10000 1 360 20:18 20.04.2020
4497 Clouds -15 1020 77 10000 1 360 20:18 20.04.2020
4498 Clouds -16 1020 77 10000 1 360 19:57 20.04.2020
4499 Clouds -16 1020 77 10000 1 360 19:38 20.04.2020
4500 Clouds -16 1020 84 10000 2.4 344 19:19 20.04.2020
4501 Clouds -15 1020 84 10000 2.4 344 18:42 20.04.2020
4502 Clouds -15 1020 84 10000 2.44 355 18:22 20.04.2020
4503 Clouds -15 1020 84 10000 1 80 17:56 20.04.2020
4504 Clouds -15 1020 84 10000 1 80 17:37 20.04.2020
4505 Clouds -14 1019 78 10000 4 30 17:19 20.04.2020
4506 Clouds -13 1019 78 10000 4 30 16:58 20.04.2020
4507 Clouds -13 1019 78 10000 4 30 16:39 20.04.2020
4508 Clouds -13 1019 78 10000 7 30 16:18 20.04.2020
4509 Clouds -13 1019 78 10000 7 30 15:43 20.04.2020
4510 Clouds -13 1019 78 10000 7 30 15:23 20.04.2020
4511 Clouds -16 1018 84 10000 2 40 14:56 20.04.2020
4512 Clouds -16 1018 84 10000 2 40 14:38 20.04.2020
4513 Clouds -14 1018 84 10000 2 90 14:18 20.04.2020
4514 Clouds -14 1018 84 10000 2 90 13:54 20.04.2020
4515 Clouds -14 1018 84 10000 2 90 13:36 20.04.2020
4516 Clouds -14 1018 84 10000 2 110 13:18 20.04.2020
4517 Clouds -14 1018 84 10000 2 110 12:42 20.04.2020
4518 Clouds -16 1018 84 10000 1 120 12:19 20.04.2020
4519 Clouds -12 1018 78 10000 2 210 11:41 20.04.2020
4520 Clouds -12 1018 78 10000 2 210 11:22 20.04.2020
4521 Clouds -10 1017 85 10000 4 170 10:57 20.04.2020
4522 Clouds -11 1017 85 10000 1 150 10:39 20.04.2020
4523 Clouds -11 1017 85 10000 1 150 10:19 20.04.2020
4524 Clouds -9 1017 72 10000 6 30 09:56 20.04.2020
4525 Clouds -8 1016 72 10000 5 10 09:37 20.04.2020
4526 Clouds -8 1016 72 10000 5 10 09:37 20.04.2020
4527 Clouds -8 1016 72 10000 5 10 09:19 20.04.2020
4528 Clouds -7 1016 73 10000 4 80 08:41 20.04.2020
4529 Clouds -7 1016 73 10000 4 80 08:22 20.04.2020
4530 Clouds -7 1016 73 10000 6 50 07:52 20.04.2020
4531 Clouds -7 1016 79 10000 3 70 07:29 20.04.2020
4532 Clouds -7 1015 79 10000 2 90 06:58 20.04.2020
4533 Clouds -7 1015 73 10000 3 80 06:36 20.04.2020
4534 Clouds -6 1015 73 10000 1 100 05:43 20.04.2020
4535 Clouds -7 1015 79 10000 3 230 04:21 20.04.2020
4536 Clouds -7 1015 73 10000 1 180 02:47 20.04.2020
4537 Fog -7 1014 79 10000 4 190 01:54 20.04.2020
4538 Fog -7 1014 79 10000 1 220 01:28 20.04.2020
4539 Snow -7 1014 79 10000 2 140 00:37 20.04.2020
4540 Snow -7 1014 79 10000 4.32 23 23:59 19.04.2020
4541 Snow -6 1014 79 10000 1 90 23:39 19.04.2020
4542 Snow -6 1014 79 10000 1 90 23:20 19.04.2020
4543 Snow -8 1014 85 10000 1 150 22:43 19.04.2020
4544 Snow -8 1014 85 10000 1 150 22:23 19.04.2020
4545 Snow -9 1013 92 4200 2 170 21:59 19.04.2020
4546 Snow -9 1013 92 4200 2 170 21:40 19.04.2020
4547 Snow -9 1013 92 4200 2 170 21:21 19.04.2020
4548 Snow -9 1013 85 7000 2 160 20:55 19.04.2020
4549 Snow -9 1013 85 7000 2 160 20:37 19.04.2020
4550 Snow -9 1013 85 7000 2 160 20:19 19.04.2020
4551 Snow -9 1013 92 6000 1 150 19:41 19.04.2020
4552 Snow -9 1013 92 6000 1 150 19:23 19.04.2020
4553 Snow -10 1013 92 10000 1 210 18:58 19.04.2020
4554 Snow -10 1013 92 10000 1 210 18:40 19.04.2020
4555 Snow -10 1013 92 10000 1 210 18:21 19.04.2020
4556 Snow -9 1013 85 8000 1 70 17:59 19.04.2020
4557 Snow -9 1013 85 8000 1 70 17:41 19.04.2020
4558 Snow -9 1013 85 8000 1 70 17:22 19.04.2020
4559 Snow -9 1013 85 4600 1 60 16:58 19.04.2020
4560 Snow -9 1013 85 4600 1 60 16:39 19.04.2020
4561 Snow -9 1013 85 4600 1 60 16:21 19.04.2020
4562 Snow -9 1013 85 6000 1 90 15:54 19.04.2020
4563 Snow -9 1013 85 6000 1 90 15:36 19.04.2020
4564 Snow -9 1013 85 3600 4.17 37 15:18 19.04.2020
4565 Snow -9 1013 85 3600 4.17 37 14:38 19.04.2020
4566 Snow -9 1013 85 3600 4.22 40 14:20 19.04.2020
4567 Snow -9 1013 85 3600 4.22 40 14:20 19.04.2020
4568 Snow -9 1013 85 2500 1 130 13:54 19.04.2020
4569 Snow -9 1013 85 2500 1 130 13:36 19.04.2020
4570 Snow -9 1013 85 2300 2 130 13:18 19.04.2020
4571 Snow -9 1013 85 2300 2 130 12:42 19.04.2020
4572 Snow -9 1013 85 2300 2 130 12:23 19.04.2020
4573 Snow -9 1013 85 8000 1 350 11:39 19.04.2020
4574 Snow -9 1013 85 8000 1 350 11:20 19.04.2020
4575 Snow -9 1013 85 2900 1 60 10:58 19.04.2020
4576 Snow -9 1013 85 2900 1 60 10:40 19.04.2020
4577 Snow -9 1013 85 2900 1 60 10:20 19.04.2020
4578 Snow -9 1013 85 10000 2 30 09:47 19.04.2020
4579 Snow -9 1013 85 10000 2 30 09:28 19.04.2020
4580 Snow -9 1013 85 0 1.79 120 08:59 19.04.2020
4581 Snow -9 1013 85 1500 6 30 08:38 19.04.2020
4582 Snow -9 1013 85 1500 6 30 08:18 19.04.2020
4583 Snow -9 1013 85 1500 6 30 07:44 19.04.2020
4584 Snow -9 1013 85 1500 6 30 07:24 19.04.2020
4585 Snow -9 1013 78 5000 11 40 06:32 19.04.2020
4586 Snow -10 1013 85 1500 14 40 05:58 19.04.2020
4587 Snow -10 1013 85 1000 16 40 04:54 19.04.2020
4588 Snow -10 1013 85 500 17 50 03:19 19.04.2020
4589 Snow -9 1014 85 400 16 50 02:22 19.04.2020
4590 Snow -9 1014 85 2900 6 20 01:39 19.04.2020
4591 Snow -10 1014 92 1200 6 10 00:50 19.04.2020
4592 Snow -10 1014 92 1200 6 10 00:26 19.04.2020
4593 Snow -10 1014 92 1400 9 10 23:59 18.04.2020
4594 Snow -10 1014 92 1400 9 10 23:39 18.04.2020
4595 Snow -10 1014 92 1400 9 10 23:39 18.04.2020
4596 Snow -10 1013 92 1100 13 30 23:19 18.04.2020
4597 Snow -10 1013 92 1100 13 30 22:42 18.04.2020
4598 Snow -10 1013 92 1100 13 30 22:22 18.04.2020
4599 Snow -10 1013 92 3100 8 10 21:58 18.04.2020
4600 Snow -10 1013 92 3100 8 10 21:38 18.04.2020
4601 Snow -10 1013 92 3100 8 10 21:20 18.04.2020
4602 Snow -9 1013 85 1800 8 10 20:42 18.04.2020
4603 Snow -9 1013 85 1800 8 10 20:23 18.04.2020
4604 Snow -9 1013 85 2600 8 20 19:59 18.04.2020
4605 Snow -9 1013 85 2600 8 20 19:39 18.04.2020
4606 Snow -9 1013 85 2600 8 20 19:21 18.04.2020
4607 Snow -9 1013 85 1400 8 10 18:39 18.04.2020
4608 Snow -9 1013 85 1400 8 10 18:20 18.04.2020
4609 Snow -9 1013 85 2000 9 20 17:56 18.04.2020
4610 Snow -9 1013 85 2000 9 20 17:56 18.04.2020
4611 Snow -9 1013 85 2000 9 20 17:38 18.04.2020
4612 Snow -9 1013 85 10000 8 20 17:18 18.04.2020
4613 Snow -8 1013 85 10000 8 20 16:42 18.04.2020
4614 Snow -8 1013 85 10000 8 20 16:22 18.04.2020
4615 Snow -9 1013 85 10000 6 10 15:55 18.04.2020
4616 Snow -9 1013 85 10000 6 10 15:37 18.04.2020
4617 Clouds -9 1014 85 10000 8 20 15:18 18.04.2020
4618 Clouds -9 1014 85 10000 8 20 14:41 18.04.2020
4619 Clouds -9 1014 85 10000 8 20 14:19 18.04.2020
4620 Clouds -9 1014 85 10000 8 20 13:43 18.04.2020
4621 Clouds -9 1014 85 10000 8 20 13:20 18.04.2020
4622 Clouds -8 1014 85 10000 7 10 12:43 18.04.2020
4623 Clouds -8 1014 85 10000 7 10 12:25 18.04.2020
4624 Clouds -8 1015 85 10000 5 360 11:59 18.04.2020
4625 Clouds -8 1015 85 10000 5 360 11:40 18.04.2020
4626 Clouds -8 1015 85 10000 5 360 11:21 18.04.2020
4627 Clouds -8 1015 85 10000 5 360 11:21 18.04.2020
4628 Snow -8 1015 85 10000 5 20 10:54 18.04.2020
4629 Snow -8 1015 85 10000 5 20 10:36 18.04.2020
4630 Snow -8 1015 79 10000 6 20 10:18 18.04.2020
4631 Snow -7 1015 79 10000 6 20 09:40 18.04.2020
4632 Snow -7 1015 79 10000 6 20 09:20 18.04.2020
4633 Clouds -7 1014 85 10000 6 10 08:43 18.04.2020
4634 Clouds -7 1014 85 10000 6 10 08:22 18.04.2020
4635 Clouds -7 1015 85 10000 6 20 07:49 18.04.2020
4636 Clouds -7 1015 85 10000 6 20 07:29 18.04.2020
4637 Clouds -7 1015 79 10000 5 30 06:49 18.04.2020
4638 Clouds -7 1015 79 10000 6 20 05:50 18.04.2020
4639 Clouds -8 1015 78 10000 2 20 04:57 18.04.2020
4640 Clouds -8 1015 78 10000 2 20 04:32 18.04.2020
4641 Clouds -9 1016 78 10000 5 360 03:43 18.04.2020
4642 Clouds -10 1016 85 10000 2 10 02:42 18.04.2020
4643 Clouds -10 1016 85 10000 2 10 02:21 18.04.2020
4644 Clouds -10 1016 85 10000 2 10 02:21 18.04.2020
4645 Clouds -10 1016 78 10000 6 360 01:45 18.04.2020
4646 Clouds -10 1016 78 10000 6 360 01:22 18.04.2020
4647 Clouds -11 1016 78 10000 6 320 00:37 18.04.2020
4648 Clouds -11 1016 78 10000 7 350 00:18 18.04.2020
4649 Clouds -12 1016 85 10000 7 340 23:41 17.04.2020
4650 Clouds -12 1016 85 10000 7 340 23:20 17.04.2020
4651 Clouds -12 1016 85 10000 7 10 22:59 17.04.2020
4652 Clouds -12 1016 85 10000 7 10 22:40 17.04.2020
4653 Clouds -12 1016 85 10000 7 10 22:20 17.04.2020
4654 Fog -15 1015 84 10000 4 350 21:58 17.04.2020
4655 Fog -15 1015 84 10000 4 350 21:39 17.04.2020
4656 Fog -15 1015 84 10000 4 350 21:19 17.04.2020
4657 Clouds -15 1015 84 7000 5 320 20:55 17.04.2020
4658 Clouds -15 1015 84 7000 5 320 20:36 17.04.2020
4659 Mist -15 1015 91 8000 4 350 20:18 17.04.2020
4660 Mist -16 1015 91 8000 4 350 19:55 17.04.2020
4661 Mist -16 1015 91 8000 4 350 19:37 17.04.2020
4662 Clouds -17 1015 84 10000 3 10 19:18 17.04.2020
4663 Clouds -17 1015 84 10000 3 10 18:40 17.04.2020
4664 Clouds -17 1015 84 10000 3 10 18:20 17.04.2020
4665 Clouds -17 1015 84 10000 3 350 17:38 17.04.2020
4666 Clouds -17 1015 84 10000 3 350 17:20 17.04.2020
4667 Clouds -17 1015 84 10000 3 350 17:20 17.04.2020
4668 Clouds -16 1014 84 10000 5 360 16:58 17.04.2020
4669 Clouds -16 1014 84 10000 5 360 16:39 17.04.2020
4670 Clouds -16 1014 84 10000 5 360 16:21 17.04.2020
4671 Clouds -16 1014 84 10000 1 360 15:39 17.04.2020
4672 Clouds -16 1014 84 10000 1 360 15:21 17.04.2020
4673 Clouds -16 1014 91 10000 3 10 14:42 17.04.2020
4674 Clouds -16 1014 91 10000 3 10 14:23 17.04.2020
4675 Clouds -15 1014 92 10000 2 30 13:59 17.04.2020
4676 Clouds -15 1014 92 10000 2 30 13:39 17.04.2020
4677 Clouds -15 1014 92 10000 2 30 13:20 17.04.2020
4678 Clouds -12 1014 85 10000 5 10 12:48 17.04.2020
4679 Clear -12 1014 85 10000 5 10 12:27 17.04.2020
4680 Clear -10 1014 85 10000 6 20 11:58 17.04.2020
4681 Clear -10 1014 85 10000 6 20 11:38 17.04.2020
4682 Clear -11 1013 92 10000 7 20 11:19 17.04.2020
4683 Clear -13 1013 92 10000 7 20 10:40 17.04.2020
4684 Clear -12 1013 92 10000 6 340 10:20 17.04.2020
4685 Clear -11 1013 92 10000 6 340 09:55 17.04.2020
4686 Clear -11 1013 92 10000 6 340 09:55 17.04.2020
4687 Clear -11 1013 92 10000 6 340 09:36 17.04.2020
4688 Clouds -9 1013 85 10000 4 10 09:18 17.04.2020
4689 Clouds -9 1013 85 10000 4 10 08:45 17.04.2020
4690 Clouds -9 1013 85 10000 4 10 08:26 17.04.2020
4691 Clouds -9 1013 85 10000 5 10 07:54 17.04.2020
4692 Clouds -8 1013 85 10000 5 10 07:36 17.04.2020
4693 Clouds -8 1013 85 10000 6 10 07:18 17.04.2020
4694 Clouds -8 1013 85 10000 7 10 06:28 17.04.2020
4695 Clouds -7 1013 79 10000 7 10 05:49 17.04.2020
4696 Clouds -8 1013 85 10000 8 360 03:22 17.04.2020
4697 Clouds -8 1014 85 10000 7 360 02:49 17.04.2020
4698 Clouds -9 1014 92 10000 7 350 01:30 17.04.2020
4699 Clouds -10 1014 92 10000 7 350 00:59 17.04.2020
4700 Clouds -10 1014 92 10000 5 340 00:20 17.04.2020
4701 Clouds -10 1014 92 10000 7 350 23:46 16.04.2020
4702 Clouds -10 1014 92 10000 7 350 23:24 16.04.2020
4703 Clouds -11 1014 92 10000 6 360 22:59 16.04.2020
4704 Mist -11 1014 92 4500 5 350 22:39 16.04.2020
4705 Mist -11 1014 92 4500 5 350 22:39 16.04.2020
4706 Mist -11 1014 92 4500 5 350 22:39 16.04.2020
4707 Mist -11 1014 92 4500 5 350 22:20 16.04.2020
4708 Mist -11 1013 92 1300 4 360 21:57 16.04.2020
4709 Mist -11 1013 92 1300 4 360 21:38 16.04.2020
4710 Mist -11 1013 92 1300 4 360 21:18 16.04.2020
4711 Clouds -10 1012 85 8000 4 10 20:41 16.04.2020
4712 Clouds -10 1012 85 8000 4 10 20:22 16.04.2020
4713 Clouds -9 1013 92 10000 4 360 19:57 16.04.2020
4714 Clouds -9 1013 92 10000 4 360 19:38 16.04.2020
4715 Clouds -10 1013 92 10000 4 340 19:19 16.04.2020
4716 Clouds -10 1013 92 10000 4 340 18:46 16.04.2020
4717 Clouds -10 1013 92 10000 4 340 18:27 16.04.2020
4718 Snow -10 1013 92 8000 3 290 17:59 16.04.2020
4719 Snow -10 1013 92 8000 3 290 17:40 16.04.2020
4720 Snow -10 1013 92 8000 3 290 17:21 16.04.2020
4721 Snow -7 1012 92 10000 5 330 16:45 16.04.2020
4722 Snow -7 1012 92 10000 5 330 16:26 16.04.2020
4723 Snow -6 1012 92 4400 6 360 15:59 16.04.2020
4724 Snow -6 1012 92 4400 6 360 15:39 16.04.2020
4725 Snow -6 1012 92 4400 6 360 15:19 16.04.2020
4726 Snow -6 1012 92 4400 6 360 15:19 16.04.2020
4727 Snow -5 1012 92 10000 6 10 14:56 16.04.2020
4728 Snow -5 1012 92 10000 6 10 14:37 16.04.2020
4729 Snow -5 1012 92 10000 6 10 14:37 16.04.2020
4730 Snow -5 1012 92 10000 6 10 14:18 16.04.2020
4731 Snow -5 1012 92 10000 7 20 13:42 16.04.2020
4732 Snow -5 1012 92 10000 7 20 13:23 16.04.2020
4733 Snow -5 1012 92 5000 4 20 12:58 16.04.2020
4734 Snow -5 1012 92 5000 4 20 12:39 16.04.2020
4735 Snow -5 1012 92 5000 4 20 12:39 16.04.2020
4736 Snow -5 1012 92 5000 4 20 12:20 16.04.2020
4737 Snow -5 1012 92 7000 5 10 11:59 16.04.2020
4738 Snow -5 1012 92 7000 5 10 11:41 16.04.2020
4739 Snow -5 1012 92 7000 5 10 11:21 16.04.2020
4740 Snow -5 1012 92 2500 5 360 10:56 16.04.2020
4741 Snow -5 1012 92 2500 5 360 10:38 16.04.2020
4742 Snow -5 1012 92 2500 5 360 10:18 16.04.2020
4743 Snow -5 1011 92 5000 5 350 09:54 16.04.2020
4744 Snow -5 1011 92 5000 5 350 09:36 16.04.2020
4745 Snow -5 1011 92 5000 5 350 09:18 16.04.2020
4746 Snow -5 1011 92 7000 6 10 08:41 16.04.2020
4747 Snow -5 1011 92 7000 6 10 08:21 16.04.2020
4748 Snow -5 1011 92 3700 6 360 07:46 16.04.2020
4749 Snow -5 1011 92 3700 6 360 07:26 16.04.2020
4750 Snow -5 1011 92 2200 6 360 06:43 16.04.2020
4751 Snow -5 1011 92 2200 6 360 06:24 16.04.2020
4752 Snow -5 1011 92 2700 5 360 05:34 16.04.2020
4753 Snow -5 1011 92 10000 4 360 03:49 16.04.2020
4754 Snow -5 1012 85 10000 4 350 03:23 16.04.2020
4755 Snow -6 1012 85 7000 3 340 02:47 16.04.2020
4756 Snow -7 1012 92 10000 3 350 02:28 16.04.2020
4757 Snow -8 1012 85 10000 3 350 01:18 16.04.2020
4758 Snow -9 1012 92 10000 3 350 00:28 16.04.2020
4759 Snow -9 1012 85 10000 2 350 23:58 15.04.2020
4760 Snow -9 1012 85 10000 3 340 23:40 15.04.2020
4761 Snow -9 1012 85 10000 3 340 23:21 15.04.2020
4762 Snow -10 1012 92 9000 3 330 22:40 15.04.2020
4763 Snow -10 1012 92 9000 3 330 22:22 15.04.2020
4764 Snow -10 1012 85 9000 3 330 21:59 15.04.2020
4765 Snow -10 1012 85 9000 3 330 21:40 15.04.2020
4766 Snow -10 1012 85 9000 3 330 21:22 15.04.2020
4767 Snow -10 1012 85 10000 2 330 20:57 15.04.2020
4768 Snow -10 1012 85 10000 2 330 20:39 15.04.2020
4769 Snow -10 1012 85 10000 2 330 20:21 15.04.2020
4770 Snow -10 1012 85 10000 4 330 19:45 15.04.2020
4771 Clouds -10 1012 85 10000 3 330 19:21 15.04.2020
4772 Clouds -10 1012 85 10000 3 330 18:56 15.04.2020
4773 Clouds -10 1012 85 10000 3 330 18:56 15.04.2020
4774 Clouds -10 1012 85 10000 3 330 18:37 15.04.2020
4775 Snow -10 1012 85 10000 3 350 18:19 15.04.2020
4776 Snow -10 1012 85 10000 3 350 17:40 15.04.2020
4777 Snow -10 1012 85 10000 3 350 17:40 15.04.2020
4778 Snow -10 1012 85 10000 3 350 17:21 15.04.2020
4779 Snow -10 1012 85 10000 3 340 16:58 15.04.2020
4780 Snow -10 1012 85 10000 3 340 16:39 15.04.2020
4781 Snow -10 1012 85 10000 3 340 16:20 15.04.2020
4782 Snow -10 1013 92 9000 3 350 15:59 15.04.2020
4783 Snow -10 1013 92 9000 3 350 15:59 15.04.2020
4784 Snow -10 1013 92 9000 3 350 15:40 15.04.2020
4785 Snow -10 1013 92 9000 3 350 15:40 15.04.2020
4786 Snow -10 1013 92 9000 3 350 15:20 15.04.2020
4787 Snow -10 1013 85 10000 3 350 14:59 15.04.2020
4788 Snow -10 1013 85 10000 3 350 14:40 15.04.2020
4789 Snow -10 1013 85 10000 3 350 14:22 15.04.2020
4790 Clouds -9 1013 85 10000 2 360 13:58 15.04.2020
4791 Clouds -9 1013 85 10000 2 360 13:39 15.04.2020
4792 Snow -9 1013 85 10000 2 320 13:21 15.04.2020
4793 Snow -9 1013 85 10000 2 320 12:57 15.04.2020
4794 Snow -9 1013 85 10000 2 320 12:39 15.04.2020
4795 Clouds -9 1013 85 10000 4 350 12:21 15.04.2020
4796 Clouds -9 1013 85 10000 4 350 11:45 15.04.2020
4797 Clouds -9 1013 85 10000 4 350 11:25 15.04.2020
4798 Clouds -9 1013 85 10000 3 340 10:59 15.04.2020
4799 Clouds -9 1013 85 10000 3 340 10:37 15.04.2020
4800 Clouds -9 1013 85 10000 3 340 10:19 15.04.2020
4801 Clouds -9 1013 85 10000 2 360 09:55 15.04.2020
4802 Clouds -9 1013 85 10000 2 360 09:37 15.04.2020
4803 Clouds -9 1013 85 10000 2 360 09:19 15.04.2020
4804 Clouds -9 1013 85 10000 3 340 08:42 15.04.2020
4805 Clouds -9 1013 85 10000 3 340 08:23 15.04.2020
4806 Clouds -9 1013 85 10000 3 330 07:57 15.04.2020
4807 Clouds -9 1013 85 10000 4 340 07:38 15.04.2020
4808 Clouds -9 1013 85 10000 4 350 06:59 15.04.2020
4809 Clouds -9 1013 85 10000 4 360 06:24 15.04.2020
4810 Clouds -9 1013 85 10000 5 360 05:23 15.04.2020
4811 Clouds -10 1014 85 10000 6 350 04:46 15.04.2020
4812 Clouds -10 1014 85 10000 6 350 04:18 15.04.2020
4813 Clouds -10 1014 78 10000 6 330 03:22 15.04.2020
4814 Clouds -11 1014 78 10000 5 340 02:40 15.04.2020
4815 Clouds -11 1015 78 10000 5 340 01:50 15.04.2020
4816 Clouds -12 1015 85 10000 4 350 01:24 15.04.2020
4817 Clouds -12 1015 78 10000 3 340 00:46 15.04.2020
4818 Snow -12 1015 78 10000 3 340 00:23 15.04.2020
4819 Snow -12 1016 85 10000 2 360 23:55 14.04.2020
4820 Snow -12 1016 85 10000 3 340 23:37 14.04.2020
4821 Snow -12 1016 85 10000 3 340 23:18 14.04.2020
4822 Snow -12 1016 85 10000 5 360 22:56 14.04.2020
4823 Clouds -12 1016 85 10000 3 50 22:38 14.04.2020
4824 Clouds -12 1016 85 10000 3 50 22:19 14.04.2020
4825 Clouds -13 1017 84 10000 3 20 21:55 14.04.2020
4826 Clouds -13 1017 84 10000 3 20 21:37 14.04.2020
4827 Clouds -13 1017 84 10000 3 20 21:37 14.04.2020
4828 Clouds -13 1017 84 10000 3 20 21:18 14.04.2020
4829 Clouds -13 1017 84 10000 3 350 20:41 14.04.2020
4830 Clouds -13 1017 84 10000 3 350 20:23 14.04.2020
4831 Clouds -12 1017 85 10000 2 330 19:59 14.04.2020
4832 Clouds -12 1017 85 10000 2 330 19:40 14.04.2020
4833 Clouds -12 1017 85 10000 2 330 19:21 14.04.2020
4834 Clouds -13 1018 84 10000 3 360 18:57 14.04.2020
4835 Clouds -13 1018 84 10000 3 360 18:39 14.04.2020
4836 Clouds -13 1018 84 10000 3 360 18:19 14.04.2020
4837 Clouds -13 1018 84 10000 3 10 17:56 14.04.2020
4838 Clouds -13 1018 84 10000 3 10 17:37 14.04.2020
4839 Clouds -13 1018 84 10000 3 10 17:37 14.04.2020
4840 Clouds -13 1018 84 10000 3 10 17:37 14.04.2020
4841 Clouds -13 1018 84 10000 3 10 17:19 14.04.2020
4842 Clouds -13 1019 92 10000 3 360 16:42 14.04.2020
4843 Clouds -13 1019 92 10000 3 360 16:24 14.04.2020
4844 Snow -11 1019 85 10000 2 360 15:58 14.04.2020
4845 Snow -11 1019 85 10000 2 360 15:39 14.04.2020
4846 Clouds -11 1019 85 10000 2 360 15:21 14.04.2020
4847 Clouds -9 1019 85 10000 3 360 14:58 14.04.2020
4848 Clouds -9 1019 85 10000 3 360 14:40 14.04.2020
4849 Clouds -9 1019 85 10000 3 360 14:21 14.04.2020
4850 Clouds -9 1019 85 10000 3 360 14:21 14.04.2020
4851 Clouds -7 1020 79 10000 3 40 13:56 14.04.2020
4852 Clouds -7 1020 79 10000 3 40 13:37 14.04.2020
4853 Clouds -8 1021 85 10000 2 360 13:19 14.04.2020
4854 Clouds -8 1021 85 10000 2 360 12:41 14.04.2020
4855 Clouds -8 1021 85 10000 2 360 12:21 14.04.2020
4856 Clouds -8 1021 85 10000 2 360 12:21 14.04.2020
4857 Clouds -7 1021 85 10000 1 350 11:55 14.04.2020
4858 Clouds -7 1021 85 10000 1 350 11:37 14.04.2020
4859 Clouds -7 1021 85 10000 1 350 11:18 14.04.2020
4860 Clouds -8 1021 85 10000 1.95 26 10:43 14.04.2020
4861 Clouds -8 1021 85 10000 1.95 26 10:23 14.04.2020
4862 Clouds -8 1021 85 0 2.68 350 09:43 14.04.2020
4863 Clouds -8 1021 85 10000 2 340 09:25 14.04.2020
4864 Clouds -8 1020 85 10000 2 30 08:59 14.04.2020
4865 Clouds -8 1020 85 10000 3 20 08:41 14.04.2020
4866 Clouds -8 1020 85 10000 3 20 08:22 14.04.2020
4867 Clouds -8 1020 85 10000 3 10 07:53 14.04.2020
4868 Clouds -8 1020 85 10000 3 10 07:53 14.04.2020
4869 Clouds -8 1021 85 10000 3 10 07:30 14.04.2020
4870 Clouds -8 1021 85 10000 3 20 06:48 14.04.2020
4871 Clouds -8 1020 85 10000 2 360 05:55 14.04.2020
4872 Clouds -8 1021 91 0 1.64 10 03:52 14.04.2020
4873 Clouds -8 1020 78 10000 3 20 02:54 14.04.2020
4874 Clouds -10 1020 85 10000 4 20 01:39 14.04.2020
4875 Clouds -10 1020 85 10000 3 10 01:18 14.04.2020
4876 Clouds -10 1020 78 10000 3 360 00:36 14.04.2020
4877 Snow -10 1019 78 9000 2 340 00:18 14.04.2020
4878 Snow -11 1019 78 9000 2 340 23:40 13.04.2020
4879 Snow -11 1019 78 9000 2 340 23:22 13.04.2020
4880 Snow -12 1019 85 10000 2 310 22:56 13.04.2020
4881 Snow -12 1019 78 5000 1 280 22:38 13.04.2020
4882 Snow -12 1019 78 5000 1 280 22:20 13.04.2020
4883 Snow -12 1018 78 10000 2 330 21:55 13.04.2020
4884 Snow -12 1018 78 10000 2 330 21:36 13.04.2020
4885 Snow -12 1018 78 10000 2 330 21:18 13.04.2020
4886 Clouds -12 1018 78 10000 4 350 20:41 13.04.2020
4887 Clouds -12 1018 78 10000 4 350 20:20 13.04.2020
4888 Clouds -13 1017 84 10000 3 350 19:59 13.04.2020
4889 Clouds -13 1017 84 10000 3 350 19:37 13.04.2020
4890 Clouds -13 1017 84 10000 3 350 19:37 13.04.2020
4891 Clouds -13 1017 84 10000 3 350 19:37 13.04.2020
4892 Clouds -13 1017 84 10000 3 350 19:37 13.04.2020
4893 Clouds -13 1017 84 10000 4 10 19:19 13.04.2020
4894 Clouds -13 1017 84 10000 4 10 18:58 13.04.2020
4895 Clouds -13 1017 84 10000 4 10 18:38 13.04.2020
4896 Clouds -13 1017 78 10000 3 330 18:19 13.04.2020
4897 Clouds -13 1017 78 10000 3 330 17:58 13.04.2020
4898 Clouds -13 1017 78 10000 3 330 17:37 13.04.2020
4899 Clouds -13 1017 78 10000 3 330 17:19 13.04.2020
4900 Clouds -14 1016 77 10000 3 340 16:58 13.04.2020
4901 Clouds -14 1016 77 10000 3 340 16:39 13.04.2020
4902 Clouds -14 1016 77 10000 3 340 16:20 13.04.2020
4903 Clouds -14 1016 84 10000 3 10 15:57 13.04.2020
4904 Clouds -14 1016 84 10000 3 10 15:38 13.04.2020
4905 Clouds -14 1016 84 10000 3 10 15:20 13.04.2020
4906 Clouds -16 1016 84 10000 4 30 14:42 13.04.2020
4907 Clouds -16 1016 84 10000 4 30 14:24 13.04.2020
4908 Clouds -15 1016 84 10000 4 10 13:57 13.04.2020
4909 Clouds -15 1016 84 10000 4 10 13:39 13.04.2020
4910 Clouds -15 1016 84 10000 4 10 13:21 13.04.2020
4911 Clouds -16 1016 91 10000 3 20 12:59 13.04.2020
4912 Clouds -16 1016 91 10000 3 20 12:40 13.04.2020
4913 Clouds -16 1016 91 10000 3 20 12:20 13.04.2020
4914 Clouds -16 1015 84 10000 2 20 11:58 13.04.2020
4915 Clouds -16 1015 84 10000 2 20 11:40 13.04.2020
4916 Clouds -16 1015 84 10000 2 20 11:18 13.04.2020
4917 Clouds -16 1015 84 10000 3 30 10:55 13.04.2020
4918 Clouds -15 1015 84 10000 4 10 10:37 13.04.2020
4919 Clouds -15 1015 84 10000 4 10 10:18 13.04.2020
4920 Clouds -14 1015 78 10000 2 340 09:44 13.04.2020
4921 Clouds -13 1015 78 10000 2 340 09:26 13.04.2020
4922 Clouds -13 1014 78 10000 5 350 08:47 13.04.2020
4923 Clouds -13 1014 84 10000 7 340 08:28 13.04.2020
4924 Clouds -13 1014 84 10000 6 360 07:58 13.04.2020
4925 Clouds -12 1014 78 10000 6 340 07:38 13.04.2020
4926 Clouds -12 1014 78 10000 6 340 07:19 13.04.2020
4927 Clouds -12 1014 78 10000 6 340 06:46 13.04.2020
4928 Clouds -12 1014 78 10000 6 340 05:53 13.04.2020
4929 Clouds -13 1014 84 10000 6 340 05:27 13.04.2020
4930 Clouds -13 1013 78 10000 7 340 04:50 13.04.2020
4931 Clouds -13 1014 78 10000 6 360 04:20 13.04.2020
4932 Clouds -14 1014 84 10000 7 350 03:43 13.04.2020
4933 Clouds -14 1014 77 10000 6 340 02:48 13.04.2020
4934 Clouds -14 1013 77 10000 6 350 01:48 13.04.2020
4935 Fog -15 1014 84 10000 6 350 01:30 13.04.2020
4936 Clouds -16 1014 84 10000 6 340 00:51 13.04.2020
4937 Mist -16 1014 84 4300 6 340 00:30 13.04.2020
4938 Mist -16 1014 84 2200 6 320 23:57 12.04.2020
4939 Mist -16 1014 84 1600 6 350 23:39 12.04.2020
4940 Mist -16 1014 84 1600 6 350 23:20 12.04.2020
4941 Mist -16 1013 84 1500 6 340 22:55 12.04.2020
4942 Mist -15 1013 84 10000 7 350 22:36 12.04.2020
4943 Mist -15 1013 84 10000 7 350 22:18 12.04.2020
4944 Fog -14 1013 84 10000 8 360 21:38 12.04.2020
4945 Fog -14 1013 84 10000 8 360 21:20 12.04.2020
4946 Fog -14 1013 84 10000 8 350 20:44 12.04.2020
4947 Fog -14 1013 84 10000 8 350 20:44 12.04.2020
4948 Fog -14 1013 84 10000 8 350 20:24 12.04.2020
4949 Clouds -14 1013 84 10000 7 350 19:59 12.04.2020
4950 Clouds -14 1013 84 10000 7 350 19:41 12.04.2020
4951 Clouds -14 1014 84 10000 7 350 19:19 12.04.2020
4952 Clouds -14 1014 84 10000 7 350 18:58 12.04.2020
4953 Clouds -14 1014 84 10000 7 350 18:58 12.04.2020
4954 Clouds -14 1014 84 10000 7 350 18:39 12.04.2020
4955 Clouds -14 1014 84 10000 7 350 18:19 12.04.2020
4956 Clouds -14 1014 84 10000 7 350 17:55 12.04.2020
4957 Clouds -14 1014 84 10000 7 350 17:37 12.04.2020
4958 Clouds -14 1014 84 10000 7 350 17:18 12.04.2020
4959 Clouds -14 1014 84 10000 7 340 16:41 12.04.2020
4960 Clouds -14 1014 84 10000 7 340 16:22 12.04.2020
4961 Clouds -13 1014 84 10000 7 340 15:53 12.04.2020
4962 Clouds -13 1014 84 10000 7 340 15:35 12.04.2020
4963 Clouds -13 1014 84 10000 6 340 14:58 12.04.2020
4964 Clouds -13 1014 84 10000 6 340 14:39 12.04.2020
4965 Clouds -13 1014 84 10000 6 340 14:20 12.04.2020
4966 Clouds -13 1015 84 10000 5 340 13:55 12.04.2020
4967 Clouds -13 1015 84 10000 5 340 13:36 12.04.2020
4968 Clouds -12 1015 78 10000 5 340 13:18 12.04.2020
4969 Clouds -12 1015 78 10000 5 340 13:18 12.04.2020
4970 Clouds -12 1015 78 10000 5 340 12:45 12.04.2020
4971 Clouds -12 1015 78 10000 5 340 12:21 12.04.2020
4972 Clouds -12 1015 78 10000 5 340 11:57 12.04.2020
4973 Clouds -12 1015 78 10000 5 340 11:37 12.04.2020
4974 Clouds -12 1015 78 10000 5 340 11:18 12.04.2020
4975 Clouds -12 1015 78 10000 6 340 10:55 12.04.2020
4976 Clouds -12 1015 78 10000 6 340 10:37 12.04.2020
4977 Clouds -12 1015 78 10000 6 340 10:18 12.04.2020
4978 Clouds -12 1015 78 10000 7 340 09:55 12.04.2020
4979 Clouds -12 1015 78 10000 7 340 09:37 12.04.2020
4980 Clouds -12 1015 78 10000 7 340 09:19 12.04.2020
4981 Clouds -12 1015 78 10000 6 340 08:47 12.04.2020
4982 Clouds -12 1015 78 10000 6 340 08:28 12.04.2020
4983 Clouds -12 1015 78 10000 5 340 07:46 12.04.2020
4984 Clouds -12 1016 78 10000 6 340 07:19 12.04.2020
4985 Clouds -12 1016 78 10000 6 340 06:37 12.04.2020
4986 Clouds -13 1015 84 10000 6 340 06:00 12.04.2020
4987 Clouds -13 1015 84 10000 6 340 05:41 12.04.2020
4988 Clouds -13 1016 78 10000 6 330 03:48 12.04.2020
4989 Clouds -13 1016 78 10000 6 330 03:25 12.04.2020
4990 Clouds -14 1016 77 10000 6 330 02:35 12.04.2020
4991 Clouds -15 1016 84 10000 6 340 01:53 12.04.2020
4992 Clear -15 1017 77 10000 5 350 01:19 12.04.2020
4993 Clear -15 1017 77 10000 5 350 00:42 12.04.2020
4994 Clear -15 1017 77 10000 5 350 00:20 12.04.2020
4995 Clear -16 1017 84 10000 7 330 23:47 11.04.2020
4996 Clear -16 1017 84 10000 7 330 23:26 11.04.2020
4997 Clear -16 1016 84 10000 7 330 22:55 11.04.2020
4998 Clear -16 1016 84 10000 7 330 22:36 11.04.2020
4999 Clear -16 1016 84 10000 7 330 22:18 11.04.2020
5000 Clouds -17 1016 84 10000 6 340 21:54 11.04.2020
5001 Clouds -17 1016 84 10000 6 340 21:54 11.04.2020
5002 Clouds -17 1016 84 10000 6 340 21:36 11.04.2020
5003 Clouds -17 1016 84 10000 6 340 21:18 11.04.2020
5004 Clouds -17 1016 84 10000 6 340 21:18 11.04.2020
5005 Clouds -17 1016 84 10000 7 330 20:54 11.04.2020
5006 Clouds -17 1016 84 10000 7 330 20:54 11.04.2020
5007 Clouds -17 1016 84 10000 7 330 20:36 11.04.2020
5008 Clouds -17 1016 84 10000 7 330 20:36 11.04.2020
5009 Clouds -17 1016 84 10000 7 330 20:18 11.04.2020
5010 Clouds -17 1016 84 10000 6 340 19:54 11.04.2020
5011 Clouds -17 1016 84 10000 6 340 19:36 11.04.2020
5012 Clear -16 1016 77 10000 7 330 19:18 11.04.2020
5013 Clear -15 1016 77 10000 7 330 18:54 11.04.2020
5014 Clear -15 1016 77 10000 7 330 18:54 11.04.2020
5015 Clear -15 1016 77 10000 7 330 18:36 11.04.2020
5016 Clear -16 1016 84 10000 6 320 18:18 11.04.2020
5017 Clear -16 1016 84 10000 6 320 18:18 11.04.2020
5018 Clear -16 1016 84 10000 6 320 17:55 11.04.2020
5019 Clear -16 1016 84 10000 6 320 17:36 11.04.2020
5020 Clear -16 1016 84 10000 6 320 17:18 11.04.2020
5021 Clear -17 1016 84 10000 6 320 16:41 11.04.2020
5022 Clear -17 1016 84 10000 6 320 16:21 11.04.2020
5023 Clouds -17 1016 77 10000 6 360 15:40 11.04.2020
5024 Clouds -17 1016 77 10000 6 360 15:20 11.04.2020
5025 Clouds -17 1017 77 10000 4 340 14:57 11.04.2020
5026 Clouds -17 1017 77 10000 4 340 14:39 11.04.2020
5027 Clouds -18 1017 84 10000 3 340 14:20 11.04.2020
5028 Clouds -18 1017 84 10000 3 340 13:42 11.04.2020
5029 Clouds -18 1017 84 10000 3 340 13:24 11.04.2020
5030 Clouds -17 1017 77 10000 7 330 12:59 11.04.2020
5031 Clouds -17 1017 77 10000 7 330 12:37 11.04.2020
5032 Clouds -17 1017 84 10000 6 340 12:18 11.04.2020
5033 Clouds -17 1017 84 10000 6 340 11:42 11.04.2020
5034 Clouds -17 1017 84 10000 6 340 11:20 11.04.2020
5035 Clouds -15 1017 77 10000 8 350 10:56 11.04.2020
5036 Clouds -15 1017 77 10000 8 350 10:37 11.04.2020
5037 Clouds -15 1017 77 10000 8 350 10:19 11.04.2020
5038 Clouds -15 1017 77 10000 7 350 09:57 11.04.2020
5039 Clouds -16 1017 84 10000 7 360 09:37 11.04.2020
5040 Clouds -16 1017 84 10000 7 360 09:37 11.04.2020
5041 Clouds -16 1017 84 10000 7 360 09:18 11.04.2020
5042 Clouds -16 1018 77 10000 7 360 08:42 11.04.2020
5043 Clouds -16 1018 77 10000 7 360 08:23 11.04.2020
5044 Clouds -17 1018 84 10000 7 360 07:48 11.04.2020
5045 Clouds -17 1018 84 10000 7 360 07:27 11.04.2020
5046 Clouds -13 1018 71 10000 6 360 06:42 11.04.2020
5047 Clouds -14 1019 77 10000 6 350 05:58 11.04.2020
5048 Clouds -15 1020 77 10000 7 360 04:31 11.04.2020
5049 Clouds -18 1021 84 10000 7 360 03:30 11.04.2020
5050 Clear -18 1022 77 10000 4 50 01:41 11.04.2020
5051 Clear -18 1023 84 10000 3 30 01:18 11.04.2020
5052 Clear -19 1023 84 10000 3 30 00:42 11.04.2020
5053 Clear -20 1023 83 10000 4 350 00:18 11.04.2020
5054 Clear -22 1023 83 10000 4 350 23:54 10.04.2020
5055 Clear -22 1023 83 10000 4 350 23:36 10.04.2020
5056 Clear -22 1023 83 10000 4 350 23:36 10.04.2020
5057 Clear -22 1023 83 10000 4 350 23:18 10.04.2020
5058 Clear -22 1023 83 10000 2 20 22:42 10.04.2020
5059 Clear -22 1023 83 10000 2 20 22:20 10.04.2020
5060 Clouds -21 1023 83 10000 3 360 21:42 10.04.2020
5061 Clouds -21 1023 83 10000 3 360 21:22 10.04.2020
5062 Clouds -22 1023 76 10000 2 30 20:59 10.04.2020
5063 Clouds -22 1023 76 10000 2 30 20:41 10.04.2020
5064 Clouds -22 1023 76 10000 2 30 20:23 10.04.2020
5065 Clouds -23 1024 83 10000 2 10 19:57 10.04.2020
5066 Clouds -23 1024 83 10000 2 10 19:57 10.04.2020
5067 Clouds -23 1024 83 10000 2 10 19:39 10.04.2020
5068 Clouds -22 1024 83 10000 1 30 19:20 10.04.2020
5069 Clouds -21 1024 83 10000 1 30 18:57 10.04.2020
5070 Clouds -21 1024 83 10000 1 30 18:38 10.04.2020
5071 Clouds -21 1024 83 10000 1 30 18:20 10.04.2020
5072 Snow -22 1024 83 10000 3 350 17:58 10.04.2020
5073 Snow -22 1024 83 10000 3 350 17:39 10.04.2020
5074 Snow -22 1024 83 10000 3 350 17:20 10.04.2020
5075 Snow -20 1024 76 7000 2 350 16:55 10.04.2020
5076 Snow -20 1024 76 7000 2 350 16:36 10.04.2020
5077 Snow -20 1024 76 7000 2 350 16:18 10.04.2020
5078 Snow -20 1024 83 9000 3 30 15:54 10.04.2020
5079 Snow -20 1024 83 9000 3 30 15:36 10.04.2020
5080 Snow -20 1024 83 9000 3 30 15:18 10.04.2020
5081 Snow -21 1024 83 10000 3 10 14:42 10.04.2020
5082 Snow -21 1024 83 10000 3 10 14:23 10.04.2020
5083 Snow -21 1024 83 10000 2 20 13:57 10.04.2020
5084 Snow -21 1024 83 10000 2 20 13:39 10.04.2020
5085 Snow -21 1024 83 10000 2 20 13:20 10.04.2020
5086 Snow -21 1024 76 10000 3 20 12:43 10.04.2020
5087 Snow -21 1024 76 10000 3 20 12:23 10.04.2020
5088 Clouds -21 1024 83 10000 2 40 11:55 10.04.2020
5089 Clouds -21 1024 83 10000 2 40 11:37 10.04.2020
5090 Clouds -21 1024 83 10000 2 40 11:18 10.04.2020
5091 Clouds -21 1023 83 10000 3 10 10:43 10.04.2020
5092 Clouds -21 1023 83 10000 3 10 10:23 10.04.2020
5093 Snow -18 1023 77 10000 2 360 09:56 10.04.2020
5094 Snow -18 1023 77 10000 2 360 09:38 10.04.2020
5095 Snow -18 1023 77 10000 2 360 09:18 10.04.2020
5096 Clouds -18 1023 77 10000 3 350 08:42 10.04.2020
5097 Clouds -18 1023 77 10000 3 350 08:21 10.04.2020
5098 Clouds -17 1022 77 10000 2 10 07:45 10.04.2020
5099 Clouds -17 1022 77 10000 2 10 07:23 10.04.2020
5100 Clouds -17 1022 77 10000 3 350 06:48 10.04.2020
5101 Clouds -17 1022 77 10000 3 350 06:27 10.04.2020
5102 Clouds -17 1021 77 10000 3 360 05:40 10.04.2020
5103 Clouds -17 1021 77 10000 3 350 04:57 10.04.2020
5104 Clouds -18 1021 84 10000 3 340 03:45 10.04.2020
5105 Clouds -18 1021 84 10000 3 340 03:24 10.04.2020
5106 Snow -17 1021 77 10000 3 350 02:48 10.04.2020
5107 Clouds -17 1021 77 10000 2 340 02:28 10.04.2020
5108 Snow -18 1021 84 10000 2 330 01:30 10.04.2020
5109 Snow -18 1020 77 10000 3 340 00:49 10.04.2020
5110 Snow -18 1020 77 10000 3 340 00:23 10.04.2020
5111 Snow -18 1020 77 6000 3 360 23:55 09.04.2020
5112 Snow -19 1020 84 3100 2 340 23:37 09.04.2020
5113 Snow -19 1020 84 3100 2 340 23:19 09.04.2020
5114 Snow -19 1020 84 10000 2 20 22:41 09.04.2020
5115 Snow -19 1020 84 10000 2 20 22:22 09.04.2020
5116 Snow -20 1019 83 10000 2 30 21:45 09.04.2020
5117 Snow -20 1019 83 10000 2 30 21:26 09.04.2020
5118 Snow -21 1019 83 4700 2 330 20:59 09.04.2020
5119 Snow -21 1019 83 4700 2 330 20:40 09.04.2020
5120 Snow -21 1019 83 4700 2 330 20:20 09.04.2020
5121 Clouds -19 1018 84 10000 1 10 19:56 09.04.2020
5122 Clouds -19 1018 84 10000 1 10 19:36 09.04.2020
5123 Snow -19 1018 84 10000 1 20 19:18 09.04.2020
5124 Snow -18 1018 84 10000 1 20 18:41 09.04.2020
5125 Snow -17 1018 84 10000 2 310 18:18 09.04.2020
5126 Snow -17 1018 84 10000 2 310 17:40 09.04.2020
5127 Snow -17 1018 84 10000 2 310 17:22 09.04.2020
5128 Clouds -16 1017 77 10000 3 40 16:56 09.04.2020
5129 Clouds -16 1017 77 10000 3 40 16:37 09.04.2020
5130 Clouds -16 1017 77 10000 3 40 16:37 09.04.2020
5131 Clouds -16 1017 77 10000 3 40 16:18 09.04.2020
5132 Clouds -16 1017 84 10000 3 360 15:54 09.04.2020
5133 Clouds -16 1017 84 10000 3 360 15:36 09.04.2020
5134 Clouds -16 1017 84 10000 3 360 15:18 09.04.2020
5135 Clouds -18 1017 84 9000 3 40 14:39 09.04.2020
5136 Clouds -18 1017 84 9000 3 40 14:20 09.04.2020
5137 Snow -17 1017 77 10000 2 350 13:43 09.04.2020
5138 Snow -17 1017 77 10000 2 350 13:24 09.04.2020
5139 Clouds -17 1016 84 10000 1.33 6 12:59 09.04.2020
5140 Clouds -17 1016 84 10000 1.33 6 12:40 09.04.2020
5141 Clouds -17 1016 84 10000 0.98 10 12:21 09.04.2020
5142 Clouds -16 1016 77 10000 1 360 11:56 09.04.2020
5143 Clouds -16 1016 77 10000 1 360 11:37 09.04.2020
5144 Clouds -16 1016 77 10000 1 360 11:19 09.04.2020
5145 Clouds -15 1015 77 10000 1 330 10:55 09.04.2020
5146 Clouds -15 1015 77 10000 1 330 10:37 09.04.2020
5147 Clouds -15 1015 77 10000 1 330 10:37 09.04.2020
5148 Clouds -15 1015 77 10000 1 330 10:18 09.04.2020
5149 Clouds -14 1015 77 10000 1 10 09:40 09.04.2020
5150 Clouds -14 1015 77 10000 1 10 09:21 09.04.2020
5151 Clouds -14 1015 84 10000 2 80 08:58 09.04.2020
5152 Clouds -14 1015 84 10000 2 80 08:40 09.04.2020
5153 Clouds -14 1015 84 10000 2 80 08:21 09.04.2020
5154 Clouds -13 1014 84 10000 3 300 07:46 09.04.2020
5155 Clouds -13 1014 78 10000 3 310 07:21 09.04.2020
5156 Clouds -13 1014 84 10000 2 340 06:48 09.04.2020
5157 Clouds -13 1014 84 10000 2 340 06:48 09.04.2020
5158 Clouds -12 1014 78 10000 3 50 05:49 09.04.2020
5159 Clouds -12 1014 78 10000 3 50 05:26 09.04.2020
5160 Clouds -11 1014 72 10000 2 360 02:37 09.04.2020
5161 Clouds -11 1013 72 10000 2 330 01:57 09.04.2020
5162 Clouds -11 1013 72 10000 2 360 01:37 09.04.2020
5163 Clouds -11 1013 72 10000 2 10 01:19 09.04.2020
5164 Clouds -12 1013 78 10000 3 10 00:38 09.04.2020
5165 Clouds -12 1013 72 10000 2 30 00:18 09.04.2020
5166 Clouds -12 1013 72 10000 2 20 23:42 08.04.2020
5167 Clouds -13 1013 78 10000 4 20 23:23 08.04.2020
5168 Clouds -13 1013 78 10000 4 20 22:56 08.04.2020
5169 Clouds -13 1013 78 10000 4 20 22:38 08.04.2020
5170 Snow -14 1013 77 10000 4 10 22:19 08.04.2020
5171 Snow -14 1013 77 10000 4 10 21:55 08.04.2020
5172 Snow -14 1013 77 10000 4 10 21:37 08.04.2020
5173 Snow -14 1013 77 10000 4 10 21:37 08.04.2020
5174 Snow -14 1013 77 10000 4 10 21:18 08.04.2020
5175 Clouds -16 1012 77 10000 3 10 20:41 08.04.2020
5176 Clouds -14 1012 77 10000 3 10 20:21 08.04.2020
5177 Clouds -14 1012 77 10000 3 10 20:21 08.04.2020
5178 Clouds -14 1012 77 10000 3 10 19:59 08.04.2020
5179 Clouds -14 1012 77 10000 3 10 19:40 08.04.2020
5180 Clouds -19 1012 84 10000 3 30 19:21 08.04.2020
5181 Clouds -19 1012 84 10000 3 30 18:55 08.04.2020
5182 Clouds -19 1012 84 10000 3 30 18:36 08.04.2020
5183 Clouds -19 1012 83 10000 2 80 18:18 08.04.2020
5184 Clouds -20 1012 83 10000 2 80 17:42 08.04.2020
5185 Clouds -20 1012 83 10000 2 80 17:20 08.04.2020
5186 Clouds -16 1012 77 10000 2 90 16:56 08.04.2020
5187 Clouds -16 1012 77 10000 2 90 16:37 08.04.2020
5188 Clouds -18 1012 84 10000 1 140 16:19 08.04.2020
5189 Clouds -18 1012 91 10000 2 150 15:39 08.04.2020
5190 Clouds -18 1012 91 10000 2 150 15:20 08.04.2020
5191 Clouds -18 1012 91 10000 2 150 14:57 08.04.2020
5192 Clouds -18 1012 91 10000 2 150 14:39 08.04.2020
5193 Clouds -18 1012 91 10000 2 150 14:21 08.04.2020
5194 Clouds -16 1013 84 10000 1 150 13:44 08.04.2020
5195 Clouds -16 1013 84 10000 1 150 13:21 08.04.2020
5196 Clouds -14 1013 77 10000 2 170 12:54 08.04.2020
5197 Clouds -14 1013 77 10000 2 170 12:36 08.04.2020
5198 Clouds -17 1013 77 10000 1.97 226 12:18 08.04.2020
5199 Clouds -17 1013 77 10000 1.97 226 11:41 08.04.2020
5200 Clouds -17 1013 77 10000 1.97 226 11:41 08.04.2020
5201 Clouds -17 1013 77 10000 1.97 226 11:22 08.04.2020
5202 Clouds -15 1013 71 10000 3 170 10:58 08.04.2020
5203 Clouds -15 1013 71 10000 3 170 10:39 08.04.2020
5204 Clouds -15 1013 71 10000 3 170 10:20 08.04.2020
5205 Clouds -16 1013 71 10000 2 170 09:56 08.04.2020
5206 Clouds -16 1013 71 10000 2 170 09:38 08.04.2020
5207 Clouds -16 1013 71 10000 2 170 09:18 08.04.2020
5208 Clouds -17 1013 84 10000 3 150 08:56 08.04.2020
5209 Clouds -17 1013 84 10000 3 150 08:38 08.04.2020
5210 Clouds -17 1013 84 10000 3 150 08:20 08.04.2020
5211 Clouds -15 1014 71 10000 2 190 07:42 08.04.2020
5212 Clouds -15 1014 71 10000 1 150 07:20 08.04.2020
5213 Clouds -14 1014 71 10000 1 200 06:22 08.04.2020
5214 Clouds -14 1015 65 10000 1 80 04:54 08.04.2020
5215 Clear -15 1016 65 10000 1 50 02:50 08.04.2020
5216 Clear -15 1016 65 10000 1 350 02:21 08.04.2020
5217 Clear -16 1016 71 10000 1 350 01:56 08.04.2020
5218 Clear -17 1016 77 10000 2 20 01:27 08.04.2020
5219 Clear -17 1016 70 10000 4 30 00:44 08.04.2020
5220 Clear -17 1016 70 10000 4 30 00:23 08.04.2020
5221 Clear -18 1016 77 10000 3 30 23:40 07.04.2020
5222 Clear -18 1016 77 10000 3 30 23:22 07.04.2020
5223 Clear -21 1017 83 10000 3 30 22:58 07.04.2020
5224 Clear -21 1017 76 10000 3 30 22:40 07.04.2020
5225 Clear -21 1017 76 10000 3 30 22:21 07.04.2020
5226 Clear -23 1017 76 10000 3 10 21:58 07.04.2020
5227 Clear -23 1017 76 10000 3 10 21:40 07.04.2020
5228 Clear -23 1017 76 10000 3 10 21:20 07.04.2020
5229 Clouds -24 1017 76 10000 2 70 20:58 07.04.2020
5230 Clouds -24 1017 76 10000 2 70 20:39 07.04.2020
5231 Clouds -27 1017 75 10000 1 340 20:20 07.04.2020
5232 Clouds -27 1017 75 10000 1 340 19:57 07.04.2020
5233 Clouds -27 1017 75 10000 1 340 19:37 07.04.2020
5234 Clouds -26 1017 75 10000 1 330 19:19 07.04.2020
5235 Clouds -26 1017 75 10000 1 330 19:19 07.04.2020
5236 Clouds -26 1017 75 10000 1 330 18:57 07.04.2020
5237 Clouds -26 1017 75 10000 1 330 18:39 07.04.2020
5238 Clouds -26 1017 75 10000 1 330 18:19 07.04.2020
5239 Clouds -23 1017 76 10000 4 100 17:45 07.04.2020
5240 Clouds -23 1017 76 10000 4 100 17:21 07.04.2020
5241 Clouds -22 1017 69 10000 2 100 16:47 07.04.2020
5242 Clouds -22 1017 69 10000 2 100 16:29 07.04.2020
5243 Clear -19 1018 70 10000 3 110 15:59 07.04.2020
5244 Clear -19 1018 70 10000 3 110 15:41 07.04.2020
5245 Clear -22 1018 76 10000 1 140 15:23 07.04.2020
5246 Clear -22 1018 76 10000 1 140 14:42 07.04.2020
5247 Clear -22 1018 76 10000 1 140 14:23 07.04.2020
5248 Clear -22 1018 69 10000 3 110 13:57 07.04.2020
5249 Clear -22 1018 69 10000 3 110 13:39 07.04.2020
5250 Clear -21 1018 70 10000 1 110 13:18 07.04.2020
5251 Clear -21 1018 70 10000 1 110 12:55 07.04.2020
5252 Clear -21 1018 70 10000 1 110 12:36 07.04.2020
5253 Clear -22 1018 69 10000 1 110 12:18 07.04.2020
5254 Clear -22 1018 69 10000 1 110 11:44 07.04.2020
5255 Clear -22 1018 69 10000 1 110 11:26 07.04.2020
5256 Clear -21 1019 70 10000 2 100 10:59 07.04.2020
5257 Clear -21 1019 70 10000 2 100 10:38 07.04.2020
5258 Clear -21 1019 70 10000 2 100 10:19 07.04.2020
5259 Clear -19 1019 70 10000 1 310 09:45 07.04.2020
5260 Clear -19 1019 70 10000 1 310 09:20 07.04.2020
5261 Clear -19 1019 77 10000 2 50 08:57 07.04.2020
5262 Clear -19 1019 77 10000 2 50 08:38 07.04.2020
5263 Clear -19 1019 77 10000 2 50 08:19 07.04.2020
5264 Clear -17 1019 70 10000 2 320 07:43 07.04.2020
5265 Clear -17 1019 70 10000 2 320 07:25 07.04.2020
5266 Clear -17 1019 64 10000 1 360 06:51 07.04.2020
5267 Clear -17 1019 70 10000 2 340 06:25 07.04.2020
5268 Clear -16 1020 59 10000 0.46 328 05:46 07.04.2020
5269 Clear -16 1020 59 10000 0.46 328 05:22 07.04.2020
5270 Clear -18 1020 70 10000 2 300 03:32 07.04.2020
5271 Clear -18 1020 64 10000 1 340 02:59 07.04.2020
5272 Clear -19 1020 70 10000 2 60 02:33 07.04.2020
5273 Clear -19 1021 64 10000 1 10 01:33 07.04.2020
5274 Clear -21 1021 70 10000 2 360 00:44 07.04.2020
5275 Clear -21 1021 70 10000 2 360 00:25 07.04.2020
5276 Clear -22 1021 69 10000 2 30 23:39 06.04.2020
5277 Clear -22 1021 69 10000 2 30 23:20 06.04.2020
5278 Clear -23 1021 69 10000 3 10 22:41 06.04.2020
5279 Clear -23 1021 69 10000 3 10 22:23 06.04.2020
5280 Clear -24 1021 69 10000 2 60 21:59 06.04.2020
5281 Clear -24 1021 69 10000 2 60 21:40 06.04.2020
5282 Clouds -24 1021 69 10000 2 60 21:19 06.04.2020
5283 Clouds -26 1021 75 10000 4 50 20:56 06.04.2020
5284 Clouds -26 1021 75 10000 4 50 20:38 06.04.2020
5285 Clouds -26 1021 75 10000 4 50 20:19 06.04.2020
5286 Clouds -27 1021 75 10000 2 50 19:54 06.04.2020
5287 Clouds -27 1021 75 10000 2 50 19:36 06.04.2020
5288 Clouds -26 1020 75 10000 3 20 19:18 06.04.2020
5289 Clouds -25 1020 75 10000 3 20 18:41 06.04.2020
5290 Clouds -25 1020 75 10000 2 50 18:23 06.04.2020
5291 Clouds -26 1020 75 10000 2 50 17:55 06.04.2020
5292 Clouds -26 1020 75 10000 2 50 17:37 06.04.2020
5293 Clouds -26 1020 75 10000 2 50 17:18 06.04.2020
5294 Clouds -24 1020 76 10000 2 290 16:47 06.04.2020
5295 Clouds -24 1020 76 10000 2 290 16:29 06.04.2020
5296 Clouds -25 1019 75 10000 2 70 14:46 06.04.2020
5297 Clouds -25 1019 75 10000 2 70 14:46 06.04.2020
5298 Clouds -25 1019 75 10000 2 70 14:46 06.04.2020
5299 Clouds -25 1019 75 10000 2 70 14:46 06.04.2020
5300 Clouds -25 1019 75 10000 2 70 14:46 06.04.2020
5301 Clear -24 1019 83 10000 1 10 13:44 06.04.2020
5302 Clear -24 1019 83 10000 1 10 13:21 06.04.2020
5303 Clear -24 1019 83 10000 1 10 13:21 06.04.2020
5304 Clear -22 1019 76 10000 2 10 12:41 06.04.2020
5305 Clear -22 1019 76 10000 2 10 12:41 06.04.2020
5306 Clear -22 1019 76 10000 2 10 12:18 06.04.2020
5307 Clear -22 1019 76 10000 2 10 12:18 06.04.2020
5308 Clear -21 1018 76 10000 3 320 11:40 06.04.2020
5309 Clear -21 1018 76 10000 3 320 11:40 06.04.2020
5310 Clear -21 1018 76 10000 3 320 11:40 06.04.2020
5311 Clear -21 1018 76 10000 3 320 11:40 06.04.2020
5312 Clear -21 1018 76 10000 3 320 11:40 06.04.2020
5313 Clear -21 1018 76 10000 1 60 10:53 06.04.2020
5314 Clear -21 1018 76 10000 1 60 10:53 06.04.2020
5315 Clear -21 1018 76 10000 1 60 10:53 06.04.2020
5316 Clear -20 1017 76 10000 5 300 10:23 06.04.2020
5317 Clear -20 1017 76 10000 7 300 10:03 06.04.2020
5318 Clear -20 1017 76 10000 7 300 10:03 06.04.2020
5319 Clear -20 1017 76 10000 7 300 10:03 06.04.2020
5320 Clear -20 1017 76 10000 7 300 09:37 06.04.2020
5321 Clear -19 1017 77 10000 6 300 09:18 06.04.2020
5322 Clear -19 1016 77 10000 6 300 08:41 06.04.2020
5323 Clear -19 1016 77 10000 6 300 08:41 06.04.2020
5324 Clear -18 1016 77 10000 6 290 07:56 06.04.2020
5325 Clear -18 1016 77 10000 6 290 07:56 06.04.2020
5326 Clear -18 1016 77 10000 6 290 07:56 06.04.2020
5327 Clear -17 1016 77 10000 6 290 07:19 06.04.2020
5328 Clear -17 1015 77 10000 7 300 06:26 06.04.2020
5329 Fog -17 1015 77 10000 8 300 05:42 06.04.2020
5330 Fog -17 1014 77 10000 8 290 03:29 06.04.2020
5331 Fog -18 1014 77 10000 7 290 02:49 06.04.2020
5332 Fog -18 1014 77 10000 7 290 02:49 06.04.2020
5333 Fog -19 1014 84 10000 7 290 01:53 06.04.2020
5334 Clouds -19 1013 77 9000 6 290 00:52 06.04.2020
5335 Mist -20 1013 83 9000 4 340 00:27 06.04.2020
5336 Fog -20 1013 76 10000 5 320 23:50 05.04.2020
5337 Fog -21 1013 83 10000 5 320 23:32 05.04.2020
5338 Fog -21 1013 83 10000 5 320 23:32 05.04.2020
5339 Fog -21 1013 83 10000 5 320 23:32 05.04.2020
5340 Clouds -21 1012 83 8000 7 300 22:57 05.04.2020
5341 Clouds -21 1012 83 8000 7 300 22:38 05.04.2020
5342 Mist -21 1012 76 4200 6 290 22:19 05.04.2020
5343 Mist -22 1011 83 3800 8 300 21:58 05.04.2020
5344 Mist -22 1011 83 3800 8 300 21:39 05.04.2020
5345 Mist -22 1011 83 3800 8 300 21:21 05.04.2020
5346 Mist -22 1011 83 1600 9 300 20:21 05.04.2020
5347 Clouds -21 1010 76 900 9 300 19:41 05.04.2020
5348 Clouds -21 1010 76 900 9 300 19:22 05.04.2020
5349 Clouds -21 1010 83 1000 8 300 18:46 05.04.2020
5350 Clouds -21 1010 83 1000 8 300 18:46 05.04.2020
5351 Snow -21 1010 83 650 10 290 17:59 05.04.2020
5352 Snow -21 1010 83 650 10 290 17:40 05.04.2020
5353 Snow -21 1010 83 650 10 290 17:40 05.04.2020
5354 Snow -21 1010 83 650 10 290 17:40 05.04.2020
5355 Snow -21 1010 83 650 10 290 17:40 05.04.2020
5356 Snow -21 1010 83 650 10 290 17:39 05.04.2020
5357 Snow -21 1010 83 650 10 290 17:20 05.04.2020
5358 Snow -21 1010 83 650 10 290 17:20 05.04.2020
5359 Snow -21 1009 83 500 11 290 16:46 05.04.2020
5360 Snow -21 1009 83 500 11 290 16:46 05.04.2020
5361 Snow -21 1009 83 500 11 290 16:46 05.04.2020
5362 Snow -21 1009 83 500 11 290 16:46 05.04.2020
5363 Snow -21 1009 83 500 11 290 16:46 05.04.2020
5364 Snow -21 1009 83 500 11 290 16:18 05.04.2020
5365 Snow -20 1009 76 600 11 290 15:44 05.04.2020
5366 Snow -20 1009 76 600 11 290 15:25 05.04.2020
5367 Snow -20 1009 76 600 11 290 15:25 05.04.2020
5368 Snow -20 1008 83 450 12 290 14:48 05.04.2020
5369 Snow -20 1008 83 450 12 290 14:48 05.04.2020
5370 Snow -20 1008 83 450 12 290 14:48 05.04.2020
5371 Snow -20 1008 83 450 12 290 14:48 05.04.2020
5372 Snow -20 1008 83 450 12 290 14:48 05.04.2020
5373 Snow -20 1008 83 600 12 290 13:46 05.04.2020
5374 Snow -20 1008 83 600 12 290 13:46 05.04.2020
5375 Snow -20 1008 83 600 12 290 13:46 05.04.2020
5376 Snow -20 1008 83 600 12 290 13:46 05.04.2020
5377 Snow -20 1007 83 500 12 290 12:57 05.04.2020
5378 Snow -20 1007 83 500 12 290 12:57 05.04.2020
5379 Snow -19 1007 77 650 12 280 11:58 05.04.2020
5380 Snow -19 1007 77 650 12 280 11:58 05.04.2020
5381 Snow -19 1007 77 650 12 280 11:58 05.04.2020
5382 Snow -19 1007 77 650 12 280 11:38 05.04.2020
5383 Snow -19 1007 77 650 12 280 11:19 05.04.2020
5384 Clouds -19 1006 84 600 11 290 10:44 05.04.2020
5385 Clouds -19 1006 84 600 11 290 10:44 05.04.2020
5386 Clouds -19 1006 84 600 11 290 10:44 05.04.2020
5387 Clouds -19 1006 84 600 11 290 10:44 05.04.2020
5388 Clouds -19 1006 84 600 11 290 10:19 05.04.2020
5389 Clouds -18 1005 77 650 12 290 09:52 05.04.2020
5390 Clouds -18 1005 77 650 12 290 09:52 05.04.2020
5391 Clouds -18 1005 77 650 12 290 09:25 05.04.2020
5392 Clouds -18 1005 77 650 12 290 09:25 05.04.2020
5393 Clouds -18 1005 77 650 12 290 09:25 05.04.2020
5394 Clouds -18 1005 77 650 12 290 09:25 05.04.2020
5395 Clouds -18 1005 77 650 12 290 09:25 05.04.2020
5396 Clouds -17 1004 84 900 13 300 07:58 05.04.2020
5397 Snow -16 1004 84 1600 13 300 04:56 05.04.2020
5398 Snow -14 1003 77 8000 10 330 03:35 05.04.2020
5399 Snow -14 1003 77 5000 9 330 02:53 05.04.2020
5400 Snow -15 1003 84 5000 9 330 01:51 05.04.2020
5401 Snow -15 1003 84 5000 9 330 01:32 05.04.2020
5402 Snow -15 1004 84 4700 8 330 00:48 05.04.2020
5403 Snow -15 1004 84 4700 8 330 00:22 05.04.2020
5404 Snow -15 1004 84 4700 8 330 00:22 05.04.2020
5405 Snow -15 1004 77 10000 7 330 23:57 04.04.2020
5406 Snow -15 1004 77 10000 7 330 23:38 04.04.2020
5407 Snow -15 1004 77 10000 7 330 23:20 04.04.2020
5408 Snow -15 1004 84 4400 4 320 22:56 04.04.2020
5409 Snow -15 1004 84 4400 4 320 22:37 04.04.2020
5410 Snow -15 1004 84 4400 4 320 22:19 04.04.2020
5411 Snow -15 1005 84 3100 3 320 21:55 04.04.2020
5412 Snow -15 1005 84 3100 3 320 21:36 04.04.2020
5413 Snow -15 1005 84 3100 3 320 21:18 04.04.2020
5414 Snow -15 1005 84 8000 4 10 20:42 04.04.2020
5415 Snow -15 1005 84 8000 4 10 20:23 04.04.2020
5416 Snow -15 1005 84 7000 6 20 19:59 04.04.2020
5417 Snow -15 1005 84 7000 6 20 19:38 04.04.2020
5418 Snow -15 1005 84 7000 6 20 19:19 04.04.2020
5419 Snow -15 1005 84 5000 4 10 18:58 04.04.2020
5420 Snow -15 1005 84 5000 4 10 18:39 04.04.2020
5421 Snow -15 1005 84 5000 4 10 18:19 04.04.2020
5422 Snow -15 1005 84 6000 5 10 17:56 04.04.2020
5423 Snow -15 1005 84 6000 5 10 17:38 04.04.2020
5424 Snow -15 1005 84 6000 5 10 17:19 04.04.2020
5425 Snow -15 1005 84 8000 6 350 16:42 04.04.2020
5426 Snow -15 1005 84 8000 6 350 16:23 04.04.2020
5427 Snow -15 1006 84 10000 6 360 15:58 04.04.2020
5428 Snow -15 1006 84 10000 6 360 15:38 04.04.2020
5429 Snow -15 1006 84 10000 6 360 15:19 04.04.2020
5430 Snow -15 1006 84 10000 6 360 15:19 04.04.2020
5431 Snow -15 1006 84 10000 6 360 15:19 04.04.2020
5432 Snow -15 1006 84 10000 6 360 15:19 04.04.2020
5433 Snow -15 1006 84 7000 7 350 14:46 04.04.2020
5434 Snow -15 1006 84 7000 7 350 14:25 04.04.2020
5435 Snow -15 1006 84 10000 6 360 13:58 04.04.2020
5436 Snow -15 1006 84 10000 6 360 13:40 04.04.2020
5437 Snow -15 1006 84 10000 6 360 13:20 04.04.2020
5438 Snow -15 1006 84 10000 5 360 12:57 04.04.2020
5439 Snow -15 1006 84 10000 5 360 12:39 04.04.2020
5440 Snow -15 1006 84 10000 5 360 12:19 04.04.2020
5441 Clouds -14 1007 77 10000 5 30 11:41 04.04.2020
5442 Clouds -14 1007 77 10000 5 30 11:23 04.04.2020
5443 Clouds -14 1007 77 10000 7 360 10:58 04.04.2020
5444 Clouds -14 1007 77 10000 7 360 10:40 04.04.2020
5445 Clouds -14 1007 77 10000 7 360 10:21 04.04.2020
5446 Snow -14 1008 84 10000 4 10 09:55 04.04.2020
5447 Snow -14 1008 84 10000 4 10 09:37 04.04.2020
5448 Clouds -14 1008 84 10000 4 10 09:19 04.04.2020
5449 Clouds -13 1008 84 10000 7 360 08:42 04.04.2020
5450 Clouds -13 1008 84 10000 7 360 08:23 04.04.2020
5451 Clouds -13 1008 84 10000 2 340 07:55 04.04.2020
5452 Clouds -13 1008 84 10000 2 340 07:37 04.04.2020
5453 Clouds -13 1008 84 10000 2 340 07:19 04.04.2020
5454 Clouds -13 1008 84 10000 5 30 06:22 04.04.2020
5455 Snow -13 1008 84 10000 5 40 05:51 04.04.2020
5456 Snow -13 1008 84 10000 5 40 05:32 04.04.2020
5457 Snow -13 1008 78 9000 8 10 04:34 04.04.2020
5458 Snow -15 1009 77 9000 8 10 03:55 04.04.2020
5459 Snow -16 1009 84 10000 8 360 03:27 04.04.2020
5460 Clouds -16 1010 84 6000 7 350 02:42 04.04.2020
5461 Mist -18 1010 84 2100 6 360 02:24 04.04.2020
5462 Mist -19 1011 84 1200 6 360 01:27 04.04.2020
5463 Mist -20 1011 76 1500 5 350 00:57 04.04.2020
5464 Mist -21 1011 76 8000 6 340 00:31 04.04.2020
5465 Mist -21 1011 76 2300 5 330 23:57 03.04.2020
5466 Fog -22 1011 76 10000 5 340 23:38 03.04.2020
5467 Fog -22 1011 76 10000 5 340 23:19 03.04.2020
5468 Fog -22 1012 83 10000 5 340 22:40 03.04.2020
5469 Fog -21 1012 83 10000 3 320 22:19 03.04.2020
5470 Fog -21 1012 83 10000 3 320 22:19 03.04.2020
5471 Clouds -21 1012 76 10000 4 350 21:56 03.04.2020
5472 Clouds -21 1012 76 10000 4 350 21:38 03.04.2020
5473 Clouds -21 1012 76 10000 4 350 21:20 03.04.2020
5474 Clouds -22 1012 83 10000 4 350 20:55 03.04.2020
5475 Clouds -22 1012 83 10000 4 350 20:36 03.04.2020
5476 Clouds -22 1012 83 10000 4 350 20:18 03.04.2020
5477 Clouds -22 1013 83 10000 3 10 19:55 03.04.2020
5478 Clouds -22 1013 83 10000 3 10 19:36 03.04.2020
5479 Clouds -22 1013 83 10000 3 10 19:18 03.04.2020
5480 Clouds -21 1013 83 10000 3 10 18:57 03.04.2020
5481 Clouds -21 1013 83 10000 3 10 18:39 03.04.2020
5482 Clouds -21 1013 83 10000 3 10 18:39 03.04.2020
5483 Clouds -21 1013 83 10000 3 10 18:21 03.04.2020
5484 Clouds -21 1013 83 10000 4 20 17:41 03.04.2020
5485 Clouds -21 1013 83 10000 4 20 17:19 03.04.2020
5486 Clouds -20 1013 83 10000 5 20 16:55 03.04.2020
5487 Clouds -20 1013 83 10000 5 20 16:36 03.04.2020
5488 Clouds -20 1013 83 10000 5 20 16:36 03.04.2020
5489 Clouds -20 1013 83 10000 5 20 16:18 03.04.2020
5490 Clouds -20 1013 83 10000 4 40 15:55 03.04.2020
5491 Clouds -20 1013 83 10000 4 40 15:36 03.04.2020
5492 Clouds -20 1014 83 10000 2 40 15:18 03.04.2020
5493 Clouds -17 1014 84 0 4.92 360 14:40 03.04.2020
5494 Clouds -17 1014 84 10000 2 330 14:22 03.04.2020
5495 Clouds -17 1014 84 10000 2 330 13:54 03.04.2020
5496 Clouds -17 1014 84 10000 2 330 13:36 03.04.2020
5497 Clouds -17 1014 84 10000 2 330 13:18 03.04.2020
5498 Clouds -17 1014 84 10000 2 350 12:42 03.04.2020
5499 Clouds -17 1014 84 10000 2 350 12:19 03.04.2020
5500 Clouds -16 1014 84 10000 2 340 11:56 03.04.2020
5501 Clouds -16 1014 84 10000 2 340 11:37 03.04.2020
5502 Clouds -16 1014 84 10000 2 340 11:18 03.04.2020
5503 Clouds -16 1014 84 10000 3 340 10:57 03.04.2020
5504 Clouds -16 1014 84 10000 3 340 10:38 03.04.2020
5505 Clouds -16 1014 84 10000 3 340 10:38 03.04.2020
5506 Clouds -16 1014 84 10000 3 340 10:20 03.04.2020
5507 Clouds -16 1014 84 10000 3 340 10:20 03.04.2020
5508 Clouds -14 1014 84 10000 3 340 09:57 03.04.2020
5509 Clouds -14 1014 84 10000 3 340 09:38 03.04.2020
5510 Clouds -14 1014 84 10000 3 340 09:20 03.04.2020
5511 Snow -14 1013 84 4700 3 330 08:45 03.04.2020
5512 Snow -14 1013 84 4700 3 330 08:25 03.04.2020
5513 Snow -13 1013 84 2600 4 330 07:59 03.04.2020
5514 Snow -13 1013 84 4500 5 340 07:40 03.04.2020
5515 Snow -13 1013 84 4500 5 340 07:22 03.04.2020
5516 Snow -12 1013 85 10000 3 350 06:29 03.04.2020
5517 Clouds -12 1013 85 10000 5 340 05:43 03.04.2020
5518 Snow -12 1012 85 8000 7 330 04:30 03.04.2020
5519 Clouds -13 1012 84 10000 4 350 03:35 03.04.2020
5520 Clouds -14 1012 84 10000 4 350 02:47 03.04.2020
5521 Clouds -16 1012 84 10000 6 350 01:27 03.04.2020
5522 Clouds -15 1011 77 10000 7 330 00:56 03.04.2020
5523 Fog -16 1011 84 10000 7 340 00:33 03.04.2020
5524 Clouds -17 1011 84 9000 7 340 23:57 02.04.2020
5525 Clouds -17 1011 84 9000 7 340 23:38 02.04.2020
5526 Mist -18 1011 84 6000 6 330 23:19 02.04.2020
5527 Mist -17 1011 77 1600 5 340 22:43 02.04.2020
5528 Mist -16 1011 84 6000 5 360 22:24 02.04.2020
5529 Clouds -19 1010 84 10000 2 10 21:59 02.04.2020
5530 Clouds -19 1010 84 10000 2 10 21:59 02.04.2020
5531 Clouds -19 1010 84 10000 2 10 21:59 02.04.2020
5532 Clouds -19 1010 84 10000 2 10 21:37 02.04.2020
5533 Clouds -19 1010 84 10000 2 10 21:19 02.04.2020
5534 Clouds -19 1010 84 10000 4 350 20:54 02.04.2020
5535 Clouds -19 1010 84 10000 4 350 20:36 02.04.2020
5536 Clouds -19 1010 84 10000 4 350 20:18 02.04.2020
5537 Fog -18 1010 84 10000 3 10 19:42 02.04.2020
5538 Fog -18 1010 84 10000 3 10 19:20 02.04.2020
5539 Clouds -16 1010 84 10000 3 30 18:56 02.04.2020
5540 Clouds -16 1010 84 10000 3 30 18:38 02.04.2020
5541 Clouds -16 1010 84 10000 3 30 18:19 02.04.2020
5542 Clouds -14 1010 84 10000 2 40 17:43 02.04.2020
5543 Clouds -14 1010 84 10000 2 40 17:24 02.04.2020
5544 Clouds -15 1010 84 10000 2 360 16:59 02.04.2020
5545 Clouds -15 1010 84 10000 2 360 16:40 02.04.2020
5546 Clouds -15 1010 84 10000 2 360 16:22 02.04.2020
5547 Clouds -13 1010 84 10000 3 350 15:57 02.04.2020
5548 Clouds -13 1010 84 10000 3 350 15:39 02.04.2020
5549 Clouds -13 1010 84 10000 3 350 15:19 02.04.2020
5550 Clouds -11 1010 72 10000 2 80 14:57 02.04.2020
5551 Clouds -11 1010 72 10000 2 80 14:38 02.04.2020
5552 Clouds -11 1010 72 10000 2 80 14:19 02.04.2020
5553 Clouds -12 1011 78 10000 2 90 13:55 02.04.2020
5554 Clouds -12 1011 78 10000 2 90 13:37 02.04.2020
5555 Clouds -12 1011 78 10000 2 90 13:18 02.04.2020
5556 Clouds -13 1011 78 10000 1 90 12:45 02.04.2020
5557 Clouds -13 1011 78 10000 1 90 12:20 02.04.2020
5558 Clouds -13 1011 78 10000 2 70 11:58 02.04.2020
5559 Clouds -13 1011 78 10000 2 70 11:39 02.04.2020
5560 Clouds -13 1011 78 10000 2 70 11:20 02.04.2020
5561 Clouds -12 1011 78 10000 2 80 10:57 02.04.2020
5562 Clouds -12 1011 78 10000 2 80 10:38 02.04.2020
5563 Clouds -12 1011 78 10000 2 80 10:20 02.04.2020
5564 Clouds -13 1011 71 10000 3 70 09:59 02.04.2020
5565 Clouds -13 1011 71 10000 3 70 09:41 02.04.2020
5566 Clouds -13 1011 71 10000 3 70 09:21 02.04.2020
5567 Clouds -11 1011 72 10000 3 50 08:48 02.04.2020
5568 Clouds -8 1011 72 10000 3 160 08:28 02.04.2020
5569 Clouds -7 1011 73 10000 3 160 07:59 02.04.2020
5570 Clouds -7 1011 73 10000 3 140 07:40 02.04.2020
5571 Clouds -7 1011 73 10000 3 140 07:19 02.04.2020
5572 Clouds -7 1011 73 10000 3 160 06:25 02.04.2020
5573 Clouds -7 1011 73 10000 3 150 05:46 02.04.2020
5574 Clouds -7 1011 73 10000 4 140 04:58 02.04.2020
5575 Clear -10 1012 85 10000 2 80 02:21 02.04.2020
5576 Clear -11 1012 85 10000 3 160 01:27 02.04.2020
5577 Clear -11 1012 85 10000 3 170 00:41 02.04.2020
5578 Clear -11 1012 85 10000 2 180 00:20 02.04.2020
5579 Clear -11 1012 85 10000 3 170 23:39 01.04.2020
5580 Clear -11 1012 85 10000 3 160 23:19 01.04.2020
5581 Clear -11 1012 85 10000 2 190 22:57 01.04.2020
5582 Clear -11 1012 85 10000 2 190 22:57 01.04.2020
5583 Clear -11 1012 85 10000 2 190 22:38 01.04.2020
5584 Clouds -11 1012 85 10000 3 190 22:19 01.04.2020
5585 Clouds -11 1012 85 10000 3 190 22:19 01.04.2020
5586 Clouds -10 1011 85 10000 2 160 21:41 01.04.2020
5587 Clouds -10 1011 85 10000 2 160 21:19 01.04.2020
5588 Clouds -10 1011 85 10000 2 160 21:19 01.04.2020
5589 Snow -9 1011 85 10000 2 180 20:56 01.04.2020
5590 Snow -9 1011 85 10000 2 180 20:38 01.04.2020
5591 Snow -9 1011 85 10000 2 180 20:20 01.04.2020
5592 Snow -8 1011 78 10000 1 150 19:58 01.04.2020
5593 Snow -8 1011 78 10000 1 150 19:39 01.04.2020
5594 Snow -8 1011 78 10000 1 150 19:19 01.04.2020
5595 Snow -8 1011 78 10000 1 110 18:42 01.04.2020
5596 Snow -8 1011 78 10000 1 110 18:42 01.04.2020
5597 Snow -8 1011 78 10000 1 110 18:23 01.04.2020
5598 Snow -8 1010 78 10000 3 60 17:57 01.04.2020
5599 Snow -8 1010 78 10000 3 60 17:38 01.04.2020
5600 Snow -8 1010 78 10000 3 60 17:19 01.04.2020
5601 Snow -8 1010 78 10000 3 60 17:19 01.04.2020
5602 Snow -9 1010 85 10000 2 20 16:58 01.04.2020
5603 Snow -9 1010 85 10000 2 20 16:39 01.04.2020
5604 Snow -9 1010 85 10000 2 20 16:39 01.04.2020
5605 Snow -9 1010 85 10000 2 20 16:20 01.04.2020
5606 Snow -10 1010 85 10000 1 350 15:57 01.04.2020
5607 Snow -10 1010 85 10000 1 350 15:37 01.04.2020
5608 Snow -10 1010 85 10000 1 350 15:18 01.04.2020
5609 Snow -10 1009 85 10000 2 10 14:41 01.04.2020
5610 Snow -10 1009 85 10000 2 10 14:23 01.04.2020
5611 Snow -11 1009 92 10000 2 360 13:59 01.04.2020
5612 Snow -11 1009 92 10000 2 360 13:40 01.04.2020
5613 Snow -11 1009 92 10000 2 360 13:20 01.04.2020
5614 Snow -11 1009 92 10000 2 360 13:20 01.04.2020
5615 Snow -10 1008 92 10000 3 10 12:59 01.04.2020
5616 Snow -10 1008 92 10000 3 10 12:41 01.04.2020
5617 Snow -10 1008 92 10000 3 10 12:22 01.04.2020
5618 Clouds -9 1007 85 10000 5 340 11:57 01.04.2020
5619 Clouds -9 1007 85 10000 5 340 11:38 01.04.2020
5620 Clouds -9 1007 85 10000 5 340 11:20 01.04.2020
5621 Clouds -9 1007 92 10000 5 340 10:40 01.04.2020
5622 Clouds -9 1007 92 10000 5 340 10:21 01.04.2020
5623 Clouds -8 1006 85 10000 2 260 09:59 01.04.2020
5624 Clouds -8 1006 85 10000 2 260 09:40 01.04.2020
5625 Clouds -8 1006 85 10000 2 260 09:20 01.04.2020
5626 Clouds -7 1006 85 10000 1 320 08:54 01.04.2020
5627 Clouds -7 1005 85 10000 7 280 08:36 01.04.2020
5628 Clouds -7 1005 85 10000 7 280 08:18 01.04.2020
5629 Snow -6 1004 92 10000 6 290 07:40 01.04.2020
5630 Clouds -1 1003 86 10000 6 160 07:19 01.04.2020
5631 Clouds -1 1003 86 10000 6 150 06:43 01.04.2020
5632 Clouds -1 1003 86 10000 7 140 06:21 01.04.2020
5633 Clouds -1 1003 86 10000 8 140 05:41 01.04.2020
5634 Clouds -1 1002 80 10000 8 130 03:57 01.04.2020
5635 Clouds -1 1003 80 10000 9 130 03:19 01.04.2020
5636 Snow -1 1003 80 9000 10 150 02:37 01.04.2020
5637 Clouds -1 1003 74 10000 10 150 01:53 01.04.2020
5638 Clouds -1 1003 74 10000 9 140 01:27 01.04.2020
5639 Snow -2 1003 79 9000 9 140 00:47 01.04.2020
5640 Snow -2 1003 79 9000 9 130 00:23 01.04.2020
5641 Clouds -2 1003 79 10000 9 130 23:59 31.03.2020
5642 Clouds -2 1003 79 10000 9 130 23:40 31.03.2020
5643 Clouds -1 1003 74 5000 11 130 23:21 31.03.2020
5644 Clouds -3 1003 86 8000 11 130 22:41 31.03.2020
5645 Clouds -3 1003 86 8000 11 130 22:21 31.03.2020
5646 Snow -4 1003 85 3400 10 130 21:58 31.03.2020
5647 Snow -4 1003 85 3400 10 130 21:40 31.03.2020
5648 Snow -4 1003 85 3400 10 130 21:21 31.03.2020
5649 Snow -5 1004 79 4000 9 140 20:57 31.03.2020
5650 Snow -5 1004 79 4000 9 140 20:57 31.03.2020
5651 Snow -5 1004 79 4000 9 140 20:57 31.03.2020
5652 Snow -5 1004 79 4000 9 140 20:57 31.03.2020
5653 Snow -5 1004 79 4000 9 140 20:37 31.03.2020
5654 Snow -5 1004 79 4000 9 140 20:19 31.03.2020
5655 Clouds -4 1004 53 10000 5 130 19:56 31.03.2020
5656 Clouds -4 1004 53 10000 5 130 19:37 31.03.2020
5657 Clouds -5 1004 53 10000 3 150 19:19 31.03.2020
5658 Clouds -5 1004 53 10000 3 150 18:43 31.03.2020
5659 Snow -7 1004 57 10000 5 160 18:20 31.03.2020
5660 Clouds -7 1004 57 10000 5 160 17:57 31.03.2020
5661 Clouds -7 1004 57 10000 5 160 17:39 31.03.2020
5662 Clouds -7 1004 57 10000 5 160 17:21 31.03.2020
5663 Clouds -8 1004 57 10000 5 180 16:56 31.03.2020
5664 Clouds -8 1004 57 10000 5 180 16:36 31.03.2020
5665 Clouds -8 1004 57 10000 5 180 16:18 31.03.2020
5666 Clouds -9 1004 66 10000 5 170 15:54 31.03.2020
5667 Clouds -9 1004 66 10000 5 170 15:36 31.03.2020
5668 Clear -9 1004 66 10000 5 170 15:18 31.03.2020
5669 Clouds -10 1004 72 10000 6 180 14:41 31.03.2020
5670 Clouds -10 1004 72 10000 6 180 14:22 31.03.2020
5671 Clouds -9 1003 72 10000 5 180 13:58 31.03.2020
5672 Clouds -9 1003 72 10000 5 180 13:39 31.03.2020
5673 Clouds -9 1003 72 10000 5 180 13:19 31.03.2020
5674 Clear -9 1003 72 10000 5 170 12:44 31.03.2020
5675 Clear -9 1003 72 10000 5 170 12:20 31.03.2020
5676 Clouds -9 1002 78 10000 4 150 11:56 31.03.2020
5677 Clouds -9 1002 78 10000 4 150 11:37 31.03.2020
5678 Clouds -9 1002 78 10000 4 150 11:18 31.03.2020
5679 Clouds -8 1002 72 10000 4 170 10:55 31.03.2020
5680 Clouds -8 1002 72 10000 4 170 10:55 31.03.2020
5681 Clouds -8 1002 72 10000 4 170 10:37 31.03.2020
5682 Clouds -8 1002 72 10000 4 170 10:18 31.03.2020
5683 Clouds -8 1002 72 10000 4 170 10:18 31.03.2020
5684 Clouds -8 1001 78 10000 4 220 09:43 31.03.2020
5685 Clear -8 1001 78 10000 3 220 09:25 31.03.2020
5686 Clouds -7 1000 79 10000 3 240 08:58 31.03.2020
5687 Clouds -7 1000 79 10000 3 240 08:39 31.03.2020
5688 Clouds -6 1000 73 10000 3 230 08:20 31.03.2020
5689 Clouds -6 1000 73 10000 3 230 08:20 31.03.2020
5690 Clouds -6 999 79 10000 5 260 07:57 31.03.2020
5691 Clouds -7 999 85 10000 7 270 07:38 31.03.2020
5692 Clouds -7 999 85 10000 7 270 07:20 31.03.2020
5693 Clouds -7 998 85 10000 6 280 06:51 31.03.2020
5694 Clouds -6 998 79 10000 5 250 06:30 31.03.2020
5695 Clouds -7 997 85 10000 7 290 05:40 31.03.2020
5696 Clouds -7 996 85 10000 7 290 03:43 31.03.2020
5697 Clouds -8 994 92 4500 8 280 02:25 31.03.2020
5698 Clouds -8 994 92 3500 9 280 01:46 31.03.2020
5699 Clouds -7 992 92 2100 8 280 00:52 31.03.2020
5700 Clouds -7 992 92 6000 9 290 00:25 31.03.2020
5701 Snow -6 991 92 2000 11 300 23:59 30.03.2020
5702 Snow -6 991 92 2000 11 300 23:38 30.03.2020
5703 Snow -2 991 86 1100 4 190 23:18 30.03.2020
5704 -273 0 0 0 0 0 22:56 30.03.2020
5705 Snow -2 990 92 2300 7 130 22:37 30.03.2020
5706 Snow -2 990 92 2300 7 130 22:18 30.03.2020
5707 Snow -2 990 92 1900 9 130 21:55 30.03.2020
5708 Snow -2 990 92 1900 9 130 21:36 30.03.2020
5709 Snow -2 990 92 1900 9 130 21:18 30.03.2020
5710 Snow -2 990 92 750 13 130 20:42 30.03.2020
5711 Snow -2 990 92 750 13 130 20:24 30.03.2020
5712 Snow -2 990 92 750 13 130 20:24 30.03.2020
5713 Clouds -1 990 86 5000 12 130 19:59 30.03.2020
5714 Clouds -1 990 86 5000 12 130 19:40 30.03.2020
5715 Clouds -1 990 86 5000 12 130 19:21 30.03.2020
5716 Clouds -2 990 92 2000 14 130 18:57 30.03.2020
5717 Clouds -2 990 92 2000 14 130 18:38 30.03.2020
5718 Clouds -2 990 92 2000 14 130 18:20 30.03.2020
5719 Clouds -2 991 92 1000 15 120 17:57 30.03.2020
5720 Clouds -2 991 92 1000 15 120 17:38 30.03.2020
5721 Clouds -2 991 92 1000 15 120 17:18 30.03.2020
5722 Clouds -4 991 92 400 17 110 16:55 30.03.2020
5723 Clouds -4 991 92 400 17 110 16:36 30.03.2020
5724 Clouds -4 991 92 400 17 110 16:18 30.03.2020
5725 Clouds -6 991 85 150 21 100 15:54 30.03.2020
5726 Clouds -6 991 85 150 21 100 15:36 30.03.2020
5727 Clouds -6 991 85 150 21 100 15:18 30.03.2020
5728 Clouds -8 991 92 100 24 100 14:39 30.03.2020
5729 Clouds -8 991 92 100 24 100 14:19 30.03.2020
5730 Clouds -8 991 92 100 24 100 14:19 30.03.2020
5731 Clouds -8 993 85 100 23 100 13:59 30.03.2020
5732 Clouds -8 993 85 100 23 100 13:40 30.03.2020
5733 Clouds -8 993 85 100 23 100 13:20 30.03.2020
5734 Clouds -9 995 92 100 21 100 12:54 30.03.2020
5735 Clouds -9 995 92 100 21 100 12:36 30.03.2020
5736 Clouds -9 995 92 100 21 100 12:18 30.03.2020
5737 Clouds -9 995 92 100 21 100 12:18 30.03.2020
5738 Clouds -9 996 92 100 21 110 11:43 30.03.2020
5739 -273 0 0 0 0 0 11:24 30.03.2020
5740 Clouds -10 998 92 100 22 110 10:59 30.03.2020
5741 Clouds -10 998 92 100 22 110 10:39 30.03.2020
5742 Clouds -10 998 92 100 22 110 10:21 30.03.2020
5743 Clouds -10 999 92 200 21 110 09:54 30.03.2020
5744 Clouds -10 999 92 200 21 110 09:36 30.03.2020
5745 Clouds -10 999 92 200 21 110 09:18 30.03.2020
5746 Clouds -10 1001 85 300 20 110 08:39 30.03.2020
5747 Clouds -10 1001 85 300 20 110 08:20 30.03.2020
5748 Clouds -10 1002 85 250 21 110 07:45 30.03.2020
5749 Clouds -10 1002 85 150 23 110 07:23 30.03.2020
5750 Clouds -10 1003 85 150 21 110 06:47 30.03.2020
5751 Clouds -10 1004 85 150 21 110 06:27 30.03.2020
5752 Clouds -10 1004 85 150 21 110 05:44 30.03.2020
5753 Clouds -9 1005 85 100 22 110 04:37 30.03.2020
5754 Clouds -9 1006 92 100 20 110 04:18 30.03.2020
5755 Snow -8 1010 85 150 19 120 02:52 30.03.2020
5756 Snow -7 1012 85 300 16 120 01:58 30.03.2020
5757 Snow -7 1011 85 350 15 120 01:18 30.03.2020
5758 Clouds -7 1013 79 800 17 130 00:29 30.03.2020
5759 Clouds -7 1013 85 650 15 130 23:57 29.03.2020
5760 Clouds -7 1013 85 650 15 130 23:57 29.03.2020
5761 Clouds -7 1013 85 650 15 130 23:39 29.03.2020
5762 Clouds -8 1013 85 350 18 130 23:20 29.03.2020
5763 Clouds -8 1014 85 550 16 130 22:55 29.03.2020
5764 Clouds -8 1014 85 550 16 130 22:55 29.03.2020
5765 Clouds -8 1014 85 550 16 130 22:37 29.03.2020
5766 Clouds -8 1014 85 550 16 130 22:37 29.03.2020
5767 Clouds -8 1014 85 600 14 120 22:18 29.03.2020
5768 Clouds -9 1016 85 700 13 130 21:38 29.03.2020
5769 Clouds -9 1016 85 700 13 130 21:20 29.03.2020
5770 Clouds -9 1017 85 2100 11 120 20:56 29.03.2020
5771 Clouds -9 1017 85 2100 11 120 20:37 29.03.2020
5772 Clouds -9 1017 85 2100 11 120 20:37 29.03.2020
5773 Clouds -9 1017 85 2100 11 120 20:19 29.03.2020
5774 Clouds -8 1018 78 6000 11 130 19:57 29.03.2020
5775 Clouds -8 1018 78 6000 11 130 19:39 29.03.2020
5776 Clouds -8 1019 78 8000 11 120 19:21 29.03.2020
5777 Clouds -8 1019 78 8000 11 120 18:57 29.03.2020
5778 Clouds -8 1019 78 8000 11 120 18:38 29.03.2020
5779 Clouds -9 1020 78 8000 10 120 18:19 29.03.2020
5780 Clouds -9 1020 78 8000 10 120 17:56 29.03.2020
5781 Clouds -9 1020 78 8000 10 120 17:37 29.03.2020
5782 Clouds -9 1020 78 8000 10 120 17:18 29.03.2020
5783 Clouds -9 1021 78 9000 11 130 16:56 29.03.2020
5784 Clouds -9 1021 78 9000 11 130 16:38 29.03.2020
5785 Clouds -9 1021 78 9000 11 130 16:18 29.03.2020
5786 Clouds -10 1021 85 8000 10 110 15:41 29.03.2020
5787 Clouds -10 1021 85 8000 10 110 15:23 29.03.2020
5788 Clouds -10 1021 85 8000 10 110 15:23 29.03.2020
5789 Clouds -10 1022 85 9000 10 110 14:58 29.03.2020
5790 Clouds -10 1022 85 9000 10 110 14:40 29.03.2020
5791 Clouds -10 1022 85 9000 10 110 14:20 29.03.2020
5792 Clouds -9 1022 78 6000 10 110 13:57 29.03.2020
5793 Clouds -9 1022 78 10000 10 100 13:39 29.03.2020
5794 Clouds -9 1022 78 9000 13 110 13:20 29.03.2020
5795 Clouds -9 1022 78 9000 13 110 12:55 29.03.2020
5796 Clouds -9 1023 78 8000 12 120 12:37 29.03.2020
5797 Clouds -9 1023 78 8000 12 120 12:19 29.03.2020
5798 Clouds -9 1023 78 8000 12 120 12:19 29.03.2020
5799 Clouds -9 1023 78 6000 14 120 11:55 29.03.2020
5800 Clouds -8 1023 72 2200 15 120 11:36 29.03.2020
5801 Clouds -8 1023 72 2200 15 120 11:18 29.03.2020
5802 Clouds -9 1023 78 1800 16 120 10:38 29.03.2020
5803 Clouds -9 1023 78 1800 16 120 10:18 29.03.2020
5804 Clouds -9 1023 78 1800 16 120 10:18 29.03.2020
5805 Clouds -10 1023 78 3800 14 110 09:41 29.03.2020
5806 Clouds -10 1023 78 6000 13 110 09:20 29.03.2020
5807 Clouds -10 1023 78 10000 12 110 08:54 29.03.2020
5808 Clouds -10 1023 78 10000 12 110 08:54 29.03.2020
5809 Clouds -11 1024 78 10000 12 110 08:30 29.03.2020
5810 Clouds -11 1024 72 10000 12 120 07:59 29.03.2020
5811 Clouds -10 1024 72 10000 12 120 07:41 29.03.2020
5812 Clouds -10 1024 72 10000 12 120 07:20 29.03.2020
5813 Clouds -11 1026 61 10000 10 130 05:41 29.03.2020
5814 Clouds -11 1027 56 10000 9 120 03:58 29.03.2020
5815 Clouds -12 1027 55 10000 9 130 03:28 29.03.2020
5816 Clouds -12 1027 51 10000 8 130 01:51 29.03.2020
5817 Clouds -12 1028 46 10000 7 130 01:23 29.03.2020
5818 Clouds -12 1028 43 10000 6 120 00:55 29.03.2020
5819 Clouds -12 1028 46 10000 6 120 00:32 29.03.2020
5820 Clouds -14 1028 50 10000 6 140 23:43 28.03.2020
5821 Clouds -14 1028 50 10000 6 140 23:24 28.03.2020
5822 Clouds -15 1028 60 10000 6 150 22:59 28.03.2020
5823 Clouds -16 1028 59 10000 1 140 22:39 28.03.2020
5824 Clouds -16 1028 59 10000 1 140 22:20 28.03.2020
5825 Clouds -23 1028 76 10000 1 340 21:54 28.03.2020
5826 Clouds -23 1028 76 10000 1 340 21:36 28.03.2020
5827 Clouds -23 1028 76 10000 1 340 21:18 28.03.2020
5828 Clouds -24 1028 76 10000 2 350 20:41 28.03.2020
5829 Clouds -24 1028 76 10000 2 350 20:23 28.03.2020
5830 Clouds -23 1028 76 10000 1 270 19:57 28.03.2020
5831 Clouds -23 1028 76 10000 1 270 19:39 28.03.2020
5832 Clouds -23 1028 76 10000 1 270 19:20 28.03.2020
5833 Clouds -23 1028 76 10000 2.21 106 18:58 28.03.2020
5834 Clouds -23 1028 76 10000 2.21 106 18:38 28.03.2020
5835 Clouds -23 1028 76 10000 2.21 106 18:19 28.03.2020
5836 Clouds -21 1028 70 10000 1 110 17:39 28.03.2020
5837 Clear -21 1028 70 10000 1 190 17:20 28.03.2020
5838 Clear -21 1028 70 10000 1 190 16:43 28.03.2020
5839 Clear -21 1028 70 10000 1 190 16:20 28.03.2020
5840 Clear -24 1028 69 10000 3 70 15:58 28.03.2020
5841 Clear -24 1028 69 10000 3 70 15:39 28.03.2020
5842 Clear -24 1028 69 10000 3 70 15:19 28.03.2020
5843 Clear -22 1028 76 10000 3 320 14:54 28.03.2020
5844 Clear -22 1028 76 10000 3 320 14:36 28.03.2020
5845 Clear -22 1028 76 10000 3 320 14:18 28.03.2020
5846 Clear -24 1028 76 10000 3 60 13:38 28.03.2020
5847 Clear -24 1028 76 10000 3 60 13:20 28.03.2020
5848 Clear -22 1027 76 10000 2 40 12:39 28.03.2020
5849 Clear -22 1027 76 10000 2 40 12:21 28.03.2020
5850 Clear -21 1027 76 10000 2 20 11:42 28.03.2020
5851 Clear -21 1027 76 10000 2 20 11:23 28.03.2020
5852 Clear -23 1027 76 10000 3 30 10:56 28.03.2020
5853 Clear -23 1027 76 10000 3 30 10:38 28.03.2020
5854 Clear -23 1027 76 10000 3 30 10:18 28.03.2020
5855 Clear -21 1026 76 10000 4 350 09:42 28.03.2020
5856 Clear -21 1026 76 10000 4 350 09:23 28.03.2020
5857 Clear -19 1026 70 10000 6 340 08:46 28.03.2020
5858 Clear -19 1026 70 10000 6 340 08:27 28.03.2020
5859 Clear -18 1025 70 10000 5 290 07:59 28.03.2020
5860 Clear -18 1025 70 10000 5 290 07:41 28.03.2020
5861 Clear -17 1024 70 10000 6 350 06:56 28.03.2020
5862 Clear -17 1024 70 10000 6 350 06:33 28.03.2020
5863 Clear -17 1024 70 10000 5 360 05:41 28.03.2020
5864 Clear -17 1024 70 10000 5 360 05:19 28.03.2020
5865 Clear -17 1023 77 10000 10 360 04:40 28.03.2020
5866 Clear -18 1022 70 10000 5 360 02:55 28.03.2020
5867 Clouds -18 1022 70 10000 5 10 01:48 28.03.2020
5868 Clouds -18 1022 70 10000 5 10 01:24 28.03.2020
5869 Clouds -18 1021 70 10000 5 350 00:54 28.03.2020
5870 Clouds -18 1021 70 10000 5 350 00:33 28.03.2020
5871 Clouds -19 1020 70 10000 6 360 23:45 27.03.2020
5872 Clouds -19 1020 70 10000 6 360 23:26 27.03.2020
5873 Clouds -20 1020 76 10000 3 10 22:58 27.03.2020
5874 Clouds -20 1020 76 10000 3 10 22:40 27.03.2020
5875 Clouds -20 1020 76 10000 3 10 22:21 27.03.2020
5876 Clouds -21 1019 76 10000 5 350 22:00 27.03.2020
5877 Clouds -21 1019 76 10000 5 350 21:41 27.03.2020
5878 Clouds -21 1019 76 10000 5 350 21:23 27.03.2020
5879 Clouds -21 1018 76 10000 6 10 20:57 27.03.2020
5880 Clouds -21 1018 76 10000 6 10 20:39 27.03.2020
5881 Clouds -21 1018 76 10000 6 10 20:19 27.03.2020
5882 Clouds -21 1018 76 10000 6 10 20:19 27.03.2020
5883 Clouds -21 1018 76 10000 9 20 19:56 27.03.2020
5884 Clouds -21 1018 76 10000 9 20 19:38 27.03.2020
5885 Clouds -21 1018 76 10000 9 20 19:19 27.03.2020
5886 Clouds -21 1017 76 10000 10 10 18:43 27.03.2020
5887 Clouds -21 1017 76 10000 10 10 18:23 27.03.2020
5888 Clouds -20 1016 76 9000 6 350 17:55 27.03.2020
5889 Clouds -20 1016 76 9000 6 350 17:37 27.03.2020
5890 Clouds -18 1016 77 2200 15 40 17:19 27.03.2020
5891 Clouds -16 1016 77 2200 15 40 16:44 27.03.2020
5892 Clouds -16 1016 77 2200 15 40 16:25 27.03.2020
5893 Clouds -17 1016 77 1500 15 30 15:45 27.03.2020
5894 Clouds -17 1016 77 1500 15 30 15:26 27.03.2020
5895 Clouds -17 1015 84 700 17 30 14:57 27.03.2020
5896 Clouds -17 1015 84 700 17 30 14:39 27.03.2020
5897 Clouds -17 1015 84 700 17 30 14:21 27.03.2020
5898 Clouds -16 1015 77 1200 18 40 13:43 27.03.2020
5899 Clouds -16 1015 77 1200 18 40 13:22 27.03.2020
5900 Clouds -17 1015 84 250 16 30 12:59 27.03.2020
5901 Clouds -17 1015 84 250 16 30 12:41 27.03.2020
5902 Clouds -17 1015 84 250 16 30 12:19 27.03.2020
5903 Clouds -16 1015 84 650 14 40 11:43 27.03.2020
5904 Clouds -16 1015 84 650 14 40 11:25 27.03.2020
5905 Clouds -15 1015 84 300 17 30 10:57 27.03.2020
5906 Clouds -15 1015 84 300 17 30 10:39 27.03.2020
5907 Clouds -15 1015 84 300 17 30 10:20 27.03.2020
5908 Clouds -13 1015 84 2100 13 30 09:58 27.03.2020
5909 Clouds -13 1015 84 2100 13 30 09:58 27.03.2020
5910 Clouds -13 1015 84 2100 13 30 09:39 27.03.2020
5911 Clouds -13 1015 84 2100 13 30 09:21 27.03.2020
5912 Clouds -14 1014 84 450 16 30 08:58 27.03.2020
5913 Clouds -14 1014 84 450 16 30 08:39 27.03.2020
5914 Clouds -14 1014 84 450 16 30 08:21 27.03.2020
5915 Clouds -10 1014 78 700 14 30 07:53 27.03.2020
5916 Clouds -10 1014 78 700 14 30 07:28 27.03.2020
5917 Clouds -10 1014 78 800 12 60 06:57 27.03.2020
5918 Snow -10 1014 85 1000 13 30 06:37 27.03.2020
5919 Clouds -10 1014 85 200 16 20 05:37 27.03.2020
5920 Snow -8 1013 85 550 12 60 02:51 27.03.2020
5921 Snow -8 1013 85 1300 12 50 01:50 27.03.2020
5922 Snow -7 1013 79 1900 14 60 00:55 27.03.2020
5923 Snow -8 1013 85 600 14 70 00:32 27.03.2020
5924 Snow -7 1013 85 1300 14 70 23:45 26.03.2020
5925 Snow -7 1013 85 1300 14 70 23:25 26.03.2020
5926 Snow -7 1013 85 800 13 70 22:59 26.03.2020
5927 Snow -7 1013 85 900 12 70 22:39 26.03.2020
5928 Snow -7 1013 85 900 12 70 22:20 26.03.2020
5929 Clouds -7 1013 92 600 12 70 21:59 26.03.2020
5930 Clouds -7 1013 92 600 12 70 21:39 26.03.2020
5931 Clouds -7 1013 85 350 12 80 21:21 26.03.2020
5932 Clouds -7 1012 85 150 17 90 20:58 26.03.2020
5933 Clouds -7 1012 85 150 17 90 20:38 26.03.2020
5934 -273 0 0 0 0 0 20:20 26.03.2020
5935 Clouds -7 1012 92 100 21 90 19:56 26.03.2020
5936 Clouds -7 1012 92 100 21 90 19:38 26.03.2020
5937 Clouds -7 1012 92 100 21 90 19:20 26.03.2020
5938 Clouds -6 1012 92 100 20 90 18:55 26.03.2020
5939 Clouds -6 1012 92 100 20 90 18:37 26.03.2020
5940 Clouds -6 1011 92 150 22 90 18:19 26.03.2020
5941 Clouds -5 1011 92 150 22 90 17:42 26.03.2020
5942 Snow -5 1012 92 200 20 100 17:19 26.03.2020
5943 Snow -5 1012 92 200 20 100 17:19 26.03.2020
5944 Snow -5 1012 92 200 20 100 16:45 26.03.2020
5945 Snow -5 1012 92 200 20 100 16:27 26.03.2020
5946 Snow -5 1013 92 600 15 90 15:59 26.03.2020
5947 Snow -5 1013 92 600 15 90 15:41 26.03.2020
5948 Snow -5 1013 92 600 15 90 15:22 26.03.2020
5949 Snow -5 1014 92 1000 14 90 14:58 26.03.2020
5950 Snow -5 1014 92 1000 14 90 14:39 26.03.2020
5951 Snow -5 1014 92 1000 14 90 14:19 26.03.2020
5952 Snow -5 1014 92 900 14 90 13:43 26.03.2020
5953 Snow -5 1014 92 900 14 90 13:23 26.03.2020
5954 Snow -4 1015 92 1800 8 100 12:57 26.03.2020
5955 Snow -4 1015 92 1800 8 100 12:38 26.03.2020
5956 Snow -4 1015 92 3600 7 100 12:19 26.03.2020
5957 Snow -3 1015 92 3600 7 100 11:45 26.03.2020
5958 Snow -3 1015 92 3600 7 100 11:21 26.03.2020
5959 Snow -4 1015 92 6000 3 30 10:56 26.03.2020
5960 Snow -4 1015 92 6000 3 30 10:37 26.03.2020
5961 Snow -4 1015 92 6000 3 30 10:18 26.03.2020
5962 Snow -2 1016 92 5000 4 50 09:43 26.03.2020
5963 Snow -2 1016 92 5000 4 50 09:20 26.03.2020
5964 Snow -5 1016 100 9000 5 68 08:55 26.03.2020
5965 Snow -5 1016 100 9000 5 68 08:37 26.03.2020
5966 Snow -5 1016 100 9000 3.43 67 08:18 26.03.2020
5967 Clouds -5 1016 92 10000 1 190 07:41 26.03.2020
5968 Clouds -5 1016 92 10000 1 190 07:20 26.03.2020
5969 Fog -5 1016 92 10000 2 320 06:48 26.03.2020
5970 Snow -4 1016 92 10000 1 360 05:54 26.03.2020
5971 Fog -4 1017 92 10000 4 10 03:59 26.03.2020
5972 Fog -4 1017 92 10000 2 360 03:36 26.03.2020
5973 Fog -4 1017 92 10000 1 50 02:54 26.03.2020
5974 Fog -5 1017 92 10000 2 320 01:50 26.03.2020
5975 Clouds -6 1018 92 10000 1 50 00:48 26.03.2020
5976 Clouds -7 1018 92 10000 2 240 23:56 25.03.2020
5977 Clouds -8 1018 92 10000 2 250 23:36 25.03.2020
5978 Clouds -8 1018 92 10000 2 210 23:18 25.03.2020
5979 Clouds -8 1018 92 10000 1 60 22:38 25.03.2020
5980 Clouds -7 1018 92 10000 1 60 22:20 25.03.2020
5981 Clouds -8 1018 92 10000 0.42 220 21:55 25.03.2020
5982 Fog -8 1017 92 10000 1 70 21:37 25.03.2020
5983 Fog -8 1017 92 10000 1 70 21:18 25.03.2020
5984 Fog -8 1017 92 10000 1 30 20:40 25.03.2020
5985 Fog -8 1017 92 10000 1 30 20:20 25.03.2020
5986 Fog -9 1017 92 10000 2 20 19:59 25.03.2020
5987 Fog -9 1017 92 10000 2 20 19:41 25.03.2020
5988 Fog -9 1017 92 10000 2 20 19:21 25.03.2020
5989 Mist -9 1017 92 2200 2 20 18:56 25.03.2020
5990 Mist -9 1017 92 2200 2 20 18:37 25.03.2020
5991 Mist -9 1017 92 2200 2 20 18:37 25.03.2020
5992 Fog -8 1017 92 200 1 50 18:19 25.03.2020
5993 Fog -7 1017 92 200 1 50 17:54 25.03.2020
5994 Fog -7 1017 92 200 1 50 17:36 25.03.2020
5995 Fog -7 1016 92 100 1 360 17:18 25.03.2020
5996 Fog -6 1016 92 100 1 360 16:41 25.03.2020
5997 Fog -6 1016 92 100 1 360 16:21 25.03.2020
5998 Fog -5 1016 92 100 1 360 15:57 25.03.2020
5999 Fog -5 1016 92 100 1 360 15:37 25.03.2020
6000 Fog -5 1016 92 100 1 360 15:18 25.03.2020
6001 Fog -5 1016 92 100 1 360 15:18 25.03.2020
6002 Fog -4 1016 92 150 1 350 14:41 25.03.2020
6003 Fog -4 1016 92 150 1 350 14:21 25.03.2020
6004 Fog -4 1015 100 100 4 330 13:46 25.03.2020
6005 Fog -4 1015 100 100 4 330 13:26 25.03.2020
6006 Clouds -2 1015 92 10000 4 310 12:57 25.03.2020
6007 Clouds -2 1015 92 10000 4 310 12:37 25.03.2020
6008 Clouds -2 1015 92 10000 4 310 12:18 25.03.2020
6009 Clouds -2 1015 92 10000 2.62 303 11:43 25.03.2020
6010 Clouds -2 1015 92 10000 2.62 303 11:21 25.03.2020
6011 Clouds -2 1015 92 10000 2.62 303 11:21 25.03.2020
6012 Clouds -2 1015 92 10000 1 310 10:59 25.03.2020
6013 Clouds -2 1015 92 10000 1 310 10:40 25.03.2020
6014 Clouds -2 1015 92 10000 1 310 10:19 25.03.2020
6015 Clouds -1 1014 92 10000 3.01 265 09:59 25.03.2020
6016 Clouds -1 1014 92 10000 3.01 265 09:40 25.03.2020
6017 Clouds -1 1014 92 10000 3.01 265 09:22 25.03.2020
6018 Clouds -1 1014 86 10000 1 180 08:54 25.03.2020
6019 Clouds -1 1013 86 10000 3.01 265 08:36 25.03.2020
6020 Clouds -1 1013 86 10000 1.69 243 08:18 25.03.2020
6021 Clouds -1 1013 92 10000 1 290 07:39 25.03.2020
6022 Clouds -1 1013 92 10000 1 290 07:19 25.03.2020
6023 Clouds -1 1013 86 10000 1 310 06:45 25.03.2020
6024 Clouds -1 1013 92 10000 1 310 06:25 25.03.2020
6025 Clouds 0 1012 96 10000 2 30 05:50 25.03.2020
6026 Clouds -1 1012 92 10000 2 40 04:59 25.03.2020
6027 Clouds -1 1013 92 10000 2 30 04:36 25.03.2020
6028 Clouds -2 1013 92 10000 1.93 230 03:34 25.03.2020
6029 Clouds -2 1013 86 10000 2 180 01:55 25.03.2020
6030 Snow -3 1013 92 8000 1 210 01:20 25.03.2020
6031 Clouds -3 1013 92 7000 2 200 00:43 25.03.2020
6032 Clouds -3 1013 92 7000 2 200 00:19 25.03.2020
6033 Mist -3 1013 92 6000 3 170 23:42 24.03.2020
6034 Mist -3 1013 92 6000 3 170 23:22 24.03.2020
6035 Mist -3 1013 92 10000 2 230 22:55 24.03.2020
6036 Fog -3 1012 92 10000 4 150 22:37 24.03.2020
6037 Fog -3 1012 92 10000 4 150 22:37 24.03.2020
6038 Fog -3 1012 92 10000 4 150 22:19 24.03.2020
6039 Fog -2 1013 86 10000 4 150 21:54 24.03.2020
6040 Clouds -2 1013 86 10000 4 170 21:36 24.03.2020
6041 Clouds -2 1013 86 10000 4 170 21:18 24.03.2020
6042 Clouds -2 1013 86 10000 3 170 20:41 24.03.2020
6043 Clouds -2 1013 86 10000 3 170 20:23 24.03.2020
6044 Clouds 0 1013 97 10000 4 140 19:54 24.03.2020
6045 Clouds 0 1013 97 10000 4 140 19:36 24.03.2020
6046 Clouds 0 1013 97 10000 4 140 19:18 24.03.2020
6047 Clouds 0 1013 97 10000 5 140 18:54 24.03.2020
6048 Clouds 0 1013 97 10000 5 140 18:36 24.03.2020
6049 Clouds 0 1014 97 10000 5 140 18:18 24.03.2020
6050 Clouds 0 1014 97 10000 5 140 17:41 24.03.2020
6051 Clouds 0 1014 97 10000 5 140 17:22 24.03.2020
6052 Clouds 0 1014 97 10000 5 140 17:22 24.03.2020
6053 Clouds -3 1014 86 10000 3 170 16:57 24.03.2020
6054 Clouds -3 1014 86 10000 3 170 16:39 24.03.2020
6055 -273 0 0 0 0 0 16:20 24.03.2020
6056 Clouds -1 1015 80 10000 3 160 15:55 24.03.2020
6057 Clouds -1 1015 80 10000 3 160 15:37 24.03.2020
6058 Clouds -1 1015 80 10000 3 160 15:19 24.03.2020
6059 Clouds -1 1015 80 10000 4 170 14:42 24.03.2020
6060 Clouds -1 1015 80 10000 4 170 14:18 24.03.2020
6061 Clouds -2 1016 86 10000 5 180 13:42 24.03.2020
6062 Clouds -2 1016 86 10000 5 180 13:23 24.03.2020
6063 Clouds -2 1016 86 10000 4 170 12:54 24.03.2020
6064 Clouds -2 1016 86 10000 4 170 12:36 24.03.2020
6065 Clouds -2 1016 86 10000 4 170 12:18 24.03.2020
6066 Clouds -2 1017 86 10000 4 180 11:39 24.03.2020
6067 Clouds -2 1017 86 10000 4 180 11:19 24.03.2020
6068 Clouds 0 1017 90 10000 4 170 10:43 24.03.2020
6069 Clouds 0 1017 90 10000 4 170 10:43 24.03.2020
6070 Clouds 0 1017 90 10000 4 170 10:20 24.03.2020
6071 Clouds 0 1017 90 10000 4 170 09:58 24.03.2020
6072 Clouds 0 1017 90 10000 4 170 09:39 24.03.2020
6073 Clouds 0 1017 90 10000 4 170 09:21 24.03.2020
6074 Clouds -1 1017 80 10000 4 160 08:38 24.03.2020
6075 Clear -1 1017 80 10000 4 160 08:20 24.03.2020
6076 Clear -1 1017 74 10000 2 120 07:47 24.03.2020
6077 Clear -1 1017 74 10000 2 120 07:24 24.03.2020
6078 Clear 0 1017 90 10000 2 140 06:53 24.03.2020
6079 Clear -1 1017 80 10000 2 150 06:27 24.03.2020
6080 Clear -2 1017 79 10000 3.35 220 04:57 24.03.2020
6081 Clear -3 1017 86 10000 1 230 03:48 24.03.2020
6082 Clear -2 1017 79 10000 1 160 03:18 24.03.2020
6083 Clouds -1 1017 80 10000 2 160 01:47 24.03.2020
6084 Clouds -3 1017 79 10000 4 150 00:48 24.03.2020
6085 Clouds -2 1017 79 10000 3 150 00:25 24.03.2020
6086 Clouds -4 1017 85 10000 4 150 23:45 23.03.2020
6087 Clouds -4 1017 85 10000 4 150 23:26 23.03.2020
6088 Clouds -3 1017 86 10000 4 150 22:56 23.03.2020
6089 Clouds -3 1016 79 10000 4 160 22:37 23.03.2020
6090 Clouds -2 1016 79 10000 4 160 22:19 23.03.2020
6091 Clouds -2 1016 86 10000 4 170 21:44 23.03.2020
6092 Clouds -2 1017 86 10000 4 180 21:21 23.03.2020
6093 Clouds -1 1017 80 10000 4 170 20:58 23.03.2020
6094 Clouds -1 1017 80 10000 4 170 20:40 23.03.2020
6095 Clouds -1 1017 80 10000 4 170 20:22 23.03.2020
6096 Clouds -1 1016 80 10000 5 180 19:46 23.03.2020
6097 Clouds -1 1016 80 10000 5 180 19:28 23.03.2020
6098 Clouds -1 1017 86 10000 5 180 18:59 23.03.2020
6099 Clouds -1 1017 86 10000 5 180 18:41 23.03.2020
6100 Clouds -1 1017 86 10000 5 180 18:22 23.03.2020
6101 Clouds 0 1017 88 10000 5 170 17:56 23.03.2020
6102 Clouds 0 1017 88 10000 5 170 17:37 23.03.2020
6103 Clouds 0 1017 87 10000 6 170 17:18 23.03.2020
6104 Clouds 0 1017 87 10000 6 170 16:43 23.03.2020
6105 Clouds 0 1017 87 10000 6 170 16:24 23.03.2020
6106 Clouds 0 1018 87 10000 6 170 15:42 23.03.2020
6107 Clouds 0 1018 87 10000 6 170 15:21 23.03.2020
6108 Clouds 0 1018 87 10000 7 170 14:57 23.03.2020
6109 Clouds 0 1018 87 10000 7 170 14:37 23.03.2020
6110 Clouds 0 1018 90 10000 7 170 14:18 23.03.2020
6111 Clouds 1 1019 86 10000 6 180 13:41 23.03.2020
6112 Clouds 1 1019 86 10000 6 180 13:41 23.03.2020
6113 Clouds 1 1019 86 10000 6 180 13:22 23.03.2020
6114 Clouds 1 1019 86 10000 5 180 12:58 23.03.2020
6115 Clouds 1 1019 86 10000 5 180 12:58 23.03.2020
6116 Clouds 1 1019 86 10000 5 180 12:40 23.03.2020
6117 Clouds 1 1019 86 10000 5 180 12:21 23.03.2020
6118 Snow 1 1020 86 10000 7 170 11:42 23.03.2020
6119 Snow 1 1020 86 10000 7 170 11:42 23.03.2020
6120 Snow 1 1020 86 10000 7 170 11:21 23.03.2020
6121 Snow 1 1019 86 9000 6 170 10:58 23.03.2020
6122 Snow 1 1019 86 9000 6 170 10:39 23.03.2020
6123 Snow 1 1019 86 9000 6 170 10:21 23.03.2020
6124 Snow 1 1020 86 10000 7 150 09:57 23.03.2020
6125 Snow 1 1020 86 10000 7 150 09:39 23.03.2020
6126 Snow 1 1020 86 10000 7 150 09:18 23.03.2020
6127 Clouds 1 1020 74 10000 5 150 08:38 23.03.2020
6128 Clouds 1 1020 74 10000 5 150 08:19 23.03.2020
6129 Clouds 1 1020 74 10000 7 150 07:50 23.03.2020
6130 Clouds 1 1020 69 10000 7 140 07:32 23.03.2020
6131 Clouds 0 1020 89 10000 7 150 06:54 23.03.2020
6132 Clouds 0 1020 89 10000 7 150 06:32 23.03.2020
6133 Clouds -1 1021 80 10000 5 150 05:42 23.03.2020
6134 Fog 0 1022 85 10000 4 150 03:45 23.03.2020
6135 Fog -1 1022 85 10000 4 160 02:43 23.03.2020
6136 Clouds 0 1022 89 10000 6 170 01:38 23.03.2020
6137 Clouds 0 1022 74 10000 4 160 00:44 23.03.2020
6138 Fog 0 1022 90 10000 5 150 23:54 22.03.2020
6139 Fog 0 1022 90 10000 5 160 23:36 22.03.2020
6140 Fog 0 1022 96 10000 5 160 23:18 22.03.2020
6141 Fog 0 1021 96 10000 6 150 22:40 22.03.2020
6142 Fog 0 1021 96 10000 6 150 22:19 22.03.2020
6143 Fog -1 1021 80 10000 5 180 21:40 22.03.2020
6144 Fog -2 1021 86 10000 4 180 21:21 22.03.2020
6145 Fog -5 1021 85 10000 2 300 20:58 22.03.2020
6146 Fog -5 1021 85 10000 2 300 20:39 22.03.2020
6147 Fog -5 1021 85 10000 2 300 20:21 22.03.2020
6148 Fog -3 1021 100 10000 1 280 19:55 22.03.2020
6149 Fog -3 1021 100 10000 1 280 19:37 22.03.2020
6150 Fog -3 1021 100 10000 1 280 19:19 22.03.2020
6151 Fog -8 1021 92 9000 2 320 18:56 22.03.2020
6152 Fog -8 1021 92 9000 2 320 18:38 22.03.2020
6153 Fog -8 1021 92 9000 2 320 18:18 22.03.2020
6154 Fog -10 1021 92 10000 4 120 17:56 22.03.2020
6155 Fog -10 1021 92 10000 4 120 17:37 22.03.2020
6156 Fog -10 1021 92 10000 4 120 17:19 22.03.2020
6157 Fog -10 1022 92 10000 2 320 16:55 22.03.2020
6158 Fog -10 1022 92 10000 2 320 16:36 22.03.2020
6159 Fog -10 1022 92 10000 2 320 16:18 22.03.2020
6160 Fog -10 1022 92 10000 2 20 15:39 22.03.2020
6161 Clouds -8 1022 85 10000 2 340 14:55 22.03.2020
6162 Clouds -8 1022 85 10000 2 340 14:37 22.03.2020
6163 Clouds -8 1022 85 10000 2 340 14:18 22.03.2020
6164 Clouds -4 1023 92 10000 2 20 13:41 22.03.2020
6165 Clouds -4 1023 92 10000 2 20 13:20 22.03.2020
6166 Clouds -3 1022 92 10000 3 210 12:47 22.03.2020
6167 Clouds -3 1022 92 10000 3 210 12:23 22.03.2020
6168 Clouds -1 1022 86 10000 3 190 11:59 22.03.2020
6169 Clouds -1 1022 86 10000 3 190 11:41 22.03.2020
6170 Clouds -1 1022 86 10000 3 190 11:23 22.03.2020
6171 Snow -1 1021 86 10000 8 150 10:56 22.03.2020
6172 Snow -1 1021 86 10000 8 150 10:38 22.03.2020
6173 Snow -1 1021 86 10000 8 150 10:20 22.03.2020
6174 Snow -3 1020 86 10000 9 110 09:42 22.03.2020
6175 Snow -3 1020 86 10000 9 110 09:22 22.03.2020
6176 Snow -4 1021 85 2300 12 110 08:44 22.03.2020
6177 Snow -4 1021 85 2300 12 110 08:24 22.03.2020
6178 Snow -5 1021 85 6000 11 120 07:52 22.03.2020
6179 Snow -5 1021 85 6000 11 120 07:26 22.03.2020
6180 Snow -6 1021 85 1300 13 110 06:35 22.03.2020
6181 Snow -7 1022 85 1400 12 120 05:35 22.03.2020
6182 Snow -8 1024 61 10000 7 140 03:46 22.03.2020
6183 Clouds -9 1026 61 10000 1 340 01:28 22.03.2020
6184 Clouds -13 1026 71 10000 2 60 00:48 22.03.2020
6185 Clouds -13 1026 71 10000 2 60 00:29 22.03.2020
6186 Clouds -15 1026 71 10000 1 230 23:44 21.03.2020
6187 Clouds -15 1026 71 10000 1 230 23:19 21.03.2020
6188 Clouds -17 1026 77 10000 1 220 22:58 21.03.2020
6189 Clouds -17 1026 77 10000 1 220 22:37 21.03.2020
6190 Clouds -17 1026 77 10000 1 220 22:18 21.03.2020
6191 Clouds -18 1025 77 10000 2 120 21:56 21.03.2020
6192 Clouds -18 1025 77 10000 2 120 21:37 21.03.2020
6193 Clouds -18 1025 77 10000 2 120 21:18 21.03.2020
6194 Clouds -20 1025 76 10000 2 90 20:41 21.03.2020
6195 Clouds -20 1025 76 10000 2 90 20:20 21.03.2020
6196 Clouds -20 1024 76 10000 2 60 19:44 21.03.2020
6197 Clouds -20 1024 76 10000 2 60 19:25 21.03.2020
6198 Clouds -22 1024 69 10000 2 60 18:59 21.03.2020
6199 Clouds -22 1024 69 10000 2 60 18:39 21.03.2020
6200 Clouds -22 1024 69 10000 2 60 18:20 21.03.2020
6201 Clouds -21 1023 76 10000 2 100 17:57 21.03.2020
6202 Clouds -21 1023 76 10000 2 100 17:39 21.03.2020
6203 Clear -21 1023 76 10000 2 100 17:20 21.03.2020
6204 Clear -22 1023 76 10000 2 80 16:41 21.03.2020
6205 Clear -22 1023 76 10000 2 80 16:21 21.03.2020
6206 Clear -22 1022 76 10000 2 50 15:56 21.03.2020
6207 Clear -22 1022 76 10000 2 50 15:37 21.03.2020
6208 Clear -22 1022 76 10000 2 50 15:19 21.03.2020
6209 Clear -20 1021 76 10000 2 50 14:54 21.03.2020
6210 Clear -20 1021 76 10000 2 50 14:36 21.03.2020
6211 Clear -20 1021 76 10000 2 50 14:36 21.03.2020
6212 Clear -20 1021 76 10000 2 50 14:18 21.03.2020
6213 Clear -19 1021 77 10000 2 310 13:57 21.03.2020
6214 Clear -19 1021 77 10000 2 310 13:38 21.03.2020
6215 Clear -19 1021 77 10000 2 310 13:19 21.03.2020
6216 Clear -18 1020 70 10000 3 300 12:40 21.03.2020
6217 Clear -18 1020 70 10000 3 300 12:20 21.03.2020
6218 Clear -18 1020 70 10000 3 300 12:20 21.03.2020
6219 Clear -19 1019 70 10000 3 310 11:59 21.03.2020
6220 Clear -19 1019 70 10000 3 310 11:39 21.03.2020
6221 Clear -19 1019 70 10000 3 310 11:39 21.03.2020
6222 Clear -18 1019 70 10000 2 270 11:20 21.03.2020
6223 Clear -17 1019 70 10000 2 270 10:58 21.03.2020
6224 Clear -17 1019 70 10000 2 270 10:39 21.03.2020
6225 Clear -17 1019 70 10000 2 270 10:21 21.03.2020
6226 Clear -17 1018 70 10000 2 300 09:58 21.03.2020
6227 Clear -17 1018 70 10000 2 300 09:38 21.03.2020
6228 Clear -17 1018 70 10000 2 300 09:20 21.03.2020
6229 Clear -16 1017 71 10000 1 330 08:55 21.03.2020
6230 Clear -16 1017 71 10000 1 330 08:37 21.03.2020
6231 Clear -16 1017 71 10000 1 330 08:18 21.03.2020
6232 Clear -15 1016 71 10000 3 310 07:33 21.03.2020
6233 Clear -14 1016 71 10000 2 340 06:56 21.03.2020
6234 Clear -14 1016 71 10000 2 340 06:36 21.03.2020
6235 Clear -14 1015 71 10000 3 320 06:18 21.03.2020
6236 Clear -13 1015 71 10000 3 320 05:23 21.03.2020
6237 Clear -13 1014 78 10000 1 200 03:39 21.03.2020
6238 Clear -13 1014 71 10000 1 160 02:36 21.03.2020
6239 Clear -13 1013 71 10000 2 170 01:43 21.03.2020
6240 Clear -14 1013 71 10000 2 180 01:22 21.03.2020
6241 Clear -14 1013 65 10000 2 160 00:39 21.03.2020
6242 Clear -14 1013 65 10000 2 160 00:20 21.03.2020
6243 Clear -14 1012 60 10000 1 110 23:41 20.03.2020
6244 Clear -14 1012 60 10000 1 110 23:20 20.03.2020
6245 Clear -16 1012 65 10000 1 60 22:44 20.03.2020
6246 Clear -17 1011 70 10000 1 20 22:24 20.03.2020
6247 Clear -17 1011 70 10000 1 340 21:58 20.03.2020
6248 Clear -17 1011 65 10000 2 350 21:39 20.03.2020
6249 Clear -16 1011 65 10000 2 350 21:19 20.03.2020
6250 Clear -16 1010 71 10000 2 360 20:57 20.03.2020
6251 Clear -16 1010 71 10000 2 360 20:39 20.03.2020
6252 Clouds -16 1010 71 10000 2 360 20:19 20.03.2020
6253 Clouds -16 1009 71 10000 3 340 19:46 20.03.2020
6254 Clouds -16 1009 71 10000 3 340 19:20 20.03.2020
6255 Clouds -16 1008 71 10000 2 330 18:57 20.03.2020
6256 Clouds -16 1008 71 10000 2 330 18:38 20.03.2020
6257 Clouds -16 1008 71 10000 2 330 18:19 20.03.2020
6258 Clouds -16 1008 65 10000 2 30 17:56 20.03.2020
6259 Clouds -16 1008 65 10000 2 30 17:37 20.03.2020
6260 Snow -16 1007 65 10000 2 10 17:18 20.03.2020
6261 Snow -16 1007 65 10000 2 10 16:41 20.03.2020
6262 Snow -16 1007 65 10000 2 10 16:41 20.03.2020
6263 Snow -16 1007 65 10000 2 10 16:20 20.03.2020
6264 Clouds -17 1006 70 10000 4 350 15:44 20.03.2020
6265 Clouds -17 1006 70 10000 4 350 15:23 20.03.2020
6266 Clouds -16 1006 65 10000 3 350 14:58 20.03.2020
6267 Clouds -16 1006 65 10000 3 350 14:40 20.03.2020
6268 Clouds -16 1006 65 10000 3 350 14:20 20.03.2020
6269 Clouds -16 1005 71 10000 3 320 13:48 20.03.2020
6270 Clouds -16 1005 71 10000 3 320 13:22 20.03.2020
6271 Clouds -16 1004 71 10000 3 310 12:58 20.03.2020
6272 Clouds -16 1004 71 10000 3 310 12:38 20.03.2020
6273 Clouds -16 1004 71 10000 3 310 12:19 20.03.2020
6274 Clouds -17 1003 77 10000 3 360 11:39 20.03.2020
6275 Clouds -17 1002 71 10000 2 360 11:20 20.03.2020
6276 Clouds -16 1002 71 10000 2 360 10:55 20.03.2020
6277 Clouds -17 1002 77 10000 2 360 10:36 20.03.2020
6278 Clouds -17 1002 77 10000 2 360 10:18 20.03.2020
6279 Clouds -17 1001 77 10000 3 340 09:44 20.03.2020
6280 Clouds -16 1001 71 10000 3 330 09:20 20.03.2020
6281 Clouds -16 1000 71 10000 4 310 08:44 20.03.2020
6282 Clouds -16 999 77 10000 5 310 08:23 20.03.2020
6283 Clouds -16 999 77 10000 9 300 07:59 20.03.2020
6284 Clouds -16 998 77 10000 11 290 07:38 20.03.2020
6285 Clouds -16 998 77 10000 11 290 07:19 20.03.2020
6286 Clouds -16 997 77 9000 10 300 06:42 20.03.2020
6287 Clouds -16 996 77 8000 14 290 06:18 20.03.2020
6288 Clouds -15 994 77 4300 11 290 04:38 20.03.2020
6289 Clouds -14 993 77 2200 14 290 02:50 20.03.2020
6290 Clouds -14 992 84 2100 13 290 01:50 20.03.2020
6291 Clouds -13 991 78 8000 9 300 00:41 20.03.2020
6292 Clouds -13 990 84 9000 8 300 23:59 19.03.2020
6293 Clouds -13 989 84 9000 4 300 23:40 19.03.2020
6294 Clouds -13 989 84 9000 4 300 23:22 19.03.2020
6295 Snow -13 987 92 3000 13 300 22:41 19.03.2020
6296 Snow -13 987 92 3000 13 300 22:22 19.03.2020
6297 Snow -12 987 92 3600 10 300 21:58 19.03.2020
6298 Snow -11 986 85 2300 8 300 21:38 19.03.2020
6299 Snow -11 986 85 2300 8 300 21:19 19.03.2020
6300 Snow -11 984 92 900 8 290 20:44 19.03.2020
6301 Snow -11 984 92 900 8 290 20:25 19.03.2020
6302 Snow -10 983 92 800 3 310 19:59 19.03.2020
6303 Snow -10 983 92 800 3 310 19:39 19.03.2020
6304 Snow -10 983 92 800 3 310 19:20 19.03.2020
6305 Snow -8 981 92 3500 8 300 18:58 19.03.2020
6306 Snow -8 981 92 3500 8 300 18:40 19.03.2020
6307 Mist -6 980 92 1200 7 290 18:21 19.03.2020
6308 Mist -6 980 92 1200 7 290 18:21 19.03.2020
6309 Mist -6 980 92 1200 7 290 17:44 19.03.2020
6310 Mist -5 978 92 1900 8 280 17:20 19.03.2020
6311 Mist -5 978 92 1900 8 280 17:20 19.03.2020
6312 Mist -4 978 92 1900 8 280 16:58 19.03.2020
6313 Mist -4 978 92 1900 8 280 16:39 19.03.2020
6314 Mist -4 978 92 1900 8 280 16:21 19.03.2020
6315 Fog -1 977 92 10000 4.54 293 15:42 19.03.2020
6316 Fog -1 977 92 10000 4.54 293 15:23 19.03.2020
6317 Fog -1 977 92 10000 4.54 293 15:23 19.03.2020
6318 Clouds -1 977 92 10000 2 220 14:43 19.03.2020
6319 Clouds -1 977 92 10000 2 220 14:23 19.03.2020
6320 Snow 0 976 97 4700 1 110 13:57 19.03.2020
6321 Snow 0 976 97 4700 1 110 13:37 19.03.2020
6322 Snow 0 976 97 4700 1 110 13:18 19.03.2020
6323 Snow 0 976 98 10000 3 140 12:41 19.03.2020
6324 Snow 0 976 98 10000 3 140 12:22 19.03.2020
6325 Snow 0 976 98 5000 5 120 11:57 19.03.2020
6326 Snow 0 976 98 5000 5 120 11:38 19.03.2020
6327 Snow 0 976 98 2800 6 140 11:20 19.03.2020
6328 Snow 0 976 98 2800 6 140 10:41 19.03.2020
6329 Snow 0 976 98 2800 6 140 10:20 19.03.2020
6330 Snow 0 976 98 2200 8 130 09:57 19.03.2020
6331 Snow 0 976 98 2200 8 130 09:37 19.03.2020
6332 Snow 0 976 98 2200 8 130 09:18 19.03.2020
6333 Clouds 0 977 98 10000 10 130 08:42 19.03.2020
6334 Clouds 0 977 98 10000 10 130 08:21 19.03.2020
6335 Clouds 0 977 92 9000 9 120 07:46 19.03.2020
6336 Clouds 0 977 92 9000 9 120 07:28 19.03.2020
6337 Clouds 0 977 92 8000 10 130 06:48 19.03.2020
6338 Mist 0 978 92 5000 10 130 05:49 19.03.2020
6339 Mist 0 978 90 4800 11 130 04:59 19.03.2020
6340 Clouds 0 979 90 8000 10 130 04:40 19.03.2020
6341 Clouds 0 980 90 6000 10 120 02:50 19.03.2020
6342 Fog 0 982 91 650 10 120 01:25 19.03.2020
6343 Fog 0 982 91 550 11 130 00:35 19.03.2020
6344 Fog 0 982 91 550 10 120 23:57 18.03.2020
6345 Mist 0 983 91 1200 12 130 23:31 18.03.2020
6346 Clouds 0 983 96 2000 11 120 22:58 18.03.2020
6347 Clouds 0 983 96 1200 13 120 22:40 18.03.2020
6348 Clouds 0 983 96 1200 13 120 22:21 18.03.2020
6349 Snow 0 983 96 1000 13 120 21:43 18.03.2020
6350 Snow 0 983 96 650 17 130 21:22 18.03.2020
6351 Snow -1 985 92 650 17 130 20:59 18.03.2020
6352 Snow -1 985 92 650 17 130 20:41 18.03.2020
6353 Snow -1 985 92 650 17 130 20:21 18.03.2020
6354 Snow -1 986 92 400 18 120 19:58 18.03.2020
6355 Snow -1 986 92 400 18 120 19:40 18.03.2020
6356 Snow -2 986 92 400 18 120 19:21 18.03.2020
6357 Snow -2 988 92 300 17 110 18:42 18.03.2020
6358 Snow -3 990 92 250 17 110 18:21 18.03.2020
6359 Snow -3 990 92 250 17 110 17:59 18.03.2020
6360 Snow -3 990 92 250 17 110 17:59 18.03.2020
6361 Snow -3 990 92 250 17 110 17:41 18.03.2020
6362 Snow -3 993 92 300 18 100 17:22 18.03.2020
6363 Snow -2 993 92 300 18 100 16:58 18.03.2020
6364 Snow -2 993 92 300 18 100 16:40 18.03.2020
6365 Snow -2 993 92 300 18 100 16:20 18.03.2020
6366 Snow -2 996 86 500 15 110 15:46 18.03.2020
6367 Snow -2 996 86 500 15 110 15:27 18.03.2020
6368 Snow -2 999 86 4400 13 120 14:58 18.03.2020
6369 Snow -2 999 86 4400 13 120 14:40 18.03.2020
6370 Snow -2 999 86 4400 13 120 14:20 18.03.2020
6371 Snow -3 999 86 1600 16 110 13:40 18.03.2020
6372 Snow -3 999 86 1600 16 110 13:19 18.03.2020
6373 Clouds -2 1001 63 10000 11 100 12:42 18.03.2020
6374 Clouds -2 1002 63 10000 5 100 12:21 18.03.2020
6375 Clouds -2 1002 63 10000 5 100 11:58 18.03.2020
6376 Clouds -2 1002 63 10000 5 100 11:37 18.03.2020
6377 Clouds -3 1004 63 10000 3 110 11:18 18.03.2020
6378 Clouds -3 1004 63 10000 3 110 10:55 18.03.2020
6379 Clouds -3 1004 63 10000 3 110 10:36 18.03.2020
6380 Clouds -3 1004 63 10000 3 110 10:18 18.03.2020
6381 Clouds -2 1004 54 10000 3 160 09:41 18.03.2020
6382 Clouds -2 1004 54 10000 3 160 09:22 18.03.2020
6383 Clouds -3 1004 58 10000 3 140 08:40 18.03.2020
6384 Clouds -3 1004 58 10000 3 140 08:22 18.03.2020
6385 Clouds -5 1003 67 10000 4 120 07:59 18.03.2020
6386 Clouds -5 1003 67 10000 4 120 07:37 18.03.2020
6387 Clouds -5 1003 67 10000 4 120 07:19 18.03.2020
6388 Clouds -4 1004 73 10000 3 160 06:39 18.03.2020
6389 Clouds -4 1003 73 10000 3 150 05:43 18.03.2020
6390 Clouds -4 1003 73 10000 3 140 04:58 18.03.2020
6391 Clouds -3 1001 73 10000 3 190 03:21 18.03.2020
6392 Clouds -4 1001 79 10000 3 190 02:37 18.03.2020
6393 Clouds -4 1001 79 10000 3 190 02:37 18.03.2020
6394 Clouds -4 1001 79 10000 3 190 02:37 18.03.2020
6395 Clouds -4 1001 79 10000 3 240 01:45 18.03.2020
6396 Clouds -4 1000 73 10000 1 150 01:19 18.03.2020
6397 Clouds -5 1000 79 10000 3 190 00:22 18.03.2020
6398 Clouds -5 999 79 10000 2 150 23:43 17.03.2020
6399 Clouds -5 998 79 10000 3 160 23:22 17.03.2020
6400 Clouds -5 998 85 10000 2 160 22:47 17.03.2020
6401 Clouds -6 998 85 10000 2 160 22:28 17.03.2020
6402 Clouds -6 997 85 10000 3 180 21:57 17.03.2020
6403 Clouds -6 997 79 10000 5 160 21:36 17.03.2020
6404 Clouds -6 997 79 10000 5 160 21:18 17.03.2020
6405 Clear -6 996 79 10000 4 160 20:38 17.03.2020
6406 Snow -6 996 79 10000 4 160 20:19 17.03.2020
6407 Snow -5 995 85 10000 5 190 19:42 17.03.2020
6408 Snow -5 995 85 10000 5 190 19:22 17.03.2020
6409 Clouds -3 995 86 10000 5 180 18:59 17.03.2020
6410 Clouds -3 995 86 10000 5 180 18:40 17.03.2020
6411 Clouds -3 995 86 10000 5 180 18:22 17.03.2020
6412 Snow -2 995 92 10000 7 170 17:59 17.03.2020
6413 Snow -2 995 92 10000 7 170 17:39 17.03.2020
6414 Snow -2 995 92 10000 7 170 17:19 17.03.2020
6415 Snow -2 995 92 2000 9 140 16:43 17.03.2020
6416 Snow -2 995 92 2000 9 140 16:19 17.03.2020
6417 Snow -2 995 92 1800 11 130 15:48 17.03.2020
6418 Snow -2 995 92 1800 11 130 15:23 17.03.2020
6419 Snow -2 996 92 1300 13 130 14:49 17.03.2020
6420 Snow -2 996 92 1300 13 130 14:30 17.03.2020
6421 Snow -2 997 92 750 13 120 13:59 17.03.2020
6422 Snow -2 997 92 750 13 120 13:41 17.03.2020
6423 -273 0 0 0 0 0 13:22 17.03.2020
6424 Snow -2 998 92 600 15 130 12:47 17.03.2020
6425 Snow -2 998 92 600 15 130 12:25 17.03.2020
6426 Snow -2 999 92 500 15 120 11:57 17.03.2020
6427 Snow -2 999 92 500 15 120 11:39 17.03.2020
6428 Snow -2 1000 92 400 16 120 11:20 17.03.2020
6429 Snow -2 1000 92 400 16 120 10:54 17.03.2020
6430 Snow -2 1000 92 400 16 120 10:36 17.03.2020
6431 Snow -2 1000 92 400 16 120 10:18 17.03.2020
6432 Snow -2 1001 92 400 16 120 09:45 17.03.2020
6433 Snow -2 1001 92 400 16 120 09:45 17.03.2020
6434 Snow -2 1001 92 400 16 120 09:20 17.03.2020
6435 Clouds -2 1000 92 3900 19 130 08:57 17.03.2020
6436 Clouds -2 1000 92 3900 19 130 08:39 17.03.2020
6437 Clouds -2 1000 92 3900 19 130 08:18 17.03.2020
6438 Clouds -2 1001 92 2100 20 130 07:47 17.03.2020
6439 Clouds -2 1001 92 10000 20 140 07:20 17.03.2020
6440 Clouds -1 1003 86 10000 18 120 06:45 17.03.2020
6441 Clouds -1 1004 86 10000 18 120 06:24 17.03.2020
6442 Clouds -1 1005 86 10000 18 130 05:18 17.03.2020
6443 Mist -1 1006 92 10000 17 120 03:27 17.03.2020
6444 Clouds -1 1008 92 700 16 120 01:50 17.03.2020
6445 Clouds -1 1008 92 800 16 120 01:30 17.03.2020
6446 Clouds -2 1009 92 1000 16 120 00:51 17.03.2020
6447 Clouds -3 1010 92 800 17 120 23:52 16.03.2020
6448 Clouds -3 1010 92 800 17 120 23:34 16.03.2020
6449 Clouds -3 1011 92 1400 16 120 22:55 16.03.2020
6450 Clouds -3 1010 92 1000 17 120 22:36 16.03.2020
6451 Clouds -3 1010 92 1000 17 120 22:18 16.03.2020
6452 Clouds -3 1011 92 1300 15 120 21:41 16.03.2020
6453 Mist -3 1012 92 5000 16 130 21:23 16.03.2020
6454 Mist -3 1012 92 6000 15 120 20:58 16.03.2020
6455 Mist -3 1012 92 6000 15 120 20:38 16.03.2020
6456 Mist -3 1012 92 6000 15 120 20:20 16.03.2020
6457 Clouds -3 1012 92 7000 16 150 19:42 16.03.2020
6458 Clouds -3 1012 92 7000 16 150 19:23 16.03.2020
6459 Mist -2 1013 86 5000 15 130 18:57 16.03.2020
6460 Mist -2 1013 86 5000 15 130 18:37 16.03.2020
6461 Clouds -2 1014 86 10000 12 130 18:18 16.03.2020
6462 Clouds -2 1014 86 10000 12 130 17:43 16.03.2020
6463 Clouds -2 1014 86 10000 12 130 17:24 16.03.2020
6464 Snow -2 1014 86 10000 13 130 16:47 16.03.2020
6465 Snow -2 1014 86 10000 13 130 16:29 16.03.2020
6466 Snow -1 1015 86 10000 15 140 15:57 16.03.2020
6467 Snow -1 1015 86 10000 15 140 15:39 16.03.2020
6468 Snow -1 1015 86 10000 15 140 15:19 16.03.2020
6469 Snow -1 1016 80 10000 12 140 14:43 16.03.2020
6470 Snow -1 1016 80 10000 12 140 14:19 16.03.2020
6471 Snow -1 1017 74 10000 10 140 13:42 16.03.2020
6472 Snow -1 1017 74 10000 10 140 13:24 16.03.2020
6473 Snow -3 1018 79 10000 10 120 12:46 16.03.2020
6474 Snow -3 1018 79 10000 10 120 12:27 16.03.2020
6475 Snow -3 1018 86 10000 10 120 11:59 16.03.2020
6476 Snow -3 1019 86 10000 11 120 11:41 16.03.2020
6477 Snow -3 1018 79 10000 10 130 11:18 16.03.2020
6478 Snow -3 1019 79 10000 10 110 10:42 16.03.2020
6479 Snow -3 1019 79 10000 10 110 10:24 16.03.2020
6480 Snow -4 1019 85 10000 11 110 09:45 16.03.2020
6481 Snow -3 1019 79 10000 9 110 09:27 16.03.2020
6482 Snow -3 1020 79 10000 10 110 08:56 16.03.2020
6483 Clouds -3 1019 79 10000 9 110 08:26 16.03.2020
6484 Clouds -5 1019 85 10000 11 110 07:50 16.03.2020
6485 Mist -4 1020 85 9000 12 110 07:28 16.03.2020
6486 Clouds -4 1020 85 10000 10 110 06:54 16.03.2020
6487 Clouds -4 1020 85 10000 10 110 06:54 16.03.2020
6488 Clouds -4 1020 85 10000 9 110 06:26 16.03.2020
6489 Clouds -4 1020 85 10000 9 110 05:50 16.03.2020
6490 Clouds -5 1021 79 10000 2 30 02:46 16.03.2020
6491 Clouds -5 1021 85 10000 1 20 01:20 16.03.2020
6492 Clouds -5 1021 85 10000 3 350 00:40 16.03.2020
6493 Clouds -5 1021 85 10000 3 350 23:49 15.03.2020
6494 Clouds -5 1021 85 10000 2 20 23:21 15.03.2020
6495 Snow -6 1021 92 10000 1 10 22:56 15.03.2020
6496 Snow -6 1022 92 10000 1.79 1 22:37 15.03.2020
6497 Snow -6 1022 92 10000 1.79 1 22:19 15.03.2020
6498 Snow -6 1022 85 10000 2 290 21:39 15.03.2020
6499 Clouds -6 1021 92 10000 2 320 21:19 15.03.2020
6500 Snow -3 1020 79 10000 2 170 20:43 15.03.2020
6501 Snow -3 1020 79 10000 2 170 20:22 15.03.2020
6502 Snow -3 1020 79 10000 3 200 19:58 15.03.2020
6503 Snow -3 1020 79 10000 3 200 19:40 15.03.2020
6504 Snow -3 1020 79 10000 3 200 19:22 15.03.2020
6505 Clouds -3 1019 79 10000 6 180 18:56 15.03.2020
6506 Clouds -3 1019 79 10000 6 180 18:38 15.03.2020
6507 Clouds -3 1019 79 10000 6 180 18:20 15.03.2020
6508 Snow -3 1020 79 10000 7 170 17:41 15.03.2020
6509 Snow -3 1020 79 10000 7 170 17:22 15.03.2020
6510 Clouds -3 1020 79 10000 6 180 16:59 15.03.2020
6511 Clouds -3 1020 79 10000 6 180 16:40 15.03.2020
6512 Clouds -3 1020 79 10000 6 180 16:21 15.03.2020
6513 Clouds -3 1019 79 10000 8 170 15:54 15.03.2020
6514 Clouds -3 1019 79 10000 8 170 15:36 15.03.2020
6515 Clouds -3 1019 79 10000 8 170 15:18 15.03.2020
6516 Clear -3 1020 79 10000 7 160 14:39 15.03.2020
6517 Clear -3 1020 79 10000 7 160 14:21 15.03.2020
6518 Clouds -4 1020 85 10000 8 150 13:56 15.03.2020
6519 Clouds -4 1020 85 10000 8 150 13:37 15.03.2020
6520 Clouds -4 1020 85 10000 8 150 13:18 15.03.2020
6521 Clouds -3 1021 79 10000 10 140 12:40 15.03.2020
6522 Clouds -3 1021 79 10000 10 140 12:22 15.03.2020
6523 Clouds -5 1021 92 10000 8 150 11:44 15.03.2020
6524 Clouds -5 1021 92 10000 8 150 11:25 15.03.2020
6525 Snow -4 1021 85 7000 11 140 10:59 15.03.2020
6526 Snow -4 1021 85 7000 11 140 10:40 15.03.2020
6527 Snow -4 1021 85 7000 11 140 10:21 15.03.2020
6528 Snow -5 1022 92 9000 11 120 09:57 15.03.2020
6529 Snow -5 1022 92 9000 11 120 09:36 15.03.2020
6530 Snow -5 1022 92 9000 11 120 09:18 15.03.2020
6531 Clouds -5 1021 85 10000 11 130 08:41 15.03.2020
6532 Clouds -5 1021 85 10000 11 130 08:19 15.03.2020
6533 Clouds -5 1022 85 10000 13 120 07:45 15.03.2020
6534 Clouds -5 1022 85 10000 13 120 07:22 15.03.2020
6535 Clouds -5 1023 85 10000 14 110 06:43 15.03.2020
6536 Clouds -5 1023 92 10000 12 120 05:48 15.03.2020
6537 Clouds -4 1024 85 10000 12 120 04:56 15.03.2020
6538 Clouds -4 1024 85 10000 12 120 04:37 15.03.2020
6539 Clouds -4 1024 85 10000 12 120 04:18 15.03.2020
6540 Mist -5 1025 92 9000 11 130 02:54 15.03.2020
6541 Mist -5 1025 92 9000 11 130 02:22 15.03.2020
6542 Mist -6 1026 92 1000 14 120 00:58 15.03.2020
6543 Mist -6 1026 92 1000 14 120 00:40 15.03.2020
6544 Mist -6 1026 92 1000 14 120 00:19 15.03.2020
6545 Fog -6 1026 85 500 15 120 23:39 14.03.2020
6546 Fog -6 1026 85 500 15 120 23:20 14.03.2020
6547 Fog -7 1026 92 800 14 120 22:55 14.03.2020
6548 Fog -7 1026 92 800 14 120 22:37 14.03.2020
6549 Fog -7 1026 92 800 14 120 22:19 14.03.2020
6550 Mist -7 1026 92 1800 13 110 21:55 14.03.2020
6551 Mist -7 1026 92 1800 13 110 21:55 14.03.2020
6552 Mist -7 1026 92 1800 13 110 21:36 14.03.2020
6553 Mist -7 1026 92 1800 13 110 21:18 14.03.2020
6554 Clouds -6 1027 85 10000 13 110 20:55 14.03.2020
6555 Clouds -6 1027 85 10000 13 110 20:37 14.03.2020
6556 Clouds -6 1027 85 10000 13 110 20:18 14.03.2020
6557 Clouds -6 1026 79 10000 10 110 19:40 14.03.2020
6558 Clouds -6 1026 79 10000 10 110 19:20 14.03.2020
6559 Clouds -6 1026 73 10000 9 110 18:40 14.03.2020
6560 Clouds -5 1026 67 10000 6 120 18:20 14.03.2020
6561 Clouds -5 1026 67 10000 6 120 17:42 14.03.2020
6562 Clouds -5 1026 67 10000 6 120 17:23 14.03.2020
6563 Clear -6 1027 62 10000 6 140 16:58 14.03.2020
6564 Clear -6 1027 62 10000 6 140 16:38 14.03.2020
6565 Clear -6 1027 62 10000 6 140 16:19 14.03.2020
6566 Clear -7 1027 52 10000 3 120 15:44 14.03.2020
6567 Clear -7 1027 52 10000 3 120 15:22 14.03.2020
6568 Clear -8 1027 61 10000 6 170 14:40 14.03.2020
6569 Clear -8 1027 61 10000 6 170 14:21 14.03.2020
6570 Clear -8 1026 67 10000 6 180 13:57 14.03.2020
6571 Clear -8 1026 67 10000 6 180 13:38 14.03.2020
6572 Clear -8 1026 67 10000 6 180 13:19 14.03.2020
6573 Clear -9 1025 72 10000 4 170 12:44 14.03.2020
6574 Clear -9 1025 72 10000 4 170 12:25 14.03.2020
6575 Clear -9 1024 78 10000 4 170 11:46 14.03.2020
6576 Clear -9 1023 72 10000 4 160 11:26 14.03.2020
6577 Clear -9 1023 72 10000 4 160 10:57 14.03.2020
6578 Clear -9 1023 72 10000 4 160 10:38 14.03.2020
6579 Clear -9 1023 72 10000 4 160 10:20 14.03.2020
6580 Clear -9 1023 66 10000 4 170 09:41 14.03.2020
6581 Clear -9 1023 66 10000 4 170 09:22 14.03.2020
6582 Clear -9 1022 66 10000 5 170 08:47 14.03.2020
6583 Clear -9 1022 66 10000 5 170 08:47 14.03.2020
6584 Clear -9 1022 66 10000 5 170 08:27 14.03.2020
6585 Clouds -9 1021 66 10000 4 170 07:49 14.03.2020
6586 Clouds -9 1021 66 10000 4 170 07:23 14.03.2020
6587 Clouds -8 1020 85 10000 6 170 06:59 14.03.2020
6588 Clouds -8 1020 85 10000 6 170 06:39 14.03.2020
6589 Clouds -7 1018 79 10000 4 190 04:58 14.03.2020
6590 Clouds -6 1017 57 10000 1 200 03:42 14.03.2020
6591 Clouds -6 1017 57 10000 1 200 03:23 14.03.2020
6592 Clouds -6 1016 57 10000 3 340 02:19 14.03.2020
6593 Clouds -7 1015 67 10000 4 340 00:42 14.03.2020
6594 Clouds -7 1015 67 10000 6 330 23:45 13.03.2020
6595 Clouds -7 1015 67 10000 6 330 23:26 13.03.2020
6596 Snow -8 1014 78 9000 5 360 22:47 13.03.2020
6597 Snow -8 1014 78 9000 5 360 22:25 13.03.2020
6598 Clouds -8 1012 78 10000 7 350 21:43 13.03.2020
6599 Clouds -8 1012 78 10000 7 350 21:21 13.03.2020
6600 Snow -7 1011 73 10000 6 10 20:57 13.03.2020
6601 Snow -7 1011 73 10000 6 10 20:38 13.03.2020
6602 Snow -7 1011 73 10000 6 10 20:19 13.03.2020
6603 Clouds -7 1010 73 10000 5 10 19:45 13.03.2020
6604 Clouds -7 1010 73 10000 5 10 19:27 13.03.2020
6605 Snow -6 1009 79 10000 5 350 18:47 13.03.2020
6606 Snow -6 1009 79 10000 5 350 18:28 13.03.2020
6607 Clouds -4 1008 79 10000 2 220 17:57 13.03.2020
6608 Clouds -4 1008 79 10000 2 220 17:37 13.03.2020
6609 Clouds -4 1006 79 10000 6 170 17:18 13.03.2020
6610 Clouds -4 1006 79 10000 6 170 16:41 13.03.2020
6611 Clouds -4 1006 79 10000 6 170 16:23 13.03.2020
6612 Clouds -2 1005 74 10000 8 170 15:55 13.03.2020
6613 Clouds -2 1005 74 10000 8 170 15:37 13.03.2020
6614 Clouds -2 1005 74 10000 8 170 15:18 13.03.2020
6615 Clouds -3 1004 73 10000 7 170 14:41 13.03.2020
6616 Clouds -3 1004 73 10000 7 170 14:22 13.03.2020
6617 Clouds -2 1003 74 10000 8 170 13:56 13.03.2020
6618 Clouds -2 1003 74 10000 8 170 13:37 13.03.2020
6619 Clouds -2 1003 74 10000 8 170 13:18 13.03.2020
6620 Clouds -2 1002 68 10000 10 170 12:40 13.03.2020
6621 Clouds -2 1001 79 10000 8 170 12:21 13.03.2020
6622 Clouds -3 1001 79 10000 8 170 11:57 13.03.2020
6623 Clouds -3 1001 79 10000 8 170 11:38 13.03.2020
6624 Clouds -3 1000 79 10000 8 160 11:19 13.03.2020
6625 Clouds -2 1000 79 10000 8 160 10:47 13.03.2020
6626 Clouds -1 999 74 10000 9 160 10:27 13.03.2020
6627 Clouds 0 999 79 10000 10 160 09:57 13.03.2020
6628 Clouds -1 998 80 10000 7 170 09:38 13.03.2020
6629 Clouds -1 998 80 10000 7 170 09:20 13.03.2020
6630 Clouds -1 998 86 10000 7 170 08:44 13.03.2020
6631 Clouds 0 997 79 10000 8 170 08:22 13.03.2020
6632 Clouds 0 997 75 10000 7 170 07:47 13.03.2020
6633 Clouds -1 996 92 10000 9 160 07:28 13.03.2020
6634 Clouds 0 995 75 10000 10 170 06:47 13.03.2020
6635 Clouds 0 995 75 10000 10 170 06:28 13.03.2020
6636 Clouds 0 995 80 10000 10 160 05:53 13.03.2020
6637 Clouds 1 995 80 10000 11 160 05:20 13.03.2020
6638 Clouds 1 995 80 10000 12 160 04:37 13.03.2020
6639 Clouds 1 994 80 10000 11 170 03:31 13.03.2020
6640 Clouds 2 994 74 10000 12 170 01:45 13.03.2020
6641 Clouds 2 994 74 10000 12 170 01:19 13.03.2020
6642 Clouds 2 992 74 10000 15 160 00:47 13.03.2020
6643 Clouds 2 993 74 10000 11 150 00:24 13.03.2020
6644 Clouds 3 991 69 10000 14 140 23:48 12.03.2020
6645 Clouds 3 991 69 10000 14 140 23:26 12.03.2020
6646 Clouds 3 992 74 10000 13 140 22:56 12.03.2020
6647 Clouds 2 992 74 10000 13 140 22:38 12.03.2020
6648 Clouds 2 992 74 10000 13 140 22:19 12.03.2020
6649 Clouds 2 992 80 10000 16 150 21:43 12.03.2020
6650 Clouds 2 991 80 10000 17 150 21:25 12.03.2020
6651 Clouds 2 991 80 10000 17 150 21:25 12.03.2020
6652 Clouds 2 992 80 10000 13 150 20:57 12.03.2020
6653 Clouds 2 992 80 10000 13 150 20:37 12.03.2020
6654 Clouds 2 992 80 10000 13 150 20:18 12.03.2020
6655 Clouds 2 992 80 10000 15 140 19:39 12.03.2020
6656 Clouds 2 992 80 10000 15 140 19:20 12.03.2020
6657 Snow 1 991 86 2700 15 150 18:44 12.03.2020
6658 Snow 1 991 86 2700 15 150 18:24 12.03.2020
6659 Snow 0 992 88 1100 18 130 17:57 12.03.2020
6660 Snow 0 992 88 1100 18 130 17:38 12.03.2020
6661 Snow 0 992 88 1100 18 130 17:38 12.03.2020
6662 Snow 0 992 90 650 19 140 17:19 12.03.2020
6663 Snow 0 992 90 650 19 140 16:55 12.03.2020
6664 Snow 0 992 90 650 19 140 16:37 12.03.2020
6665 Snow 0 992 90 650 19 140 16:18 12.03.2020
6666 Clouds -1 995 100 500 20 140 15:44 12.03.2020
6667 Clouds -1 995 100 500 20 140 15:26 12.03.2020
6668 Clouds -1 996 92 400 20 140 14:40 12.03.2020
6669 Clouds -1 996 92 400 20 140 14:21 12.03.2020
6670 Clouds -1 998 92 400 20 140 13:56 12.03.2020
6671 Clouds -1 998 92 400 20 140 13:36 12.03.2020
6672 Clouds -1 998 92 400 20 140 13:18 12.03.2020
6673 Clouds -1 999 92 400 21 150 12:41 12.03.2020
6674 Clouds -1 999 92 400 21 150 12:21 12.03.2020
6675 Clouds -1 1000 92 200 23 150 11:56 12.03.2020
6676 Clouds -1 1000 92 200 23 150 11:38 12.03.2020
6677 Clouds -1 1002 92 200 21 140 11:19 12.03.2020
6678 Clouds -2 1002 92 200 21 140 10:58 12.03.2020
6679 Clouds -2 1002 92 200 21 140 10:40 12.03.2020
6680 Clouds -2 1002 92 200 21 140 10:22 12.03.2020
6681 Clouds -2 1004 92 100 23 140 09:46 12.03.2020
6682 Clouds -2 1004 92 100 23 140 09:25 12.03.2020
6683 Clouds -3 1007 92 100 20 130 08:44 12.03.2020
6684 Clouds -3 1007 92 100 20 130 08:20 12.03.2020
6685 Clouds -7 1009 85 50 19 110 07:56 12.03.2020
6686 Clouds -7 1009 85 50 19 110 07:38 12.03.2020
6687 Clouds -7 1009 85 50 19 110 07:20 12.03.2020
6688 Clouds -11 1014 92 150 19 110 05:48 12.03.2020
6689 Clouds -10 1014 92 150 19 110 05:25 12.03.2020
6690 Clouds -12 1019 85 200 16 100 02:41 12.03.2020
6691 Snow -14 1022 84 700 12 80 01:31 12.03.2020
6692 Snow -15 1023 84 600 13 90 00:47 12.03.2020
6693 Snow -15 1025 84 3400 9 100 00:27 12.03.2020
6694 Clouds -14 1026 77 10000 7 100 23:47 11.03.2020
6695 Clouds -14 1026 77 10000 7 100 23:25 11.03.2020
6696 Fog -23 1026 83 10000 1 160 22:48 11.03.2020
6697 Mist -24 1026 83 3500 2 230 22:30 11.03.2020
6698 Mist -25 1027 75 5000 2 200 21:59 11.03.2020
6699 Mist -25 1027 75 5000 2 200 21:41 11.03.2020
6700 Mist -25 1027 83 8000 3 200 21:22 11.03.2020
6701 Mist -26 1027 75 2100 4.56 109 20:58 11.03.2020
6702 Mist -26 1027 75 2100 4.56 109 20:39 11.03.2020
6703 Mist -26 1027 75 2100 1.17 105 20:20 11.03.2020
6704 Clouds -28 1027 82 10000 2 360 19:44 11.03.2020
6705 Clouds -28 1027 82 10000 2 360 19:26 11.03.2020
6706 Clouds -28 1027 75 10000 3 320 18:59 11.03.2020
6707 Clouds -28 1027 75 10000 3 320 18:40 11.03.2020
6708 Clouds -28 1027 75 10000 3 320 18:22 11.03.2020
6709 Clouds -27 1027 75 10000 2 320 17:59 11.03.2020
6710 Clouds -27 1027 75 10000 2 320 17:39 11.03.2020
6711 Clouds -27 1027 75 10000 4 340 17:20 11.03.2020
6712 Clouds -27 1027 75 10000 4 340 16:47 11.03.2020
6713 Clouds -27 1027 75 10000 4 340 16:23 11.03.2020
6714 Snow -27 1026 75 8000 5 350 15:59 11.03.2020
6715 Snow -27 1026 75 8000 5 350 15:40 11.03.2020
6716 Snow -27 1026 75 8000 5 350 15:22 11.03.2020
6717 Clouds -27 1027 75 10000 4 340 14:42 11.03.2020
6718 Clouds -27 1027 75 10000 4 340 14:23 11.03.2020
6719 Clouds -27 1027 75 10000 4 340 14:23 11.03.2020
6720 Clouds -27 1026 75 10000 4 360 13:56 11.03.2020
6721 Clouds -27 1026 75 10000 4 360 13:37 11.03.2020
6722 Clouds -27 1026 75 10000 4 360 13:19 11.03.2020
6723 Snow -26 1026 75 10000 3 10 12:40 11.03.2020
6724 Snow -26 1026 75 10000 3 10 12:20 11.03.2020
6725 Snow -27 1026 75 9000 3 360 11:55 11.03.2020
6726 Clouds -27 1026 82 10000 4 340 11:37 11.03.2020
6727 Clouds -27 1026 82 10000 4 340 11:18 11.03.2020
6728 Snow -26 1025 75 10000 4 340 10:42 11.03.2020
6729 Snow -26 1025 83 2900 4 340 10:18 11.03.2020
6730 Snow -25 1024 75 1800 5 340 09:43 11.03.2020
6731 Snow -24 1024 76 2300 4 340 09:25 11.03.2020
6732 Snow -24 1024 76 2000 4 330 08:58 11.03.2020
6733 Snow -24 1024 76 2000 4 330 08:39 11.03.2020
6734 Snow -24 1024 76 6000 3 330 08:18 11.03.2020
6735 Snow -24 1023 76 2300 3 330 07:42 11.03.2020
6736 Snow -25 1023 83 3200 3 330 07:19 11.03.2020
6737 Snow -25 1023 83 5000 4 330 06:43 11.03.2020
6738 Snow -25 1022 75 5000 4 330 05:36 11.03.2020
6739 -273 0 0 0 0 0 04:31 11.03.2020
6740 Clouds -26 1020 75 10000 4 340 02:20 11.03.2020
6741 Clouds -26 1020 75 10000 4 350 01:27 11.03.2020
6742 Clouds -27 1020 82 10000 5 350 00:46 11.03.2020
6743 Clouds -25 1019 75 10000 4 360 23:58 10.03.2020
6744 Clouds -27 1019 75 10000 3 330 23:40 10.03.2020
6745 Clouds -28 1019 75 10000 3 330 23:21 10.03.2020
6746 Clouds -27 1018 75 10000 4 350 22:39 10.03.2020
6747 Clouds -27 1018 75 10000 4 350 22:20 10.03.2020
6748 Clouds -27 1018 75 10000 4 350 22:20 10.03.2020
6749 Clouds -26 1018 75 10000 4 360 21:57 10.03.2020
6750 Clouds -26 1018 75 10000 4 360 21:57 10.03.2020
6751 Clouds -26 1018 75 10000 5 360 21:38 10.03.2020
6752 Clouds -27 1018 75 10000 5 360 21:20 10.03.2020
6753 Clouds -29 1018 75 10000 3 350 20:59 10.03.2020
6754 Clouds -29 1018 75 10000 3 350 20:41 10.03.2020
6755 Clouds -29 1018 75 10000 3 350 20:18 10.03.2020
6756 Clouds -27 1017 75 10000 4 350 19:56 10.03.2020
6757 Clouds -27 1017 75 10000 4 350 19:37 10.03.2020
6758 Clouds -27 1017 75 10000 4 350 19:19 10.03.2020
6759 Clouds -28 1017 82 10000 3 360 18:44 10.03.2020
6760 Clouds -28 1017 82 10000 3 360 18:26 10.03.2020
6761 Clouds -27 1016 75 10000 4 360 17:57 10.03.2020
6762 Clouds -27 1016 75 10000 4 360 17:39 10.03.2020
6763 Clouds -27 1016 75 10000 4 360 17:39 10.03.2020
6764 Clouds -27 1016 75 10000 4 360 17:21 10.03.2020
6765 Clouds -27 1016 75 10000 3 360 16:39 10.03.2020
6766 Clouds -27 1016 75 10000 3 360 16:19 10.03.2020
6767 Clouds -27 1016 75 10000 3 360 15:56 10.03.2020
6768 Clouds -27 1016